<?xml version="1.0" encoding="UTF-8" standalone="no" ?>
<gpx xmlns="http://www.topografix.com/GPX/1/1" xmlns:gpxtpx="http://www.garmin.com/xmlschemas/TrackPointExtension/v1" creator="OruxMaps v.7.0.2" version="1.1" xmlns:xsi="http://www.w3.org/2001/XMLSchema-instance" xsi:schemaLocation="http://www.topografix.com/GPX/1/1 http://www.topografix.com/GPX/1/1/gpx.xsd">
<metadata>
<name><![CDATA[Puig d'Inca Mallorca 19.10.2016]]></name>
<link href="http://www.oruxmaps.com">
<text>OruxMaps</text>
</link>
<time>2016-10-19T07:16:57Z</time><bounds maxlat="39.7787030" maxlon="3.1503866" minlat="39.6478499" minlon="2.6995755"/>
</metadata>
<trk>
<name><![CDATA[Puig d'Inca Mallorca 19.10.2016]]></name>
<desc><![CDATA[<p>Startzeit: 10/19/2016 09:16<br/>Zielzeit: 10/19/2016 16:56<br/>Strecke: 111,2 km (07:39)<br/>Bewegungszeit: 05:11<br/>Ø-Geschwindigkeit: 14,52 km/h<br/>Netto-Geschwindigkeit: 21,42 km/h<br/>Max. Geschwindigkeit: 51,77 km/h<br/>Minimale Höhe: -7 m<br/>Maximale Höhe: 568 m<br/>Steig-Geschw.: 644,4 m/h<br/>Sink-Geschw.: -738,4 m/h<br/>Aufstieg: 1978 m<br/>Abstieg: -1979 m<br/>Steigzeit: 03:04<br/>Sinkzeit: 02:40<br/></p><hr align="center" width="480" style="height: 2px; width: 517px"/>]]></desc>
<type>Fahrrad/ Strasse</type>
<extensions>
<om:oruxmapsextensions xmlns:om="http://www.oruxmaps.com/oruxmapsextensions/1/0">
<om:ext type="TYPE" subtype="0">8</om:ext>
<om:ext type="DIFFICULTY">0</om:ext>
</om:oruxmapsextensions>
</extensions>
<trkseg>
<trkpt lat="39.7656041" lon="3.1480793">
<ele>1.44</ele>
<time>2016-10-19T07:16:57Z</time>
</trkpt>
<trkpt lat="39.7655791" lon="3.1483118">
<ele>13.09</ele>
<time>2016-10-19T07:18:37Z</time>
</trkpt>
<trkpt lat="39.7654286" lon="3.1484510">
<ele>13.74</ele>
<time>2016-10-19T07:18:43Z</time>
</trkpt>
<trkpt lat="39.7653187" lon="3.1486581">
<ele>14.17</ele>
<time>2016-10-19T07:18:49Z</time>
</trkpt>
<trkpt lat="39.7654939" lon="3.1485536">
<ele>14.58</ele>
<time>2016-10-19T07:18:57Z</time>
</trkpt>
<trkpt lat="39.7656297" lon="3.1483914">
<ele>14.76</ele>
<time>2016-10-19T07:19:01Z</time>
</trkpt>
<trkpt lat="39.7657847" lon="3.1482279">
<ele>14.39</ele>
<time>2016-10-19T07:19:05Z</time>
</trkpt>
<trkpt lat="39.7659498" lon="3.1480521">
<ele>14.07</ele>
<time>2016-10-19T07:19:09Z</time>
</trkpt>
<trkpt lat="39.7661236" lon="3.1478750">
<ele>14.50</ele>
<time>2016-10-19T07:19:13Z</time>
</trkpt>
<trkpt lat="39.7662619" lon="3.1477218">
<ele>14.33</ele>
<time>2016-10-19T07:19:16Z</time>
</trkpt>
<trkpt lat="39.7664341" lon="3.1475494">
<ele>13.65</ele>
<time>2016-10-19T07:19:20Z</time>
</trkpt>
<trkpt lat="39.7665888" lon="3.1473812">
<ele>14.55</ele>
<time>2016-10-19T07:19:24Z</time>
</trkpt>
<trkpt lat="39.7667363" lon="3.1472270">
<ele>14.76</ele>
<time>2016-10-19T07:19:27Z</time>
</trkpt>
<trkpt lat="39.7669095" lon="3.1470472">
<ele>14.86</ele>
<time>2016-10-19T07:19:31Z</time>
</trkpt>
<trkpt lat="39.7670692" lon="3.1468755">
<ele>15.87</ele>
<time>2016-10-19T07:19:35Z</time>
</trkpt>
<trkpt lat="39.7672419" lon="3.1466956">
<ele>15.83</ele>
<time>2016-10-19T07:19:39Z</time>
</trkpt>
<trkpt lat="39.7673833" lon="3.1465291">
<ele>16.57</ele>
<time>2016-10-19T07:19:43Z</time>
</trkpt>
<trkpt lat="39.7675458" lon="3.1463612">
<ele>18.45</ele>
<time>2016-10-19T07:19:47Z</time>
</trkpt>
<trkpt lat="39.7677201" lon="3.1461911">
<ele>18.02</ele>
<time>2016-10-19T07:19:51Z</time>
</trkpt>
<trkpt lat="39.7678767" lon="3.1460659">
<ele>16.95</ele>
<time>2016-10-19T07:19:54Z</time>
</trkpt>
<trkpt lat="39.7679947" lon="3.1458852">
<ele>15.29</ele>
<time>2016-10-19T07:19:57Z</time>
</trkpt>
<trkpt lat="39.7681323" lon="3.1457305">
<ele>14.42</ele>
<time>2016-10-19T07:20:00Z</time>
</trkpt>
<trkpt lat="39.7682911" lon="3.1455611">
<ele>14.77</ele>
<time>2016-10-19T07:20:03Z</time>
</trkpt>
<trkpt lat="39.7684397" lon="3.1454106">
<ele>14.57</ele>
<time>2016-10-19T07:20:06Z</time>
</trkpt>
<trkpt lat="39.7685782" lon="3.1452490">
<ele>14.69</ele>
<time>2016-10-19T07:20:09Z</time>
</trkpt>
<trkpt lat="39.7687632" lon="3.1450495">
<ele>16.07</ele>
<time>2016-10-19T07:20:13Z</time>
</trkpt>
<trkpt lat="39.7689145" lon="3.1448902">
<ele>16.54</ele>
<time>2016-10-19T07:20:16Z</time>
</trkpt>
<trkpt lat="39.7690606" lon="3.1447418">
<ele>15.92</ele>
<time>2016-10-19T07:20:19Z</time>
</trkpt>
<trkpt lat="39.7692054" lon="3.1445896">
<ele>14.10</ele>
<time>2016-10-19T07:20:22Z</time>
</trkpt>
<trkpt lat="39.7693513" lon="3.1444367">
<ele>13.03</ele>
<time>2016-10-19T07:20:25Z</time>
</trkpt>
<trkpt lat="39.7695112" lon="3.1442831">
<ele>12.45</ele>
<time>2016-10-19T07:20:28Z</time>
</trkpt>
<trkpt lat="39.7696543" lon="3.1441391">
<ele>11.84</ele>
<time>2016-10-19T07:20:31Z</time>
</trkpt>
<trkpt lat="39.7697940" lon="3.1439906">
<ele>11.00</ele>
<time>2016-10-19T07:20:34Z</time>
</trkpt>
<trkpt lat="39.7699437" lon="3.1438361">
<ele>10.97</ele>
<time>2016-10-19T07:20:37Z</time>
</trkpt>
<trkpt lat="39.7701217" lon="3.1436263">
<ele>10.58</ele>
<time>2016-10-19T07:20:41Z</time>
</trkpt>
<trkpt lat="39.7703086" lon="3.1434359">
<ele>9.12</ele>
<time>2016-10-19T07:20:45Z</time>
</trkpt>
<trkpt lat="39.7705013" lon="3.1432497">
<ele>9.57</ele>
<time>2016-10-19T07:20:49Z</time>
</trkpt>
<trkpt lat="39.7706478" lon="3.1430984">
<ele>9.02</ele>
<time>2016-10-19T07:20:52Z</time>
</trkpt>
<trkpt lat="39.7707886" lon="3.1429469">
<ele>7.87</ele>
<time>2016-10-19T07:20:55Z</time>
</trkpt>
<trkpt lat="39.7709470" lon="3.1427790">
<ele>5.91</ele>
<time>2016-10-19T07:20:58Z</time>
</trkpt>
<trkpt lat="39.7710855" lon="3.1426259">
<ele>4.66</ele>
<time>2016-10-19T07:21:01Z</time>
</trkpt>
<trkpt lat="39.7712362" lon="3.1424689">
<ele>4.80</ele>
<time>2016-10-19T07:21:05Z</time>
</trkpt>
<trkpt lat="39.7714344" lon="3.1424116">
<ele>5.21</ele>
<time>2016-10-19T07:21:09Z</time>
</trkpt>
<trkpt lat="39.7715826" lon="3.1422108">
<ele>6.71</ele>
<time>2016-10-19T07:21:14Z</time>
</trkpt>
<trkpt lat="39.7714765" lon="3.1420116">
<ele>7.23</ele>
<time>2016-10-19T07:21:18Z</time>
</trkpt>
<trkpt lat="39.7713218" lon="3.1418536">
<ele>6.54</ele>
<time>2016-10-19T07:21:21Z</time>
</trkpt>
<trkpt lat="39.7712252" lon="3.1416356">
<ele>5.26</ele>
<time>2016-10-19T07:21:24Z</time>
</trkpt>
<trkpt lat="39.7711293" lon="3.1413911">
<ele>3.52</ele>
<time>2016-10-19T07:21:27Z</time>
</trkpt>
<trkpt lat="39.7710411" lon="3.1411617">
<ele>0.71</ele>
<time>2016-10-19T07:21:30Z</time>
</trkpt>
<trkpt lat="39.7710001" lon="3.1409186">
<ele>-0.93</ele>
<time>2016-10-19T07:21:34Z</time>
</trkpt>
<trkpt lat="39.7709398" lon="3.1406682">
<ele>-1.83</ele>
<time>2016-10-19T07:21:38Z</time>
</trkpt>
<trkpt lat="39.7708028" lon="3.1404492">
<ele>-1.12</ele>
<time>2016-10-19T07:21:42Z</time>
</trkpt>
<trkpt lat="39.7707173" lon="3.1402258">
<ele>0.43</ele>
<time>2016-10-19T07:21:46Z</time>
</trkpt>
<trkpt lat="39.7706617" lon="3.1399551">
<ele>0.31</ele>
<time>2016-10-19T07:21:50Z</time>
</trkpt>
<trkpt lat="39.7706270" lon="3.1396868">
<ele>0.79</ele>
<time>2016-10-19T07:21:54Z</time>
</trkpt>
<trkpt lat="39.7705956" lon="3.1394122">
<ele>3.09</ele>
<time>2016-10-19T07:21:58Z</time>
</trkpt>
<trkpt lat="39.7705408" lon="3.1391358">
<ele>4.59</ele>
<time>2016-10-19T07:22:02Z</time>
</trkpt>
<trkpt lat="39.7704666" lon="3.1388819">
<ele>5.55</ele>
<time>2016-10-19T07:22:06Z</time>
</trkpt>
<trkpt lat="39.7703742" lon="3.1386427">
<ele>6.06</ele>
<time>2016-10-19T07:22:10Z</time>
</trkpt>
<trkpt lat="39.7702732" lon="3.1384167">
<ele>9.40</ele>
<time>2016-10-19T07:22:14Z</time>
</trkpt>
<trkpt lat="39.7701652" lon="3.1382095">
<ele>12.09</ele>
<time>2016-10-19T07:22:18Z</time>
</trkpt>
<trkpt lat="39.7700588" lon="3.1379944">
<ele>12.05</ele>
<time>2016-10-19T07:22:22Z</time>
</trkpt>
<trkpt lat="39.7699516" lon="3.1377721">
<ele>11.83</ele>
<time>2016-10-19T07:22:26Z</time>
</trkpt>
<trkpt lat="39.7698269" lon="3.1375472">
<ele>12.51</ele>
<time>2016-10-19T07:22:30Z</time>
</trkpt>
<trkpt lat="39.7696997" lon="3.1373620">
<ele>12.81</ele>
<time>2016-10-19T07:22:33Z</time>
</trkpt>
<trkpt lat="39.7695533" lon="3.1371696">
<ele>13.93</ele>
<time>2016-10-19T07:22:36Z</time>
</trkpt>
<trkpt lat="39.7693849" lon="3.1369537">
<ele>12.83</ele>
<time>2016-10-19T07:22:39Z</time>
</trkpt>
<trkpt lat="39.7692221" lon="3.1367162">
<ele>10.74</ele>
<time>2016-10-19T07:22:42Z</time>
</trkpt>
<trkpt lat="39.7690494" lon="3.1364923">
<ele>8.41</ele>
<time>2016-10-19T07:22:45Z</time>
</trkpt>
<trkpt lat="39.7688732" lon="3.1362748">
<ele>6.09</ele>
<time>2016-10-19T07:22:48Z</time>
</trkpt>
<trkpt lat="39.7686911" lon="3.1360505">
<ele>6.55</ele>
<time>2016-10-19T07:22:51Z</time>
</trkpt>
<trkpt lat="39.7685297" lon="3.1358466">
<ele>6.84</ele>
<time>2016-10-19T07:22:54Z</time>
</trkpt>
<trkpt lat="39.7683886" lon="3.1356452">
<ele>6.17</ele>
<time>2016-10-19T07:22:57Z</time>
</trkpt>
<trkpt lat="39.7682354" lon="3.1354485">
<ele>5.99</ele>
<time>2016-10-19T07:23:00Z</time>
</trkpt>
<trkpt lat="39.7680977" lon="3.1352658">
<ele>6.34</ele>
<time>2016-10-19T07:23:03Z</time>
</trkpt>
<trkpt lat="39.7679655" lon="3.1350947">
<ele>7.71</ele>
<time>2016-10-19T07:23:06Z</time>
</trkpt>
<trkpt lat="39.7678202" lon="3.1349147">
<ele>8.89</ele>
<time>2016-10-19T07:23:09Z</time>
</trkpt>
<trkpt lat="39.7676825" lon="3.1347434">
<ele>9.32</ele>
<time>2016-10-19T07:23:12Z</time>
</trkpt>
<trkpt lat="39.7675323" lon="3.1345609">
<ele>9.36</ele>
<time>2016-10-19T07:23:15Z</time>
</trkpt>
<trkpt lat="39.7673832" lon="3.1343692">
<ele>8.73</ele>
<time>2016-10-19T07:23:18Z</time>
</trkpt>
<trkpt lat="39.7672393" lon="3.1341838">
<ele>7.54</ele>
<time>2016-10-19T07:23:21Z</time>
</trkpt>
<trkpt lat="39.7671115" lon="3.1340048">
<ele>7.22</ele>
<time>2016-10-19T07:23:24Z</time>
</trkpt>
<trkpt lat="39.7669791" lon="3.1338394">
<ele>7.59</ele>
<time>2016-10-19T07:23:27Z</time>
</trkpt>
<trkpt lat="39.7668453" lon="3.1336706">
<ele>8.18</ele>
<time>2016-10-19T07:23:30Z</time>
</trkpt>
<trkpt lat="39.7666990" lon="3.1334497">
<ele>7.84</ele>
<time>2016-10-19T07:23:34Z</time>
</trkpt>
<trkpt lat="39.7665432" lon="3.1332372">
<ele>6.67</ele>
<time>2016-10-19T07:23:38Z</time>
</trkpt>
<trkpt lat="39.7663974" lon="3.1330478">
<ele>6.36</ele>
<time>2016-10-19T07:23:42Z</time>
</trkpt>
<trkpt lat="39.7662275" lon="3.1328468">
<ele>5.63</ele>
<time>2016-10-19T07:23:46Z</time>
</trkpt>
<trkpt lat="39.7660636" lon="3.1326434">
<ele>6.95</ele>
<time>2016-10-19T07:23:50Z</time>
</trkpt>
<trkpt lat="39.7659266" lon="3.1324811">
<ele>7.44</ele>
<time>2016-10-19T07:23:53Z</time>
</trkpt>
<trkpt lat="39.7657927" lon="3.1323034">
<ele>7.14</ele>
<time>2016-10-19T07:23:56Z</time>
</trkpt>
<trkpt lat="39.7656210" lon="3.1320819">
<ele>7.13</ele>
<time>2016-10-19T07:24:00Z</time>
</trkpt>
<trkpt lat="39.7654841" lon="3.1319153">
<ele>7.90</ele>
<time>2016-10-19T07:24:03Z</time>
</trkpt>
<trkpt lat="39.7653095" lon="3.1317187">
<ele>11.59</ele>
<time>2016-10-19T07:24:07Z</time>
</trkpt>
<trkpt lat="39.7651418" lon="3.1315346">
<ele>14.24</ele>
<time>2016-10-19T07:24:11Z</time>
</trkpt>
<trkpt lat="39.7649876" lon="3.1313791">
<ele>15.61</ele>
<time>2016-10-19T07:24:14Z</time>
</trkpt>
<trkpt lat="39.7648334" lon="3.1312066">
<ele>15.54</ele>
<time>2016-10-19T07:24:17Z</time>
</trkpt>
<trkpt lat="39.7646956" lon="3.1310533">
<ele>15.07</ele>
<time>2016-10-19T07:24:20Z</time>
</trkpt>
<trkpt lat="39.7645437" lon="3.1308765">
<ele>14.63</ele>
<time>2016-10-19T07:24:23Z</time>
</trkpt>
<trkpt lat="39.7643901" lon="3.1306997">
<ele>14.17</ele>
<time>2016-10-19T07:24:26Z</time>
</trkpt>
<trkpt lat="39.7642349" lon="3.1305165">
<ele>14.34</ele>
<time>2016-10-19T07:24:29Z</time>
</trkpt>
<trkpt lat="39.7640898" lon="3.1303166">
<ele>14.32</ele>
<time>2016-10-19T07:24:32Z</time>
</trkpt>
<trkpt lat="39.7639643" lon="3.1301043">
<ele>13.54</ele>
<time>2016-10-19T07:24:35Z</time>
</trkpt>
<trkpt lat="39.7638396" lon="3.1298712">
<ele>12.38</ele>
<time>2016-10-19T07:24:38Z</time>
</trkpt>
<trkpt lat="39.7637228" lon="3.1296315">
<ele>11.26</ele>
<time>2016-10-19T07:24:41Z</time>
</trkpt>
<trkpt lat="39.7636155" lon="3.1294036">
<ele>10.62</ele>
<time>2016-10-19T07:24:44Z</time>
</trkpt>
<trkpt lat="39.7635086" lon="3.1291776">
<ele>10.46</ele>
<time>2016-10-19T07:24:47Z</time>
</trkpt>
<trkpt lat="39.7633948" lon="3.1289337">
<ele>10.19</ele>
<time>2016-10-19T07:24:50Z</time>
</trkpt>
<trkpt lat="39.7632801" lon="3.1286883">
<ele>9.67</ele>
<time>2016-10-19T07:24:53Z</time>
</trkpt>
<trkpt lat="39.7631692" lon="3.1284467">
<ele>8.89</ele>
<time>2016-10-19T07:24:56Z</time>
</trkpt>
<trkpt lat="39.7630644" lon="3.1282156">
<ele>8.54</ele>
<time>2016-10-19T07:24:59Z</time>
</trkpt>
<trkpt lat="39.7629470" lon="3.1279932">
<ele>8.22</ele>
<time>2016-10-19T07:25:02Z</time>
</trkpt>
<trkpt lat="39.7628200" lon="3.1277953">
<ele>8.15</ele>
<time>2016-10-19T07:25:05Z</time>
</trkpt>
<trkpt lat="39.7626806" lon="3.1276257">
<ele>8.83</ele>
<time>2016-10-19T07:25:08Z</time>
</trkpt>
<trkpt lat="39.7625249" lon="3.1274704">
<ele>10.40</ele>
<time>2016-10-19T07:25:11Z</time>
</trkpt>
<trkpt lat="39.7623787" lon="3.1273273">
<ele>10.94</ele>
<time>2016-10-19T07:25:14Z</time>
</trkpt>
<trkpt lat="39.7622178" lon="3.1271586">
<ele>11.31</ele>
<time>2016-10-19T07:25:17Z</time>
</trkpt>
<trkpt lat="39.7620700" lon="3.1269796">
<ele>11.78</ele>
<time>2016-10-19T07:25:20Z</time>
</trkpt>
<trkpt lat="39.7619417" lon="3.1267912">
<ele>10.42</ele>
<time>2016-10-19T07:25:23Z</time>
</trkpt>
<trkpt lat="39.7618441" lon="3.1265660">
<ele>9.12</ele>
<time>2016-10-19T07:25:26Z</time>
</trkpt>
<trkpt lat="39.7617822" lon="3.1263150">
<ele>8.40</ele>
<time>2016-10-19T07:25:29Z</time>
</trkpt>
<trkpt lat="39.7617500" lon="3.1260815">
<ele>8.97</ele>
<time>2016-10-19T07:25:32Z</time>
</trkpt>
<trkpt lat="39.7617326" lon="3.1258395">
<ele>9.15</ele>
<time>2016-10-19T07:25:35Z</time>
</trkpt>
<trkpt lat="39.7617185" lon="3.1255606">
<ele>9.86</ele>
<time>2016-10-19T07:25:39Z</time>
</trkpt>
<trkpt lat="39.7616854" lon="3.1252970">
<ele>12.69</ele>
<time>2016-10-19T07:25:43Z</time>
</trkpt>
<trkpt lat="39.7616239" lon="3.1250218">
<ele>14.58</ele>
<time>2016-10-19T07:25:48Z</time>
</trkpt>
<trkpt lat="39.7615305" lon="3.1247518">
<ele>13.48</ele>
<time>2016-10-19T07:25:52Z</time>
</trkpt>
<trkpt lat="39.7614545" lon="3.1245255">
<ele>12.68</ele>
<time>2016-10-19T07:25:55Z</time>
</trkpt>
<trkpt lat="39.7613799" lon="3.1242960">
<ele>12.74</ele>
<time>2016-10-19T07:25:58Z</time>
</trkpt>
<trkpt lat="39.7612889" lon="3.1240335">
<ele>12.95</ele>
<time>2016-10-19T07:26:02Z</time>
</trkpt>
<trkpt lat="39.7612123" lon="3.1238187">
<ele>13.28</ele>
<time>2016-10-19T07:26:05Z</time>
</trkpt>
<trkpt lat="39.7611266" lon="3.1235569">
<ele>13.84</ele>
<time>2016-10-19T07:26:09Z</time>
</trkpt>
<trkpt lat="39.7610575" lon="3.1233219">
<ele>15.66</ele>
<time>2016-10-19T07:26:13Z</time>
</trkpt>
<trkpt lat="39.7609772" lon="3.1230609">
<ele>14.62</ele>
<time>2016-10-19T07:26:17Z</time>
</trkpt>
<trkpt lat="39.7609002" lon="3.1228057">
<ele>14.04</ele>
<time>2016-10-19T07:26:21Z</time>
</trkpt>
<trkpt lat="39.7608260" lon="3.1225794">
<ele>14.04</ele>
<time>2016-10-19T07:26:25Z</time>
</trkpt>
<trkpt lat="39.7607367" lon="3.1223087">
<ele>16.87</ele>
<time>2016-10-19T07:26:30Z</time>
</trkpt>
<trkpt lat="39.7606769" lon="3.1220695">
<ele>18.20</ele>
<time>2016-10-19T07:26:34Z</time>
</trkpt>
<trkpt lat="39.7606301" lon="3.1217783">
<ele>19.61</ele>
<time>2016-10-19T07:26:39Z</time>
</trkpt>
<trkpt lat="39.7605862" lon="3.1214947">
<ele>19.82</ele>
<time>2016-10-19T07:26:43Z</time>
</trkpt>
<trkpt lat="39.7605213" lon="3.1212036">
<ele>19.52</ele>
<time>2016-10-19T07:26:47Z</time>
</trkpt>
<trkpt lat="39.7603988" lon="3.1209332">
<ele>20.08</ele>
<time>2016-10-19T07:26:51Z</time>
</trkpt>
<trkpt lat="39.7602731" lon="3.1207360">
<ele>20.21</ele>
<time>2016-10-19T07:26:54Z</time>
</trkpt>
<trkpt lat="39.7601412" lon="3.1204967">
<ele>20.70</ele>
<time>2016-10-19T07:26:57Z</time>
</trkpt>
<trkpt lat="39.7600653" lon="3.1201826">
<ele>20.34</ele>
<time>2016-10-19T07:27:00Z</time>
</trkpt>
<trkpt lat="39.7600345" lon="3.1198630">
<ele>20.60</ele>
<time>2016-10-19T07:27:03Z</time>
</trkpt>
<trkpt lat="39.7600306" lon="3.1195228">
<ele>20.44</ele>
<time>2016-10-19T07:27:06Z</time>
</trkpt>
<trkpt lat="39.7600347" lon="3.1192697">
<ele>19.38</ele>
<time>2016-10-19T07:27:08Z</time>
</trkpt>
<trkpt lat="39.7600399" lon="3.1190174">
<ele>18.14</ele>
<time>2016-10-19T07:27:10Z</time>
</trkpt>
<trkpt lat="39.7600445" lon="3.1187673">
<ele>17.13</ele>
<time>2016-10-19T07:27:12Z</time>
</trkpt>
<trkpt lat="39.7600475" lon="3.1185268">
<ele>16.28</ele>
<time>2016-10-19T07:27:14Z</time>
</trkpt>
<trkpt lat="39.7600513" lon="3.1182854">
<ele>15.40</ele>
<time>2016-10-19T07:27:16Z</time>
</trkpt>
<trkpt lat="39.7600579" lon="3.1180495">
<ele>14.37</ele>
<time>2016-10-19T07:27:18Z</time>
</trkpt>
<trkpt lat="39.7600761" lon="3.1177344">
<ele>13.34</ele>
<time>2016-10-19T07:27:21Z</time>
</trkpt>
<trkpt lat="39.7600831" lon="3.1174114">
<ele>13.15</ele>
<time>2016-10-19T07:27:24Z</time>
</trkpt>
<trkpt lat="39.7600866" lon="3.1170929">
<ele>13.43</ele>
<time>2016-10-19T07:27:27Z</time>
</trkpt>
<trkpt lat="39.7600889" lon="3.1167826">
<ele>12.97</ele>
<time>2016-10-19T07:27:30Z</time>
</trkpt>
<trkpt lat="39.7600930" lon="3.1164615">
<ele>11.00</ele>
<time>2016-10-19T07:27:33Z</time>
</trkpt>
<trkpt lat="39.7600954" lon="3.1161350">
<ele>9.87</ele>
<time>2016-10-19T07:27:36Z</time>
</trkpt>
<trkpt lat="39.7601001" lon="3.1157914">
<ele>9.13</ele>
<time>2016-10-19T07:27:39Z</time>
</trkpt>
<trkpt lat="39.7601051" lon="3.1155576">
<ele>8.24</ele>
<time>2016-10-19T07:27:41Z</time>
</trkpt>
<trkpt lat="39.7601081" lon="3.1152252">
<ele>7.03</ele>
<time>2016-10-19T07:27:44Z</time>
</trkpt>
<trkpt lat="39.7601144" lon="3.1148773">
<ele>5.80</ele>
<time>2016-10-19T07:27:47Z</time>
</trkpt>
<trkpt lat="39.7601282" lon="3.1145452">
<ele>6.58</ele>
<time>2016-10-19T07:27:50Z</time>
</trkpt>
<trkpt lat="39.7601374" lon="3.1142015">
<ele>7.21</ele>
<time>2016-10-19T07:27:53Z</time>
</trkpt>
<trkpt lat="39.7601401" lon="3.1138522">
<ele>6.72</ele>
<time>2016-10-19T07:27:56Z</time>
</trkpt>
<trkpt lat="39.7601417" lon="3.1136180">
<ele>6.17</ele>
<time>2016-10-19T07:27:58Z</time>
</trkpt>
<trkpt lat="39.7601461" lon="3.1133809">
<ele>5.66</ele>
<time>2016-10-19T07:28:00Z</time>
</trkpt>
<trkpt lat="39.7601502" lon="3.1130467">
<ele>5.98</ele>
<time>2016-10-19T07:28:03Z</time>
</trkpt>
<trkpt lat="39.7601521" lon="3.1127158">
<ele>6.18</ele>
<time>2016-10-19T07:28:06Z</time>
</trkpt>
<trkpt lat="39.7601755" lon="3.1123793">
<ele>5.73</ele>
<time>2016-10-19T07:28:09Z</time>
</trkpt>
<trkpt lat="39.7602216" lon="3.1121491">
<ele>4.83</ele>
<time>2016-10-19T07:28:11Z</time>
</trkpt>
<trkpt lat="39.7603132" lon="3.1119276">
<ele>4.49</ele>
<time>2016-10-19T07:28:13Z</time>
</trkpt>
<trkpt lat="39.7604083" lon="3.1117287">
<ele>4.60</ele>
<time>2016-10-19T07:28:15Z</time>
</trkpt>
<trkpt lat="39.7605559" lon="3.1114500">
<ele>3.89</ele>
<time>2016-10-19T07:28:18Z</time>
</trkpt>
<trkpt lat="39.7607070" lon="3.1111750">
<ele>3.37</ele>
<time>2016-10-19T07:28:21Z</time>
</trkpt>
<trkpt lat="39.7608466" lon="3.1109311">
<ele>2.18</ele>
<time>2016-10-19T07:28:24Z</time>
</trkpt>
<trkpt lat="39.7609799" lon="3.1106815">
<ele>1.66</ele>
<time>2016-10-19T07:28:27Z</time>
</trkpt>
<trkpt lat="39.7611181" lon="3.1104288">
<ele>1.61</ele>
<time>2016-10-19T07:28:30Z</time>
</trkpt>
<trkpt lat="39.7612445" lon="3.1101878">
<ele>3.30</ele>
<time>2016-10-19T07:28:33Z</time>
</trkpt>
<trkpt lat="39.7613641" lon="3.1099567">
<ele>4.51</ele>
<time>2016-10-19T07:28:36Z</time>
</trkpt>
<trkpt lat="39.7614994" lon="3.1097144">
<ele>4.50</ele>
<time>2016-10-19T07:28:39Z</time>
</trkpt>
<trkpt lat="39.7616286" lon="3.1094938">
<ele>4.78</ele>
<time>2016-10-19T07:28:42Z</time>
</trkpt>
<trkpt lat="39.7617444" lon="3.1092589">
<ele>6.54</ele>
<time>2016-10-19T07:28:45Z</time>
</trkpt>
<trkpt lat="39.7618707" lon="3.1090104">
<ele>6.87</ele>
<time>2016-10-19T07:28:48Z</time>
</trkpt>
<trkpt lat="39.7620046" lon="3.1087701">
<ele>6.74</ele>
<time>2016-10-19T07:28:51Z</time>
</trkpt>
<trkpt lat="39.7621310" lon="3.1085279">
<ele>7.34</ele>
<time>2016-10-19T07:28:54Z</time>
</trkpt>
<trkpt lat="39.7622526" lon="3.1083009">
<ele>7.35</ele>
<time>2016-10-19T07:28:57Z</time>
</trkpt>
<trkpt lat="39.7623782" lon="3.1080680">
<ele>7.37</ele>
<time>2016-10-19T07:29:00Z</time>
</trkpt>
<trkpt lat="39.7625055" lon="3.1078157">
<ele>6.04</ele>
<time>2016-10-19T07:29:03Z</time>
</trkpt>
<trkpt lat="39.7626312" lon="3.1075819">
<ele>4.10</ele>
<time>2016-10-19T07:29:06Z</time>
</trkpt>
<trkpt lat="39.7627600" lon="3.1073489">
<ele>3.92</ele>
<time>2016-10-19T07:29:09Z</time>
</trkpt>
<trkpt lat="39.7628902" lon="3.1071078">
<ele>4.86</ele>
<time>2016-10-19T07:29:12Z</time>
</trkpt>
<trkpt lat="39.7630152" lon="3.1068843">
<ele>4.29</ele>
<time>2016-10-19T07:29:15Z</time>
</trkpt>
<trkpt lat="39.7631436" lon="3.1066521">
<ele>3.92</ele>
<time>2016-10-19T07:29:18Z</time>
</trkpt>
<trkpt lat="39.7632639" lon="3.1064198">
<ele>3.64</ele>
<time>2016-10-19T07:29:21Z</time>
</trkpt>
<trkpt lat="39.7633878" lon="3.1061909">
<ele>3.65</ele>
<time>2016-10-19T07:29:24Z</time>
</trkpt>
<trkpt lat="39.7635127" lon="3.1059618">
<ele>3.74</ele>
<time>2016-10-19T07:29:27Z</time>
</trkpt>
<trkpt lat="39.7636360" lon="3.1057379">
<ele>3.66</ele>
<time>2016-10-19T07:29:30Z</time>
</trkpt>
<trkpt lat="39.7637567" lon="3.1055223">
<ele>4.17</ele>
<time>2016-10-19T07:29:33Z</time>
</trkpt>
<trkpt lat="39.7638838" lon="3.1052828">
<ele>4.91</ele>
<time>2016-10-19T07:29:36Z</time>
</trkpt>
<trkpt lat="39.7640095" lon="3.1050490">
<ele>4.75</ele>
<time>2016-10-19T07:29:39Z</time>
</trkpt>
<trkpt lat="39.7641302" lon="3.1048219">
<ele>5.12</ele>
<time>2016-10-19T07:29:42Z</time>
</trkpt>
<trkpt lat="39.7642476" lon="3.1046030">
<ele>5.06</ele>
<time>2016-10-19T07:29:45Z</time>
</trkpt>
<trkpt lat="39.7643733" lon="3.1043648">
<ele>4.53</ele>
<time>2016-10-19T07:29:48Z</time>
</trkpt>
<trkpt lat="39.7644753" lon="3.1041308">
<ele>4.35</ele>
<time>2016-10-19T07:29:51Z</time>
</trkpt>
<trkpt lat="39.7645455" lon="3.1038920">
<ele>4.33</ele>
<time>2016-10-19T07:29:54Z</time>
</trkpt>
<trkpt lat="39.7646072" lon="3.1036297">
<ele>4.41</ele>
<time>2016-10-19T07:29:57Z</time>
</trkpt>
<trkpt lat="39.7646662" lon="3.1033673">
<ele>5.14</ele>
<time>2016-10-19T07:30:00Z</time>
</trkpt>
<trkpt lat="39.7647274" lon="3.1030996">
<ele>5.46</ele>
<time>2016-10-19T07:30:03Z</time>
</trkpt>
<trkpt lat="39.7647883" lon="3.1028396">
<ele>6.09</ele>
<time>2016-10-19T07:30:06Z</time>
</trkpt>
<trkpt lat="39.7648457" lon="3.1025871">
<ele>6.78</ele>
<time>2016-10-19T07:30:09Z</time>
</trkpt>
<trkpt lat="39.7649082" lon="3.1023254">
<ele>7.81</ele>
<time>2016-10-19T07:30:12Z</time>
</trkpt>
<trkpt lat="39.7649756" lon="3.1020495">
<ele>7.69</ele>
<time>2016-10-19T07:30:15Z</time>
</trkpt>
<trkpt lat="39.7650422" lon="3.1017810">
<ele>7.40</ele>
<time>2016-10-19T07:30:18Z</time>
</trkpt>
<trkpt lat="39.7651053" lon="3.1015295">
<ele>6.51</ele>
<time>2016-10-19T07:30:21Z</time>
</trkpt>
<trkpt lat="39.7651654" lon="3.1012674">
<ele>7.11</ele>
<time>2016-10-19T07:30:24Z</time>
</trkpt>
<trkpt lat="39.7652233" lon="3.1010202">
<ele>6.57</ele>
<time>2016-10-19T07:30:27Z</time>
</trkpt>
<trkpt lat="39.7652889" lon="3.1007646">
<ele>6.42</ele>
<time>2016-10-19T07:30:30Z</time>
</trkpt>
<trkpt lat="39.7653685" lon="3.1005149">
<ele>6.69</ele>
<time>2016-10-19T07:30:33Z</time>
</trkpt>
<trkpt lat="39.7654555" lon="3.1002566">
<ele>6.90</ele>
<time>2016-10-19T07:30:36Z</time>
</trkpt>
<trkpt lat="39.7655266" lon="3.0999954">
<ele>6.97</ele>
<time>2016-10-19T07:30:39Z</time>
</trkpt>
<trkpt lat="39.7655811" lon="3.0997297">
<ele>7.11</ele>
<time>2016-10-19T07:30:42Z</time>
</trkpt>
<trkpt lat="39.7656144" lon="3.0994599">
<ele>7.21</ele>
<time>2016-10-19T07:30:45Z</time>
</trkpt>
<trkpt lat="39.7656384" lon="3.0991727">
<ele>7.10</ele>
<time>2016-10-19T07:30:48Z</time>
</trkpt>
<trkpt lat="39.7656620" lon="3.0988721">
<ele>7.19</ele>
<time>2016-10-19T07:30:51Z</time>
</trkpt>
<trkpt lat="39.7656759" lon="3.0985932">
<ele>7.38</ele>
<time>2016-10-19T07:30:54Z</time>
</trkpt>
<trkpt lat="39.7656697" lon="3.0983015">
<ele>8.04</ele>
<time>2016-10-19T07:30:57Z</time>
</trkpt>
<trkpt lat="39.7656436" lon="3.0980355">
<ele>7.03</ele>
<time>2016-10-19T07:31:00Z</time>
</trkpt>
<trkpt lat="39.7656202" lon="3.0977667">
<ele>5.85</ele>
<time>2016-10-19T07:31:03Z</time>
</trkpt>
<trkpt lat="39.7655903" lon="3.0974812">
<ele>5.02</ele>
<time>2016-10-19T07:31:06Z</time>
</trkpt>
<trkpt lat="39.7655644" lon="3.0972040">
<ele>5.42</ele>
<time>2016-10-19T07:31:09Z</time>
</trkpt>
<trkpt lat="39.7655282" lon="3.0969354">
<ele>7.07</ele>
<time>2016-10-19T07:31:12Z</time>
</trkpt>
<trkpt lat="39.7654413" lon="3.0966704">
<ele>6.12</ele>
<time>2016-10-19T07:31:15Z</time>
</trkpt>
<trkpt lat="39.7653499" lon="3.0964078">
<ele>5.36</ele>
<time>2016-10-19T07:31:18Z</time>
</trkpt>
<trkpt lat="39.7652549" lon="3.0961632">
<ele>4.06</ele>
<time>2016-10-19T07:31:21Z</time>
</trkpt>
<trkpt lat="39.7651638" lon="3.0959439">
<ele>4.03</ele>
<time>2016-10-19T07:31:24Z</time>
</trkpt>
<trkpt lat="39.7650789" lon="3.0956998">
<ele>4.41</ele>
<time>2016-10-19T07:31:27Z</time>
</trkpt>
<trkpt lat="39.7650021" lon="3.0954099">
<ele>4.27</ele>
<time>2016-10-19T07:31:30Z</time>
</trkpt>
<trkpt lat="39.7649408" lon="3.0951286">
<ele>4.45</ele>
<time>2016-10-19T07:31:33Z</time>
</trkpt>
<trkpt lat="39.7649034" lon="3.0948770">
<ele>5.45</ele>
<time>2016-10-19T07:31:36Z</time>
</trkpt>
<trkpt lat="39.7648588" lon="3.0945991">
<ele>6.97</ele>
<time>2016-10-19T07:31:39Z</time>
</trkpt>
<trkpt lat="39.7648207" lon="3.0943275">
<ele>7.20</ele>
<time>2016-10-19T07:31:42Z</time>
</trkpt>
<trkpt lat="39.7647826" lon="3.0940556">
<ele>6.74</ele>
<time>2016-10-19T07:31:45Z</time>
</trkpt>
<trkpt lat="39.7647489" lon="3.0937915">
<ele>5.44</ele>
<time>2016-10-19T07:31:48Z</time>
</trkpt>
<trkpt lat="39.7647155" lon="3.0935208">
<ele>4.53</ele>
<time>2016-10-19T07:31:51Z</time>
</trkpt>
<trkpt lat="39.7646803" lon="3.0932281">
<ele>4.15</ele>
<time>2016-10-19T07:31:54Z</time>
</trkpt>
<trkpt lat="39.7646498" lon="3.0929434">
<ele>2.83</ele>
<time>2016-10-19T07:31:57Z</time>
</trkpt>
<trkpt lat="39.7646117" lon="3.0926584">
<ele>3.56</ele>
<time>2016-10-19T07:32:00Z</time>
</trkpt>
<trkpt lat="39.7645729" lon="3.0923900">
<ele>4.83</ele>
<time>2016-10-19T07:32:03Z</time>
</trkpt>
<trkpt lat="39.7645292" lon="3.0921127">
<ele>5.82</ele>
<time>2016-10-19T07:32:06Z</time>
</trkpt>
<trkpt lat="39.7644904" lon="3.0918375">
<ele>6.51</ele>
<time>2016-10-19T07:32:09Z</time>
</trkpt>
<trkpt lat="39.7644545" lon="3.0915614">
<ele>7.18</ele>
<time>2016-10-19T07:32:12Z</time>
</trkpt>
<trkpt lat="39.7644169" lon="3.0912729">
<ele>7.83</ele>
<time>2016-10-19T07:32:15Z</time>
</trkpt>
<trkpt lat="39.7643802" lon="3.0909960">
<ele>7.69</ele>
<time>2016-10-19T07:32:18Z</time>
</trkpt>
<trkpt lat="39.7643436" lon="3.0907221">
<ele>7.23</ele>
<time>2016-10-19T07:32:21Z</time>
</trkpt>
<trkpt lat="39.7643093" lon="3.0904551">
<ele>6.78</ele>
<time>2016-10-19T07:32:24Z</time>
</trkpt>
<trkpt lat="39.7642701" lon="3.0901577">
<ele>5.78</ele>
<time>2016-10-19T07:32:27Z</time>
</trkpt>
<trkpt lat="39.7642280" lon="3.0898756">
<ele>5.10</ele>
<time>2016-10-19T07:32:30Z</time>
</trkpt>
<trkpt lat="39.7641893" lon="3.0896152">
<ele>5.53</ele>
<time>2016-10-19T07:32:33Z</time>
</trkpt>
<trkpt lat="39.7641465" lon="3.0893398">
<ele>7.12</ele>
<time>2016-10-19T07:32:36Z</time>
</trkpt>
<trkpt lat="39.7641092" lon="3.0890592">
<ele>7.24</ele>
<time>2016-10-19T07:32:39Z</time>
</trkpt>
<trkpt lat="39.7640795" lon="3.0887887">
<ele>6.59</ele>
<time>2016-10-19T07:32:42Z</time>
</trkpt>
<trkpt lat="39.7640519" lon="3.0884964">
<ele>6.45</ele>
<time>2016-10-19T07:32:45Z</time>
</trkpt>
<trkpt lat="39.7640332" lon="3.0881997">
<ele>5.19</ele>
<time>2016-10-19T07:32:48Z</time>
</trkpt>
<trkpt lat="39.7640286" lon="3.0879189">
<ele>4.00</ele>
<time>2016-10-19T07:32:51Z</time>
</trkpt>
<trkpt lat="39.7640387" lon="3.0876496">
<ele>3.24</ele>
<time>2016-10-19T07:32:54Z</time>
</trkpt>
<trkpt lat="39.7640594" lon="3.0873762">
<ele>4.56</ele>
<time>2016-10-19T07:32:57Z</time>
</trkpt>
<trkpt lat="39.7640958" lon="3.0871008">
<ele>4.22</ele>
<time>2016-10-19T07:33:00Z</time>
</trkpt>
<trkpt lat="39.7641432" lon="3.0868350">
<ele>3.76</ele>
<time>2016-10-19T07:33:03Z</time>
</trkpt>
<trkpt lat="39.7642004" lon="3.0865573">
<ele>3.42</ele>
<time>2016-10-19T07:33:06Z</time>
</trkpt>
<trkpt lat="39.7642628" lon="3.0862969">
<ele>3.15</ele>
<time>2016-10-19T07:33:09Z</time>
</trkpt>
<trkpt lat="39.7643397" lon="3.0860292">
<ele>2.16</ele>
<time>2016-10-19T07:33:12Z</time>
</trkpt>
<trkpt lat="39.7644208" lon="3.0857769">
<ele>2.89</ele>
<time>2016-10-19T07:33:15Z</time>
</trkpt>
<trkpt lat="39.7645226" lon="3.0855067">
<ele>3.65</ele>
<time>2016-10-19T07:33:18Z</time>
</trkpt>
<trkpt lat="39.7646337" lon="3.0852506">
<ele>4.35</ele>
<time>2016-10-19T07:33:21Z</time>
</trkpt>
<trkpt lat="39.7647480" lon="3.0850224">
<ele>5.60</ele>
<time>2016-10-19T07:33:24Z</time>
</trkpt>
<trkpt lat="39.7648704" lon="3.0847855">
<ele>6.06</ele>
<time>2016-10-19T07:33:27Z</time>
</trkpt>
<trkpt lat="39.7649919" lon="3.0845527">
<ele>5.93</ele>
<time>2016-10-19T07:33:30Z</time>
</trkpt>
<trkpt lat="39.7651174" lon="3.0843089">
<ele>5.61</ele>
<time>2016-10-19T07:33:33Z</time>
</trkpt>
<trkpt lat="39.7652434" lon="3.0840690">
<ele>2.96</ele>
<time>2016-10-19T07:33:36Z</time>
</trkpt>
<trkpt lat="39.7653694" lon="3.0838273">
<ele>1.59</ele>
<time>2016-10-19T07:33:39Z</time>
</trkpt>
<trkpt lat="39.7654836" lon="3.0835713">
<ele>0.80</ele>
<time>2016-10-19T07:33:42Z</time>
</trkpt>
<trkpt lat="39.7655752" lon="3.0833109">
<ele>0.38</ele>
<time>2016-10-19T07:33:45Z</time>
</trkpt>
<trkpt lat="39.7656425" lon="3.0830310">
<ele>1.79</ele>
<time>2016-10-19T07:33:48Z</time>
</trkpt>
<trkpt lat="39.7656928" lon="3.0827682">
<ele>2.69</ele>
<time>2016-10-19T07:33:51Z</time>
</trkpt>
<trkpt lat="39.7657228" lon="3.0825042">
<ele>2.99</ele>
<time>2016-10-19T07:33:54Z</time>
</trkpt>
<trkpt lat="39.7657346" lon="3.0822254">
<ele>4.02</ele>
<time>2016-10-19T07:33:57Z</time>
</trkpt>
<trkpt lat="39.7657160" lon="3.0819499">
<ele>6.17</ele>
<time>2016-10-19T07:34:00Z</time>
</trkpt>
<trkpt lat="39.7656812" lon="3.0816567">
<ele>7.51</ele>
<time>2016-10-19T07:34:03Z</time>
</trkpt>
<trkpt lat="39.7656318" lon="3.0813665">
<ele>7.93</ele>
<time>2016-10-19T07:34:06Z</time>
</trkpt>
<trkpt lat="39.7655697" lon="3.0810663">
<ele>6.88</ele>
<time>2016-10-19T07:34:09Z</time>
</trkpt>
<trkpt lat="39.7655071" lon="3.0807780">
<ele>5.69</ele>
<time>2016-10-19T07:34:12Z</time>
</trkpt>
<trkpt lat="39.7654343" lon="3.0804926">
<ele>4.76</ele>
<time>2016-10-19T07:34:15Z</time>
</trkpt>
<trkpt lat="39.7653621" lon="3.0802333">
<ele>4.40</ele>
<time>2016-10-19T07:34:18Z</time>
</trkpt>
<trkpt lat="39.7653018" lon="3.0799836">
<ele>4.88</ele>
<time>2016-10-19T07:34:20Z</time>
</trkpt>
<trkpt lat="39.7652449" lon="3.0797257">
<ele>5.13</ele>
<time>2016-10-19T07:34:23Z</time>
</trkpt>
<trkpt lat="39.7651850" lon="3.0794461">
<ele>5.67</ele>
<time>2016-10-19T07:34:26Z</time>
</trkpt>
<trkpt lat="39.7651238" lon="3.0791800">
<ele>5.80</ele>
<time>2016-10-19T07:34:29Z</time>
</trkpt>
<trkpt lat="39.7650653" lon="3.0789130">
<ele>6.54</ele>
<time>2016-10-19T07:34:32Z</time>
</trkpt>
<trkpt lat="39.7650125" lon="3.0786428">
<ele>7.13</ele>
<time>2016-10-19T07:34:35Z</time>
</trkpt>
<trkpt lat="39.7649659" lon="3.0783620">
<ele>7.92</ele>
<time>2016-10-19T07:34:38Z</time>
</trkpt>
<trkpt lat="39.7649222" lon="3.0780697">
<ele>8.62</ele>
<time>2016-10-19T07:34:41Z</time>
</trkpt>
<trkpt lat="39.7648829" lon="3.0777745">
<ele>8.71</ele>
<time>2016-10-19T07:34:44Z</time>
</trkpt>
<trkpt lat="39.7648444" lon="3.0774846">
<ele>8.79</ele>
<time>2016-10-19T07:34:47Z</time>
</trkpt>
<trkpt lat="39.7648040" lon="3.0771966">
<ele>9.86</ele>
<time>2016-10-19T07:34:50Z</time>
</trkpt>
<trkpt lat="39.7647683" lon="3.0769260">
<ele>8.05</ele>
<time>2016-10-19T07:34:53Z</time>
</trkpt>
<trkpt lat="39.7647296" lon="3.0766598">
<ele>6.37</ele>
<time>2016-10-19T07:34:56Z</time>
</trkpt>
<trkpt lat="39.7646704" lon="3.0763939">
<ele>5.40</ele>
<time>2016-10-19T07:34:59Z</time>
</trkpt>
<trkpt lat="39.7645865" lon="3.0761402">
<ele>4.43</ele>
<time>2016-10-19T07:35:02Z</time>
</trkpt>
<trkpt lat="39.7644946" lon="3.0758906">
<ele>4.51</ele>
<time>2016-10-19T07:35:05Z</time>
</trkpt>
<trkpt lat="39.7644030" lon="3.0756433">
<ele>5.21</ele>
<time>2016-10-19T07:35:08Z</time>
</trkpt>
<trkpt lat="39.7643161" lon="3.0754011">
<ele>5.47</ele>
<time>2016-10-19T07:35:11Z</time>
</trkpt>
<trkpt lat="39.7642356" lon="3.0751543">
<ele>6.11</ele>
<time>2016-10-19T07:35:14Z</time>
</trkpt>
<trkpt lat="39.7641435" lon="3.0748944">
<ele>6.16</ele>
<time>2016-10-19T07:35:17Z</time>
</trkpt>
<trkpt lat="39.7640622" lon="3.0746621">
<ele>6.69</ele>
<time>2016-10-19T07:35:20Z</time>
</trkpt>
<trkpt lat="39.7639767" lon="3.0744091">
<ele>7.66</ele>
<time>2016-10-19T07:35:23Z</time>
</trkpt>
<trkpt lat="39.7638944" lon="3.0741719">
<ele>8.76</ele>
<time>2016-10-19T07:35:26Z</time>
</trkpt>
<trkpt lat="39.7638080" lon="3.0739183">
<ele>9.25</ele>
<time>2016-10-19T07:35:29Z</time>
</trkpt>
<trkpt lat="39.7637224" lon="3.0736610">
<ele>8.52</ele>
<time>2016-10-19T07:35:32Z</time>
</trkpt>
<trkpt lat="39.7636390" lon="3.0734125">
<ele>7.79</ele>
<time>2016-10-19T07:35:35Z</time>
</trkpt>
<trkpt lat="39.7635510" lon="3.0731756">
<ele>7.58</ele>
<time>2016-10-19T07:35:38Z</time>
</trkpt>
<trkpt lat="39.7634687" lon="3.0729337">
<ele>7.40</ele>
<time>2016-10-19T07:35:41Z</time>
</trkpt>
<trkpt lat="39.7633898" lon="3.0726980">
<ele>7.43</ele>
<time>2016-10-19T07:35:44Z</time>
</trkpt>
<trkpt lat="39.7633077" lon="3.0724439">
<ele>7.70</ele>
<time>2016-10-19T07:35:47Z</time>
</trkpt>
<trkpt lat="39.7632253" lon="3.0721947">
<ele>7.62</ele>
<time>2016-10-19T07:35:50Z</time>
</trkpt>
<trkpt lat="39.7631435" lon="3.0719504">
<ele>8.34</ele>
<time>2016-10-19T07:35:53Z</time>
</trkpt>
<trkpt lat="39.7630621" lon="3.0717038">
<ele>9.03</ele>
<time>2016-10-19T07:35:56Z</time>
</trkpt>
<trkpt lat="39.7629827" lon="3.0714670">
<ele>9.25</ele>
<time>2016-10-19T07:35:59Z</time>
</trkpt>
<trkpt lat="39.7629006" lon="3.0712364">
<ele>10.39</ele>
<time>2016-10-19T07:36:02Z</time>
</trkpt>
<trkpt lat="39.7628220" lon="3.0710009">
<ele>11.16</ele>
<time>2016-10-19T07:36:05Z</time>
</trkpt>
<trkpt lat="39.7627419" lon="3.0707751">
<ele>11.22</ele>
<time>2016-10-19T07:36:08Z</time>
</trkpt>
<trkpt lat="39.7626590" lon="3.0705481">
<ele>12.15</ele>
<time>2016-10-19T07:36:11Z</time>
</trkpt>
<trkpt lat="39.7625764" lon="3.0703312">
<ele>12.87</ele>
<time>2016-10-19T07:36:14Z</time>
</trkpt>
<trkpt lat="39.7624967" lon="3.0701129">
<ele>12.88</ele>
<time>2016-10-19T07:36:17Z</time>
</trkpt>
<trkpt lat="39.7624208" lon="3.0698867">
<ele>12.04</ele>
<time>2016-10-19T07:36:20Z</time>
</trkpt>
<trkpt lat="39.7623428" lon="3.0696481">
<ele>11.04</ele>
<time>2016-10-19T07:36:23Z</time>
</trkpt>
<trkpt lat="39.7622636" lon="3.0693975">
<ele>11.33</ele>
<time>2016-10-19T07:36:26Z</time>
</trkpt>
<trkpt lat="39.7621875" lon="3.0691466">
<ele>10.64</ele>
<time>2016-10-19T07:36:29Z</time>
</trkpt>
<trkpt lat="39.7621192" lon="3.0689194">
<ele>9.77</ele>
<time>2016-10-19T07:36:32Z</time>
</trkpt>
<trkpt lat="39.7620222" lon="3.0686315">
<ele>9.51</ele>
<time>2016-10-19T07:36:36Z</time>
</trkpt>
<trkpt lat="39.7619417" lon="3.0684145">
<ele>9.75</ele>
<time>2016-10-19T07:36:39Z</time>
</trkpt>
<trkpt lat="39.7618447" lon="3.0681570">
<ele>10.34</ele>
<time>2016-10-19T07:36:43Z</time>
</trkpt>
<trkpt lat="39.7617386" lon="3.0678808">
<ele>11.65</ele>
<time>2016-10-19T07:36:47Z</time>
</trkpt>
<trkpt lat="39.7616100" lon="3.0676387">
<ele>12.42</ele>
<time>2016-10-19T07:36:51Z</time>
</trkpt>
<trkpt lat="39.7614738" lon="3.0673873">
<ele>12.39</ele>
<time>2016-10-19T07:36:55Z</time>
</trkpt>
<trkpt lat="39.7613364" lon="3.0671553">
<ele>11.80</ele>
<time>2016-10-19T07:36:59Z</time>
</trkpt>
<trkpt lat="39.7611863" lon="3.0669145">
<ele>13.20</ele>
<time>2016-10-19T07:37:03Z</time>
</trkpt>
<trkpt lat="39.7610704" lon="3.0667109">
<ele>13.93</ele>
<time>2016-10-19T07:37:06Z</time>
</trkpt>
<trkpt lat="39.7609589" lon="3.0665067">
<ele>13.18</ele>
<time>2016-10-19T07:37:09Z</time>
</trkpt>
<trkpt lat="39.7608446" lon="3.0663111">
<ele>12.58</ele>
<time>2016-10-19T07:37:12Z</time>
</trkpt>
<trkpt lat="39.7607312" lon="3.0661157">
<ele>12.05</ele>
<time>2016-10-19T07:37:15Z</time>
</trkpt>
<trkpt lat="39.7606170" lon="3.0659321">
<ele>11.88</ele>
<time>2016-10-19T07:37:18Z</time>
</trkpt>
<trkpt lat="39.7604715" lon="3.0657073">
<ele>12.58</ele>
<time>2016-10-19T07:37:22Z</time>
</trkpt>
<trkpt lat="39.7603169" lon="3.0654692">
<ele>15.82</ele>
<time>2016-10-19T07:37:26Z</time>
</trkpt>
<trkpt lat="39.7601680" lon="3.0652359">
<ele>16.35</ele>
<time>2016-10-19T07:37:30Z</time>
</trkpt>
<trkpt lat="39.7600495" lon="3.0650369">
<ele>16.17</ele>
<time>2016-10-19T07:37:33Z</time>
</trkpt>
<trkpt lat="39.7599348" lon="3.0648350">
<ele>15.72</ele>
<time>2016-10-19T07:37:36Z</time>
</trkpt>
<trkpt lat="39.7598235" lon="3.0646419">
<ele>15.76</ele>
<time>2016-10-19T07:37:39Z</time>
</trkpt>
<trkpt lat="39.7597018" lon="3.0644392">
<ele>15.20</ele>
<time>2016-10-19T07:37:42Z</time>
</trkpt>
<trkpt lat="39.7595824" lon="3.0642380">
<ele>15.16</ele>
<time>2016-10-19T07:37:45Z</time>
</trkpt>
<trkpt lat="39.7594674" lon="3.0640402">
<ele>14.74</ele>
<time>2016-10-19T07:37:48Z</time>
</trkpt>
<trkpt lat="39.7593468" lon="3.0638415">
<ele>14.52</ele>
<time>2016-10-19T07:37:51Z</time>
</trkpt>
<trkpt lat="39.7592361" lon="3.0636432">
<ele>15.20</ele>
<time>2016-10-19T07:37:54Z</time>
</trkpt>
<trkpt lat="39.7591267" lon="3.0634510">
<ele>15.52</ele>
<time>2016-10-19T07:37:57Z</time>
</trkpt>
<trkpt lat="39.7590083" lon="3.0632539">
<ele>16.17</ele>
<time>2016-10-19T07:38:00Z</time>
</trkpt>
<trkpt lat="39.7588885" lon="3.0630655">
<ele>15.90</ele>
<time>2016-10-19T07:38:03Z</time>
</trkpt>
<trkpt lat="39.7587496" lon="3.0628258">
<ele>16.04</ele>
<time>2016-10-19T07:38:07Z</time>
</trkpt>
<trkpt lat="39.7586025" lon="3.0625793">
<ele>17.65</ele>
<time>2016-10-19T07:38:11Z</time>
</trkpt>
<trkpt lat="39.7584901" lon="3.0623930">
<ele>19.63</ele>
<time>2016-10-19T07:38:14Z</time>
</trkpt>
<trkpt lat="39.7583784" lon="3.0622022">
<ele>20.32</ele>
<time>2016-10-19T07:38:17Z</time>
</trkpt>
<trkpt lat="39.7582637" lon="3.0620068">
<ele>20.09</ele>
<time>2016-10-19T07:38:20Z</time>
</trkpt>
<trkpt lat="39.7581412" lon="3.0618079">
<ele>19.75</ele>
<time>2016-10-19T07:38:23Z</time>
</trkpt>
<trkpt lat="39.7579947" lon="3.0615773">
<ele>19.85</ele>
<time>2016-10-19T07:38:27Z</time>
</trkpt>
<trkpt lat="39.7578494" lon="3.0613377">
<ele>20.68</ele>
<time>2016-10-19T07:38:31Z</time>
</trkpt>
<trkpt lat="39.7577435" lon="3.0611477">
<ele>21.14</ele>
<time>2016-10-19T07:38:34Z</time>
</trkpt>
<trkpt lat="39.7576275" lon="3.0609484">
<ele>21.25</ele>
<time>2016-10-19T07:38:37Z</time>
</trkpt>
<trkpt lat="39.7574868" lon="3.0607053">
<ele>20.89</ele>
<time>2016-10-19T07:38:41Z</time>
</trkpt>
<trkpt lat="39.7573770" lon="3.0605053">
<ele>20.32</ele>
<time>2016-10-19T07:38:44Z</time>
</trkpt>
<trkpt lat="39.7572722" lon="3.0603073">
<ele>20.53</ele>
<time>2016-10-19T07:38:47Z</time>
</trkpt>
<trkpt lat="39.7571629" lon="3.0601044">
<ele>21.01</ele>
<time>2016-10-19T07:38:50Z</time>
</trkpt>
<trkpt lat="39.7570483" lon="3.0598941">
<ele>21.16</ele>
<time>2016-10-19T07:38:53Z</time>
</trkpt>
<trkpt lat="39.7569284" lon="3.0596917">
<ele>20.78</ele>
<time>2016-10-19T07:38:56Z</time>
</trkpt>
<trkpt lat="39.7568051" lon="3.0594876">
<ele>19.81</ele>
<time>2016-10-19T07:38:59Z</time>
</trkpt>
<trkpt lat="39.7566896" lon="3.0592866">
<ele>19.34</ele>
<time>2016-10-19T07:39:02Z</time>
</trkpt>
<trkpt lat="39.7565707" lon="3.0590948">
<ele>19.52</ele>
<time>2016-10-19T07:39:05Z</time>
</trkpt>
<trkpt lat="39.7564451" lon="3.0589043">
<ele>19.61</ele>
<time>2016-10-19T07:39:08Z</time>
</trkpt>
<trkpt lat="39.7563195" lon="3.0587232">
<ele>20.37</ele>
<time>2016-10-19T07:39:11Z</time>
</trkpt>
<trkpt lat="39.7561728" lon="3.0585321">
<ele>21.06</ele>
<time>2016-10-19T07:39:14Z</time>
</trkpt>
<trkpt lat="39.7560240" lon="3.0583701">
<ele>19.99</ele>
<time>2016-10-19T07:39:17Z</time>
</trkpt>
<trkpt lat="39.7558750" lon="3.0582286">
<ele>19.69</ele>
<time>2016-10-19T07:39:20Z</time>
</trkpt>
<trkpt lat="39.7557122" lon="3.0580885">
<ele>20.50</ele>
<time>2016-10-19T07:39:23Z</time>
</trkpt>
<trkpt lat="39.7555472" lon="3.0579530">
<ele>20.83</ele>
<time>2016-10-19T07:39:26Z</time>
</trkpt>
<trkpt lat="39.7553749" lon="3.0578300">
<ele>20.70</ele>
<time>2016-10-19T07:39:29Z</time>
</trkpt>
<trkpt lat="39.7552011" lon="3.0577088">
<ele>19.70</ele>
<time>2016-10-19T07:39:32Z</time>
</trkpt>
<trkpt lat="39.7550389" lon="3.0576041">
<ele>19.27</ele>
<time>2016-10-19T07:39:35Z</time>
</trkpt>
<trkpt lat="39.7548727" lon="3.0574907">
<ele>20.02</ele>
<time>2016-10-19T07:39:38Z</time>
</trkpt>
<trkpt lat="39.7547050" lon="3.0573776">
<ele>21.06</ele>
<time>2016-10-19T07:39:41Z</time>
</trkpt>
<trkpt lat="39.7544934" lon="3.0572377">
<ele>21.46</ele>
<time>2016-10-19T07:39:45Z</time>
</trkpt>
<trkpt lat="39.7543242" lon="3.0571184">
<ele>21.90</ele>
<time>2016-10-19T07:39:48Z</time>
</trkpt>
<trkpt lat="39.7541492" lon="3.0570006">
<ele>21.98</ele>
<time>2016-10-19T07:39:51Z</time>
</trkpt>
<trkpt lat="39.7539748" lon="3.0568921">
<ele>21.95</ele>
<time>2016-10-19T07:39:54Z</time>
</trkpt>
<trkpt lat="39.7537835" lon="3.0567483">
<ele>21.76</ele>
<time>2016-10-19T07:39:58Z</time>
</trkpt>
<trkpt lat="39.7536271" lon="3.0566261">
<ele>22.07</ele>
<time>2016-10-19T07:40:01Z</time>
</trkpt>
<trkpt lat="39.7534678" lon="3.0565024">
<ele>21.84</ele>
<time>2016-10-19T07:40:04Z</time>
</trkpt>
<trkpt lat="39.7532609" lon="3.0563522">
<ele>21.65</ele>
<time>2016-10-19T07:40:08Z</time>
</trkpt>
<trkpt lat="39.7530585" lon="3.0561990">
<ele>21.51</ele>
<time>2016-10-19T07:40:12Z</time>
</trkpt>
<trkpt lat="39.7528739" lon="3.0560761">
<ele>22.29</ele>
<time>2016-10-19T07:40:16Z</time>
</trkpt>
<trkpt lat="39.7526714" lon="3.0559545">
<ele>23.02</ele>
<time>2016-10-19T07:40:20Z</time>
</trkpt>
<trkpt lat="39.7524553" lon="3.0558712">
<ele>23.77</ele>
<time>2016-10-19T07:40:24Z</time>
</trkpt>
<trkpt lat="39.7522445" lon="3.0558141">
<ele>24.72</ele>
<time>2016-10-19T07:40:28Z</time>
</trkpt>
<trkpt lat="39.7520169" lon="3.0557496">
<ele>26.08</ele>
<time>2016-10-19T07:40:32Z</time>
</trkpt>
<trkpt lat="39.7518025" lon="3.0556751">
<ele>25.99</ele>
<time>2016-10-19T07:40:36Z</time>
</trkpt>
<trkpt lat="39.7515918" lon="3.0556160">
<ele>26.54</ele>
<time>2016-10-19T07:40:40Z</time>
</trkpt>
<trkpt lat="39.7513718" lon="3.0555528">
<ele>27.99</ele>
<time>2016-10-19T07:40:44Z</time>
</trkpt>
<trkpt lat="39.7511363" lon="3.0554877">
<ele>31.21</ele>
<time>2016-10-19T07:40:48Z</time>
</trkpt>
<trkpt lat="39.7509236" lon="3.0554286">
<ele>33.90</ele>
<time>2016-10-19T07:40:52Z</time>
</trkpt>
<trkpt lat="39.7507051" lon="3.0553627">
<ele>32.60</ele>
<time>2016-10-19T07:40:56Z</time>
</trkpt>
<trkpt lat="39.7504848" lon="3.0552965">
<ele>29.97</ele>
<time>2016-10-19T07:41:00Z</time>
</trkpt>
<trkpt lat="39.7503027" lon="3.0552402">
<ele>30.82</ele>
<time>2016-10-19T07:41:03Z</time>
</trkpt>
<trkpt lat="39.7500751" lon="3.0551836">
<ele>30.73</ele>
<time>2016-10-19T07:41:07Z</time>
</trkpt>
<trkpt lat="39.7498929" lon="3.0551314">
<ele>31.26</ele>
<time>2016-10-19T07:41:10Z</time>
</trkpt>
<trkpt lat="39.7496759" lon="3.0550688">
<ele>31.17</ele>
<time>2016-10-19T07:41:14Z</time>
</trkpt>
<trkpt lat="39.7494777" lon="3.0550022">
<ele>29.00</ele>
<time>2016-10-19T07:41:18Z</time>
</trkpt>
<trkpt lat="39.7492875" lon="3.0549413">
<ele>30.65</ele>
<time>2016-10-19T07:41:21Z</time>
</trkpt>
<trkpt lat="39.7491100" lon="3.0548860">
<ele>32.61</ele>
<time>2016-10-19T07:41:24Z</time>
</trkpt>
<trkpt lat="39.7489037" lon="3.0548176">
<ele>32.76</ele>
<time>2016-10-19T07:41:28Z</time>
</trkpt>
<trkpt lat="39.7486886" lon="3.0547430">
<ele>31.43</ele>
<time>2016-10-19T07:41:32Z</time>
</trkpt>
<trkpt lat="39.7484996" lon="3.0546809">
<ele>31.92</ele>
<time>2016-10-19T07:41:36Z</time>
</trkpt>
<trkpt lat="39.7483091" lon="3.0546133">
<ele>32.61</ele>
<time>2016-10-19T07:41:40Z</time>
</trkpt>
<trkpt lat="39.7481127" lon="3.0545504">
<ele>32.55</ele>
<time>2016-10-19T07:41:44Z</time>
</trkpt>
<trkpt lat="39.7479020" lon="3.0544866">
<ele>34.55</ele>
<time>2016-10-19T07:41:48Z</time>
</trkpt>
<trkpt lat="39.7477170" lon="3.0544363">
<ele>35.35</ele>
<time>2016-10-19T07:41:52Z</time>
</trkpt>
<trkpt lat="39.7475197" lon="3.0543821">
<ele>35.21</ele>
<time>2016-10-19T07:41:56Z</time>
</trkpt>
<trkpt lat="39.7473179" lon="3.0543391">
<ele>36.81</ele>
<time>2016-10-19T07:42:00Z</time>
</trkpt>
<trkpt lat="39.7471117" lon="3.0543126">
<ele>38.86</ele>
<time>2016-10-19T07:42:05Z</time>
</trkpt>
<trkpt lat="39.7469095" lon="3.0542956">
<ele>39.94</ele>
<time>2016-10-19T07:42:09Z</time>
</trkpt>
<trkpt lat="39.7467132" lon="3.0542871">
<ele>40.66</ele>
<time>2016-10-19T07:42:13Z</time>
</trkpt>
<trkpt lat="39.7465126" lon="3.0542622">
<ele>41.68</ele>
<time>2016-10-19T07:42:17Z</time>
</trkpt>
<trkpt lat="39.7463244" lon="3.0542493">
<ele>40.89</ele>
<time>2016-10-19T07:42:21Z</time>
</trkpt>
<trkpt lat="39.7461324" lon="3.0542287">
<ele>41.95</ele>
<time>2016-10-19T07:42:25Z</time>
</trkpt>
<trkpt lat="39.7459057" lon="3.0542209">
<ele>41.22</ele>
<time>2016-10-19T07:42:30Z</time>
</trkpt>
<trkpt lat="39.7457227" lon="3.0542019">
<ele>41.60</ele>
<time>2016-10-19T07:42:34Z</time>
</trkpt>
<trkpt lat="39.7455415" lon="3.0541746">
<ele>42.89</ele>
<time>2016-10-19T07:42:38Z</time>
</trkpt>
<trkpt lat="39.7453624" lon="3.0541446">
<ele>43.61</ele>
<time>2016-10-19T07:42:42Z</time>
</trkpt>
<trkpt lat="39.7451685" lon="3.0541338">
<ele>46.73</ele>
<time>2016-10-19T07:42:46Z</time>
</trkpt>
<trkpt lat="39.7449651" lon="3.0541124">
<ele>49.68</ele>
<time>2016-10-19T07:42:52Z</time>
</trkpt>
<trkpt lat="39.7447538" lon="3.0540713">
<ele>49.86</ele>
<time>2016-10-19T07:42:57Z</time>
</trkpt>
<trkpt lat="39.7445343" lon="3.0540055">
<ele>50.61</ele>
<time>2016-10-19T07:43:02Z</time>
</trkpt>
<trkpt lat="39.7443149" lon="3.0539309">
<ele>49.66</ele>
<time>2016-10-19T07:43:07Z</time>
</trkpt>
<trkpt lat="39.7441024" lon="3.0538630">
<ele>51.21</ele>
<time>2016-10-19T07:43:12Z</time>
</trkpt>
<trkpt lat="39.7439114" lon="3.0537970">
<ele>54.50</ele>
<time>2016-10-19T07:43:16Z</time>
</trkpt>
<trkpt lat="39.7437382" lon="3.0537276">
<ele>57.18</ele>
<time>2016-10-19T07:43:20Z</time>
</trkpt>
<trkpt lat="39.7435612" lon="3.0536561">
<ele>57.07</ele>
<time>2016-10-19T07:43:24Z</time>
</trkpt>
<trkpt lat="39.7433922" lon="3.0535460">
<ele>55.28</ele>
<time>2016-10-19T07:43:28Z</time>
</trkpt>
<trkpt lat="39.7432258" lon="3.0534221">
<ele>55.83</ele>
<time>2016-10-19T07:43:32Z</time>
</trkpt>
<trkpt lat="39.7430469" lon="3.0533016">
<ele>56.90</ele>
<time>2016-10-19T07:43:36Z</time>
</trkpt>
<trkpt lat="39.7428774" lon="3.0531811">
<ele>55.59</ele>
<time>2016-10-19T07:43:40Z</time>
</trkpt>
<trkpt lat="39.7426827" lon="3.0530736">
<ele>55.37</ele>
<time>2016-10-19T07:43:44Z</time>
</trkpt>
<trkpt lat="39.7424981" lon="3.0530260">
<ele>56.23</ele>
<time>2016-10-19T07:43:48Z</time>
</trkpt>
<trkpt lat="39.7422924" lon="3.0529745">
<ele>57.95</ele>
<time>2016-10-19T07:43:52Z</time>
</trkpt>
<trkpt lat="39.7420978" lon="3.0529353">
<ele>59.16</ele>
<time>2016-10-19T07:43:56Z</time>
</trkpt>
<trkpt lat="39.7419061" lon="3.0528910">
<ele>59.43</ele>
<time>2016-10-19T07:44:00Z</time>
</trkpt>
<trkpt lat="39.7417264" lon="3.0528561">
<ele>58.45</ele>
<time>2016-10-19T07:44:04Z</time>
</trkpt>
<trkpt lat="39.7415393" lon="3.0528157">
<ele>58.29</ele>
<time>2016-10-19T07:44:08Z</time>
</trkpt>
<trkpt lat="39.7413615" lon="3.0527795">
<ele>60.67</ele>
<time>2016-10-19T07:44:12Z</time>
</trkpt>
<trkpt lat="39.7411596" lon="3.0527437">
<ele>62.16</ele>
<time>2016-10-19T07:44:16Z</time>
</trkpt>
<trkpt lat="39.7409543" lon="3.0526901">
<ele>60.69</ele>
<time>2016-10-19T07:44:20Z</time>
</trkpt>
<trkpt lat="39.7407309" lon="3.0526579">
<ele>60.23</ele>
<time>2016-10-19T07:44:24Z</time>
</trkpt>
<trkpt lat="39.7405321" lon="3.0526288">
<ele>60.05</ele>
<time>2016-10-19T07:44:28Z</time>
</trkpt>
<trkpt lat="39.7403505" lon="3.0525786">
<ele>55.30</ele>
<time>2016-10-19T07:44:32Z</time>
</trkpt>
<trkpt lat="39.7401654" lon="3.0525039">
<ele>51.77</ele>
<time>2016-10-19T07:44:37Z</time>
</trkpt>
<trkpt lat="39.7399931" lon="3.0523585">
<ele>53.70</ele>
<time>2016-10-19T07:44:42Z</time>
</trkpt>
<trkpt lat="39.7398773" lon="3.0521724">
<ele>57.45</ele>
<time>2016-10-19T07:44:46Z</time>
</trkpt>
<trkpt lat="39.7396965" lon="3.0520997">
<ele>60.50</ele>
<time>2016-10-19T07:44:50Z</time>
</trkpt>
<trkpt lat="39.7395179" lon="3.0522040">
<ele>61.72</ele>
<time>2016-10-19T07:44:54Z</time>
</trkpt>
<trkpt lat="39.7393366" lon="3.0523717">
<ele>61.09</ele>
<time>2016-10-19T07:44:58Z</time>
</trkpt>
<trkpt lat="39.7391739" lon="3.0525159">
<ele>60.81</ele>
<time>2016-10-19T07:45:02Z</time>
</trkpt>
<trkpt lat="39.7390324" lon="3.0527001">
<ele>64.20</ele>
<time>2016-10-19T07:45:06Z</time>
</trkpt>
<trkpt lat="39.7389124" lon="3.0528797">
<ele>67.49</ele>
<time>2016-10-19T07:45:10Z</time>
</trkpt>
<trkpt lat="39.7387884" lon="3.0530587">
<ele>68.86</ele>
<time>2016-10-19T07:45:15Z</time>
</trkpt>
<trkpt lat="39.7386195" lon="3.0529666">
<ele>71.77</ele>
<time>2016-10-19T07:45:20Z</time>
</trkpt>
<trkpt lat="39.7384512" lon="3.0527898">
<ele>71.14</ele>
<time>2016-10-19T07:45:24Z</time>
</trkpt>
<trkpt lat="39.7383620" lon="3.0525033">
<ele>70.18</ele>
<time>2016-10-19T07:45:28Z</time>
</trkpt>
<trkpt lat="39.7382923" lon="3.0522320">
<ele>70.03</ele>
<time>2016-10-19T07:45:32Z</time>
</trkpt>
<trkpt lat="39.7382663" lon="3.0519947">
<ele>70.28</ele>
<time>2016-10-19T07:45:35Z</time>
</trkpt>
<trkpt lat="39.7382972" lon="3.0517477">
<ele>69.49</ele>
<time>2016-10-19T07:45:38Z</time>
</trkpt>
<trkpt lat="39.7383246" lon="3.0515011">
<ele>68.33</ele>
<time>2016-10-19T07:45:41Z</time>
</trkpt>
<trkpt lat="39.7383535" lon="3.0512623">
<ele>67.90</ele>
<time>2016-10-19T07:45:44Z</time>
</trkpt>
<trkpt lat="39.7383798" lon="3.0510218">
<ele>67.44</ele>
<time>2016-10-19T07:45:47Z</time>
</trkpt>
<trkpt lat="39.7384058" lon="3.0507756">
<ele>66.59</ele>
<time>2016-10-19T07:45:50Z</time>
</trkpt>
<trkpt lat="39.7384363" lon="3.0505170">
<ele>65.76</ele>
<time>2016-10-19T07:45:53Z</time>
</trkpt>
<trkpt lat="39.7384717" lon="3.0502613">
<ele>64.88</ele>
<time>2016-10-19T07:45:57Z</time>
</trkpt>
<trkpt lat="39.7384932" lon="3.0499995">
<ele>65.71</ele>
<time>2016-10-19T07:46:02Z</time>
</trkpt>
<trkpt lat="39.7385101" lon="3.0497395">
<ele>64.19</ele>
<time>2016-10-19T07:46:06Z</time>
</trkpt>
<trkpt lat="39.7385303" lon="3.0495058">
<ele>63.55</ele>
<time>2016-10-19T07:46:09Z</time>
</trkpt>
<trkpt lat="39.7385557" lon="3.0492595">
<ele>62.43</ele>
<time>2016-10-19T07:46:12Z</time>
</trkpt>
<trkpt lat="39.7385872" lon="3.0489829">
<ele>63.29</ele>
<time>2016-10-19T07:46:15Z</time>
</trkpt>
<trkpt lat="39.7386250" lon="3.0486630">
<ele>63.14</ele>
<time>2016-10-19T07:46:18Z</time>
</trkpt>
<trkpt lat="39.7386688" lon="3.0483293">
<ele>62.53</ele>
<time>2016-10-19T07:46:21Z</time>
</trkpt>
<trkpt lat="39.7387000" lon="3.0480942">
<ele>60.13</ele>
<time>2016-10-19T07:46:23Z</time>
</trkpt>
<trkpt lat="39.7387208" lon="3.0478359">
<ele>57.60</ele>
<time>2016-10-19T07:46:25Z</time>
</trkpt>
<trkpt lat="39.7387479" lon="3.0475639">
<ele>54.80</ele>
<time>2016-10-19T07:46:27Z</time>
</trkpt>
<trkpt lat="39.7387784" lon="3.0472818">
<ele>52.32</ele>
<time>2016-10-19T07:46:29Z</time>
</trkpt>
<trkpt lat="39.7388107" lon="3.0469928">
<ele>50.55</ele>
<time>2016-10-19T07:46:31Z</time>
</trkpt>
<trkpt lat="39.7388442" lon="3.0467046">
<ele>49.79</ele>
<time>2016-10-19T07:46:33Z</time>
</trkpt>
<trkpt lat="39.7388812" lon="3.0464041">
<ele>48.00</ele>
<time>2016-10-19T07:46:35Z</time>
</trkpt>
<trkpt lat="39.7389150" lon="3.0460857">
<ele>46.19</ele>
<time>2016-10-19T07:46:37Z</time>
</trkpt>
<trkpt lat="39.7389452" lon="3.0457768">
<ele>45.08</ele>
<time>2016-10-19T07:46:39Z</time>
</trkpt>
<trkpt lat="39.7389793" lon="3.0454650">
<ele>44.07</ele>
<time>2016-10-19T07:46:41Z</time>
</trkpt>
<trkpt lat="39.7390104" lon="3.0451601">
<ele>43.56</ele>
<time>2016-10-19T07:46:43Z</time>
</trkpt>
<trkpt lat="39.7390472" lon="3.0448667">
<ele>42.82</ele>
<time>2016-10-19T07:46:45Z</time>
</trkpt>
<trkpt lat="39.7391045" lon="3.0445634">
<ele>42.47</ele>
<time>2016-10-19T07:46:47Z</time>
</trkpt>
<trkpt lat="39.7391741" lon="3.0442834">
<ele>41.47</ele>
<time>2016-10-19T07:46:49Z</time>
</trkpt>
<trkpt lat="39.7392576" lon="3.0439739">
<ele>40.14</ele>
<time>2016-10-19T07:46:51Z</time>
</trkpt>
<trkpt lat="39.7393434" lon="3.0436610">
<ele>38.72</ele>
<time>2016-10-19T07:46:53Z</time>
</trkpt>
<trkpt lat="39.7394353" lon="3.0433382">
<ele>36.51</ele>
<time>2016-10-19T07:46:55Z</time>
</trkpt>
<trkpt lat="39.7395288" lon="3.0430319">
<ele>33.80</ele>
<time>2016-10-19T07:46:57Z</time>
</trkpt>
<trkpt lat="39.7396212" lon="3.0427352">
<ele>32.18</ele>
<time>2016-10-19T07:46:59Z</time>
</trkpt>
<trkpt lat="39.7397159" lon="3.0424525">
<ele>31.20</ele>
<time>2016-10-19T07:47:01Z</time>
</trkpt>
<trkpt lat="39.7398091" lon="3.0421627">
<ele>29.86</ele>
<time>2016-10-19T07:47:03Z</time>
</trkpt>
<trkpt lat="39.7399010" lon="3.0418847">
<ele>27.97</ele>
<time>2016-10-19T07:47:05Z</time>
</trkpt>
<trkpt lat="39.7399825" lon="3.0416171">
<ele>26.50</ele>
<time>2016-10-19T07:47:07Z</time>
</trkpt>
<trkpt lat="39.7400532" lon="3.0413668">
<ele>25.22</ele>
<time>2016-10-19T07:47:09Z</time>
</trkpt>
<trkpt lat="39.7401266" lon="3.0411245">
<ele>23.90</ele>
<time>2016-10-19T07:47:11Z</time>
</trkpt>
<trkpt lat="39.7402052" lon="3.0408888">
<ele>22.69</ele>
<time>2016-10-19T07:47:13Z</time>
</trkpt>
<trkpt lat="39.7402884" lon="3.0406677">
<ele>22.96</ele>
<time>2016-10-19T07:47:15Z</time>
</trkpt>
<trkpt lat="39.7404005" lon="3.0403718">
<ele>23.93</ele>
<time>2016-10-19T07:47:18Z</time>
</trkpt>
<trkpt lat="39.7405365" lon="3.0400672">
<ele>25.39</ele>
<time>2016-10-19T07:47:21Z</time>
</trkpt>
<trkpt lat="39.7406079" lon="3.0398487">
<ele>25.57</ele>
<time>2016-10-19T07:47:23Z</time>
</trkpt>
<trkpt lat="39.7406877" lon="3.0395204">
<ele>26.15</ele>
<time>2016-10-19T07:47:26Z</time>
</trkpt>
<trkpt lat="39.7407520" lon="3.0391923">
<ele>25.69</ele>
<time>2016-10-19T07:47:29Z</time>
</trkpt>
<trkpt lat="39.7408143" lon="3.0388658">
<ele>23.92</ele>
<time>2016-10-19T07:47:32Z</time>
</trkpt>
<trkpt lat="39.7408718" lon="3.0385753">
<ele>21.97</ele>
<time>2016-10-19T07:47:35Z</time>
</trkpt>
<trkpt lat="39.7409275" lon="3.0383016">
<ele>21.39</ele>
<time>2016-10-19T07:47:38Z</time>
</trkpt>
<trkpt lat="39.7410083" lon="3.0380241">
<ele>21.70</ele>
<time>2016-10-19T07:47:41Z</time>
</trkpt>
<trkpt lat="39.7411169" lon="3.0377637">
<ele>22.74</ele>
<time>2016-10-19T07:47:44Z</time>
</trkpt>
<trkpt lat="39.7412260" lon="3.0375322">
<ele>23.81</ele>
<time>2016-10-19T07:47:47Z</time>
</trkpt>
<trkpt lat="39.7413252" lon="3.0373294">
<ele>24.41</ele>
<time>2016-10-19T07:47:50Z</time>
</trkpt>
<trkpt lat="39.7414487" lon="3.0370875">
<ele>23.99</ele>
<time>2016-10-19T07:47:54Z</time>
</trkpt>
<trkpt lat="39.7415758" lon="3.0368378">
<ele>24.58</ele>
<time>2016-10-19T07:47:58Z</time>
</trkpt>
<trkpt lat="39.7416995" lon="3.0365769">
<ele>25.16</ele>
<time>2016-10-19T07:48:02Z</time>
</trkpt>
<trkpt lat="39.7417858" lon="3.0363672">
<ele>24.84</ele>
<time>2016-10-19T07:48:05Z</time>
</trkpt>
<trkpt lat="39.7418844" lon="3.0360957">
<ele>25.16</ele>
<time>2016-10-19T07:48:09Z</time>
</trkpt>
<trkpt lat="39.7419683" lon="3.0358146">
<ele>25.45</ele>
<time>2016-10-19T07:48:13Z</time>
</trkpt>
<trkpt lat="39.7420296" lon="3.0355808">
<ele>25.34</ele>
<time>2016-10-19T07:48:16Z</time>
</trkpt>
<trkpt lat="39.7420754" lon="3.0353525">
<ele>25.49</ele>
<time>2016-10-19T07:48:19Z</time>
</trkpt>
<trkpt lat="39.7421222" lon="3.0351249">
<ele>25.19</ele>
<time>2016-10-19T07:48:22Z</time>
</trkpt>
<trkpt lat="39.7421776" lon="3.0348458">
<ele>25.78</ele>
<time>2016-10-19T07:48:26Z</time>
</trkpt>
<trkpt lat="39.7422377" lon="3.0345587">
<ele>26.84</ele>
<time>2016-10-19T07:48:30Z</time>
</trkpt>
<trkpt lat="39.7422918" lon="3.0342799">
<ele>26.51</ele>
<time>2016-10-19T07:48:34Z</time>
</trkpt>
<trkpt lat="39.7423484" lon="3.0339837">
<ele>24.06</ele>
<time>2016-10-19T07:48:38Z</time>
</trkpt>
<trkpt lat="39.7424045" lon="3.0337277">
<ele>24.34</ele>
<time>2016-10-19T07:48:41Z</time>
</trkpt>
<trkpt lat="39.7424776" lon="3.0333976">
<ele>23.49</ele>
<time>2016-10-19T07:48:44Z</time>
</trkpt>
<trkpt lat="39.7425254" lon="3.0331641">
<ele>23.12</ele>
<time>2016-10-19T07:48:46Z</time>
</trkpt>
<trkpt lat="39.7425752" lon="3.0329208">
<ele>22.56</ele>
<time>2016-10-19T07:48:48Z</time>
</trkpt>
<trkpt lat="39.7426311" lon="3.0326200">
<ele>24.64</ele>
<time>2016-10-19T07:48:51Z</time>
</trkpt>
<trkpt lat="39.7426798" lon="3.0323691">
<ele>25.82</ele>
<time>2016-10-19T07:48:54Z</time>
</trkpt>
<trkpt lat="39.7427342" lon="3.0321104">
<ele>25.52</ele>
<time>2016-10-19T07:48:58Z</time>
</trkpt>
<trkpt lat="39.7427805" lon="3.0318830">
<ele>26.02</ele>
<time>2016-10-19T07:49:02Z</time>
</trkpt>
<trkpt lat="39.7428364" lon="3.0316442">
<ele>25.61</ele>
<time>2016-10-19T07:49:06Z</time>
</trkpt>
<trkpt lat="39.7428978" lon="3.0313987">
<ele>26.29</ele>
<time>2016-10-19T07:49:10Z</time>
</trkpt>
<trkpt lat="39.7429556" lon="3.0311489">
<ele>28.19</ele>
<time>2016-10-19T07:49:14Z</time>
</trkpt>
<trkpt lat="39.7430048" lon="3.0309177">
<ele>29.21</ele>
<time>2016-10-19T07:49:18Z</time>
</trkpt>
<trkpt lat="39.7430480" lon="3.0306689">
<ele>30.69</ele>
<time>2016-10-19T07:49:22Z</time>
</trkpt>
<trkpt lat="39.7431005" lon="3.0304103">
<ele>32.06</ele>
<time>2016-10-19T07:49:26Z</time>
</trkpt>
<trkpt lat="39.7431514" lon="3.0301553">
<ele>31.31</ele>
<time>2016-10-19T07:49:30Z</time>
</trkpt>
<trkpt lat="39.7432005" lon="3.0298985">
<ele>32.07</ele>
<time>2016-10-19T07:49:34Z</time>
</trkpt>
<trkpt lat="39.7432563" lon="3.0296335">
<ele>32.86</ele>
<time>2016-10-19T07:49:38Z</time>
</trkpt>
<trkpt lat="39.7433220" lon="3.0293658">
<ele>33.24</ele>
<time>2016-10-19T07:49:42Z</time>
</trkpt>
<trkpt lat="39.7434012" lon="3.0290915">
<ele>32.91</ele>
<time>2016-10-19T07:49:46Z</time>
</trkpt>
<trkpt lat="39.7434847" lon="3.0288255">
<ele>33.01</ele>
<time>2016-10-19T07:49:50Z</time>
</trkpt>
<trkpt lat="39.7435604" lon="3.0285494">
<ele>32.47</ele>
<time>2016-10-19T07:49:54Z</time>
</trkpt>
<trkpt lat="39.7436187" lon="3.0282722">
<ele>32.40</ele>
<time>2016-10-19T07:49:58Z</time>
</trkpt>
<trkpt lat="39.7436962" lon="3.0280067">
<ele>33.16</ele>
<time>2016-10-19T07:50:02Z</time>
</trkpt>
<trkpt lat="39.7437753" lon="3.0277902">
<ele>33.28</ele>
<time>2016-10-19T07:50:05Z</time>
</trkpt>
<trkpt lat="39.7438740" lon="3.0275115">
<ele>32.74</ele>
<time>2016-10-19T07:50:09Z</time>
</trkpt>
<trkpt lat="39.7439707" lon="3.0272355">
<ele>31.65</ele>
<time>2016-10-19T07:50:13Z</time>
</trkpt>
<trkpt lat="39.7440700" lon="3.0269979">
<ele>32.10</ele>
<time>2016-10-19T07:50:17Z</time>
</trkpt>
<trkpt lat="39.7442124" lon="3.0267961">
<ele>32.62</ele>
<time>2016-10-19T07:50:21Z</time>
</trkpt>
<trkpt lat="39.7444067" lon="3.0266196">
<ele>31.13</ele>
<time>2016-10-19T07:50:25Z</time>
</trkpt>
<trkpt lat="39.7446200" lon="3.0264775">
<ele>28.55</ele>
<time>2016-10-19T07:50:29Z</time>
</trkpt>
<trkpt lat="39.7447830" lon="3.0263769">
<ele>27.05</ele>
<time>2016-10-19T07:50:32Z</time>
</trkpt>
<trkpt lat="39.7449470" lon="3.0262782">
<ele>26.20</ele>
<time>2016-10-19T07:50:35Z</time>
</trkpt>
<trkpt lat="39.7451575" lon="3.0261469">
<ele>25.83</ele>
<time>2016-10-19T07:50:39Z</time>
</trkpt>
<trkpt lat="39.7453613" lon="3.0260156">
<ele>25.96</ele>
<time>2016-10-19T07:50:43Z</time>
</trkpt>
<trkpt lat="39.7455586" lon="3.0258844">
<ele>26.46</ele>
<time>2016-10-19T07:50:47Z</time>
</trkpt>
<trkpt lat="39.7457622" lon="3.0257375">
<ele>27.05</ele>
<time>2016-10-19T07:50:51Z</time>
</trkpt>
<trkpt lat="39.7459267" lon="3.0256192">
<ele>27.09</ele>
<time>2016-10-19T07:50:54Z</time>
</trkpt>
<trkpt lat="39.7460908" lon="3.0254995">
<ele>26.57</ele>
<time>2016-10-19T07:50:57Z</time>
</trkpt>
<trkpt lat="39.7462469" lon="3.0253673">
<ele>26.60</ele>
<time>2016-10-19T07:51:00Z</time>
</trkpt>
<trkpt lat="39.7463982" lon="3.0252220">
<ele>26.44</ele>
<time>2016-10-19T07:51:03Z</time>
</trkpt>
<trkpt lat="39.7465461" lon="3.0250642">
<ele>25.95</ele>
<time>2016-10-19T07:51:06Z</time>
</trkpt>
<trkpt lat="39.7467014" lon="3.0249172">
<ele>25.85</ele>
<time>2016-10-19T07:51:09Z</time>
</trkpt>
<trkpt lat="39.7468596" lon="3.0247984">
<ele>26.26</ele>
<time>2016-10-19T07:51:12Z</time>
</trkpt>
<trkpt lat="39.7470317" lon="3.0247043">
<ele>27.04</ele>
<time>2016-10-19T07:51:15Z</time>
</trkpt>
<trkpt lat="39.7472102" lon="3.0246256">
<ele>27.65</ele>
<time>2016-10-19T07:51:18Z</time>
</trkpt>
<trkpt lat="39.7473764" lon="3.0245250">
<ele>28.03</ele>
<time>2016-10-19T07:51:20Z</time>
</trkpt>
<trkpt lat="39.7475538" lon="3.0243749">
<ele>29.10</ele>
<time>2016-10-19T07:51:24Z</time>
</trkpt>
<trkpt lat="39.7477098" lon="3.0242293">
<ele>32.45</ele>
<time>2016-10-19T07:51:28Z</time>
</trkpt>
<trkpt lat="39.7479030" lon="3.0240501">
<ele>35.59</ele>
<time>2016-10-19T07:51:32Z</time>
</trkpt>
<trkpt lat="39.7480566" lon="3.0239119">
<ele>36.56</ele>
<time>2016-10-19T07:51:35Z</time>
</trkpt>
<trkpt lat="39.7482129" lon="3.0237740">
<ele>36.43</ele>
<time>2016-10-19T07:51:38Z</time>
</trkpt>
<trkpt lat="39.7483654" lon="3.0236227">
<ele>35.89</ele>
<time>2016-10-19T07:51:41Z</time>
</trkpt>
<trkpt lat="39.7485317" lon="3.0234571">
<ele>34.95</ele>
<time>2016-10-19T07:51:44Z</time>
</trkpt>
<trkpt lat="39.7486954" lon="3.0232861">
<ele>34.28</ele>
<time>2016-10-19T07:51:47Z</time>
</trkpt>
<trkpt lat="39.7488534" lon="3.0231226">
<ele>34.99</ele>
<time>2016-10-19T07:51:50Z</time>
</trkpt>
<trkpt lat="39.7490287" lon="3.0229498">
<ele>34.81</ele>
<time>2016-10-19T07:51:53Z</time>
</trkpt>
<trkpt lat="39.7491961" lon="3.0227796">
<ele>34.72</ele>
<time>2016-10-19T07:51:56Z</time>
</trkpt>
<trkpt lat="39.7493780" lon="3.0226222">
<ele>34.54</ele>
<time>2016-10-19T07:51:59Z</time>
</trkpt>
<trkpt lat="39.7495706" lon="3.0224735">
<ele>33.75</ele>
<time>2016-10-19T07:52:02Z</time>
</trkpt>
<trkpt lat="39.7497657" lon="3.0223285">
<ele>33.28</ele>
<time>2016-10-19T07:52:05Z</time>
</trkpt>
<trkpt lat="39.7499453" lon="3.0221748">
<ele>33.83</ele>
<time>2016-10-19T07:52:08Z</time>
</trkpt>
<trkpt lat="39.7501090" lon="3.0220055">
<ele>35.25</ele>
<time>2016-10-19T07:52:11Z</time>
</trkpt>
<trkpt lat="39.7502754" lon="3.0218295">
<ele>36.03</ele>
<time>2016-10-19T07:52:14Z</time>
</trkpt>
<trkpt lat="39.7504283" lon="3.0216650">
<ele>36.84</ele>
<time>2016-10-19T07:52:17Z</time>
</trkpt>
<trkpt lat="39.7506054" lon="3.0214705">
<ele>35.01</ele>
<time>2016-10-19T07:52:20Z</time>
</trkpt>
<trkpt lat="39.7507849" lon="3.0212790">
<ele>31.87</ele>
<time>2016-10-19T07:52:23Z</time>
</trkpt>
<trkpt lat="39.7509672" lon="3.0210903">
<ele>29.02</ele>
<time>2016-10-19T07:52:26Z</time>
</trkpt>
<trkpt lat="39.7511348" lon="3.0209154">
<ele>27.16</ele>
<time>2016-10-19T07:52:29Z</time>
</trkpt>
<trkpt lat="39.7512971" lon="3.0207486">
<ele>26.65</ele>
<time>2016-10-19T07:52:32Z</time>
</trkpt>
<trkpt lat="39.7514477" lon="3.0205917">
<ele>27.06</ele>
<time>2016-10-19T07:52:35Z</time>
</trkpt>
<trkpt lat="39.7516001" lon="3.0204312">
<ele>28.73</ele>
<time>2016-10-19T07:52:38Z</time>
</trkpt>
<trkpt lat="39.7517623" lon="3.0202686">
<ele>29.94</ele>
<time>2016-10-19T07:52:41Z</time>
</trkpt>
<trkpt lat="39.7519084" lon="3.0201163">
<ele>30.72</ele>
<time>2016-10-19T07:52:44Z</time>
</trkpt>
<trkpt lat="39.7520609" lon="3.0199712">
<ele>30.42</ele>
<time>2016-10-19T07:52:47Z</time>
</trkpt>
<trkpt lat="39.7522473" lon="3.0197807">
<ele>30.41</ele>
<time>2016-10-19T07:52:51Z</time>
</trkpt>
<trkpt lat="39.7524275" lon="3.0195799">
<ele>30.97</ele>
<time>2016-10-19T07:52:55Z</time>
</trkpt>
<trkpt lat="39.7525659" lon="3.0194128">
<ele>31.24</ele>
<time>2016-10-19T07:52:58Z</time>
</trkpt>
<trkpt lat="39.7527077" lon="3.0192415">
<ele>31.63</ele>
<time>2016-10-19T07:53:01Z</time>
</trkpt>
<trkpt lat="39.7528790" lon="3.0190474">
<ele>32.03</ele>
<time>2016-10-19T07:53:05Z</time>
</trkpt>
<trkpt lat="39.7530170" lon="3.0188898">
<ele>34.25</ele>
<time>2016-10-19T07:53:08Z</time>
</trkpt>
<trkpt lat="39.7531648" lon="3.0187269">
<ele>35.48</ele>
<time>2016-10-19T07:53:11Z</time>
</trkpt>
<trkpt lat="39.7532993" lon="3.0185650">
<ele>35.56</ele>
<time>2016-10-19T07:53:14Z</time>
</trkpt>
<trkpt lat="39.7534352" lon="3.0183928">
<ele>35.52</ele>
<time>2016-10-19T07:53:17Z</time>
</trkpt>
<trkpt lat="39.7536058" lon="3.0181938">
<ele>34.81</ele>
<time>2016-10-19T07:53:21Z</time>
</trkpt>
<trkpt lat="39.7537356" lon="3.0180184">
<ele>34.42</ele>
<time>2016-10-19T07:53:26Z</time>
</trkpt>
<trkpt lat="39.7535830" lon="3.0178358">
<ele>34.26</ele>
<time>2016-10-19T07:53:32Z</time>
</trkpt>
<trkpt lat="39.7533655" lon="3.0177209">
<ele>31.90</ele>
<time>2016-10-19T07:53:36Z</time>
</trkpt>
<trkpt lat="39.7531531" lon="3.0175751">
<ele>31.78</ele>
<time>2016-10-19T07:53:40Z</time>
</trkpt>
<trkpt lat="39.7529955" lon="3.0174455">
<ele>31.81</ele>
<time>2016-10-19T07:53:43Z</time>
</trkpt>
<trkpt lat="39.7528321" lon="3.0173022">
<ele>32.18</ele>
<time>2016-10-19T07:53:46Z</time>
</trkpt>
<trkpt lat="39.7526662" lon="3.0171530">
<ele>32.46</ele>
<time>2016-10-19T07:53:49Z</time>
</trkpt>
<trkpt lat="39.7525007" lon="3.0170060">
<ele>32.88</ele>
<time>2016-10-19T07:53:52Z</time>
</trkpt>
<trkpt lat="39.7523410" lon="3.0168752">
<ele>33.42</ele>
<time>2016-10-19T07:53:55Z</time>
</trkpt>
<trkpt lat="39.7521863" lon="3.0167281">
<ele>34.56</ele>
<time>2016-10-19T07:53:58Z</time>
</trkpt>
<trkpt lat="39.7520323" lon="3.0165773">
<ele>35.15</ele>
<time>2016-10-19T07:54:01Z</time>
</trkpt>
<trkpt lat="39.7518728" lon="3.0164351">
<ele>35.62</ele>
<time>2016-10-19T07:54:04Z</time>
</trkpt>
<trkpt lat="39.7516755" lon="3.0162652">
<ele>34.31</ele>
<time>2016-10-19T07:54:08Z</time>
</trkpt>
<trkpt lat="39.7515193" lon="3.0161227">
<ele>33.40</ele>
<time>2016-10-19T07:54:11Z</time>
</trkpt>
<trkpt lat="39.7513706" lon="3.0159887">
<ele>33.14</ele>
<time>2016-10-19T07:54:14Z</time>
</trkpt>
<trkpt lat="39.7512076" lon="3.0158494">
<ele>32.78</ele>
<time>2016-10-19T07:54:17Z</time>
</trkpt>
<trkpt lat="39.7510436" lon="3.0157117">
<ele>32.31</ele>
<time>2016-10-19T07:54:20Z</time>
</trkpt>
<trkpt lat="39.7508785" lon="3.0155891">
<ele>32.61</ele>
<time>2016-10-19T07:54:23Z</time>
</trkpt>
<trkpt lat="39.7507075" lon="3.0154871">
<ele>32.68</ele>
<time>2016-10-19T07:54:26Z</time>
</trkpt>
<trkpt lat="39.7505183" lon="3.0153981">
<ele>32.38</ele>
<time>2016-10-19T07:54:29Z</time>
</trkpt>
<trkpt lat="39.7503481" lon="3.0153133">
<ele>31.97</ele>
<time>2016-10-19T07:54:32Z</time>
</trkpt>
<trkpt lat="39.7501772" lon="3.0152277">
<ele>32.12</ele>
<time>2016-10-19T07:54:35Z</time>
</trkpt>
<trkpt lat="39.7500016" lon="3.0151392">
<ele>33.08</ele>
<time>2016-10-19T07:54:38Z</time>
</trkpt>
<trkpt lat="39.7498213" lon="3.0150326">
<ele>34.15</ele>
<time>2016-10-19T07:54:41Z</time>
</trkpt>
<trkpt lat="39.7496579" lon="3.0149225">
<ele>35.44</ele>
<time>2016-10-19T07:54:44Z</time>
</trkpt>
<trkpt lat="39.7494623" lon="3.0147813">
<ele>36.51</ele>
<time>2016-10-19T07:54:48Z</time>
</trkpt>
<trkpt lat="39.7492950" lon="3.0146646">
<ele>38.45</ele>
<time>2016-10-19T07:54:51Z</time>
</trkpt>
<trkpt lat="39.7491015" lon="3.0145110">
<ele>38.61</ele>
<time>2016-10-19T07:54:55Z</time>
</trkpt>
<trkpt lat="39.7489252" lon="3.0143685">
<ele>36.52</ele>
<time>2016-10-19T07:54:59Z</time>
</trkpt>
<trkpt lat="39.7487287" lon="3.0142182">
<ele>36.54</ele>
<time>2016-10-19T07:55:03Z</time>
</trkpt>
<trkpt lat="39.7485229" lon="3.0140735">
<ele>34.99</ele>
<time>2016-10-19T07:55:07Z</time>
</trkpt>
<trkpt lat="39.7483212" lon="3.0139358">
<ele>34.42</ele>
<time>2016-10-19T07:55:11Z</time>
</trkpt>
<trkpt lat="39.7481563" lon="3.0138368">
<ele>34.04</ele>
<time>2016-10-19T07:55:14Z</time>
</trkpt>
<trkpt lat="39.7479559" lon="3.0137187">
<ele>33.94</ele>
<time>2016-10-19T07:55:18Z</time>
</trkpt>
<trkpt lat="39.7477624" lon="3.0135611">
<ele>36.15</ele>
<time>2016-10-19T07:55:22Z</time>
</trkpt>
<trkpt lat="39.7476061" lon="3.0134086">
<ele>37.25</ele>
<time>2016-10-19T07:55:25Z</time>
</trkpt>
<trkpt lat="39.7474395" lon="3.0132569">
<ele>37.64</ele>
<time>2016-10-19T07:55:28Z</time>
</trkpt>
<trkpt lat="39.7472738" lon="3.0130871">
<ele>37.35</ele>
<time>2016-10-19T07:55:31Z</time>
</trkpt>
<trkpt lat="39.7471181" lon="3.0129340">
<ele>36.22</ele>
<time>2016-10-19T07:55:34Z</time>
</trkpt>
<trkpt lat="39.7469724" lon="3.0127789">
<ele>34.67</ele>
<time>2016-10-19T07:55:37Z</time>
</trkpt>
<trkpt lat="39.7468122" lon="3.0125557">
<ele>34.72</ele>
<time>2016-10-19T07:55:41Z</time>
</trkpt>
<trkpt lat="39.7466778" lon="3.0123144">
<ele>35.24</ele>
<time>2016-10-19T07:55:45Z</time>
</trkpt>
<trkpt lat="39.7465396" lon="3.0120640">
<ele>35.61</ele>
<time>2016-10-19T07:55:49Z</time>
</trkpt>
<trkpt lat="39.7464267" lon="3.0118470">
<ele>35.72</ele>
<time>2016-10-19T07:55:52Z</time>
</trkpt>
<trkpt lat="39.7462959" lon="3.0115879">
<ele>36.19</ele>
<time>2016-10-19T07:55:56Z</time>
</trkpt>
<trkpt lat="39.7461923" lon="3.0113808">
<ele>36.67</ele>
<time>2016-10-19T07:55:59Z</time>
</trkpt>
<trkpt lat="39.7460771" lon="3.0111579">
<ele>36.47</ele>
<time>2016-10-19T07:56:02Z</time>
</trkpt>
<trkpt lat="39.7459717" lon="3.0109573">
<ele>36.00</ele>
<time>2016-10-19T07:56:05Z</time>
</trkpt>
<trkpt lat="39.7458454" lon="3.0107290">
<ele>35.24</ele>
<time>2016-10-19T07:56:09Z</time>
</trkpt>
<trkpt lat="39.7457078" lon="3.0104869">
<ele>35.42</ele>
<time>2016-10-19T07:56:13Z</time>
</trkpt>
<trkpt lat="39.7456020" lon="3.0102901">
<ele>35.68</ele>
<time>2016-10-19T07:56:16Z</time>
</trkpt>
<trkpt lat="39.7454895" lon="3.0100908">
<ele>35.33</ele>
<time>2016-10-19T07:56:19Z</time>
</trkpt>
<trkpt lat="39.7453821" lon="3.0098905">
<ele>35.67</ele>
<time>2016-10-19T07:56:22Z</time>
</trkpt>
<trkpt lat="39.7452704" lon="3.0096765">
<ele>36.01</ele>
<time>2016-10-19T07:56:25Z</time>
</trkpt>
<trkpt lat="39.7451691" lon="3.0094801">
<ele>35.75</ele>
<time>2016-10-19T07:56:28Z</time>
</trkpt>
<trkpt lat="39.7450501" lon="3.0092349">
<ele>36.65</ele>
<time>2016-10-19T07:56:32Z</time>
</trkpt>
<trkpt lat="39.7449296" lon="3.0089551">
<ele>37.94</ele>
<time>2016-10-19T07:56:36Z</time>
</trkpt>
<trkpt lat="39.7448406" lon="3.0087396">
<ele>38.68</ele>
<time>2016-10-19T07:56:39Z</time>
</trkpt>
<trkpt lat="39.7447549" lon="3.0085296">
<ele>38.59</ele>
<time>2016-10-19T07:56:42Z</time>
</trkpt>
<trkpt lat="39.7446700" lon="3.0083225">
<ele>38.82</ele>
<time>2016-10-19T07:56:45Z</time>
</trkpt>
<trkpt lat="39.7445843" lon="3.0081094">
<ele>38.51</ele>
<time>2016-10-19T07:56:48Z</time>
</trkpt>
<trkpt lat="39.7444957" lon="3.0078961">
<ele>37.90</ele>
<time>2016-10-19T07:56:51Z</time>
</trkpt>
<trkpt lat="39.7443827" lon="3.0076344">
<ele>37.67</ele>
<time>2016-10-19T07:56:55Z</time>
</trkpt>
<trkpt lat="39.7442667" lon="3.0073684">
<ele>38.18</ele>
<time>2016-10-19T07:56:59Z</time>
</trkpt>
<trkpt lat="39.7441774" lon="3.0071512">
<ele>38.55</ele>
<time>2016-10-19T07:57:02Z</time>
</trkpt>
<trkpt lat="39.7440858" lon="3.0069341">
<ele>38.84</ele>
<time>2016-10-19T07:57:05Z</time>
</trkpt>
<trkpt lat="39.7439953" lon="3.0067118">
<ele>38.97</ele>
<time>2016-10-19T07:57:08Z</time>
</trkpt>
<trkpt lat="39.7439168" lon="3.0064689">
<ele>39.44</ele>
<time>2016-10-19T07:57:11Z</time>
</trkpt>
<trkpt lat="39.7438392" lon="3.0062216">
<ele>39.98</ele>
<time>2016-10-19T07:57:14Z</time>
</trkpt>
<trkpt lat="39.7437724" lon="3.0059827">
<ele>39.93</ele>
<time>2016-10-19T07:57:17Z</time>
</trkpt>
<trkpt lat="39.7437060" lon="3.0057563">
<ele>39.66</ele>
<time>2016-10-19T07:57:20Z</time>
</trkpt>
<trkpt lat="39.7436395" lon="3.0055323">
<ele>40.12</ele>
<time>2016-10-19T07:57:23Z</time>
</trkpt>
<trkpt lat="39.7435738" lon="3.0053120">
<ele>40.76</ele>
<time>2016-10-19T07:57:26Z</time>
</trkpt>
<trkpt lat="39.7435069" lon="3.0050792">
<ele>41.44</ele>
<time>2016-10-19T07:57:29Z</time>
</trkpt>
<trkpt lat="39.7434402" lon="3.0048278">
<ele>42.63</ele>
<time>2016-10-19T07:57:32Z</time>
</trkpt>
<trkpt lat="39.7433704" lon="3.0045777">
<ele>41.99</ele>
<time>2016-10-19T07:57:35Z</time>
</trkpt>
<trkpt lat="39.7433008" lon="3.0043431">
<ele>40.91</ele>
<time>2016-10-19T07:57:38Z</time>
</trkpt>
<trkpt lat="39.7432324" lon="3.0041061">
<ele>39.78</ele>
<time>2016-10-19T07:57:41Z</time>
</trkpt>
<trkpt lat="39.7431621" lon="3.0038783">
<ele>39.99</ele>
<time>2016-10-19T07:57:44Z</time>
</trkpt>
<trkpt lat="39.7430826" lon="3.0035830">
<ele>40.52</ele>
<time>2016-10-19T07:57:48Z</time>
</trkpt>
<trkpt lat="39.7430191" lon="3.0033487">
<ele>40.85</ele>
<time>2016-10-19T07:57:51Z</time>
</trkpt>
<trkpt lat="39.7429602" lon="3.0031270">
<ele>41.94</ele>
<time>2016-10-19T07:57:54Z</time>
</trkpt>
<trkpt lat="39.7429004" lon="3.0028999">
<ele>43.48</ele>
<time>2016-10-19T07:57:57Z</time>
</trkpt>
<trkpt lat="39.7428465" lon="3.0026757">
<ele>44.29</ele>
<time>2016-10-19T07:58:00Z</time>
</trkpt>
<trkpt lat="39.7427848" lon="3.0024462">
<ele>44.26</ele>
<time>2016-10-19T07:58:03Z</time>
</trkpt>
<trkpt lat="39.7427098" lon="3.0021598">
<ele>43.28</ele>
<time>2016-10-19T07:58:07Z</time>
</trkpt>
<trkpt lat="39.7426511" lon="3.0019346">
<ele>42.43</ele>
<time>2016-10-19T07:58:10Z</time>
</trkpt>
<trkpt lat="39.7425885" lon="3.0016745">
<ele>43.56</ele>
<time>2016-10-19T07:58:13Z</time>
</trkpt>
<trkpt lat="39.7425151" lon="3.0013864">
<ele>44.18</ele>
<time>2016-10-19T07:58:17Z</time>
</trkpt>
<trkpt lat="39.7424550" lon="3.0011657">
<ele>44.84</ele>
<time>2016-10-19T07:58:20Z</time>
</trkpt>
<trkpt lat="39.7423917" lon="3.0009277">
<ele>45.69</ele>
<time>2016-10-19T07:58:23Z</time>
</trkpt>
<trkpt lat="39.7423362" lon="3.0006910">
<ele>46.33</ele>
<time>2016-10-19T07:58:26Z</time>
</trkpt>
<trkpt lat="39.7422829" lon="3.0004655">
<ele>45.92</ele>
<time>2016-10-19T07:58:29Z</time>
</trkpt>
<trkpt lat="39.7422199" lon="3.0002215">
<ele>46.53</ele>
<time>2016-10-19T07:58:32Z</time>
</trkpt>
<trkpt lat="39.7421627" lon="2.9999975">
<ele>45.99</ele>
<time>2016-10-19T07:58:35Z</time>
</trkpt>
<trkpt lat="39.7420995" lon="2.9997612">
<ele>45.44</ele>
<time>2016-10-19T07:58:38Z</time>
</trkpt>
<trkpt lat="39.7420420" lon="2.9995197">
<ele>45.77</ele>
<time>2016-10-19T07:58:41Z</time>
</trkpt>
<trkpt lat="39.7419835" lon="2.9992792">
<ele>44.90</ele>
<time>2016-10-19T07:58:44Z</time>
</trkpt>
<trkpt lat="39.7419198" lon="2.9990390">
<ele>44.27</ele>
<time>2016-10-19T07:58:47Z</time>
</trkpt>
<trkpt lat="39.7418531" lon="2.9988000">
<ele>45.44</ele>
<time>2016-10-19T07:58:50Z</time>
</trkpt>
<trkpt lat="39.7417934" lon="2.9985765">
<ele>46.05</ele>
<time>2016-10-19T07:58:53Z</time>
</trkpt>
<trkpt lat="39.7417248" lon="2.9983343">
<ele>46.32</ele>
<time>2016-10-19T07:58:56Z</time>
</trkpt>
<trkpt lat="39.7416460" lon="2.9981132">
<ele>45.15</ele>
<time>2016-10-19T07:58:59Z</time>
</trkpt>
<trkpt lat="39.7415557" lon="2.9978889">
<ele>44.16</ele>
<time>2016-10-19T07:59:02Z</time>
</trkpt>
<trkpt lat="39.7414611" lon="2.9976657">
<ele>44.46</ele>
<time>2016-10-19T07:59:05Z</time>
</trkpt>
<trkpt lat="39.7413580" lon="2.9974596">
<ele>45.58</ele>
<time>2016-10-19T07:59:08Z</time>
</trkpt>
<trkpt lat="39.7412334" lon="2.9972141">
<ele>46.72</ele>
<time>2016-10-19T07:59:12Z</time>
</trkpt>
<trkpt lat="39.7411257" lon="2.9969933">
<ele>48.33</ele>
<time>2016-10-19T07:59:15Z</time>
</trkpt>
<trkpt lat="39.7410288" lon="2.9967824">
<ele>48.79</ele>
<time>2016-10-19T07:59:18Z</time>
</trkpt>
<trkpt lat="39.7409266" lon="2.9965541">
<ele>49.09</ele>
<time>2016-10-19T07:59:21Z</time>
</trkpt>
<trkpt lat="39.7408272" lon="2.9963436">
<ele>47.72</ele>
<time>2016-10-19T07:59:24Z</time>
</trkpt>
<trkpt lat="39.7407291" lon="2.9961420">
<ele>46.53</ele>
<time>2016-10-19T07:59:27Z</time>
</trkpt>
<trkpt lat="39.7406319" lon="2.9959324">
<ele>46.12</ele>
<time>2016-10-19T07:59:30Z</time>
</trkpt>
<trkpt lat="39.7405061" lon="2.9956645">
<ele>46.22</ele>
<time>2016-10-19T07:59:34Z</time>
</trkpt>
<trkpt lat="39.7404046" lon="2.9954655">
<ele>46.45</ele>
<time>2016-10-19T07:59:37Z</time>
</trkpt>
<trkpt lat="39.7403100" lon="2.9952611">
<ele>47.75</ele>
<time>2016-10-19T07:59:40Z</time>
</trkpt>
<trkpt lat="39.7402153" lon="2.9950533">
<ele>48.27</ele>
<time>2016-10-19T07:59:43Z</time>
</trkpt>
<trkpt lat="39.7401106" lon="2.9948258">
<ele>49.38</ele>
<time>2016-10-19T07:59:46Z</time>
</trkpt>
<trkpt lat="39.7400173" lon="2.9946239">
<ele>50.37</ele>
<time>2016-10-19T07:59:49Z</time>
</trkpt>
<trkpt lat="39.7399281" lon="2.9944187">
<ele>49.94</ele>
<time>2016-10-19T07:59:52Z</time>
</trkpt>
<trkpt lat="39.7398426" lon="2.9941890">
<ele>48.89</ele>
<time>2016-10-19T07:59:56Z</time>
</trkpt>
<trkpt lat="39.7397524" lon="2.9939614">
<ele>47.57</ele>
<time>2016-10-19T07:59:59Z</time>
</trkpt>
<trkpt lat="39.7396711" lon="2.9937282">
<ele>47.51</ele>
<time>2016-10-19T08:00:02Z</time>
</trkpt>
<trkpt lat="39.7395872" lon="2.9934959">
<ele>47.91</ele>
<time>2016-10-19T08:00:05Z</time>
</trkpt>
<trkpt lat="39.7394993" lon="2.9932677">
<ele>47.99</ele>
<time>2016-10-19T08:00:08Z</time>
</trkpt>
<trkpt lat="39.7394046" lon="2.9930412">
<ele>48.20</ele>
<time>2016-10-19T08:00:11Z</time>
</trkpt>
<trkpt lat="39.7393166" lon="2.9928080">
<ele>48.42</ele>
<time>2016-10-19T08:00:14Z</time>
</trkpt>
<trkpt lat="39.7392325" lon="2.9925737">
<ele>49.01</ele>
<time>2016-10-19T08:00:17Z</time>
</trkpt>
<trkpt lat="39.7391466" lon="2.9923398">
<ele>49.52</ele>
<time>2016-10-19T08:00:20Z</time>
</trkpt>
<trkpt lat="39.7390600" lon="2.9921156">
<ele>49.54</ele>
<time>2016-10-19T08:00:23Z</time>
</trkpt>
<trkpt lat="39.7389729" lon="2.9919026">
<ele>49.27</ele>
<time>2016-10-19T08:00:26Z</time>
</trkpt>
<trkpt lat="39.7388624" lon="2.9916170">
<ele>48.76</ele>
<time>2016-10-19T08:00:30Z</time>
</trkpt>
<trkpt lat="39.7387732" lon="2.9913981">
<ele>47.82</ele>
<time>2016-10-19T08:00:33Z</time>
</trkpt>
<trkpt lat="39.7386833" lon="2.9911760">
<ele>47.55</ele>
<time>2016-10-19T08:00:36Z</time>
</trkpt>
<trkpt lat="39.7385924" lon="2.9909505">
<ele>48.87</ele>
<time>2016-10-19T08:00:39Z</time>
</trkpt>
<trkpt lat="39.7384971" lon="2.9907168">
<ele>49.73</ele>
<time>2016-10-19T08:00:42Z</time>
</trkpt>
<trkpt lat="39.7384115" lon="2.9905017">
<ele>50.07</ele>
<time>2016-10-19T08:00:45Z</time>
</trkpt>
<trkpt lat="39.7383272" lon="2.9902745">
<ele>50.72</ele>
<time>2016-10-19T08:00:48Z</time>
</trkpt>
<trkpt lat="39.7382188" lon="2.9900094">
<ele>50.66</ele>
<time>2016-10-19T08:00:52Z</time>
</trkpt>
<trkpt lat="39.7381070" lon="2.9897358">
<ele>50.27</ele>
<time>2016-10-19T08:00:56Z</time>
</trkpt>
<trkpt lat="39.7380100" lon="2.9894739">
<ele>51.95</ele>
<time>2016-10-19T08:00:59Z</time>
</trkpt>
<trkpt lat="39.7379294" lon="2.9892281">
<ele>52.02</ele>
<time>2016-10-19T08:01:02Z</time>
</trkpt>
<trkpt lat="39.7378518" lon="2.9890091">
<ele>50.33</ele>
<time>2016-10-19T08:01:05Z</time>
</trkpt>
<trkpt lat="39.7377667" lon="2.9887868">
<ele>49.93</ele>
<time>2016-10-19T08:01:08Z</time>
</trkpt>
<trkpt lat="39.7376760" lon="2.9885590">
<ele>49.14</ele>
<time>2016-10-19T08:01:11Z</time>
</trkpt>
<trkpt lat="39.7375971" lon="2.9883322">
<ele>49.88</ele>
<time>2016-10-19T08:01:14Z</time>
</trkpt>
<trkpt lat="39.7374864" lon="2.9880567">
<ele>50.66</ele>
<time>2016-10-19T08:01:18Z</time>
</trkpt>
<trkpt lat="39.7374025" lon="2.9878333">
<ele>51.37</ele>
<time>2016-10-19T08:01:21Z</time>
</trkpt>
<trkpt lat="39.7373122" lon="2.9876117">
<ele>51.32</ele>
<time>2016-10-19T08:01:24Z</time>
</trkpt>
<trkpt lat="39.7372283" lon="2.9873874">
<ele>51.86</ele>
<time>2016-10-19T08:01:27Z</time>
</trkpt>
<trkpt lat="39.7371227" lon="2.9871193">
<ele>52.05</ele>
<time>2016-10-19T08:01:31Z</time>
</trkpt>
<trkpt lat="39.7370324" lon="2.9868887">
<ele>52.61</ele>
<time>2016-10-19T08:01:34Z</time>
</trkpt>
<trkpt lat="39.7369479" lon="2.9866657">
<ele>52.79</ele>
<time>2016-10-19T08:01:37Z</time>
</trkpt>
<trkpt lat="39.7368661" lon="2.9864423">
<ele>52.65</ele>
<time>2016-10-19T08:01:40Z</time>
</trkpt>
<trkpt lat="39.7367845" lon="2.9862158">
<ele>53.17</ele>
<time>2016-10-19T08:01:43Z</time>
</trkpt>
<trkpt lat="39.7366978" lon="2.9859926">
<ele>54.33</ele>
<time>2016-10-19T08:01:46Z</time>
</trkpt>
<trkpt lat="39.7366111" lon="2.9857844">
<ele>54.93</ele>
<time>2016-10-19T08:01:49Z</time>
</trkpt>
<trkpt lat="39.7365303" lon="2.9855750">
<ele>54.76</ele>
<time>2016-10-19T08:01:52Z</time>
</trkpt>
<trkpt lat="39.7364190" lon="2.9853009">
<ele>54.49</ele>
<time>2016-10-19T08:01:56Z</time>
</trkpt>
<trkpt lat="39.7363385" lon="2.9850814">
<ele>54.73</ele>
<time>2016-10-19T08:01:59Z</time>
</trkpt>
<trkpt lat="39.7362540" lon="2.9848550">
<ele>55.44</ele>
<time>2016-10-19T08:02:02Z</time>
</trkpt>
<trkpt lat="39.7361661" lon="2.9846202">
<ele>56.78</ele>
<time>2016-10-19T08:02:05Z</time>
</trkpt>
<trkpt lat="39.7360863" lon="2.9844006">
<ele>58.33</ele>
<time>2016-10-19T08:02:08Z</time>
</trkpt>
<trkpt lat="39.7359842" lon="2.9841245">
<ele>59.05</ele>
<time>2016-10-19T08:02:12Z</time>
</trkpt>
<trkpt lat="39.7358546" lon="2.9838952">
<ele>59.90</ele>
<time>2016-10-19T08:02:16Z</time>
</trkpt>
<trkpt lat="39.7356072" lon="2.9838526">
<ele>58.75</ele>
<time>2016-10-19T08:02:20Z</time>
</trkpt>
<trkpt lat="39.7353855" lon="2.9838661">
<ele>58.19</ele>
<time>2016-10-19T08:02:23Z</time>
</trkpt>
<trkpt lat="39.7351813" lon="2.9838889">
<ele>57.79</ele>
<time>2016-10-19T08:02:26Z</time>
</trkpt>
<trkpt lat="39.7349751" lon="2.9839172">
<ele>56.63</ele>
<time>2016-10-19T08:02:29Z</time>
</trkpt>
<trkpt lat="39.7347709" lon="2.9839329">
<ele>56.57</ele>
<time>2016-10-19T08:02:32Z</time>
</trkpt>
<trkpt lat="39.7345638" lon="2.9839597">
<ele>58.22</ele>
<time>2016-10-19T08:02:35Z</time>
</trkpt>
<trkpt lat="39.7343604" lon="2.9839865">
<ele>57.66</ele>
<time>2016-10-19T08:02:38Z</time>
</trkpt>
<trkpt lat="39.7341544" lon="2.9840152">
<ele>56.33</ele>
<time>2016-10-19T08:02:41Z</time>
</trkpt>
<trkpt lat="39.7339563" lon="2.9840412">
<ele>54.99</ele>
<time>2016-10-19T08:02:44Z</time>
</trkpt>
<trkpt lat="39.7337520" lon="2.9840685">
<ele>54.53</ele>
<time>2016-10-19T08:02:47Z</time>
</trkpt>
<trkpt lat="39.7335624" lon="2.9840826">
<ele>56.19</ele>
<time>2016-10-19T08:02:50Z</time>
</trkpt>
<trkpt lat="39.7333402" lon="2.9841074">
<ele>56.57</ele>
<time>2016-10-19T08:02:53Z</time>
</trkpt>
<trkpt lat="39.7331286" lon="2.9841369">
<ele>56.75</ele>
<time>2016-10-19T08:02:56Z</time>
</trkpt>
<trkpt lat="39.7329233" lon="2.9841613">
<ele>56.69</ele>
<time>2016-10-19T08:02:59Z</time>
</trkpt>
<trkpt lat="39.7327204" lon="2.9841851">
<ele>56.68</ele>
<time>2016-10-19T08:03:02Z</time>
</trkpt>
<trkpt lat="39.7324977" lon="2.9842204">
<ele>56.35</ele>
<time>2016-10-19T08:03:05Z</time>
</trkpt>
<trkpt lat="39.7323017" lon="2.9842451">
<ele>56.62</ele>
<time>2016-10-19T08:03:08Z</time>
</trkpt>
<trkpt lat="39.7320779" lon="2.9842708">
<ele>57.37</ele>
<time>2016-10-19T08:03:11Z</time>
</trkpt>
<trkpt lat="39.7318651" lon="2.9843127">
<ele>57.22</ele>
<time>2016-10-19T08:03:14Z</time>
</trkpt>
<trkpt lat="39.7316401" lon="2.9843465">
<ele>56.50</ele>
<time>2016-10-19T08:03:17Z</time>
</trkpt>
<trkpt lat="39.7314219" lon="2.9843747">
<ele>56.28</ele>
<time>2016-10-19T08:03:20Z</time>
</trkpt>
<trkpt lat="39.7312002" lon="2.9843921">
<ele>56.41</ele>
<time>2016-10-19T08:03:23Z</time>
</trkpt>
<trkpt lat="39.7309841" lon="2.9844044">
<ele>55.62</ele>
<time>2016-10-19T08:03:26Z</time>
</trkpt>
<trkpt lat="39.7307583" lon="2.9844346">
<ele>54.87</ele>
<time>2016-10-19T08:03:29Z</time>
</trkpt>
<trkpt lat="39.7305467" lon="2.9844624">
<ele>54.63</ele>
<time>2016-10-19T08:03:32Z</time>
</trkpt>
<trkpt lat="39.7303411" lon="2.9844881">
<ele>54.98</ele>
<time>2016-10-19T08:03:35Z</time>
</trkpt>
<trkpt lat="39.7301265" lon="2.9845023">
<ele>56.07</ele>
<time>2016-10-19T08:03:38Z</time>
</trkpt>
<trkpt lat="39.7298981" lon="2.9845010">
<ele>55.99</ele>
<time>2016-10-19T08:03:41Z</time>
</trkpt>
<trkpt lat="39.7296560" lon="2.9844832">
<ele>55.92</ele>
<time>2016-10-19T08:03:44Z</time>
</trkpt>
<trkpt lat="39.7294066" lon="2.9844419">
<ele>56.14</ele>
<time>2016-10-19T08:03:47Z</time>
</trkpt>
<trkpt lat="39.7291592" lon="2.9844021">
<ele>54.20</ele>
<time>2016-10-19T08:03:50Z</time>
</trkpt>
<trkpt lat="39.7289117" lon="2.9843573">
<ele>51.37</ele>
<time>2016-10-19T08:03:53Z</time>
</trkpt>
<trkpt lat="39.7286658" lon="2.9843231">
<ele>49.65</ele>
<time>2016-10-19T08:03:56Z</time>
</trkpt>
<trkpt lat="39.7284317" lon="2.9842922">
<ele>48.13</ele>
<time>2016-10-19T08:03:59Z</time>
</trkpt>
<trkpt lat="39.7282024" lon="2.9842518">
<ele>47.88</ele>
<time>2016-10-19T08:04:02Z</time>
</trkpt>
<trkpt lat="39.7279931" lon="2.9842145">
<ele>47.28</ele>
<time>2016-10-19T08:04:05Z</time>
</trkpt>
<trkpt lat="39.7277725" lon="2.9841781">
<ele>47.55</ele>
<time>2016-10-19T08:04:08Z</time>
</trkpt>
<trkpt lat="39.7275500" lon="2.9841452">
<ele>47.75</ele>
<time>2016-10-19T08:04:11Z</time>
</trkpt>
<trkpt lat="39.7273197" lon="2.9841147">
<ele>48.04</ele>
<time>2016-10-19T08:04:14Z</time>
</trkpt>
<trkpt lat="39.7270974" lon="2.9840805">
<ele>48.76</ele>
<time>2016-10-19T08:04:17Z</time>
</trkpt>
<trkpt lat="39.7268614" lon="2.9840431">
<ele>48.97</ele>
<time>2016-10-19T08:04:20Z</time>
</trkpt>
<trkpt lat="39.7266506" lon="2.9840078">
<ele>49.14</ele>
<time>2016-10-19T08:04:23Z</time>
</trkpt>
<trkpt lat="39.7264303" lon="2.9839730">
<ele>49.50</ele>
<time>2016-10-19T08:04:26Z</time>
</trkpt>
<trkpt lat="39.7262148" lon="2.9839478">
<ele>49.07</ele>
<time>2016-10-19T08:04:29Z</time>
</trkpt>
<trkpt lat="39.7260054" lon="2.9839301">
<ele>47.74</ele>
<time>2016-10-19T08:04:32Z</time>
</trkpt>
<trkpt lat="39.7257719" lon="2.9838933">
<ele>48.52</ele>
<time>2016-10-19T08:04:35Z</time>
</trkpt>
<trkpt lat="39.7255344" lon="2.9838416">
<ele>49.38</ele>
<time>2016-10-19T08:04:38Z</time>
</trkpt>
<trkpt lat="39.7253163" lon="2.9837774">
<ele>50.18</ele>
<time>2016-10-19T08:04:41Z</time>
</trkpt>
<trkpt lat="39.7250870" lon="2.9837008">
<ele>50.88</ele>
<time>2016-10-19T08:04:44Z</time>
</trkpt>
<trkpt lat="39.7248707" lon="2.9836240">
<ele>50.86</ele>
<time>2016-10-19T08:04:47Z</time>
</trkpt>
<trkpt lat="39.7246611" lon="2.9835614">
<ele>51.43</ele>
<time>2016-10-19T08:04:50Z</time>
</trkpt>
<trkpt lat="39.7244492" lon="2.9834965">
<ele>50.85</ele>
<time>2016-10-19T08:04:53Z</time>
</trkpt>
<trkpt lat="39.7242203" lon="2.9834267">
<ele>51.45</ele>
<time>2016-10-19T08:04:56Z</time>
</trkpt>
<trkpt lat="39.7239957" lon="2.9833613">
<ele>52.13</ele>
<time>2016-10-19T08:04:59Z</time>
</trkpt>
<trkpt lat="39.7237785" lon="2.9832929">
<ele>51.69</ele>
<time>2016-10-19T08:05:02Z</time>
</trkpt>
<trkpt lat="39.7235624" lon="2.9832359">
<ele>49.69</ele>
<time>2016-10-19T08:05:05Z</time>
</trkpt>
<trkpt lat="39.7233734" lon="2.9831737">
<ele>48.66</ele>
<time>2016-10-19T08:05:08Z</time>
</trkpt>
<trkpt lat="39.7231675" lon="2.9831149">
<ele>49.50</ele>
<time>2016-10-19T08:05:11Z</time>
</trkpt>
<trkpt lat="39.7229505" lon="2.9830517">
<ele>51.29</ele>
<time>2016-10-19T08:05:14Z</time>
</trkpt>
<trkpt lat="39.7227177" lon="2.9829710">
<ele>52.54</ele>
<time>2016-10-19T08:05:17Z</time>
</trkpt>
<trkpt lat="39.7224987" lon="2.9828642">
<ele>53.06</ele>
<time>2016-10-19T08:05:20Z</time>
</trkpt>
<trkpt lat="39.7222966" lon="2.9827429">
<ele>53.85</ele>
<time>2016-10-19T08:05:23Z</time>
</trkpt>
<trkpt lat="39.7220910" lon="2.9826115">
<ele>54.62</ele>
<time>2016-10-19T08:05:26Z</time>
</trkpt>
<trkpt lat="39.7218851" lon="2.9824798">
<ele>55.41</ele>
<time>2016-10-19T08:05:29Z</time>
</trkpt>
<trkpt lat="39.7216920" lon="2.9823564">
<ele>55.22</ele>
<time>2016-10-19T08:05:32Z</time>
</trkpt>
<trkpt lat="39.7215285" lon="2.9822535">
<ele>54.71</ele>
<time>2016-10-19T08:05:35Z</time>
</trkpt>
<trkpt lat="39.7213393" lon="2.9821280">
<ele>54.47</ele>
<time>2016-10-19T08:05:39Z</time>
</trkpt>
<trkpt lat="39.7211561" lon="2.9820106">
<ele>51.52</ele>
<time>2016-10-19T08:05:43Z</time>
</trkpt>
<trkpt lat="39.7209699" lon="2.9818889">
<ele>50.53</ele>
<time>2016-10-19T08:05:47Z</time>
</trkpt>
<trkpt lat="39.7208422" lon="2.9816304">
<ele>51.20</ele>
<time>2016-10-19T08:05:51Z</time>
</trkpt>
<trkpt lat="39.7207953" lon="2.9813882">
<ele>50.83</ele>
<time>2016-10-19T08:05:54Z</time>
</trkpt>
<trkpt lat="39.7207571" lon="2.9811463">
<ele>51.15</ele>
<time>2016-10-19T08:05:57Z</time>
</trkpt>
<trkpt lat="39.7207162" lon="2.9808964">
<ele>50.56</ele>
<time>2016-10-19T08:06:00Z</time>
</trkpt>
<trkpt lat="39.7206809" lon="2.9806419">
<ele>50.77</ele>
<time>2016-10-19T08:06:03Z</time>
</trkpt>
<trkpt lat="39.7206475" lon="2.9803967">
<ele>50.85</ele>
<time>2016-10-19T08:06:06Z</time>
</trkpt>
<trkpt lat="39.7206139" lon="2.9801501">
<ele>50.97</ele>
<time>2016-10-19T08:06:09Z</time>
</trkpt>
<trkpt lat="39.7205742" lon="2.9799092">
<ele>51.51</ele>
<time>2016-10-19T08:06:12Z</time>
</trkpt>
<trkpt lat="39.7205318" lon="2.9796489">
<ele>52.51</ele>
<time>2016-10-19T08:06:15Z</time>
</trkpt>
<trkpt lat="39.7204898" lon="2.9793946">
<ele>52.65</ele>
<time>2016-10-19T08:06:18Z</time>
</trkpt>
<trkpt lat="39.7204494" lon="2.9791422">
<ele>52.60</ele>
<time>2016-10-19T08:06:21Z</time>
</trkpt>
<trkpt lat="39.7204095" lon="2.9788999">
<ele>52.54</ele>
<time>2016-10-19T08:06:24Z</time>
</trkpt>
<trkpt lat="39.7203617" lon="2.9786638">
<ele>52.59</ele>
<time>2016-10-19T08:06:27Z</time>
</trkpt>
<trkpt lat="39.7202994" lon="2.9783605">
<ele>51.74</ele>
<time>2016-10-19T08:06:31Z</time>
</trkpt>
<trkpt lat="39.7202499" lon="2.9781199">
<ele>49.86</ele>
<time>2016-10-19T08:06:34Z</time>
</trkpt>
<trkpt lat="39.7202046" lon="2.9778873">
<ele>48.83</ele>
<time>2016-10-19T08:06:37Z</time>
</trkpt>
<trkpt lat="39.7201501" lon="2.9776107">
<ele>48.63</ele>
<time>2016-10-19T08:06:41Z</time>
</trkpt>
<trkpt lat="39.7200977" lon="2.9773845">
<ele>49.37</ele>
<time>2016-10-19T08:06:44Z</time>
</trkpt>
<trkpt lat="39.7200433" lon="2.9771496">
<ele>50.38</ele>
<time>2016-10-19T08:06:47Z</time>
</trkpt>
<trkpt lat="39.7199822" lon="2.9769132">
<ele>50.25</ele>
<time>2016-10-19T08:06:50Z</time>
</trkpt>
<trkpt lat="39.7199147" lon="2.9766943">
<ele>49.66</ele>
<time>2016-10-19T08:06:53Z</time>
</trkpt>
<trkpt lat="39.7198351" lon="2.9764701">
<ele>50.08</ele>
<time>2016-10-19T08:06:56Z</time>
</trkpt>
<trkpt lat="39.7197542" lon="2.9762409">
<ele>51.14</ele>
<time>2016-10-19T08:06:59Z</time>
</trkpt>
<trkpt lat="39.7196673" lon="2.9760028">
<ele>52.47</ele>
<time>2016-10-19T08:07:02Z</time>
</trkpt>
<trkpt lat="39.7195755" lon="2.9757787">
<ele>52.84</ele>
<time>2016-10-19T08:07:05Z</time>
</trkpt>
<trkpt lat="39.7194805" lon="2.9755571">
<ele>52.69</ele>
<time>2016-10-19T08:07:08Z</time>
</trkpt>
<trkpt lat="39.7193779" lon="2.9753466">
<ele>51.91</ele>
<time>2016-10-19T08:07:11Z</time>
</trkpt>
<trkpt lat="39.7192728" lon="2.9751404">
<ele>51.42</ele>
<time>2016-10-19T08:07:14Z</time>
</trkpt>
<trkpt lat="39.7191650" lon="2.9749382">
<ele>51.23</ele>
<time>2016-10-19T08:07:17Z</time>
</trkpt>
<trkpt lat="39.7190530" lon="2.9747316">
<ele>51.55</ele>
<time>2016-10-19T08:07:20Z</time>
</trkpt>
<trkpt lat="39.7189355" lon="2.9745274">
<ele>51.81</ele>
<time>2016-10-19T08:07:23Z</time>
</trkpt>
<trkpt lat="39.7188160" lon="2.9743230">
<ele>52.52</ele>
<time>2016-10-19T08:07:26Z</time>
</trkpt>
<trkpt lat="39.7187045" lon="2.9741173">
<ele>52.31</ele>
<time>2016-10-19T08:07:29Z</time>
</trkpt>
<trkpt lat="39.7185729" lon="2.9738668">
<ele>51.36</ele>
<time>2016-10-19T08:07:33Z</time>
</trkpt>
<trkpt lat="39.7184365" lon="2.9736338">
<ele>51.29</ele>
<time>2016-10-19T08:07:37Z</time>
</trkpt>
<trkpt lat="39.7183001" lon="2.9733851">
<ele>52.25</ele>
<time>2016-10-19T08:07:41Z</time>
</trkpt>
<trkpt lat="39.7181588" lon="2.9731359">
<ele>53.84</ele>
<time>2016-10-19T08:07:45Z</time>
</trkpt>
<trkpt lat="39.7180557" lon="2.9729440">
<ele>54.47</ele>
<time>2016-10-19T08:07:48Z</time>
</trkpt>
<trkpt lat="39.7179187" lon="2.9726935">
<ele>56.09</ele>
<time>2016-10-19T08:07:52Z</time>
</trkpt>
<trkpt lat="39.7177859" lon="2.9724566">
<ele>56.30</ele>
<time>2016-10-19T08:07:56Z</time>
</trkpt>
<trkpt lat="39.7176427" lon="2.9722299">
<ele>56.43</ele>
<time>2016-10-19T08:08:00Z</time>
</trkpt>
<trkpt lat="39.7175382" lon="2.9720357">
<ele>56.78</ele>
<time>2016-10-19T08:08:03Z</time>
</trkpt>
<trkpt lat="39.7174066" lon="2.9717810">
<ele>56.83</ele>
<time>2016-10-19T08:08:07Z</time>
</trkpt>
<trkpt lat="39.7172760" lon="2.9715328">
<ele>55.45</ele>
<time>2016-10-19T08:08:11Z</time>
</trkpt>
<trkpt lat="39.7171643" lon="2.9713381">
<ele>54.78</ele>
<time>2016-10-19T08:08:14Z</time>
</trkpt>
<trkpt lat="39.7170536" lon="2.9711432">
<ele>53.34</ele>
<time>2016-10-19T08:08:17Z</time>
</trkpt>
<trkpt lat="39.7169196" lon="2.9709055">
<ele>53.38</ele>
<time>2016-10-19T08:08:20Z</time>
</trkpt>
<trkpt lat="39.7167814" lon="2.9706667">
<ele>55.06</ele>
<time>2016-10-19T08:08:24Z</time>
</trkpt>
<trkpt lat="39.7166505" lon="2.9704274">
<ele>56.88</ele>
<time>2016-10-19T08:08:28Z</time>
</trkpt>
<trkpt lat="39.7165128" lon="2.9701768">
<ele>57.87</ele>
<time>2016-10-19T08:08:32Z</time>
</trkpt>
<trkpt lat="39.7164217" lon="2.9699722">
<ele>59.02</ele>
<time>2016-10-19T08:08:35Z</time>
</trkpt>
<trkpt lat="39.7163066" lon="2.9697019">
<ele>59.41</ele>
<time>2016-10-19T08:08:39Z</time>
</trkpt>
<trkpt lat="39.7162054" lon="2.9694327">
<ele>58.98</ele>
<time>2016-10-19T08:08:43Z</time>
</trkpt>
<trkpt lat="39.7161301" lon="2.9692162">
<ele>58.80</ele>
<time>2016-10-19T08:08:46Z</time>
</trkpt>
<trkpt lat="39.7160588" lon="2.9689931">
<ele>59.21</ele>
<time>2016-10-19T08:08:49Z</time>
</trkpt>
<trkpt lat="39.7159946" lon="2.9687743">
<ele>60.41</ele>
<time>2016-10-19T08:08:52Z</time>
</trkpt>
<trkpt lat="39.7159150" lon="2.9684902">
<ele>61.51</ele>
<time>2016-10-19T08:08:56Z</time>
</trkpt>
<trkpt lat="39.7158472" lon="2.9681973">
<ele>62.59</ele>
<time>2016-10-19T08:09:00Z</time>
</trkpt>
<trkpt lat="39.7157745" lon="2.9679137">
<ele>63.28</ele>
<time>2016-10-19T08:09:04Z</time>
</trkpt>
<trkpt lat="39.7156987" lon="2.9676431">
<ele>62.92</ele>
<time>2016-10-19T08:09:08Z</time>
</trkpt>
<trkpt lat="39.7156205" lon="2.9673748">
<ele>60.65</ele>
<time>2016-10-19T08:09:12Z</time>
</trkpt>
<trkpt lat="39.7155324" lon="2.9671123">
<ele>60.29</ele>
<time>2016-10-19T08:09:16Z</time>
</trkpt>
<trkpt lat="39.7154429" lon="2.9668663">
<ele>60.85</ele>
<time>2016-10-19T08:09:20Z</time>
</trkpt>
<trkpt lat="39.7153365" lon="2.9666132">
<ele>61.05</ele>
<time>2016-10-19T08:09:24Z</time>
</trkpt>
<trkpt lat="39.7152054" lon="2.9663667">
<ele>61.92</ele>
<time>2016-10-19T08:09:28Z</time>
</trkpt>
<trkpt lat="39.7150674" lon="2.9661535">
<ele>61.27</ele>
<time>2016-10-19T08:09:32Z</time>
</trkpt>
<trkpt lat="39.7149085" lon="2.9659324">
<ele>61.94</ele>
<time>2016-10-19T08:09:36Z</time>
</trkpt>
<trkpt lat="39.7147424" lon="2.9657234">
<ele>63.10</ele>
<time>2016-10-19T08:09:40Z</time>
</trkpt>
<trkpt lat="39.7145610" lon="2.9655436">
<ele>63.63</ele>
<time>2016-10-19T08:09:44Z</time>
</trkpt>
<trkpt lat="39.7144112" lon="2.9654072">
<ele>64.46</ele>
<time>2016-10-19T08:09:47Z</time>
</trkpt>
<trkpt lat="39.7142541" lon="2.9652727">
<ele>64.90</ele>
<time>2016-10-19T08:09:50Z</time>
</trkpt>
<trkpt lat="39.7140928" lon="2.9651518">
<ele>64.56</ele>
<time>2016-10-19T08:09:53Z</time>
</trkpt>
<trkpt lat="39.7139325" lon="2.9650436">
<ele>64.31</ele>
<time>2016-10-19T08:09:56Z</time>
</trkpt>
<trkpt lat="39.7137165" lon="2.9649087">
<ele>64.00</ele>
<time>2016-10-19T08:10:00Z</time>
</trkpt>
<trkpt lat="39.7134963" lon="2.9647831">
<ele>62.54</ele>
<time>2016-10-19T08:10:04Z</time>
</trkpt>
<trkpt lat="39.7133071" lon="2.9646725">
<ele>62.52</ele>
<time>2016-10-19T08:10:08Z</time>
</trkpt>
<trkpt lat="39.7131110" lon="2.9645272">
<ele>63.53</ele>
<time>2016-10-19T08:10:12Z</time>
</trkpt>
<trkpt lat="39.7129252" lon="2.9643703">
<ele>64.18</ele>
<time>2016-10-19T08:10:16Z</time>
</trkpt>
<trkpt lat="39.7127578" lon="2.9641838">
<ele>64.83</ele>
<time>2016-10-19T08:10:20Z</time>
</trkpt>
<trkpt lat="39.7126061" lon="2.9639573">
<ele>65.49</ele>
<time>2016-10-19T08:10:24Z</time>
</trkpt>
<trkpt lat="39.7124818" lon="2.9636961">
<ele>66.85</ele>
<time>2016-10-19T08:10:28Z</time>
</trkpt>
<trkpt lat="39.7123808" lon="2.9634196">
<ele>69.32</ele>
<time>2016-10-19T08:10:32Z</time>
</trkpt>
<trkpt lat="39.7123145" lon="2.9631158">
<ele>72.64</ele>
<time>2016-10-19T08:10:36Z</time>
</trkpt>
<trkpt lat="39.7122807" lon="2.9628777">
<ele>73.47</ele>
<time>2016-10-19T08:10:39Z</time>
</trkpt>
<trkpt lat="39.7122498" lon="2.9626367">
<ele>73.29</ele>
<time>2016-10-19T08:10:42Z</time>
</trkpt>
<trkpt lat="39.7122259" lon="2.9624012">
<ele>73.06</ele>
<time>2016-10-19T08:10:45Z</time>
</trkpt>
<trkpt lat="39.7121951" lon="2.9620942">
<ele>71.94</ele>
<time>2016-10-19T08:10:49Z</time>
</trkpt>
<trkpt lat="39.7121466" lon="2.9617986">
<ele>72.42</ele>
<time>2016-10-19T08:10:53Z</time>
</trkpt>
<trkpt lat="39.7120751" lon="2.9615210">
<ele>73.14</ele>
<time>2016-10-19T08:10:57Z</time>
</trkpt>
<trkpt lat="39.7119699" lon="2.9612618">
<ele>71.74</ele>
<time>2016-10-19T08:11:01Z</time>
</trkpt>
<trkpt lat="39.7118342" lon="2.9610355">
<ele>69.98</ele>
<time>2016-10-19T08:11:05Z</time>
</trkpt>
<trkpt lat="39.7117039" lon="2.9608637">
<ele>69.84</ele>
<time>2016-10-19T08:11:08Z</time>
</trkpt>
<trkpt lat="39.7115610" lon="2.9607112">
<ele>68.29</ele>
<time>2016-10-19T08:11:11Z</time>
</trkpt>
<trkpt lat="39.7114048" lon="2.9605691">
<ele>66.95</ele>
<time>2016-10-19T08:11:14Z</time>
</trkpt>
<trkpt lat="39.7112306" lon="2.9604300">
<ele>66.53</ele>
<time>2016-10-19T08:11:17Z</time>
</trkpt>
<trkpt lat="39.7110262" lon="2.9603020">
<ele>66.48</ele>
<time>2016-10-19T08:11:21Z</time>
</trkpt>
<trkpt lat="39.7108406" lon="2.9602142">
<ele>67.65</ele>
<time>2016-10-19T08:11:25Z</time>
</trkpt>
<trkpt lat="39.7106650" lon="2.9600458">
<ele>67.98</ele>
<time>2016-10-19T08:11:29Z</time>
</trkpt>
<trkpt lat="39.7104341" lon="2.9600469">
<ele>66.38</ele>
<time>2016-10-19T08:11:33Z</time>
</trkpt>
<trkpt lat="39.7101904" lon="2.9600027">
<ele>65.24</ele>
<time>2016-10-19T08:11:37Z</time>
</trkpt>
<trkpt lat="39.7099835" lon="2.9598640">
<ele>65.98</ele>
<time>2016-10-19T08:11:41Z</time>
</trkpt>
<trkpt lat="39.7098021" lon="2.9597489">
<ele>65.64</ele>
<time>2016-10-19T08:11:45Z</time>
</trkpt>
<trkpt lat="39.7096163" lon="2.9596294">
<ele>64.25</ele>
<time>2016-10-19T08:11:49Z</time>
</trkpt>
<trkpt lat="39.7094471" lon="2.9594887">
<ele>66.04</ele>
<time>2016-10-19T08:11:53Z</time>
</trkpt>
<trkpt lat="39.7092592" lon="2.9593314">
<ele>67.81</ele>
<time>2016-10-19T08:11:58Z</time>
</trkpt>
<trkpt lat="39.7090977" lon="2.9591846">
<ele>68.51</ele>
<time>2016-10-19T08:12:03Z</time>
</trkpt>
<trkpt lat="39.7089223" lon="2.9590530">
<ele>73.00</ele>
<time>2016-10-19T08:12:07Z</time>
</trkpt>
<trkpt lat="39.7087701" lon="2.9589155">
<ele>76.38</ele>
<time>2016-10-19T08:12:11Z</time>
</trkpt>
<trkpt lat="39.7086018" lon="2.9587461">
<ele>79.35</ele>
<time>2016-10-19T08:12:16Z</time>
</trkpt>
<trkpt lat="39.7084126" lon="2.9585930">
<ele>80.70</ele>
<time>2016-10-19T08:12:21Z</time>
</trkpt>
<trkpt lat="39.7082533" lon="2.9584312">
<ele>82.24</ele>
<time>2016-10-19T08:12:26Z</time>
</trkpt>
<trkpt lat="39.7080870" lon="2.9582945">
<ele>82.38</ele>
<time>2016-10-19T08:12:30Z</time>
</trkpt>
<trkpt lat="39.7079023" lon="2.9581466">
<ele>83.01</ele>
<time>2016-10-19T08:12:35Z</time>
</trkpt>
<trkpt lat="39.7077409" lon="2.9580257">
<ele>84.11</ele>
<time>2016-10-19T08:12:39Z</time>
</trkpt>
<trkpt lat="39.7075439" lon="2.9578756">
<ele>85.53</ele>
<time>2016-10-19T08:12:43Z</time>
</trkpt>
<trkpt lat="39.7073734" lon="2.9577273">
<ele>85.55</ele>
<time>2016-10-19T08:12:47Z</time>
</trkpt>
<trkpt lat="39.7072072" lon="2.9575751">
<ele>81.52</ele>
<time>2016-10-19T08:12:51Z</time>
</trkpt>
<trkpt lat="39.7070621" lon="2.9574354">
<ele>80.40</ele>
<time>2016-10-19T08:12:55Z</time>
</trkpt>
<trkpt lat="39.7068769" lon="2.9573015">
<ele>81.37</ele>
<time>2016-10-19T08:12:59Z</time>
</trkpt>
<trkpt lat="39.7066785" lon="2.9571825">
<ele>81.58</ele>
<time>2016-10-19T08:13:03Z</time>
</trkpt>
<trkpt lat="39.7064997" lon="2.9571099">
<ele>82.88</ele>
<time>2016-10-19T08:13:06Z</time>
</trkpt>
<trkpt lat="39.7063128" lon="2.9569811">
<ele>80.80</ele>
<time>2016-10-19T08:13:10Z</time>
</trkpt>
<trkpt lat="39.7061670" lon="2.9568164">
<ele>79.45</ele>
<time>2016-10-19T08:13:13Z</time>
</trkpt>
<trkpt lat="39.7060417" lon="2.9566467">
<ele>78.59</ele>
<time>2016-10-19T08:13:16Z</time>
</trkpt>
<trkpt lat="39.7059010" lon="2.9564039">
<ele>78.02</ele>
<time>2016-10-19T08:13:20Z</time>
</trkpt>
<trkpt lat="39.7057747" lon="2.9561671">
<ele>79.46</ele>
<time>2016-10-19T08:13:24Z</time>
</trkpt>
<trkpt lat="39.7056522" lon="2.9559498">
<ele>80.05</ele>
<time>2016-10-19T08:13:27Z</time>
</trkpt>
<trkpt lat="39.7055330" lon="2.9557431">
<ele>81.01</ele>
<time>2016-10-19T08:13:30Z</time>
</trkpt>
<trkpt lat="39.7054157" lon="2.9555171">
<ele>80.32</ele>
<time>2016-10-19T08:13:33Z</time>
</trkpt>
<trkpt lat="39.7053014" lon="2.9553360">
<ele>77.95</ele>
<time>2016-10-19T08:13:36Z</time>
</trkpt>
<trkpt lat="39.7050922" lon="2.9551843">
<ele>78.14</ele>
<time>2016-10-19T08:13:40Z</time>
</trkpt>
<trkpt lat="39.7049254" lon="2.9550598">
<ele>78.40</ele>
<time>2016-10-19T08:13:43Z</time>
</trkpt>
<trkpt lat="39.7047270" lon="2.9548982">
<ele>78.09</ele>
<time>2016-10-19T08:13:47Z</time>
</trkpt>
<trkpt lat="39.7045478" lon="2.9547020">
<ele>76.58</ele>
<time>2016-10-19T08:13:51Z</time>
</trkpt>
<trkpt lat="39.7044126" lon="2.9545265">
<ele>76.89</ele>
<time>2016-10-19T08:13:54Z</time>
</trkpt>
<trkpt lat="39.7042947" lon="2.9543387">
<ele>75.81</ele>
<time>2016-10-19T08:13:57Z</time>
</trkpt>
<trkpt lat="39.7041674" lon="2.9541563">
<ele>74.07</ele>
<time>2016-10-19T08:14:00Z</time>
</trkpt>
<trkpt lat="39.7040070" lon="2.9539780">
<ele>73.90</ele>
<time>2016-10-19T08:14:03Z</time>
</trkpt>
<trkpt lat="39.7038531" lon="2.9538214">
<ele>73.32</ele>
<time>2016-10-19T08:14:06Z</time>
</trkpt>
<trkpt lat="39.7037078" lon="2.9536680">
<ele>73.14</ele>
<time>2016-10-19T08:14:09Z</time>
</trkpt>
<trkpt lat="39.7035351" lon="2.9534825">
<ele>73.14</ele>
<time>2016-10-19T08:14:13Z</time>
</trkpt>
<trkpt lat="39.7033808" lon="2.9533209">
<ele>74.94</ele>
<time>2016-10-19T08:14:17Z</time>
</trkpt>
<trkpt lat="39.7032074" lon="2.9531386">
<ele>76.97</ele>
<time>2016-10-19T08:14:21Z</time>
</trkpt>
<trkpt lat="39.7030670" lon="2.9529742">
<ele>78.32</ele>
<time>2016-10-19T08:14:24Z</time>
</trkpt>
<trkpt lat="39.7028956" lon="2.9527728">
<ele>78.49</ele>
<time>2016-10-19T08:14:28Z</time>
</trkpt>
<trkpt lat="39.7027209" lon="2.9525789">
<ele>78.91</ele>
<time>2016-10-19T08:14:32Z</time>
</trkpt>
<trkpt lat="39.7025235" lon="2.9524116">
<ele>80.21</ele>
<time>2016-10-19T08:14:36Z</time>
</trkpt>
<trkpt lat="39.7023178" lon="2.9522990">
<ele>81.72</ele>
<time>2016-10-19T08:14:40Z</time>
</trkpt>
<trkpt lat="39.7021130" lon="2.9521521">
<ele>82.27</ele>
<time>2016-10-19T08:14:44Z</time>
</trkpt>
<trkpt lat="39.7019518" lon="2.9519912">
<ele>82.99</ele>
<time>2016-10-19T08:14:48Z</time>
</trkpt>
<trkpt lat="39.7018663" lon="2.9517799">
<ele>84.62</ele>
<time>2016-10-19T08:14:51Z</time>
</trkpt>
<trkpt lat="39.7017991" lon="2.9515304">
<ele>85.35</ele>
<time>2016-10-19T08:14:54Z</time>
</trkpt>
<trkpt lat="39.7017347" lon="2.9512731">
<ele>84.88</ele>
<time>2016-10-19T08:14:57Z</time>
</trkpt>
<trkpt lat="39.7016656" lon="2.9510276">
<ele>85.21</ele>
<time>2016-10-19T08:15:00Z</time>
</trkpt>
<trkpt lat="39.7015752" lon="2.9507445">
<ele>86.98</ele>
<time>2016-10-19T08:15:04Z</time>
</trkpt>
<trkpt lat="39.7014411" lon="2.9504837">
<ele>89.79</ele>
<time>2016-10-19T08:15:08Z</time>
</trkpt>
<trkpt lat="39.7013219" lon="2.9502294">
<ele>90.20</ele>
<time>2016-10-19T08:15:12Z</time>
</trkpt>
<trkpt lat="39.7012187" lon="2.9499952">
<ele>87.83</ele>
<time>2016-10-19T08:15:16Z</time>
</trkpt>
<trkpt lat="39.7011130" lon="2.9497566">
<ele>85.31</ele>
<time>2016-10-19T08:15:20Z</time>
</trkpt>
<trkpt lat="39.7010220" lon="2.9495344">
<ele>82.10</ele>
<time>2016-10-19T08:15:24Z</time>
</trkpt>
<trkpt lat="39.7009754" lon="2.9492663">
<ele>81.51</ele>
<time>2016-10-19T08:15:28Z</time>
</trkpt>
<trkpt lat="39.7009178" lon="2.9489914">
<ele>84.89</ele>
<time>2016-10-19T08:15:32Z</time>
</trkpt>
<trkpt lat="39.7008618" lon="2.9487509">
<ele>89.74</ele>
<time>2016-10-19T08:15:36Z</time>
</trkpt>
<trkpt lat="39.7007807" lon="2.9484821">
<ele>92.18</ele>
<time>2016-10-19T08:15:41Z</time>
</trkpt>
<trkpt lat="39.7007069" lon="2.9482609">
<ele>93.97</ele>
<time>2016-10-19T08:15:45Z</time>
</trkpt>
<trkpt lat="39.7006278" lon="2.9480164">
<ele>94.33</ele>
<time>2016-10-19T08:15:49Z</time>
</trkpt>
<trkpt lat="39.7005646" lon="2.9477721">
<ele>95.08</ele>
<time>2016-10-19T08:15:53Z</time>
</trkpt>
<trkpt lat="39.7004979" lon="2.9475125">
<ele>95.13</ele>
<time>2016-10-19T08:15:57Z</time>
</trkpt>
<trkpt lat="39.7004326" lon="2.9472437">
<ele>95.89</ele>
<time>2016-10-19T08:16:01Z</time>
</trkpt>
<trkpt lat="39.7003733" lon="2.9469643">
<ele>97.10</ele>
<time>2016-10-19T08:16:05Z</time>
</trkpt>
<trkpt lat="39.7003014" lon="2.9467046">
<ele>97.80</ele>
<time>2016-10-19T08:16:09Z</time>
</trkpt>
<trkpt lat="39.7001862" lon="2.9464375">
<ele>94.59</ele>
<time>2016-10-19T08:16:13Z</time>
</trkpt>
<trkpt lat="39.7000746" lon="2.9462254">
<ele>92.85</ele>
<time>2016-10-19T08:16:16Z</time>
</trkpt>
<trkpt lat="39.6999305" lon="2.9459728">
<ele>91.03</ele>
<time>2016-10-19T08:16:19Z</time>
</trkpt>
<trkpt lat="39.6997809" lon="2.9456991">
<ele>91.18</ele>
<time>2016-10-19T08:16:22Z</time>
</trkpt>
<trkpt lat="39.6996422" lon="2.9454420">
<ele>90.77</ele>
<time>2016-10-19T08:16:25Z</time>
</trkpt>
<trkpt lat="39.6995075" lon="2.9451877">
<ele>90.57</ele>
<time>2016-10-19T08:16:28Z</time>
</trkpt>
<trkpt lat="39.6993833" lon="2.9449574">
<ele>89.86</ele>
<time>2016-10-19T08:16:31Z</time>
</trkpt>
<trkpt lat="39.6992702" lon="2.9447445">
<ele>88.65</ele>
<time>2016-10-19T08:16:34Z</time>
</trkpt>
<trkpt lat="39.6991633" lon="2.9445355">
<ele>88.85</ele>
<time>2016-10-19T08:16:37Z</time>
</trkpt>
<trkpt lat="39.6990379" lon="2.9442879">
<ele>90.27</ele>
<time>2016-10-19T08:16:41Z</time>
</trkpt>
<trkpt lat="39.6989189" lon="2.9440782">
<ele>89.36</ele>
<time>2016-10-19T08:16:45Z</time>
</trkpt>
<trkpt lat="39.6990482" lon="2.9438532">
<ele>91.59</ele>
<time>2016-10-19T08:16:51Z</time>
</trkpt>
<trkpt lat="39.6991882" lon="2.9436966">
<ele>93.99</ele>
<time>2016-10-19T08:16:54Z</time>
</trkpt>
<trkpt lat="39.6993701" lon="2.9435086">
<ele>99.43</ele>
<time>2016-10-19T08:16:58Z</time>
</trkpt>
<trkpt lat="39.6995409" lon="2.9433164">
<ele>101.39</ele>
<time>2016-10-19T08:17:02Z</time>
</trkpt>
<trkpt lat="39.6996319" lon="2.9430481">
<ele>99.97</ele>
<time>2016-10-19T08:17:06Z</time>
</trkpt>
<trkpt lat="39.6995687" lon="2.9427699">
<ele>97.77</ele>
<time>2016-10-19T08:17:10Z</time>
</trkpt>
<trkpt lat="39.6994897" lon="2.9425189">
<ele>98.09</ele>
<time>2016-10-19T08:17:14Z</time>
</trkpt>
<trkpt lat="39.6993923" lon="2.9422449">
<ele>98.42</ele>
<time>2016-10-19T08:17:18Z</time>
</trkpt>
<trkpt lat="39.6993208" lon="2.9420276">
<ele>98.12</ele>
<time>2016-10-19T08:17:22Z</time>
</trkpt>
<trkpt lat="39.6992013" lon="2.9418027">
<ele>97.51</ele>
<time>2016-10-19T08:17:26Z</time>
</trkpt>
<trkpt lat="39.6991045" lon="2.9415624">
<ele>97.38</ele>
<time>2016-10-19T08:17:29Z</time>
</trkpt>
<trkpt lat="39.6990031" lon="2.9412992">
<ele>97.17</ele>
<time>2016-10-19T08:17:32Z</time>
</trkpt>
<trkpt lat="39.6988978" lon="2.9409998">
<ele>97.42</ele>
<time>2016-10-19T08:17:35Z</time>
</trkpt>
<trkpt lat="39.6987876" lon="2.9406947">
<ele>96.24</ele>
<time>2016-10-19T08:17:38Z</time>
</trkpt>
<trkpt lat="39.6986786" lon="2.9404013">
<ele>94.65</ele>
<time>2016-10-19T08:17:41Z</time>
</trkpt>
<trkpt lat="39.6985786" lon="2.9401358">
<ele>92.91</ele>
<time>2016-10-19T08:17:44Z</time>
</trkpt>
<trkpt lat="39.6984857" lon="2.9398761">
<ele>92.55</ele>
<time>2016-10-19T08:17:47Z</time>
</trkpt>
<trkpt lat="39.6983937" lon="2.9396428">
<ele>93.33</ele>
<time>2016-10-19T08:17:50Z</time>
</trkpt>
<trkpt lat="39.6983068" lon="2.9394219">
<ele>93.86</ele>
<time>2016-10-19T08:17:53Z</time>
</trkpt>
<trkpt lat="39.6981978" lon="2.9391614">
<ele>94.52</ele>
<time>2016-10-19T08:17:56Z</time>
</trkpt>
<trkpt lat="39.6980835" lon="2.9388974">
<ele>94.25</ele>
<time>2016-10-19T08:17:59Z</time>
</trkpt>
<trkpt lat="39.6979923" lon="2.9386911">
<ele>94.51</ele>
<time>2016-10-19T08:18:01Z</time>
</trkpt>
<trkpt lat="39.6978940" lon="2.9384693">
<ele>95.41</ele>
<time>2016-10-19T08:18:03Z</time>
</trkpt>
<trkpt lat="39.6977896" lon="2.9382394">
<ele>95.49</ele>
<time>2016-10-19T08:18:05Z</time>
</trkpt>
<trkpt lat="39.6976515" lon="2.9379463">
<ele>93.80</ele>
<time>2016-10-19T08:18:08Z</time>
</trkpt>
<trkpt lat="39.6975503" lon="2.9377147">
<ele>91.77</ele>
<time>2016-10-19T08:18:10Z</time>
</trkpt>
<trkpt lat="39.6974546" lon="2.9374826">
<ele>88.95</ele>
<time>2016-10-19T08:18:12Z</time>
</trkpt>
<trkpt lat="39.6973344" lon="2.9371871">
<ele>86.20</ele>
<time>2016-10-19T08:18:15Z</time>
</trkpt>
<trkpt lat="39.6972168" lon="2.9369329">
<ele>86.97</ele>
<time>2016-10-19T08:18:18Z</time>
</trkpt>
<trkpt lat="39.6971012" lon="2.9366930">
<ele>87.32</ele>
<time>2016-10-19T08:18:21Z</time>
</trkpt>
<trkpt lat="39.6969851" lon="2.9364721">
<ele>86.47</ele>
<time>2016-10-19T08:18:24Z</time>
</trkpt>
<trkpt lat="39.6968785" lon="2.9362589">
<ele>87.39</ele>
<time>2016-10-19T08:18:27Z</time>
</trkpt>
<trkpt lat="39.6967684" lon="2.9360224">
<ele>89.01</ele>
<time>2016-10-19T08:18:30Z</time>
</trkpt>
<trkpt lat="39.6966609" lon="2.9357728">
<ele>91.06</ele>
<time>2016-10-19T08:18:33Z</time>
</trkpt>
<trkpt lat="39.6965863" lon="2.9355262">
<ele>92.07</ele>
<time>2016-10-19T08:18:36Z</time>
</trkpt>
<trkpt lat="39.6964685" lon="2.9353314">
<ele>93.34</ele>
<time>2016-10-19T08:18:39Z</time>
</trkpt>
<trkpt lat="39.6962933" lon="2.9352160">
<ele>94.54</ele>
<time>2016-10-19T08:18:42Z</time>
</trkpt>
<trkpt lat="39.6961035" lon="2.9351004">
<ele>94.65</ele>
<time>2016-10-19T08:18:45Z</time>
</trkpt>
<trkpt lat="39.6959127" lon="2.9349768">
<ele>94.17</ele>
<time>2016-10-19T08:18:48Z</time>
</trkpt>
<trkpt lat="39.6957145" lon="2.9348538">
<ele>94.25</ele>
<time>2016-10-19T08:18:51Z</time>
</trkpt>
<trkpt lat="39.6955431" lon="2.9347399">
<ele>93.80</ele>
<time>2016-10-19T08:18:54Z</time>
</trkpt>
<trkpt lat="39.6953564" lon="2.9345782">
<ele>93.60</ele>
<time>2016-10-19T08:18:58Z</time>
</trkpt>
<trkpt lat="39.6952132" lon="2.9344140">
<ele>94.97</ele>
<time>2016-10-19T08:19:02Z</time>
</trkpt>
<trkpt lat="39.6950548" lon="2.9342299">
<ele>94.24</ele>
<time>2016-10-19T08:19:07Z</time>
</trkpt>
<trkpt lat="39.6949314" lon="2.9340595">
<ele>93.93</ele>
<time>2016-10-19T08:19:31Z</time>
</trkpt>
<trkpt lat="39.6947681" lon="2.9339461">
<ele>96.36</ele>
<time>2016-10-19T08:19:37Z</time>
</trkpt>
<trkpt lat="39.6946091" lon="2.9337519">
<ele>96.02</ele>
<time>2016-10-19T08:19:41Z</time>
</trkpt>
<trkpt lat="39.6944640" lon="2.9335551">
<ele>92.07</ele>
<time>2016-10-19T08:19:45Z</time>
</trkpt>
<trkpt lat="39.6943228" lon="2.9333457">
<ele>90.96</ele>
<time>2016-10-19T08:19:49Z</time>
</trkpt>
<trkpt lat="39.6941751" lon="2.9331103">
<ele>91.90</ele>
<time>2016-10-19T08:19:53Z</time>
</trkpt>
<trkpt lat="39.6940429" lon="2.9329248">
<ele>91.19</ele>
<time>2016-10-19T08:19:56Z</time>
</trkpt>
<trkpt lat="39.6938708" lon="2.9327026">
<ele>90.37</ele>
<time>2016-10-19T08:20:00Z</time>
</trkpt>
<trkpt lat="39.6937328" lon="2.9325363">
<ele>92.02</ele>
<time>2016-10-19T08:20:03Z</time>
</trkpt>
<trkpt lat="39.6935573" lon="2.9323269">
<ele>93.74</ele>
<time>2016-10-19T08:20:07Z</time>
</trkpt>
<trkpt lat="39.6934334" lon="2.9321501">
<ele>93.98</ele>
<time>2016-10-19T08:20:10Z</time>
</trkpt>
<trkpt lat="39.6933154" lon="2.9319654">
<ele>94.56</ele>
<time>2016-10-19T08:20:13Z</time>
</trkpt>
<trkpt lat="39.6931916" lon="2.9317677">
<ele>94.34</ele>
<time>2016-10-19T08:20:16Z</time>
</trkpt>
<trkpt lat="39.6930611" lon="2.9315718">
<ele>93.93</ele>
<time>2016-10-19T08:20:19Z</time>
</trkpt>
<trkpt lat="39.6929286" lon="2.9313689">
<ele>94.07</ele>
<time>2016-10-19T08:20:22Z</time>
</trkpt>
<trkpt lat="39.6928021" lon="2.9311762">
<ele>94.45</ele>
<time>2016-10-19T08:20:25Z</time>
</trkpt>
<trkpt lat="39.6926750" lon="2.9309881">
<ele>94.83</ele>
<time>2016-10-19T08:20:28Z</time>
</trkpt>
<trkpt lat="39.6925464" lon="2.9307941">
<ele>95.05</ele>
<time>2016-10-19T08:20:31Z</time>
</trkpt>
<trkpt lat="39.6924205" lon="2.9305936">
<ele>94.02</ele>
<time>2016-10-19T08:20:34Z</time>
</trkpt>
<trkpt lat="39.6922914" lon="2.9303903">
<ele>91.48</ele>
<time>2016-10-19T08:20:37Z</time>
</trkpt>
<trkpt lat="39.6921597" lon="2.9301941">
<ele>90.24</ele>
<time>2016-10-19T08:20:40Z</time>
</trkpt>
<trkpt lat="39.6920290" lon="2.9300165">
<ele>90.56</ele>
<time>2016-10-19T08:20:43Z</time>
</trkpt>
<trkpt lat="39.6918879" lon="2.9298237">
<ele>91.20</ele>
<time>2016-10-19T08:20:46Z</time>
</trkpt>
<trkpt lat="39.6917333" lon="2.9296188">
<ele>91.62</ele>
<time>2016-10-19T08:20:49Z</time>
</trkpt>
<trkpt lat="39.6915642" lon="2.9294069">
<ele>91.86</ele>
<time>2016-10-19T08:20:52Z</time>
</trkpt>
<trkpt lat="39.6914091" lon="2.9291951">
<ele>92.81</ele>
<time>2016-10-19T08:20:55Z</time>
</trkpt>
<trkpt lat="39.6912416" lon="2.9289744">
<ele>92.32</ele>
<time>2016-10-19T08:20:58Z</time>
</trkpt>
<trkpt lat="39.6910829" lon="2.9287392">
<ele>90.99</ele>
<time>2016-10-19T08:21:01Z</time>
</trkpt>
<trkpt lat="39.6909402" lon="2.9284995">
<ele>89.75</ele>
<time>2016-10-19T08:21:04Z</time>
</trkpt>
<trkpt lat="39.6908092" lon="2.9282591">
<ele>88.93</ele>
<time>2016-10-19T08:21:07Z</time>
</trkpt>
<trkpt lat="39.6906919" lon="2.9280240">
<ele>88.09</ele>
<time>2016-10-19T08:21:10Z</time>
</trkpt>
<trkpt lat="39.6905841" lon="2.9277630">
<ele>86.93</ele>
<time>2016-10-19T08:21:13Z</time>
</trkpt>
<trkpt lat="39.6905012" lon="2.9274912">
<ele>86.30</ele>
<time>2016-10-19T08:21:16Z</time>
</trkpt>
<trkpt lat="39.6904321" lon="2.9272024">
<ele>87.62</ele>
<time>2016-10-19T08:21:20Z</time>
</trkpt>
<trkpt lat="39.6903640" lon="2.9269727">
<ele>87.88</ele>
<time>2016-10-19T08:21:23Z</time>
</trkpt>
<trkpt lat="39.6902858" lon="2.9267361">
<ele>87.42</ele>
<time>2016-10-19T08:21:26Z</time>
</trkpt>
<trkpt lat="39.6901859" lon="2.9264547">
<ele>88.44</ele>
<time>2016-10-19T08:21:30Z</time>
</trkpt>
<trkpt lat="39.6901044" lon="2.9262391">
<ele>89.05</ele>
<time>2016-10-19T08:21:33Z</time>
</trkpt>
<trkpt lat="39.6900113" lon="2.9259874">
<ele>89.23</ele>
<time>2016-10-19T08:21:36Z</time>
</trkpt>
<trkpt lat="39.6899301" lon="2.9257639">
<ele>89.81</ele>
<time>2016-10-19T08:21:39Z</time>
</trkpt>
<trkpt lat="39.6898591" lon="2.9255397">
<ele>88.64</ele>
<time>2016-10-19T08:21:42Z</time>
</trkpt>
<trkpt lat="39.6897935" lon="2.9253020">
<ele>89.31</ele>
<time>2016-10-19T08:21:45Z</time>
</trkpt>
<trkpt lat="39.6897346" lon="2.9250772">
<ele>89.35</ele>
<time>2016-10-19T08:21:48Z</time>
</trkpt>
<trkpt lat="39.6896766" lon="2.9248391">
<ele>89.85</ele>
<time>2016-10-19T08:21:51Z</time>
</trkpt>
<trkpt lat="39.6896220" lon="2.9245391">
<ele>89.29</ele>
<time>2016-10-19T08:21:55Z</time>
</trkpt>
<trkpt lat="39.6895958" lon="2.9242701">
<ele>91.20</ele>
<time>2016-10-19T08:21:58Z</time>
</trkpt>
<trkpt lat="39.6895462" lon="2.9240207">
<ele>92.47</ele>
<time>2016-10-19T08:22:01Z</time>
</trkpt>
<trkpt lat="39.6894817" lon="2.9237995">
<ele>92.80</ele>
<time>2016-10-19T08:22:04Z</time>
</trkpt>
<trkpt lat="39.6894179" lon="2.9235749">
<ele>93.28</ele>
<time>2016-10-19T08:22:07Z</time>
</trkpt>
<trkpt lat="39.6893259" lon="2.9233190">
<ele>94.24</ele>
<time>2016-10-19T08:22:11Z</time>
</trkpt>
<trkpt lat="39.6892477" lon="2.9230627">
<ele>94.93</ele>
<time>2016-10-19T08:22:15Z</time>
</trkpt>
<trkpt lat="39.6891822" lon="2.9228423">
<ele>95.37</ele>
<time>2016-10-19T08:22:18Z</time>
</trkpt>
<trkpt lat="39.6891067" lon="2.9226004">
<ele>96.80</ele>
<time>2016-10-19T08:22:21Z</time>
</trkpt>
<trkpt lat="39.6890321" lon="2.9223509">
<ele>97.06</ele>
<time>2016-10-19T08:22:24Z</time>
</trkpt>
<trkpt lat="39.6889589" lon="2.9221156">
<ele>96.12</ele>
<time>2016-10-19T08:22:27Z</time>
</trkpt>
<trkpt lat="39.6888771" lon="2.9218597">
<ele>95.84</ele>
<time>2016-10-19T08:22:31Z</time>
</trkpt>
<trkpt lat="39.6887891" lon="2.9216287">
<ele>96.02</ele>
<time>2016-10-19T08:22:36Z</time>
</trkpt>
<trkpt lat="39.6886645" lon="2.9214153">
<ele>90.97</ele>
<time>2016-10-19T08:27:56Z</time>
</trkpt>
<trkpt lat="39.6885326" lon="2.9211955">
<ele>89.12</ele>
<time>2016-10-19T08:28:01Z</time>
</trkpt>
<trkpt lat="39.6884209" lon="2.9209423">
<ele>88.07</ele>
<time>2016-10-19T08:28:04Z</time>
</trkpt>
<trkpt lat="39.6883320" lon="2.9207336">
<ele>87.38</ele>
<time>2016-10-19T08:28:07Z</time>
</trkpt>
<trkpt lat="39.6882101" lon="2.9204934">
<ele>86.39</ele>
<time>2016-10-19T08:28:10Z</time>
</trkpt>
<trkpt lat="39.6880775" lon="2.9202558">
<ele>85.25</ele>
<time>2016-10-19T08:28:13Z</time>
</trkpt>
<trkpt lat="39.6879609" lon="2.9200582">
<ele>85.72</ele>
<time>2016-10-19T08:28:16Z</time>
</trkpt>
<trkpt lat="39.6878467" lon="2.9198577">
<ele>87.70</ele>
<time>2016-10-19T08:28:19Z</time>
</trkpt>
<trkpt lat="39.6877387" lon="2.9196515">
<ele>89.70</ele>
<time>2016-10-19T08:28:22Z</time>
</trkpt>
<trkpt lat="39.6876241" lon="2.9194041">
<ele>90.89</ele>
<time>2016-10-19T08:28:25Z</time>
</trkpt>
<trkpt lat="39.6875208" lon="2.9191637">
<ele>91.34</ele>
<time>2016-10-19T08:28:28Z</time>
</trkpt>
<trkpt lat="39.6874179" lon="2.9189293">
<ele>91.08</ele>
<time>2016-10-19T08:28:31Z</time>
</trkpt>
<trkpt lat="39.6873168" lon="2.9187016">
<ele>91.14</ele>
<time>2016-10-19T08:28:34Z</time>
</trkpt>
<trkpt lat="39.6872141" lon="2.9184811">
<ele>89.98</ele>
<time>2016-10-19T08:28:37Z</time>
</trkpt>
<trkpt lat="39.6870853" lon="2.9182330">
<ele>88.79</ele>
<time>2016-10-19T08:28:41Z</time>
</trkpt>
<trkpt lat="39.6869750" lon="2.9180184">
<ele>89.19</ele>
<time>2016-10-19T08:28:44Z</time>
</trkpt>
<trkpt lat="39.6868618" lon="2.9177773">
<ele>88.59</ele>
<time>2016-10-19T08:28:47Z</time>
</trkpt>
<trkpt lat="39.6867424" lon="2.9175022">
<ele>88.74</ele>
<time>2016-10-19T08:28:50Z</time>
</trkpt>
<trkpt lat="39.6866254" lon="2.9172281">
<ele>90.61</ele>
<time>2016-10-19T08:28:53Z</time>
</trkpt>
<trkpt lat="39.6865110" lon="2.9169833">
<ele>92.16</ele>
<time>2016-10-19T08:28:56Z</time>
</trkpt>
<trkpt lat="39.6864084" lon="2.9167567">
<ele>92.30</ele>
<time>2016-10-19T08:28:59Z</time>
</trkpt>
<trkpt lat="39.6863053" lon="2.9165318">
<ele>89.93</ele>
<time>2016-10-19T08:29:02Z</time>
</trkpt>
<trkpt lat="39.6861901" lon="2.9162931">
<ele>87.82</ele>
<time>2016-10-19T08:29:05Z</time>
</trkpt>
<trkpt lat="39.6860944" lon="2.9160785">
<ele>86.77</ele>
<time>2016-10-19T08:29:08Z</time>
</trkpt>
<trkpt lat="39.6859782" lon="2.9158097">
<ele>85.83</ele>
<time>2016-10-19T08:29:12Z</time>
</trkpt>
<trkpt lat="39.6858709" lon="2.9156173">
<ele>83.53</ele>
<time>2016-10-19T08:29:17Z</time>
</trkpt>
<trkpt lat="39.6857406" lon="2.9154169">
<ele>83.48</ele>
<time>2016-10-19T08:29:31Z</time>
</trkpt>
<trkpt lat="39.6856279" lon="2.9152231">
<ele>85.91</ele>
<time>2016-10-19T08:29:36Z</time>
</trkpt>
<trkpt lat="39.6854959" lon="2.9149890">
<ele>88.33</ele>
<time>2016-10-19T08:29:41Z</time>
</trkpt>
<trkpt lat="39.6853933" lon="2.9147916">
<ele>90.78</ele>
<time>2016-10-19T08:29:44Z</time>
</trkpt>
<trkpt lat="39.6852883" lon="2.9145996">
<ele>93.72</ele>
<time>2016-10-19T08:29:47Z</time>
</trkpt>
<trkpt lat="39.6851826" lon="2.9143835">
<ele>96.10</ele>
<time>2016-10-19T08:29:50Z</time>
</trkpt>
<trkpt lat="39.6850856" lon="2.9141718">
<ele>97.57</ele>
<time>2016-10-19T08:29:53Z</time>
</trkpt>
<trkpt lat="39.6849850" lon="2.9139549">
<ele>97.54</ele>
<time>2016-10-19T08:29:56Z</time>
</trkpt>
<trkpt lat="39.6848802" lon="2.9137368">
<ele>97.02</ele>
<time>2016-10-19T08:29:59Z</time>
</trkpt>
<trkpt lat="39.6847822" lon="2.9135157">
<ele>96.46</ele>
<time>2016-10-19T08:30:02Z</time>
</trkpt>
<trkpt lat="39.6846767" lon="2.9132900">
<ele>96.02</ele>
<time>2016-10-19T08:30:05Z</time>
</trkpt>
<trkpt lat="39.6845683" lon="2.9130774">
<ele>94.67</ele>
<time>2016-10-19T08:30:08Z</time>
</trkpt>
<trkpt lat="39.6844445" lon="2.9128445">
<ele>94.10</ele>
<time>2016-10-19T08:30:11Z</time>
</trkpt>
<trkpt lat="39.6844035" lon="2.9126157">
<ele>93.61</ele>
<time>2016-10-19T08:30:14Z</time>
</trkpt>
<trkpt lat="39.6843341" lon="2.9123666">
<ele>93.88</ele>
<time>2016-10-19T08:30:17Z</time>
</trkpt>
<trkpt lat="39.6842585" lon="2.9121137">
<ele>95.36</ele>
<time>2016-10-19T08:30:20Z</time>
</trkpt>
<trkpt lat="39.6841292" lon="2.9118536">
<ele>96.98</ele>
<time>2016-10-19T08:30:24Z</time>
</trkpt>
<trkpt lat="39.6840244" lon="2.9116080">
<ele>98.50</ele>
<time>2016-10-19T08:30:27Z</time>
</trkpt>
<trkpt lat="39.6839138" lon="2.9113351">
<ele>100.11</ele>
<time>2016-10-19T08:30:30Z</time>
</trkpt>
<trkpt lat="39.6837966" lon="2.9110823">
<ele>101.43</ele>
<time>2016-10-19T08:30:33Z</time>
</trkpt>
<trkpt lat="39.6836891" lon="2.9108426">
<ele>101.12</ele>
<time>2016-10-19T08:30:36Z</time>
</trkpt>
<trkpt lat="39.6835698" lon="2.9106324">
<ele>98.80</ele>
<time>2016-10-19T08:30:39Z</time>
</trkpt>
<trkpt lat="39.6834211" lon="2.9103933">
<ele>97.02</ele>
<time>2016-10-19T08:30:42Z</time>
</trkpt>
<trkpt lat="39.6832877" lon="2.9101724">
<ele>95.79</ele>
<time>2016-10-19T08:30:45Z</time>
</trkpt>
<trkpt lat="39.6831635" lon="2.9099555">
<ele>95.17</ele>
<time>2016-10-19T08:30:48Z</time>
</trkpt>
<trkpt lat="39.6830344" lon="2.9097426">
<ele>95.10</ele>
<time>2016-10-19T08:30:51Z</time>
</trkpt>
<trkpt lat="39.6828804" lon="2.9095167">
<ele>95.26</ele>
<time>2016-10-19T08:30:54Z</time>
</trkpt>
<trkpt lat="39.6827456" lon="2.9093591">
<ele>94.40</ele>
<time>2016-10-19T08:30:56Z</time>
</trkpt>
<trkpt lat="39.6825647" lon="2.9091316">
<ele>93.15</ele>
<time>2016-10-19T08:30:59Z</time>
</trkpt>
<trkpt lat="39.6824754" lon="2.9089059">
<ele>92.30</ele>
<time>2016-10-19T08:31:02Z</time>
</trkpt>
<trkpt lat="39.6823879" lon="2.9086524">
<ele>91.47</ele>
<time>2016-10-19T08:31:05Z</time>
</trkpt>
<trkpt lat="39.6823151" lon="2.9083957">
<ele>90.97</ele>
<time>2016-10-19T08:31:08Z</time>
</trkpt>
<trkpt lat="39.6822673" lon="2.9081183">
<ele>90.78</ele>
<time>2016-10-19T08:31:11Z</time>
</trkpt>
<trkpt lat="39.6822322" lon="2.9078573">
<ele>89.94</ele>
<time>2016-10-19T08:31:14Z</time>
</trkpt>
<trkpt lat="39.6821802" lon="2.9075729">
<ele>90.82</ele>
<time>2016-10-19T08:31:17Z</time>
</trkpt>
<trkpt lat="39.6821230" lon="2.9073237">
<ele>91.73</ele>
<time>2016-10-19T08:31:20Z</time>
</trkpt>
<trkpt lat="39.6820588" lon="2.9070784">
<ele>91.84</ele>
<time>2016-10-19T08:31:23Z</time>
</trkpt>
<trkpt lat="39.6819885" lon="2.9068226">
<ele>92.43</ele>
<time>2016-10-19T08:31:26Z</time>
</trkpt>
<trkpt lat="39.6819153" lon="2.9065482">
<ele>90.97</ele>
<time>2016-10-19T08:31:29Z</time>
</trkpt>
<trkpt lat="39.6818440" lon="2.9063144">
<ele>88.19</ele>
<time>2016-10-19T08:31:32Z</time>
</trkpt>
<trkpt lat="39.6817653" lon="2.9060990">
<ele>87.24</ele>
<time>2016-10-19T08:31:35Z</time>
</trkpt>
<trkpt lat="39.6816703" lon="2.9058405">
<ele>87.48</ele>
<time>2016-10-19T08:31:38Z</time>
</trkpt>
<trkpt lat="39.6815887" lon="2.9056210">
<ele>88.30</ele>
<time>2016-10-19T08:31:41Z</time>
</trkpt>
<trkpt lat="39.6814718" lon="2.9053513">
<ele>91.10</ele>
<time>2016-10-19T08:31:45Z</time>
</trkpt>
<trkpt lat="39.6813706" lon="2.9051410">
<ele>93.30</ele>
<time>2016-10-19T08:31:48Z</time>
</trkpt>
<trkpt lat="39.6812769" lon="2.9049048">
<ele>94.89</ele>
<time>2016-10-19T08:31:51Z</time>
</trkpt>
<trkpt lat="39.6811785" lon="2.9046666">
<ele>95.72</ele>
<time>2016-10-19T08:31:54Z</time>
</trkpt>
<trkpt lat="39.6810833" lon="2.9044171">
<ele>96.00</ele>
<time>2016-10-19T08:31:57Z</time>
</trkpt>
<trkpt lat="39.6810022" lon="2.9041715">
<ele>96.33</ele>
<time>2016-10-19T08:32:00Z</time>
</trkpt>
<trkpt lat="39.6809065" lon="2.9038952">
<ele>96.48</ele>
<time>2016-10-19T08:32:03Z</time>
</trkpt>
<trkpt lat="39.6808130" lon="2.9036347">
<ele>93.90</ele>
<time>2016-10-19T08:32:06Z</time>
</trkpt>
<trkpt lat="39.6807255" lon="2.9033728">
<ele>91.45</ele>
<time>2016-10-19T08:32:09Z</time>
</trkpt>
<trkpt lat="39.6806399" lon="2.9031329">
<ele>91.01</ele>
<time>2016-10-19T08:32:12Z</time>
</trkpt>
<trkpt lat="39.6805575" lon="2.9028948">
<ele>91.57</ele>
<time>2016-10-19T08:32:15Z</time>
</trkpt>
<trkpt lat="39.6804735" lon="2.9026584">
<ele>90.41</ele>
<time>2016-10-19T08:32:18Z</time>
</trkpt>
<trkpt lat="39.6803876" lon="2.9024226">
<ele>89.52</ele>
<time>2016-10-19T08:32:21Z</time>
</trkpt>
<trkpt lat="39.6803088" lon="2.9021898">
<ele>89.20</ele>
<time>2016-10-19T08:32:24Z</time>
</trkpt>
<trkpt lat="39.6802284" lon="2.9019516">
<ele>90.63</ele>
<time>2016-10-19T08:32:27Z</time>
</trkpt>
<trkpt lat="39.6801373" lon="2.9017384">
<ele>93.01</ele>
<time>2016-10-19T08:32:30Z</time>
</trkpt>
<trkpt lat="39.6800277" lon="2.9015139">
<ele>95.89</ele>
<time>2016-10-19T08:32:33Z</time>
</trkpt>
<trkpt lat="39.6799032" lon="2.9012836">
<ele>96.42</ele>
<time>2016-10-19T08:32:36Z</time>
</trkpt>
<trkpt lat="39.6797962" lon="2.9010686">
<ele>95.64</ele>
<time>2016-10-19T08:32:39Z</time>
</trkpt>
<trkpt lat="39.6796860" lon="2.9008147">
<ele>94.38</ele>
<time>2016-10-19T08:32:42Z</time>
</trkpt>
<trkpt lat="39.6795743" lon="2.9005481">
<ele>93.16</ele>
<time>2016-10-19T08:32:45Z</time>
</trkpt>
<trkpt lat="39.6794643" lon="2.9002643">
<ele>93.38</ele>
<time>2016-10-19T08:32:48Z</time>
</trkpt>
<trkpt lat="39.6793524" lon="2.8999595">
<ele>94.78</ele>
<time>2016-10-19T08:32:51Z</time>
</trkpt>
<trkpt lat="39.6792563" lon="2.8996937">
<ele>95.57</ele>
<time>2016-10-19T08:32:54Z</time>
</trkpt>
<trkpt lat="39.6791722" lon="2.8994547">
<ele>95.23</ele>
<time>2016-10-19T08:32:57Z</time>
</trkpt>
<trkpt lat="39.6790818" lon="2.8992167">
<ele>95.32</ele>
<time>2016-10-19T08:33:00Z</time>
</trkpt>
<trkpt lat="39.6789949" lon="2.8989840">
<ele>96.20</ele>
<time>2016-10-19T08:33:03Z</time>
</trkpt>
<trkpt lat="39.6788962" lon="2.8987443">
<ele>97.39</ele>
<time>2016-10-19T08:33:06Z</time>
</trkpt>
<trkpt lat="39.6787946" lon="2.8985133">
<ele>97.87</ele>
<time>2016-10-19T08:33:09Z</time>
</trkpt>
<trkpt lat="39.6787032" lon="2.8982762">
<ele>98.34</ele>
<time>2016-10-19T08:33:12Z</time>
</trkpt>
<trkpt lat="39.6786025" lon="2.8980382">
<ele>97.92</ele>
<time>2016-10-19T08:33:15Z</time>
</trkpt>
<trkpt lat="39.6785025" lon="2.8977815">
<ele>99.00</ele>
<time>2016-10-19T08:33:18Z</time>
</trkpt>
<trkpt lat="39.6783963" lon="2.8975205">
<ele>97.90</ele>
<time>2016-10-19T08:33:21Z</time>
</trkpt>
<trkpt lat="39.6783020" lon="2.8972795">
<ele>97.34</ele>
<time>2016-10-19T08:33:24Z</time>
</trkpt>
<trkpt lat="39.6782111" lon="2.8970349">
<ele>97.61</ele>
<time>2016-10-19T08:33:27Z</time>
</trkpt>
<trkpt lat="39.6781132" lon="2.8968018">
<ele>96.78</ele>
<time>2016-10-19T08:33:30Z</time>
</trkpt>
<trkpt lat="39.6779980" lon="2.8965727">
<ele>95.03</ele>
<time>2016-10-19T08:33:33Z</time>
</trkpt>
<trkpt lat="39.6778746" lon="2.8963130">
<ele>94.57</ele>
<time>2016-10-19T08:33:37Z</time>
</trkpt>
<trkpt lat="39.6777534" lon="2.8960610">
<ele>94.44</ele>
<time>2016-10-19T08:33:40Z</time>
</trkpt>
<trkpt lat="39.6776304" lon="2.8958279">
<ele>95.95</ele>
<time>2016-10-19T08:33:43Z</time>
</trkpt>
<trkpt lat="39.6775040" lon="2.8955999">
<ele>96.36</ele>
<time>2016-10-19T08:33:46Z</time>
</trkpt>
<trkpt lat="39.6773931" lon="2.8953808">
<ele>97.95</ele>
<time>2016-10-19T08:33:49Z</time>
</trkpt>
<trkpt lat="39.6772789" lon="2.8951673">
<ele>98.36</ele>
<time>2016-10-19T08:33:52Z</time>
</trkpt>
<trkpt lat="39.6771646" lon="2.8949521">
<ele>99.04</ele>
<time>2016-10-19T08:33:55Z</time>
</trkpt>
<trkpt lat="39.6770572" lon="2.8947360">
<ele>98.58</ele>
<time>2016-10-19T08:33:58Z</time>
</trkpt>
<trkpt lat="39.6769395" lon="2.8945057">
<ele>97.57</ele>
<time>2016-10-19T08:34:01Z</time>
</trkpt>
<trkpt lat="39.6768157" lon="2.8942650">
<ele>97.41</ele>
<time>2016-10-19T08:34:04Z</time>
</trkpt>
<trkpt lat="39.6766889" lon="2.8940267">
<ele>97.53</ele>
<time>2016-10-19T08:34:07Z</time>
</trkpt>
<trkpt lat="39.6765563" lon="2.8937921">
<ele>97.00</ele>
<time>2016-10-19T08:34:10Z</time>
</trkpt>
<trkpt lat="39.6764266" lon="2.8935492">
<ele>97.24</ele>
<time>2016-10-19T08:34:13Z</time>
</trkpt>
<trkpt lat="39.6763049" lon="2.8933118">
<ele>96.76</ele>
<time>2016-10-19T08:34:16Z</time>
</trkpt>
<trkpt lat="39.6761901" lon="2.8930639">
<ele>96.61</ele>
<time>2016-10-19T08:34:19Z</time>
</trkpt>
<trkpt lat="39.6760851" lon="2.8928546">
<ele>96.02</ele>
<time>2016-10-19T08:34:22Z</time>
</trkpt>
<trkpt lat="39.6759701" lon="2.8926246">
<ele>96.15</ele>
<time>2016-10-19T08:34:25Z</time>
</trkpt>
<trkpt lat="39.6758498" lon="2.8923853">
<ele>96.33</ele>
<time>2016-10-19T08:34:28Z</time>
</trkpt>
<trkpt lat="39.6757131" lon="2.8921284">
<ele>96.52</ele>
<time>2016-10-19T08:34:31Z</time>
</trkpt>
<trkpt lat="39.6755763" lon="2.8918704">
<ele>97.25</ele>
<time>2016-10-19T08:34:34Z</time>
</trkpt>
<trkpt lat="39.6754533" lon="2.8916239">
<ele>96.84</ele>
<time>2016-10-19T08:34:37Z</time>
</trkpt>
<trkpt lat="39.6753463" lon="2.8913904">
<ele>96.89</ele>
<time>2016-10-19T08:34:40Z</time>
</trkpt>
<trkpt lat="39.6752356" lon="2.8911377">
<ele>96.91</ele>
<time>2016-10-19T08:34:43Z</time>
</trkpt>
<trkpt lat="39.6751246" lon="2.8908658">
<ele>96.27</ele>
<time>2016-10-19T08:34:46Z</time>
</trkpt>
<trkpt lat="39.6750235" lon="2.8906281">
<ele>93.52</ele>
<time>2016-10-19T08:34:49Z</time>
</trkpt>
<trkpt lat="39.6749122" lon="2.8904048">
<ele>90.71</ele>
<time>2016-10-19T08:34:52Z</time>
</trkpt>
<trkpt lat="39.6747858" lon="2.8901599">
<ele>89.03</ele>
<time>2016-10-19T08:34:55Z</time>
</trkpt>
<trkpt lat="39.6746705" lon="2.8899252">
<ele>88.60</ele>
<time>2016-10-19T08:34:58Z</time>
</trkpt>
<trkpt lat="39.6745499" lon="2.8896789">
<ele>89.32</ele>
<time>2016-10-19T08:35:01Z</time>
</trkpt>
<trkpt lat="39.6744315" lon="2.8894222">
<ele>89.16</ele>
<time>2016-10-19T08:35:04Z</time>
</trkpt>
<trkpt lat="39.6743265" lon="2.8891940">
<ele>89.56</ele>
<time>2016-10-19T08:35:07Z</time>
</trkpt>
<trkpt lat="39.6742183" lon="2.8889718">
<ele>90.30</ele>
<time>2016-10-19T08:35:10Z</time>
</trkpt>
<trkpt lat="39.6741113" lon="2.8887477">
<ele>91.56</ele>
<time>2016-10-19T08:35:13Z</time>
</trkpt>
<trkpt lat="39.6740052" lon="2.8885390">
<ele>93.53</ele>
<time>2016-10-19T08:35:16Z</time>
</trkpt>
<trkpt lat="39.6738795" lon="2.8883107">
<ele>93.95</ele>
<time>2016-10-19T08:35:19Z</time>
</trkpt>
<trkpt lat="39.6737476" lon="2.8880580">
<ele>94.33</ele>
<time>2016-10-19T08:35:22Z</time>
</trkpt>
<trkpt lat="39.6736218" lon="2.8878084">
<ele>94.61</ele>
<time>2016-10-19T08:35:25Z</time>
</trkpt>
<trkpt lat="39.6735102" lon="2.8875864">
<ele>95.65</ele>
<time>2016-10-19T08:35:28Z</time>
</trkpt>
<trkpt lat="39.6734071" lon="2.8873500">
<ele>95.66</ele>
<time>2016-10-19T08:35:31Z</time>
</trkpt>
<trkpt lat="39.6733097" lon="2.8870983">
<ele>96.41</ele>
<time>2016-10-19T08:35:34Z</time>
</trkpt>
<trkpt lat="39.6732139" lon="2.8868548">
<ele>97.98</ele>
<time>2016-10-19T08:35:37Z</time>
</trkpt>
<trkpt lat="39.6731252" lon="2.8866047">
<ele>99.05</ele>
<time>2016-10-19T08:35:40Z</time>
</trkpt>
<trkpt lat="39.6730423" lon="2.8863515">
<ele>99.60</ele>
<time>2016-10-19T08:35:43Z</time>
</trkpt>
<trkpt lat="39.6729541" lon="2.8860779">
<ele>100.16</ele>
<time>2016-10-19T08:35:46Z</time>
</trkpt>
<trkpt lat="39.6728556" lon="2.8858131">
<ele>98.54</ele>
<time>2016-10-19T08:35:49Z</time>
</trkpt>
<trkpt lat="39.6727569" lon="2.8855880">
<ele>96.97</ele>
<time>2016-10-19T08:35:52Z</time>
</trkpt>
<trkpt lat="39.6726516" lon="2.8853895">
<ele>97.31</ele>
<time>2016-10-19T08:35:55Z</time>
</trkpt>
<trkpt lat="39.6725255" lon="2.8851721">
<ele>97.87</ele>
<time>2016-10-19T08:35:58Z</time>
</trkpt>
<trkpt lat="39.6723981" lon="2.8849755">
<ele>97.55</ele>
<time>2016-10-19T08:36:01Z</time>
</trkpt>
<trkpt lat="39.6722283" lon="2.8847627">
<ele>94.92</ele>
<time>2016-10-19T08:36:05Z</time>
</trkpt>
<trkpt lat="39.6720976" lon="2.8845731">
<ele>95.50</ele>
<time>2016-10-19T08:36:08Z</time>
</trkpt>
<trkpt lat="39.6719710" lon="2.8843714">
<ele>96.22</ele>
<time>2016-10-19T08:36:11Z</time>
</trkpt>
<trkpt lat="39.6718535" lon="2.8841714">
<ele>96.71</ele>
<time>2016-10-19T08:36:14Z</time>
</trkpt>
<trkpt lat="39.6717213" lon="2.8839636">
<ele>98.05</ele>
<time>2016-10-19T08:36:17Z</time>
</trkpt>
<trkpt lat="39.6715803" lon="2.8837766">
<ele>97.75</ele>
<time>2016-10-19T08:36:20Z</time>
</trkpt>
<trkpt lat="39.6714173" lon="2.8835690">
<ele>97.39</ele>
<time>2016-10-19T08:36:23Z</time>
</trkpt>
<trkpt lat="39.6712692" lon="2.8833803">
<ele>96.93</ele>
<time>2016-10-19T08:36:26Z</time>
</trkpt>
<trkpt lat="39.6711237" lon="2.8831958">
<ele>98.24</ele>
<time>2016-10-19T08:36:29Z</time>
</trkpt>
<trkpt lat="39.6709833" lon="2.8830170">
<ele>99.30</ele>
<time>2016-10-19T08:36:32Z</time>
</trkpt>
<trkpt lat="39.6708431" lon="2.8828220">
<ele>99.11</ele>
<time>2016-10-19T08:36:35Z</time>
</trkpt>
<trkpt lat="39.6707138" lon="2.8826035">
<ele>98.41</ele>
<time>2016-10-19T08:36:38Z</time>
</trkpt>
<trkpt lat="39.6705800" lon="2.8823856">
<ele>97.51</ele>
<time>2016-10-19T08:36:41Z</time>
</trkpt>
<trkpt lat="39.6704451" lon="2.8821725">
<ele>97.25</ele>
<time>2016-10-19T08:36:44Z</time>
</trkpt>
<trkpt lat="39.6702944" lon="2.8819423">
<ele>98.08</ele>
<time>2016-10-19T08:36:47Z</time>
</trkpt>
<trkpt lat="39.6701589" lon="2.8817224">
<ele>98.84</ele>
<time>2016-10-19T08:36:50Z</time>
</trkpt>
<trkpt lat="39.6700308" lon="2.8815043">
<ele>99.42</ele>
<time>2016-10-19T08:36:53Z</time>
</trkpt>
<trkpt lat="39.6699035" lon="2.8812794">
<ele>99.66</ele>
<time>2016-10-19T08:36:56Z</time>
</trkpt>
<trkpt lat="39.6697812" lon="2.8810570">
<ele>100.22</ele>
<time>2016-10-19T08:36:59Z</time>
</trkpt>
<trkpt lat="39.6696564" lon="2.8808345">
<ele>100.37</ele>
<time>2016-10-19T08:37:02Z</time>
</trkpt>
<trkpt lat="39.6695245" lon="2.8806048">
<ele>100.06</ele>
<time>2016-10-19T08:37:05Z</time>
</trkpt>
<trkpt lat="39.6694058" lon="2.8804220">
<ele>100.14</ele>
<time>2016-10-19T08:37:08Z</time>
</trkpt>
<trkpt lat="39.6692693" lon="2.8802122">
<ele>99.55</ele>
<time>2016-10-19T08:37:11Z</time>
</trkpt>
<trkpt lat="39.6691356" lon="2.8800075">
<ele>97.92</ele>
<time>2016-10-19T08:37:14Z</time>
</trkpt>
<trkpt lat="39.6689998" lon="2.8797658">
<ele>95.55</ele>
<time>2016-10-19T08:37:17Z</time>
</trkpt>
<trkpt lat="39.6688851" lon="2.8795443">
<ele>95.49</ele>
<time>2016-10-19T08:37:20Z</time>
</trkpt>
<trkpt lat="39.6687682" lon="2.8793500">
<ele>97.68</ele>
<time>2016-10-19T08:37:23Z</time>
</trkpt>
<trkpt lat="39.6686511" lon="2.8791525">
<ele>100.63</ele>
<time>2016-10-19T08:37:26Z</time>
</trkpt>
<trkpt lat="39.6685141" lon="2.8789291">
<ele>103.15</ele>
<time>2016-10-19T08:37:29Z</time>
</trkpt>
<trkpt lat="39.6683873" lon="2.8787077">
<ele>104.72</ele>
<time>2016-10-19T08:37:32Z</time>
</trkpt>
<trkpt lat="39.6682554" lon="2.8784495">
<ele>104.93</ele>
<time>2016-10-19T08:37:35Z</time>
</trkpt>
<trkpt lat="39.6681567" lon="2.8782071">
<ele>104.66</ele>
<time>2016-10-19T08:37:38Z</time>
</trkpt>
<trkpt lat="39.6680551" lon="2.8779585">
<ele>103.41</ele>
<time>2016-10-19T08:37:41Z</time>
</trkpt>
<trkpt lat="39.6679225" lon="2.8777079">
<ele>101.47</ele>
<time>2016-10-19T08:37:44Z</time>
</trkpt>
<trkpt lat="39.6677602" lon="2.8774585">
<ele>98.92</ele>
<time>2016-10-19T08:37:47Z</time>
</trkpt>
<trkpt lat="39.6676017" lon="2.8772030">
<ele>97.01</ele>
<time>2016-10-19T08:37:50Z</time>
</trkpt>
<trkpt lat="39.6674404" lon="2.8769821">
<ele>95.70</ele>
<time>2016-10-19T08:37:53Z</time>
</trkpt>
<trkpt lat="39.6672838" lon="2.8767843">
<ele>95.86</ele>
<time>2016-10-19T08:37:56Z</time>
</trkpt>
<trkpt lat="39.6671244" lon="2.8765803">
<ele>96.31</ele>
<time>2016-10-19T08:37:59Z</time>
</trkpt>
<trkpt lat="39.6669748" lon="2.8763836">
<ele>95.92</ele>
<time>2016-10-19T08:38:02Z</time>
</trkpt>
<trkpt lat="39.6668309" lon="2.8761933">
<ele>94.75</ele>
<time>2016-10-19T08:38:05Z</time>
</trkpt>
<trkpt lat="39.6666680" lon="2.8759727">
<ele>94.30</ele>
<time>2016-10-19T08:38:09Z</time>
</trkpt>
<trkpt lat="39.6665104" lon="2.8757522">
<ele>92.62</ele>
<time>2016-10-19T08:38:13Z</time>
</trkpt>
<trkpt lat="39.6663828" lon="2.8755720">
<ele>91.99</ele>
<time>2016-10-19T08:38:16Z</time>
</trkpt>
<trkpt lat="39.6662477" lon="2.8753719">
<ele>92.68</ele>
<time>2016-10-19T08:38:19Z</time>
</trkpt>
<trkpt lat="39.6661153" lon="2.8751710">
<ele>92.23</ele>
<time>2016-10-19T08:38:22Z</time>
</trkpt>
<trkpt lat="39.6661091" lon="2.8748718">
<ele>90.93</ele>
<time>2016-10-19T08:38:25Z</time>
</trkpt>
<trkpt lat="39.6661996" lon="2.8746451">
<ele>90.67</ele>
<time>2016-10-19T08:38:27Z</time>
</trkpt>
<trkpt lat="39.6663385" lon="2.8743775">
<ele>90.95</ele>
<time>2016-10-19T08:38:30Z</time>
</trkpt>
<trkpt lat="39.6663782" lon="2.8741428">
<ele>92.05</ele>
<time>2016-10-19T08:38:33Z</time>
</trkpt>
<trkpt lat="39.6662913" lon="2.8738646">
<ele>92.55</ele>
<time>2016-10-19T08:38:37Z</time>
</trkpt>
<trkpt lat="39.6662018" lon="2.8736582">
<ele>92.11</ele>
<time>2016-10-19T08:38:40Z</time>
</trkpt>
<trkpt lat="39.6661084" lon="2.8734118">
<ele>92.38</ele>
<time>2016-10-19T08:38:43Z</time>
</trkpt>
<trkpt lat="39.6660131" lon="2.8731488">
<ele>92.80</ele>
<time>2016-10-19T08:38:46Z</time>
</trkpt>
<trkpt lat="39.6659118" lon="2.8729036">
<ele>92.81</ele>
<time>2016-10-19T08:38:49Z</time>
</trkpt>
<trkpt lat="39.6658022" lon="2.8726196">
<ele>94.25</ele>
<time>2016-10-19T08:38:52Z</time>
</trkpt>
<trkpt lat="39.6656787" lon="2.8723375">
<ele>94.99</ele>
<time>2016-10-19T08:38:55Z</time>
</trkpt>
<trkpt lat="39.6655398" lon="2.8720698">
<ele>94.82</ele>
<time>2016-10-19T08:38:58Z</time>
</trkpt>
<trkpt lat="39.6654091" lon="2.8718222">
<ele>94.44</ele>
<time>2016-10-19T08:39:01Z</time>
</trkpt>
<trkpt lat="39.6652798" lon="2.8715685">
<ele>94.14</ele>
<time>2016-10-19T08:39:04Z</time>
</trkpt>
<trkpt lat="39.6651544" lon="2.8713306">
<ele>93.79</ele>
<time>2016-10-19T08:39:07Z</time>
</trkpt>
<trkpt lat="39.6650291" lon="2.8710896">
<ele>93.95</ele>
<time>2016-10-19T08:39:10Z</time>
</trkpt>
<trkpt lat="39.6649131" lon="2.8708717">
<ele>95.68</ele>
<time>2016-10-19T08:39:13Z</time>
</trkpt>
<trkpt lat="39.6648046" lon="2.8706458">
<ele>97.75</ele>
<time>2016-10-19T08:39:16Z</time>
</trkpt>
<trkpt lat="39.6646944" lon="2.8704033">
<ele>99.68</ele>
<time>2016-10-19T08:39:19Z</time>
</trkpt>
<trkpt lat="39.6645896" lon="2.8701469">
<ele>99.96</ele>
<time>2016-10-19T08:39:22Z</time>
</trkpt>
<trkpt lat="39.6644730" lon="2.8699064">
<ele>99.79</ele>
<time>2016-10-19T08:39:25Z</time>
</trkpt>
<trkpt lat="39.6643540" lon="2.8697100">
<ele>100.44</ele>
<time>2016-10-19T08:39:28Z</time>
</trkpt>
<trkpt lat="39.6642239" lon="2.8695130">
<ele>101.37</ele>
<time>2016-10-19T08:39:31Z</time>
</trkpt>
<trkpt lat="39.6640843" lon="2.8693192">
<ele>101.32</ele>
<time>2016-10-19T08:39:34Z</time>
</trkpt>
<trkpt lat="39.6639522" lon="2.8691139">
<ele>100.77</ele>
<time>2016-10-19T08:39:37Z</time>
</trkpt>
<trkpt lat="39.6638373" lon="2.8688912">
<ele>100.14</ele>
<time>2016-10-19T08:39:40Z</time>
</trkpt>
<trkpt lat="39.6637298" lon="2.8686627">
<ele>99.27</ele>
<time>2016-10-19T08:39:43Z</time>
</trkpt>
<trkpt lat="39.6636214" lon="2.8684290">
<ele>99.92</ele>
<time>2016-10-19T08:39:46Z</time>
</trkpt>
<trkpt lat="39.6635106" lon="2.8681974">
<ele>101.23</ele>
<time>2016-10-19T08:39:49Z</time>
</trkpt>
<trkpt lat="39.6634015" lon="2.8679685">
<ele>102.73</ele>
<time>2016-10-19T08:39:52Z</time>
</trkpt>
<trkpt lat="39.6633009" lon="2.8677584">
<ele>102.02</ele>
<time>2016-10-19T08:39:55Z</time>
</trkpt>
<trkpt lat="39.6632178" lon="2.8675061">
<ele>101.53</ele>
<time>2016-10-19T08:39:58Z</time>
</trkpt>
<trkpt lat="39.6631570" lon="2.8672408">
<ele>104.60</ele>
<time>2016-10-19T08:40:01Z</time>
</trkpt>
<trkpt lat="39.6631054" lon="2.8669758">
<ele>107.01</ele>
<time>2016-10-19T08:40:04Z</time>
</trkpt>
<trkpt lat="39.6630466" lon="2.8667031">
<ele>109.35</ele>
<time>2016-10-19T08:40:07Z</time>
</trkpt>
<trkpt lat="39.6629886" lon="2.8664177">
<ele>109.28</ele>
<time>2016-10-19T08:40:10Z</time>
</trkpt>
<trkpt lat="39.6629346" lon="2.8661404">
<ele>108.00</ele>
<time>2016-10-19T08:40:13Z</time>
</trkpt>
<trkpt lat="39.6628956" lon="2.8658565">
<ele>106.97</ele>
<time>2016-10-19T08:40:16Z</time>
</trkpt>
<trkpt lat="39.6628916" lon="2.8656040">
<ele>105.90</ele>
<time>2016-10-19T08:40:19Z</time>
</trkpt>
<trkpt lat="39.6628769" lon="2.8653355">
<ele>104.08</ele>
<time>2016-10-19T08:40:22Z</time>
</trkpt>
<trkpt lat="39.6628380" lon="2.8650442">
<ele>103.35</ele>
<time>2016-10-19T08:40:25Z</time>
</trkpt>
<trkpt lat="39.6627942" lon="2.8647913">
<ele>103.77</ele>
<time>2016-10-19T08:40:28Z</time>
</trkpt>
<trkpt lat="39.6627504" lon="2.8645392">
<ele>103.36</ele>
<time>2016-10-19T08:40:31Z</time>
</trkpt>
<trkpt lat="39.6626960" lon="2.8642892">
<ele>104.36</ele>
<time>2016-10-19T08:40:34Z</time>
</trkpt>
<trkpt lat="39.6626377" lon="2.8640121">
<ele>105.04</ele>
<time>2016-10-19T08:40:37Z</time>
</trkpt>
<trkpt lat="39.6625689" lon="2.8637265">
<ele>104.78</ele>
<time>2016-10-19T08:40:40Z</time>
</trkpt>
<trkpt lat="39.6625017" lon="2.8634626">
<ele>102.56</ele>
<time>2016-10-19T08:40:43Z</time>
</trkpt>
<trkpt lat="39.6624348" lon="2.8632170">
<ele>100.56</ele>
<time>2016-10-19T08:40:46Z</time>
</trkpt>
<trkpt lat="39.6623723" lon="2.8629626">
<ele>101.06</ele>
<time>2016-10-19T08:40:49Z</time>
</trkpt>
<trkpt lat="39.6623209" lon="2.8627236">
<ele>102.66</ele>
<time>2016-10-19T08:40:52Z</time>
</trkpt>
<trkpt lat="39.6622622" lon="2.8624574">
<ele>105.13</ele>
<time>2016-10-19T08:40:55Z</time>
</trkpt>
<trkpt lat="39.6622027" lon="2.8621893">
<ele>107.04</ele>
<time>2016-10-19T08:40:58Z</time>
</trkpt>
<trkpt lat="39.6621417" lon="2.8619335">
<ele>106.73</ele>
<time>2016-10-19T08:41:01Z</time>
</trkpt>
<trkpt lat="39.6620744" lon="2.8616723">
<ele>107.97</ele>
<time>2016-10-19T08:41:04Z</time>
</trkpt>
<trkpt lat="39.6620133" lon="2.8613986">
<ele>109.58</ele>
<time>2016-10-19T08:41:07Z</time>
</trkpt>
<trkpt lat="39.6619535" lon="2.8611382">
<ele>110.50</ele>
<time>2016-10-19T08:41:10Z</time>
</trkpt>
<trkpt lat="39.6618916" lon="2.8609130">
<ele>110.64</ele>
<time>2016-10-19T08:41:13Z</time>
</trkpt>
<trkpt lat="39.6618244" lon="2.8606305">
<ele>109.32</ele>
<time>2016-10-19T08:41:16Z</time>
</trkpt>
<trkpt lat="39.6617728" lon="2.8603872">
<ele>105.27</ele>
<time>2016-10-19T08:41:19Z</time>
</trkpt>
<trkpt lat="39.6616938" lon="2.8601508">
<ele>100.66</ele>
<time>2016-10-19T08:41:22Z</time>
</trkpt>
<trkpt lat="39.6616234" lon="2.8598937">
<ele>99.05</ele>
<time>2016-10-19T08:41:25Z</time>
</trkpt>
<trkpt lat="39.6615757" lon="2.8596260">
<ele>101.05</ele>
<time>2016-10-19T08:41:28Z</time>
</trkpt>
<trkpt lat="39.6615337" lon="2.8593349">
<ele>103.49</ele>
<time>2016-10-19T08:41:31Z</time>
</trkpt>
<trkpt lat="39.6615004" lon="2.8590262">
<ele>102.67</ele>
<time>2016-10-19T08:41:34Z</time>
</trkpt>
<trkpt lat="39.6614935" lon="2.8587692">
<ele>100.08</ele>
<time>2016-10-19T08:41:37Z</time>
</trkpt>
<trkpt lat="39.6614815" lon="2.8584999">
<ele>97.57</ele>
<time>2016-10-19T08:41:40Z</time>
</trkpt>
<trkpt lat="39.6614723" lon="2.8582317">
<ele>95.70</ele>
<time>2016-10-19T08:41:43Z</time>
</trkpt>
<trkpt lat="39.6614357" lon="2.8579330">
<ele>97.07</ele>
<time>2016-10-19T08:41:46Z</time>
</trkpt>
<trkpt lat="39.6613726" lon="2.8576794">
<ele>100.60</ele>
<time>2016-10-19T08:41:49Z</time>
</trkpt>
<trkpt lat="39.6613012" lon="2.8574313">
<ele>103.21</ele>
<time>2016-10-19T08:41:52Z</time>
</trkpt>
<trkpt lat="39.6612532" lon="2.8571438">
<ele>105.64</ele>
<time>2016-10-19T08:41:55Z</time>
</trkpt>
<trkpt lat="39.6612213" lon="2.8568677">
<ele>107.32</ele>
<time>2016-10-19T08:41:57Z</time>
</trkpt>
<trkpt lat="39.6611968" lon="2.8566233">
<ele>108.60</ele>
<time>2016-10-19T08:42:00Z</time>
</trkpt>
<trkpt lat="39.6611670" lon="2.8563544">
<ele>110.27</ele>
<time>2016-10-19T08:42:03Z</time>
</trkpt>
<trkpt lat="39.6611351" lon="2.8560600">
<ele>110.98</ele>
<time>2016-10-19T08:42:06Z</time>
</trkpt>
<trkpt lat="39.6611106" lon="2.8557756">
<ele>111.27</ele>
<time>2016-10-19T08:42:09Z</time>
</trkpt>
<trkpt lat="39.6610995" lon="2.8555377">
<ele>109.08</ele>
<time>2016-10-19T08:42:12Z</time>
</trkpt>
<trkpt lat="39.6610912" lon="2.8552863">
<ele>106.02</ele>
<time>2016-10-19T08:42:15Z</time>
</trkpt>
<trkpt lat="39.6610817" lon="2.8550485">
<ele>104.58</ele>
<time>2016-10-19T08:42:18Z</time>
</trkpt>
<trkpt lat="39.6610711" lon="2.8547790">
<ele>104.27</ele>
<time>2016-10-19T08:42:22Z</time>
</trkpt>
<trkpt lat="39.6610666" lon="2.8545375">
<ele>104.51</ele>
<time>2016-10-19T08:42:33Z</time>
</trkpt>
<trkpt lat="39.6610484" lon="2.8542983">
<ele>105.13</ele>
<time>2016-10-19T08:42:38Z</time>
</trkpt>
<trkpt lat="39.6610408" lon="2.8540347">
<ele>105.63</ele>
<time>2016-10-19T08:42:42Z</time>
</trkpt>
<trkpt lat="39.6610687" lon="2.8537512">
<ele>104.59</ele>
<time>2016-10-19T08:42:46Z</time>
</trkpt>
<trkpt lat="39.6611185" lon="2.8534557">
<ele>104.43</ele>
<time>2016-10-19T08:42:50Z</time>
</trkpt>
<trkpt lat="39.6611504" lon="2.8532218">
<ele>105.57</ele>
<time>2016-10-19T08:42:53Z</time>
</trkpt>
<trkpt lat="39.6611768" lon="2.8529862">
<ele>105.86</ele>
<time>2016-10-19T08:42:56Z</time>
</trkpt>
<trkpt lat="39.6611838" lon="2.8527451">
<ele>106.59</ele>
<time>2016-10-19T08:42:59Z</time>
</trkpt>
<trkpt lat="39.6611700" lon="2.8525052">
<ele>107.91</ele>
<time>2016-10-19T08:43:02Z</time>
</trkpt>
<trkpt lat="39.6611461" lon="2.8522669">
<ele>108.97</ele>
<time>2016-10-19T08:43:05Z</time>
</trkpt>
<trkpt lat="39.6611301" lon="2.8520012">
<ele>109.31</ele>
<time>2016-10-19T08:43:08Z</time>
</trkpt>
<trkpt lat="39.6611284" lon="2.8517337">
<ele>109.53</ele>
<time>2016-10-19T08:43:11Z</time>
</trkpt>
<trkpt lat="39.6611356" lon="2.8514700">
<ele>109.58</ele>
<time>2016-10-19T08:43:14Z</time>
</trkpt>
<trkpt lat="39.6611387" lon="2.8512194">
<ele>109.30</ele>
<time>2016-10-19T08:43:17Z</time>
</trkpt>
<trkpt lat="39.6611354" lon="2.8509099">
<ele>109.54</ele>
<time>2016-10-19T08:43:21Z</time>
</trkpt>
<trkpt lat="39.6611304" lon="2.8506554">
<ele>110.80</ele>
<time>2016-10-19T08:43:24Z</time>
</trkpt>
<trkpt lat="39.6611102" lon="2.8504078">
<ele>111.84</ele>
<time>2016-10-19T08:43:27Z</time>
</trkpt>
<trkpt lat="39.6610602" lon="2.8501790">
<ele>113.39</ele>
<time>2016-10-19T08:43:30Z</time>
</trkpt>
<trkpt lat="39.6609910" lon="2.8499318">
<ele>114.10</ele>
<time>2016-10-19T08:43:33Z</time>
</trkpt>
<trkpt lat="39.6609120" lon="2.8496951">
<ele>113.13</ele>
<time>2016-10-19T08:43:36Z</time>
</trkpt>
<trkpt lat="39.6608443" lon="2.8494430">
<ele>112.36</ele>
<time>2016-10-19T08:43:39Z</time>
</trkpt>
<trkpt lat="39.6607805" lon="2.8491984">
<ele>113.19</ele>
<time>2016-10-19T08:43:42Z</time>
</trkpt>
<trkpt lat="39.6607176" lon="2.8489583">
<ele>113.49</ele>
<time>2016-10-19T08:43:45Z</time>
</trkpt>
<trkpt lat="39.6606479" lon="2.8487242">
<ele>114.27</ele>
<time>2016-10-19T08:43:48Z</time>
</trkpt>
<trkpt lat="39.6605710" lon="2.8484825">
<ele>113.23</ele>
<time>2016-10-19T08:43:51Z</time>
</trkpt>
<trkpt lat="39.6604985" lon="2.8482384">
<ele>111.75</ele>
<time>2016-10-19T08:43:54Z</time>
</trkpt>
<trkpt lat="39.6604338" lon="2.8480034">
<ele>111.95</ele>
<time>2016-10-19T08:43:57Z</time>
</trkpt>
<trkpt lat="39.6603630" lon="2.8477540">
<ele>113.81</ele>
<time>2016-10-19T08:44:00Z</time>
</trkpt>
<trkpt lat="39.6602895" lon="2.8474992">
<ele>115.15</ele>
<time>2016-10-19T08:44:03Z</time>
</trkpt>
<trkpt lat="39.6602120" lon="2.8472465">
<ele>115.86</ele>
<time>2016-10-19T08:44:06Z</time>
</trkpt>
<trkpt lat="39.6601343" lon="2.8469926">
<ele>115.16</ele>
<time>2016-10-19T08:44:09Z</time>
</trkpt>
<trkpt lat="39.6600604" lon="2.8467329">
<ele>115.33</ele>
<time>2016-10-19T08:44:12Z</time>
</trkpt>
<trkpt lat="39.6599865" lon="2.8464889">
<ele>116.95</ele>
<time>2016-10-19T08:44:15Z</time>
</trkpt>
<trkpt lat="39.6599097" lon="2.8462390">
<ele>116.78</ele>
<time>2016-10-19T08:44:18Z</time>
</trkpt>
<trkpt lat="39.6598295" lon="2.8459635">
<ele>117.17</ele>
<time>2016-10-19T08:44:21Z</time>
</trkpt>
<trkpt lat="39.6597560" lon="2.8456988">
<ele>117.01</ele>
<time>2016-10-19T08:44:24Z</time>
</trkpt>
<trkpt lat="39.6596842" lon="2.8454374">
<ele>117.29</ele>
<time>2016-10-19T08:44:27Z</time>
</trkpt>
<trkpt lat="39.6596062" lon="2.8451728">
<ele>115.97</ele>
<time>2016-10-19T08:44:30Z</time>
</trkpt>
<trkpt lat="39.6595328" lon="2.8449025">
<ele>114.00</ele>
<time>2016-10-19T08:44:33Z</time>
</trkpt>
<trkpt lat="39.6594609" lon="2.8446413">
<ele>112.93</ele>
<time>2016-10-19T08:44:36Z</time>
</trkpt>
<trkpt lat="39.6593982" lon="2.8443873">
<ele>113.03</ele>
<time>2016-10-19T08:44:39Z</time>
</trkpt>
<trkpt lat="39.6593358" lon="2.8441107">
<ele>113.76</ele>
<time>2016-10-19T08:44:42Z</time>
</trkpt>
<trkpt lat="39.6592764" lon="2.8438293">
<ele>113.73</ele>
<time>2016-10-19T08:44:45Z</time>
</trkpt>
<trkpt lat="39.6592201" lon="2.8435469">
<ele>113.07</ele>
<time>2016-10-19T08:44:48Z</time>
</trkpt>
<trkpt lat="39.6591651" lon="2.8432686">
<ele>111.48</ele>
<time>2016-10-19T08:44:51Z</time>
</trkpt>
<trkpt lat="39.6591130" lon="2.8429974">
<ele>111.48</ele>
<time>2016-10-19T08:44:54Z</time>
</trkpt>
<trkpt lat="39.6590533" lon="2.8427325">
<ele>112.07</ele>
<time>2016-10-19T08:44:57Z</time>
</trkpt>
<trkpt lat="39.6589882" lon="2.8424638">
<ele>112.36</ele>
<time>2016-10-19T08:45:00Z</time>
</trkpt>
<trkpt lat="39.6589222" lon="2.8421965">
<ele>114.18</ele>
<time>2016-10-19T08:45:03Z</time>
</trkpt>
<trkpt lat="39.6588611" lon="2.8419199">
<ele>115.21</ele>
<time>2016-10-19T08:45:06Z</time>
</trkpt>
<trkpt lat="39.6588040" lon="2.8416601">
<ele>115.63</ele>
<time>2016-10-19T08:45:09Z</time>
</trkpt>
<trkpt lat="39.6587569" lon="2.8413857">
<ele>115.33</ele>
<time>2016-10-19T08:45:12Z</time>
</trkpt>
<trkpt lat="39.6587190" lon="2.8411018">
<ele>115.31</ele>
<time>2016-10-19T08:45:15Z</time>
</trkpt>
<trkpt lat="39.6586734" lon="2.8408193">
<ele>114.27</ele>
<time>2016-10-19T08:45:18Z</time>
</trkpt>
<trkpt lat="39.6586201" lon="2.8405765">
<ele>112.36</ele>
<time>2016-10-19T08:45:21Z</time>
</trkpt>
<trkpt lat="39.6585505" lon="2.8403190">
<ele>110.31</ele>
<time>2016-10-19T08:45:24Z</time>
</trkpt>
<trkpt lat="39.6584950" lon="2.8400282">
<ele>110.25</ele>
<time>2016-10-19T08:45:27Z</time>
</trkpt>
<trkpt lat="39.6584660" lon="2.8397503">
<ele>111.60</ele>
<time>2016-10-19T08:45:30Z</time>
</trkpt>
<trkpt lat="39.6584472" lon="2.8394647">
<ele>113.68</ele>
<time>2016-10-19T08:45:33Z</time>
</trkpt>
<trkpt lat="39.6584239" lon="2.8391748">
<ele>114.35</ele>
<time>2016-10-19T08:45:36Z</time>
</trkpt>
<trkpt lat="39.6583841" lon="2.8389008">
<ele>114.86</ele>
<time>2016-10-19T08:45:39Z</time>
</trkpt>
<trkpt lat="39.6583364" lon="2.8386219">
<ele>115.26</ele>
<time>2016-10-19T08:45:42Z</time>
</trkpt>
<trkpt lat="39.6582793" lon="2.8383382">
<ele>114.97</ele>
<time>2016-10-19T08:45:45Z</time>
</trkpt>
<trkpt lat="39.6582411" lon="2.8380573">
<ele>115.75</ele>
<time>2016-10-19T08:45:48Z</time>
</trkpt>
<trkpt lat="39.6582356" lon="2.8377625">
<ele>116.81</ele>
<time>2016-10-19T08:45:51Z</time>
</trkpt>
<trkpt lat="39.6582485" lon="2.8374560">
<ele>116.90</ele>
<time>2016-10-19T08:45:54Z</time>
</trkpt>
<trkpt lat="39.6582570" lon="2.8371671">
<ele>115.90</ele>
<time>2016-10-19T08:45:57Z</time>
</trkpt>
<trkpt lat="39.6582680" lon="2.8368864">
<ele>115.31</ele>
<time>2016-10-19T08:46:00Z</time>
</trkpt>
<trkpt lat="39.6582813" lon="2.8365973">
<ele>114.86</ele>
<time>2016-10-19T08:46:03Z</time>
</trkpt>
<trkpt lat="39.6582933" lon="2.8362958">
<ele>115.01</ele>
<time>2016-10-19T08:46:06Z</time>
</trkpt>
<trkpt lat="39.6583017" lon="2.8359998">
<ele>115.99</ele>
<time>2016-10-19T08:46:09Z</time>
</trkpt>
<trkpt lat="39.6583076" lon="2.8357006">
<ele>115.64</ele>
<time>2016-10-19T08:46:12Z</time>
</trkpt>
<trkpt lat="39.6583151" lon="2.8354027">
<ele>115.30</ele>
<time>2016-10-19T08:46:15Z</time>
</trkpt>
<trkpt lat="39.6583118" lon="2.8351117">
<ele>116.61</ele>
<time>2016-10-19T08:46:18Z</time>
</trkpt>
<trkpt lat="39.6583022" lon="2.8348495">
<ele>116.14</ele>
<time>2016-10-19T08:46:21Z</time>
</trkpt>
<trkpt lat="39.6582765" lon="2.8345509">
<ele>115.07</ele>
<time>2016-10-19T08:46:24Z</time>
</trkpt>
<trkpt lat="39.6582398" lon="2.8342656">
<ele>114.88</ele>
<time>2016-10-19T08:46:27Z</time>
</trkpt>
<trkpt lat="39.6581957" lon="2.8339957">
<ele>114.71</ele>
<time>2016-10-19T08:46:30Z</time>
</trkpt>
<trkpt lat="39.6581442" lon="2.8337167">
<ele>113.72</ele>
<time>2016-10-19T08:46:33Z</time>
</trkpt>
<trkpt lat="39.6580869" lon="2.8334375">
<ele>113.45</ele>
<time>2016-10-19T08:46:36Z</time>
</trkpt>
<trkpt lat="39.6580272" lon="2.8331587">
<ele>114.24</ele>
<time>2016-10-19T08:46:39Z</time>
</trkpt>
<trkpt lat="39.6579714" lon="2.8328764">
<ele>115.67</ele>
<time>2016-10-19T08:46:42Z</time>
</trkpt>
<trkpt lat="39.6579166" lon="2.8325957">
<ele>116.74</ele>
<time>2016-10-19T08:46:45Z</time>
</trkpt>
<trkpt lat="39.6578665" lon="2.8323292">
<ele>118.07</ele>
<time>2016-10-19T08:46:48Z</time>
</trkpt>
<trkpt lat="39.6578188" lon="2.8320466">
<ele>120.11</ele>
<time>2016-10-19T08:46:51Z</time>
</trkpt>
<trkpt lat="39.6577739" lon="2.8317641">
<ele>122.95</ele>
<time>2016-10-19T08:46:54Z</time>
</trkpt>
<trkpt lat="39.6577196" lon="2.8314833">
<ele>125.03</ele>
<time>2016-10-19T08:46:57Z</time>
</trkpt>
<trkpt lat="39.6576487" lon="2.8312026">
<ele>123.63</ele>
<time>2016-10-19T08:47:00Z</time>
</trkpt>
<trkpt lat="39.6575796" lon="2.8309217">
<ele>121.29</ele>
<time>2016-10-19T08:47:03Z</time>
</trkpt>
<trkpt lat="39.6575001" lon="2.8306342">
<ele>120.25</ele>
<time>2016-10-19T08:47:06Z</time>
</trkpt>
<trkpt lat="39.6574149" lon="2.8303473">
<ele>118.51</ele>
<time>2016-10-19T08:47:09Z</time>
</trkpt>
<trkpt lat="39.6573097" lon="2.8300541">
<ele>116.12</ele>
<time>2016-10-19T08:47:12Z</time>
</trkpt>
<trkpt lat="39.6572043" lon="2.8297684">
<ele>116.40</ele>
<time>2016-10-19T08:47:15Z</time>
</trkpt>
<trkpt lat="39.6571107" lon="2.8294858">
<ele>117.99</ele>
<time>2016-10-19T08:47:18Z</time>
</trkpt>
<trkpt lat="39.6570121" lon="2.8291884">
<ele>119.77</ele>
<time>2016-10-19T08:47:21Z</time>
</trkpt>
<trkpt lat="39.6569078" lon="2.8288754">
<ele>118.52</ele>
<time>2016-10-19T08:47:24Z</time>
</trkpt>
<trkpt lat="39.6568123" lon="2.8285937">
<ele>115.55</ele>
<time>2016-10-19T08:47:27Z</time>
</trkpt>
<trkpt lat="39.6567245" lon="2.8283327">
<ele>114.62</ele>
<time>2016-10-19T08:47:30Z</time>
</trkpt>
<trkpt lat="39.6566383" lon="2.8280547">
<ele>114.13</ele>
<time>2016-10-19T08:47:33Z</time>
</trkpt>
<trkpt lat="39.6565554" lon="2.8277656">
<ele>113.66</ele>
<time>2016-10-19T08:47:36Z</time>
</trkpt>
<trkpt lat="39.6564801" lon="2.8274721">
<ele>114.57</ele>
<time>2016-10-19T08:47:39Z</time>
</trkpt>
<trkpt lat="39.6564199" lon="2.8271880">
<ele>114.05</ele>
<time>2016-10-19T08:47:42Z</time>
</trkpt>
<trkpt lat="39.6563697" lon="2.8269043">
<ele>113.34</ele>
<time>2016-10-19T08:47:45Z</time>
</trkpt>
<trkpt lat="39.6563195" lon="2.8266348">
<ele>114.18</ele>
<time>2016-10-19T08:47:48Z</time>
</trkpt>
<trkpt lat="39.6562750" lon="2.8263438">
<ele>114.14</ele>
<time>2016-10-19T08:47:51Z</time>
</trkpt>
<trkpt lat="39.6562513" lon="2.8260624">
<ele>112.80</ele>
<time>2016-10-19T08:47:54Z</time>
</trkpt>
<trkpt lat="39.6562349" lon="2.8257777">
<ele>112.76</ele>
<time>2016-10-19T08:47:57Z</time>
</trkpt>
<trkpt lat="39.6562243" lon="2.8254893">
<ele>114.66</ele>
<time>2016-10-19T08:48:00Z</time>
</trkpt>
<trkpt lat="39.6562069" lon="2.8251920">
<ele>115.47</ele>
<time>2016-10-19T08:48:03Z</time>
</trkpt>
<trkpt lat="39.6561911" lon="2.8249052">
<ele>117.36</ele>
<time>2016-10-19T08:48:06Z</time>
</trkpt>
<trkpt lat="39.6561637" lon="2.8246234">
<ele>116.94</ele>
<time>2016-10-19T08:48:09Z</time>
</trkpt>
<trkpt lat="39.6561444" lon="2.8243370">
<ele>116.81</ele>
<time>2016-10-19T08:48:12Z</time>
</trkpt>
<trkpt lat="39.6561312" lon="2.8240413">
<ele>116.92</ele>
<time>2016-10-19T08:48:15Z</time>
</trkpt>
<trkpt lat="39.6561221" lon="2.8237376">
<ele>116.20</ele>
<time>2016-10-19T08:48:18Z</time>
</trkpt>
<trkpt lat="39.6561409" lon="2.8234408">
<ele>115.45</ele>
<time>2016-10-19T08:48:21Z</time>
</trkpt>
<trkpt lat="39.6561537" lon="2.8231395">
<ele>116.09</ele>
<time>2016-10-19T08:48:24Z</time>
</trkpt>
<trkpt lat="39.6561446" lon="2.8228369">
<ele>116.95</ele>
<time>2016-10-19T08:48:27Z</time>
</trkpt>
<trkpt lat="39.6561238" lon="2.8225347">
<ele>117.93</ele>
<time>2016-10-19T08:48:30Z</time>
</trkpt>
<trkpt lat="39.6560962" lon="2.8222471">
<ele>118.21</ele>
<time>2016-10-19T08:48:33Z</time>
</trkpt>
<trkpt lat="39.6560800" lon="2.8219586">
<ele>117.37</ele>
<time>2016-10-19T08:48:36Z</time>
</trkpt>
<trkpt lat="39.6560937" lon="2.8216536">
<ele>115.43</ele>
<time>2016-10-19T08:48:39Z</time>
</trkpt>
<trkpt lat="39.6561199" lon="2.8213392">
<ele>114.57</ele>
<time>2016-10-19T08:48:42Z</time>
</trkpt>
<trkpt lat="39.6561312" lon="2.8210309">
<ele>114.29</ele>
<time>2016-10-19T08:48:45Z</time>
</trkpt>
<trkpt lat="39.6561027" lon="2.8207507">
<ele>114.63</ele>
<time>2016-10-19T08:48:48Z</time>
</trkpt>
<trkpt lat="39.6560612" lon="2.8204687">
<ele>115.85</ele>
<time>2016-10-19T08:48:51Z</time>
</trkpt>
<trkpt lat="39.6560176" lon="2.8201877">
<ele>116.37</ele>
<time>2016-10-19T08:48:54Z</time>
</trkpt>
<trkpt lat="39.6559780" lon="2.8198765">
<ele>116.02</ele>
<time>2016-10-19T08:48:57Z</time>
</trkpt>
<trkpt lat="39.6559439" lon="2.8195682">
<ele>115.32</ele>
<time>2016-10-19T08:49:00Z</time>
</trkpt>
<trkpt lat="39.6559306" lon="2.8192575">
<ele>117.95</ele>
<time>2016-10-19T08:49:03Z</time>
</trkpt>
<trkpt lat="39.6559076" lon="2.8189557">
<ele>120.79</ele>
<time>2016-10-19T08:49:06Z</time>
</trkpt>
<trkpt lat="39.6558820" lon="2.8186414">
<ele>121.25</ele>
<time>2016-10-19T08:49:09Z</time>
</trkpt>
<trkpt lat="39.6558537" lon="2.8183181">
<ele>120.68</ele>
<time>2016-10-19T08:49:12Z</time>
</trkpt>
<trkpt lat="39.6558329" lon="2.8180303">
<ele>119.66</ele>
<time>2016-10-19T08:49:15Z</time>
</trkpt>
<trkpt lat="39.6558081" lon="2.8177236">
<ele>122.10</ele>
<time>2016-10-19T08:49:18Z</time>
</trkpt>
<trkpt lat="39.6557803" lon="2.8174433">
<ele>124.78</ele>
<time>2016-10-19T08:49:21Z</time>
</trkpt>
<trkpt lat="39.6557572" lon="2.8171537">
<ele>124.81</ele>
<time>2016-10-19T08:49:24Z</time>
</trkpt>
<trkpt lat="39.6557351" lon="2.8168634">
<ele>123.25</ele>
<time>2016-10-19T08:49:27Z</time>
</trkpt>
<trkpt lat="39.6557119" lon="2.8165547">
<ele>121.52</ele>
<time>2016-10-19T08:49:30Z</time>
</trkpt>
<trkpt lat="39.6556935" lon="2.8162351">
<ele>121.16</ele>
<time>2016-10-19T08:49:33Z</time>
</trkpt>
<trkpt lat="39.6556721" lon="2.8159224">
<ele>121.53</ele>
<time>2016-10-19T08:49:36Z</time>
</trkpt>
<trkpt lat="39.6556572" lon="2.8156165">
<ele>121.21</ele>
<time>2016-10-19T08:49:39Z</time>
</trkpt>
<trkpt lat="39.6556394" lon="2.8153377">
<ele>120.66</ele>
<time>2016-10-19T08:49:42Z</time>
</trkpt>
<trkpt lat="39.6556171" lon="2.8150704">
<ele>119.95</ele>
<time>2016-10-19T08:49:45Z</time>
</trkpt>
<trkpt lat="39.6555982" lon="2.8147964">
<ele>119.92</ele>
<time>2016-10-19T08:49:48Z</time>
</trkpt>
<trkpt lat="39.6555767" lon="2.8145075">
<ele>119.74</ele>
<time>2016-10-19T08:49:51Z</time>
</trkpt>
<trkpt lat="39.6555611" lon="2.8142271">
<ele>120.38</ele>
<time>2016-10-19T08:49:54Z</time>
</trkpt>
<trkpt lat="39.6555436" lon="2.8139370">
<ele>121.69</ele>
<time>2016-10-19T08:49:57Z</time>
</trkpt>
<trkpt lat="39.6555240" lon="2.8136508">
<ele>122.32</ele>
<time>2016-10-19T08:50:00Z</time>
</trkpt>
<trkpt lat="39.6554753" lon="2.8133745">
<ele>123.11</ele>
<time>2016-10-19T08:50:03Z</time>
</trkpt>
<trkpt lat="39.6554192" lon="2.8130967">
<ele>123.90</ele>
<time>2016-10-19T08:50:06Z</time>
</trkpt>
<trkpt lat="39.6553748" lon="2.8128010">
<ele>123.62</ele>
<time>2016-10-19T08:50:09Z</time>
</trkpt>
<trkpt lat="39.6553742" lon="2.8125026">
<ele>122.13</ele>
<time>2016-10-19T08:50:12Z</time>
</trkpt>
<trkpt lat="39.6553918" lon="2.8121979">
<ele>122.33</ele>
<time>2016-10-19T08:50:15Z</time>
</trkpt>
<trkpt lat="39.6554028" lon="2.8119150">
<ele>122.30</ele>
<time>2016-10-19T08:50:18Z</time>
</trkpt>
<trkpt lat="39.6553926" lon="2.8116293">
<ele>121.49</ele>
<time>2016-10-19T08:50:22Z</time>
</trkpt>
<trkpt lat="39.6553709" lon="2.8113455">
<ele>120.16</ele>
<time>2016-10-19T08:50:25Z</time>
</trkpt>
<trkpt lat="39.6553511" lon="2.8110565">
<ele>119.66</ele>
<time>2016-10-19T08:50:28Z</time>
</trkpt>
<trkpt lat="39.6553423" lon="2.8107611">
<ele>119.41</ele>
<time>2016-10-19T08:50:31Z</time>
</trkpt>
<trkpt lat="39.6553425" lon="2.8104657">
<ele>118.75</ele>
<time>2016-10-19T08:50:34Z</time>
</trkpt>
<trkpt lat="39.6553484" lon="2.8101723">
<ele>119.03</ele>
<time>2016-10-19T08:50:37Z</time>
</trkpt>
<trkpt lat="39.6553309" lon="2.8098764">
<ele>118.20</ele>
<time>2016-10-19T08:50:40Z</time>
</trkpt>
<trkpt lat="39.6552560" lon="2.8095948">
<ele>118.07</ele>
<time>2016-10-19T08:50:43Z</time>
</trkpt>
<trkpt lat="39.6551336" lon="2.8093554">
<ele>118.84</ele>
<time>2016-10-19T08:50:46Z</time>
</trkpt>
<trkpt lat="39.6549917" lon="2.8091373">
<ele>120.26</ele>
<time>2016-10-19T08:50:49Z</time>
</trkpt>
<trkpt lat="39.6548228" lon="2.8089157">
<ele>121.36</ele>
<time>2016-10-19T08:50:52Z</time>
</trkpt>
<trkpt lat="39.6546510" lon="2.8086953">
<ele>122.03</ele>
<time>2016-10-19T08:50:55Z</time>
</trkpt>
<trkpt lat="39.6544830" lon="2.8084828">
<ele>122.07</ele>
<time>2016-10-19T08:50:58Z</time>
</trkpt>
<trkpt lat="39.6543192" lon="2.8082619">
<ele>122.92</ele>
<time>2016-10-19T08:51:01Z</time>
</trkpt>
<trkpt lat="39.6541689" lon="2.8080319">
<ele>123.53</ele>
<time>2016-10-19T08:51:04Z</time>
</trkpt>
<trkpt lat="39.6540175" lon="2.8078044">
<ele>124.15</ele>
<time>2016-10-19T08:51:07Z</time>
</trkpt>
<trkpt lat="39.6538449" lon="2.8075802">
<ele>124.40</ele>
<time>2016-10-19T08:51:10Z</time>
</trkpt>
<trkpt lat="39.6536530" lon="2.8073726">
<ele>124.82</ele>
<time>2016-10-19T08:51:13Z</time>
</trkpt>
<trkpt lat="39.6534566" lon="2.8071482">
<ele>123.99</ele>
<time>2016-10-19T08:51:16Z</time>
</trkpt>
<trkpt lat="39.6532640" lon="2.8069145">
<ele>122.88</ele>
<time>2016-10-19T08:51:19Z</time>
</trkpt>
<trkpt lat="39.6530992" lon="2.8066850">
<ele>122.06</ele>
<time>2016-10-19T08:51:22Z</time>
</trkpt>
<trkpt lat="39.6529617" lon="2.8064161">
<ele>121.33</ele>
<time>2016-10-19T08:51:25Z</time>
</trkpt>
<trkpt lat="39.6528528" lon="2.8061355">
<ele>120.50</ele>
<time>2016-10-19T08:51:28Z</time>
</trkpt>
<trkpt lat="39.6527435" lon="2.8058273">
<ele>119.09</ele>
<time>2016-10-19T08:51:31Z</time>
</trkpt>
<trkpt lat="39.6526421" lon="2.8055239">
<ele>117.91</ele>
<time>2016-10-19T08:51:34Z</time>
</trkpt>
<trkpt lat="39.6525434" lon="2.8052177">
<ele>116.80</ele>
<time>2016-10-19T08:51:37Z</time>
</trkpt>
<trkpt lat="39.6524576" lon="2.8049563">
<ele>117.65</ele>
<time>2016-10-19T08:51:40Z</time>
</trkpt>
<trkpt lat="39.6523492" lon="2.8046827">
<ele>119.10</ele>
<time>2016-10-19T08:51:43Z</time>
</trkpt>
<trkpt lat="39.6522267" lon="2.8044108">
<ele>118.66</ele>
<time>2016-10-19T08:51:46Z</time>
</trkpt>
<trkpt lat="39.6521157" lon="2.8041363">
<ele>117.09</ele>
<time>2016-10-19T08:51:49Z</time>
</trkpt>
<trkpt lat="39.6520408" lon="2.8038661">
<ele>115.66</ele>
<time>2016-10-19T08:51:52Z</time>
</trkpt>
<trkpt lat="39.6519810" lon="2.8035873">
<ele>114.86</ele>
<time>2016-10-19T08:51:55Z</time>
</trkpt>
<trkpt lat="39.6519269" lon="2.8033042">
<ele>113.85</ele>
<time>2016-10-19T08:51:58Z</time>
</trkpt>
<trkpt lat="39.6518703" lon="2.8030346">
<ele>113.10</ele>
<time>2016-10-19T08:52:01Z</time>
</trkpt>
<trkpt lat="39.6518037" lon="2.8028040">
<ele>113.61</ele>
<time>2016-10-19T08:52:04Z</time>
</trkpt>
<trkpt lat="39.6516924" lon="2.8025345">
<ele>115.02</ele>
<time>2016-10-19T08:52:08Z</time>
</trkpt>
<trkpt lat="39.6515928" lon="2.8022815">
<ele>115.34</ele>
<time>2016-10-19T08:52:11Z</time>
</trkpt>
<trkpt lat="39.6515037" lon="2.8020059">
<ele>114.94</ele>
<time>2016-10-19T08:52:14Z</time>
</trkpt>
<trkpt lat="39.6514406" lon="2.8017506">
<ele>114.16</ele>
<time>2016-10-19T08:52:17Z</time>
</trkpt>
<trkpt lat="39.6513795" lon="2.8014933">
<ele>113.40</ele>
<time>2016-10-19T08:52:20Z</time>
</trkpt>
<trkpt lat="39.6513122" lon="2.8012383">
<ele>113.63</ele>
<time>2016-10-19T08:52:23Z</time>
</trkpt>
<trkpt lat="39.6512431" lon="2.8009792">
<ele>114.41</ele>
<time>2016-10-19T08:52:26Z</time>
</trkpt>
<trkpt lat="39.6511836" lon="2.8007171">
<ele>114.94</ele>
<time>2016-10-19T08:52:29Z</time>
</trkpt>
<trkpt lat="39.6511311" lon="2.8004487">
<ele>115.55</ele>
<time>2016-10-19T08:52:32Z</time>
</trkpt>
<trkpt lat="39.6510860" lon="2.8001751">
<ele>115.66</ele>
<time>2016-10-19T08:52:35Z</time>
</trkpt>
<trkpt lat="39.6510422" lon="2.7998920">
<ele>115.75</ele>
<time>2016-10-19T08:52:38Z</time>
</trkpt>
<trkpt lat="39.6510002" lon="2.7996071">
<ele>116.03</ele>
<time>2016-10-19T08:52:41Z</time>
</trkpt>
<trkpt lat="39.6509601" lon="2.7993422">
<ele>117.08</ele>
<time>2016-10-19T08:52:44Z</time>
</trkpt>
<trkpt lat="39.6509154" lon="2.7990694">
<ele>116.80</ele>
<time>2016-10-19T08:52:47Z</time>
</trkpt>
<trkpt lat="39.6508709" lon="2.7987997">
<ele>116.34</ele>
<time>2016-10-19T08:52:50Z</time>
</trkpt>
<trkpt lat="39.6508254" lon="2.7985385">
<ele>116.37</ele>
<time>2016-10-19T08:52:53Z</time>
</trkpt>
<trkpt lat="39.6507834" lon="2.7982990">
<ele>115.15</ele>
<time>2016-10-19T08:52:56Z</time>
</trkpt>
<trkpt lat="39.6507426" lon="2.7980486">
<ele>114.33</ele>
<time>2016-10-19T08:53:00Z</time>
</trkpt>
<trkpt lat="39.6506919" lon="2.7978108">
<ele>114.30</ele>
<time>2016-10-19T08:53:05Z</time>
</trkpt>
<trkpt lat="39.6506601" lon="2.7975683">
<ele>113.99</ele>
<time>2016-10-19T08:53:10Z</time>
</trkpt>
<trkpt lat="39.6506294" lon="2.7973037">
<ele>114.39</ele>
<time>2016-10-19T08:53:15Z</time>
</trkpt>
<trkpt lat="39.6506041" lon="2.7970614">
<ele>119.45</ele>
<time>2016-10-19T08:53:20Z</time>
</trkpt>
<trkpt lat="39.6505543" lon="2.7967996">
<ele>122.82</ele>
<time>2016-10-19T08:53:25Z</time>
</trkpt>
<trkpt lat="39.6505054" lon="2.7965547">
<ele>123.15</ele>
<time>2016-10-19T08:53:29Z</time>
</trkpt>
<trkpt lat="39.6504691" lon="2.7963126">
<ele>123.57</ele>
<time>2016-10-19T08:53:33Z</time>
</trkpt>
<trkpt lat="39.6504327" lon="2.7960618">
<ele>123.51</ele>
<time>2016-10-19T08:53:37Z</time>
</trkpt>
<trkpt lat="39.6503793" lon="2.7957800">
<ele>122.12</ele>
<time>2016-10-19T08:53:41Z</time>
</trkpt>
<trkpt lat="39.6503320" lon="2.7955217">
<ele>121.17</ele>
<time>2016-10-19T08:53:44Z</time>
</trkpt>
<trkpt lat="39.6502737" lon="2.7952228">
<ele>119.51</ele>
<time>2016-10-19T08:53:47Z</time>
</trkpt>
<trkpt lat="39.6502294" lon="2.7949827">
<ele>118.20</ele>
<time>2016-10-19T08:53:49Z</time>
</trkpt>
<trkpt lat="39.6501867" lon="2.7947173">
<ele>116.88</ele>
<time>2016-10-19T08:53:51Z</time>
</trkpt>
<trkpt lat="39.6501445" lon="2.7944657">
<ele>116.11</ele>
<time>2016-10-19T08:53:53Z</time>
</trkpt>
<trkpt lat="39.6501023" lon="2.7942247">
<ele>115.91</ele>
<time>2016-10-19T08:53:55Z</time>
</trkpt>
<trkpt lat="39.6500467" lon="2.7939025">
<ele>115.29</ele>
<time>2016-10-19T08:53:58Z</time>
</trkpt>
<trkpt lat="39.6500052" lon="2.7936046">
<ele>114.23</ele>
<time>2016-10-19T08:54:01Z</time>
</trkpt>
<trkpt lat="39.6499554" lon="2.7932974">
<ele>113.17</ele>
<time>2016-10-19T08:54:04Z</time>
</trkpt>
<trkpt lat="39.6499233" lon="2.7930106">
<ele>113.82</ele>
<time>2016-10-19T08:54:07Z</time>
</trkpt>
<trkpt lat="39.6498788" lon="2.7927149">
<ele>113.45</ele>
<time>2016-10-19T08:54:10Z</time>
</trkpt>
<trkpt lat="39.6498290" lon="2.7924669">
<ele>112.17</ele>
<time>2016-10-19T08:54:13Z</time>
</trkpt>
<trkpt lat="39.6497927" lon="2.7922328">
<ele>113.38</ele>
<time>2016-10-19T08:54:16Z</time>
</trkpt>
<trkpt lat="39.6497503" lon="2.7919825">
<ele>114.92</ele>
<time>2016-10-19T08:54:20Z</time>
</trkpt>
<trkpt lat="39.6498285" lon="2.7917188">
<ele>115.17</ele>
<time>2016-10-19T08:54:24Z</time>
</trkpt>
<trkpt lat="39.6499180" lon="2.7914499">
<ele>115.35</ele>
<time>2016-10-19T08:54:28Z</time>
</trkpt>
<trkpt lat="39.6499761" lon="2.7911568">
<ele>116.81</ele>
<time>2016-10-19T08:54:32Z</time>
</trkpt>
<trkpt lat="39.6499050" lon="2.7908969">
<ele>114.62</ele>
<time>2016-10-19T08:54:36Z</time>
</trkpt>
<trkpt lat="39.6497811" lon="2.7906740">
<ele>112.80</ele>
<time>2016-10-19T08:54:40Z</time>
</trkpt>
<trkpt lat="39.6496389" lon="2.7904702">
<ele>113.43</ele>
<time>2016-10-19T08:54:44Z</time>
</trkpt>
<trkpt lat="39.6494613" lon="2.7902860">
<ele>114.43</ele>
<time>2016-10-19T08:54:48Z</time>
</trkpt>
<trkpt lat="39.6493104" lon="2.7901556">
<ele>113.88</ele>
<time>2016-10-19T08:54:51Z</time>
</trkpt>
<trkpt lat="39.6491918" lon="2.7898990">
<ele>113.57</ele>
<time>2016-10-19T08:54:55Z</time>
</trkpt>
<trkpt lat="39.6491424" lon="2.7896355">
<ele>114.82</ele>
<time>2016-10-19T08:54:58Z</time>
</trkpt>
<trkpt lat="39.6490954" lon="2.7893523">
<ele>114.89</ele>
<time>2016-10-19T08:55:01Z</time>
</trkpt>
<trkpt lat="39.6490554" lon="2.7890666">
<ele>114.34</ele>
<time>2016-10-19T08:55:04Z</time>
</trkpt>
<trkpt lat="39.6490167" lon="2.7887581">
<ele>112.66</ele>
<time>2016-10-19T08:55:07Z</time>
</trkpt>
<trkpt lat="39.6489776" lon="2.7884393">
<ele>112.91</ele>
<time>2016-10-19T08:55:10Z</time>
</trkpt>
<trkpt lat="39.6489306" lon="2.7881591">
<ele>112.59</ele>
<time>2016-10-19T08:55:13Z</time>
</trkpt>
<trkpt lat="39.6488756" lon="2.7878986">
<ele>112.07</ele>
<time>2016-10-19T08:55:16Z</time>
</trkpt>
<trkpt lat="39.6488267" lon="2.7876261">
<ele>111.55</ele>
<time>2016-10-19T08:55:19Z</time>
</trkpt>
<trkpt lat="39.6487819" lon="2.7873326">
<ele>112.30</ele>
<time>2016-10-19T08:55:22Z</time>
</trkpt>
<trkpt lat="39.6487387" lon="2.7870372">
<ele>113.21</ele>
<time>2016-10-19T08:55:25Z</time>
</trkpt>
<trkpt lat="39.6487016" lon="2.7867695">
<ele>112.69</ele>
<time>2016-10-19T08:55:28Z</time>
</trkpt>
<trkpt lat="39.6486610" lon="2.7864947">
<ele>112.16</ele>
<time>2016-10-19T08:55:31Z</time>
</trkpt>
<trkpt lat="39.6486277" lon="2.7862164">
<ele>112.59</ele>
<time>2016-10-19T08:55:34Z</time>
</trkpt>
<trkpt lat="39.6485910" lon="2.7859285">
<ele>112.89</ele>
<time>2016-10-19T08:55:37Z</time>
</trkpt>
<trkpt lat="39.6485543" lon="2.7856548">
<ele>113.34</ele>
<time>2016-10-19T08:55:40Z</time>
</trkpt>
<trkpt lat="39.6485176" lon="2.7853930">
<ele>114.04</ele>
<time>2016-10-19T08:55:43Z</time>
</trkpt>
<trkpt lat="39.6484765" lon="2.7851315">
<ele>113.98</ele>
<time>2016-10-19T08:55:46Z</time>
</trkpt>
<trkpt lat="39.6484369" lon="2.7848870">
<ele>114.19</ele>
<time>2016-10-19T08:55:49Z</time>
</trkpt>
<trkpt lat="39.6483950" lon="2.7846148">
<ele>113.80</ele>
<time>2016-10-19T08:55:52Z</time>
</trkpt>
<trkpt lat="39.6483563" lon="2.7843719">
<ele>112.66</ele>
<time>2016-10-19T08:55:55Z</time>
</trkpt>
<trkpt lat="39.6483209" lon="2.7841365">
<ele>113.40</ele>
<time>2016-10-19T08:55:58Z</time>
</trkpt>
<trkpt lat="39.6482828" lon="2.7839054">
<ele>113.96</ele>
<time>2016-10-19T08:56:01Z</time>
</trkpt>
<trkpt lat="39.6482399" lon="2.7836752">
<ele>114.57</ele>
<time>2016-10-19T08:56:04Z</time>
</trkpt>
<trkpt lat="39.6481592" lon="2.7834014">
<ele>112.11</ele>
<time>2016-10-19T08:56:08Z</time>
</trkpt>
<trkpt lat="39.6481077" lon="2.7831689">
<ele>111.30</ele>
<time>2016-10-19T08:56:11Z</time>
</trkpt>
<trkpt lat="39.6480427" lon="2.7828730">
<ele>112.97</ele>
<time>2016-10-19T08:56:15Z</time>
</trkpt>
<trkpt lat="39.6479893" lon="2.7825888">
<ele>113.15</ele>
<time>2016-10-19T08:56:19Z</time>
</trkpt>
<trkpt lat="39.6479416" lon="2.7823092">
<ele>115.41</ele>
<time>2016-10-19T08:56:23Z</time>
</trkpt>
<trkpt lat="39.6478993" lon="2.7820780">
<ele>118.20</ele>
<time>2016-10-19T08:56:27Z</time>
</trkpt>
<trkpt lat="39.6478499" lon="2.7818096">
<ele>119.94</ele>
<time>2016-10-19T08:56:31Z</time>
</trkpt>
<trkpt lat="39.6479077" lon="2.7815629">
<ele>120.31</ele>
<time>2016-10-19T08:56:35Z</time>
</trkpt>
<trkpt lat="39.6480136" lon="2.7813149">
<ele>121.73</ele>
<time>2016-10-19T08:56:39Z</time>
</trkpt>
<trkpt lat="39.6481965" lon="2.7811435">
<ele>122.83</ele>
<time>2016-10-19T08:56:43Z</time>
</trkpt>
<trkpt lat="39.6483481" lon="2.7810075">
<ele>122.58</ele>
<time>2016-10-19T08:56:46Z</time>
</trkpt>
<trkpt lat="39.6485260" lon="2.7808516">
<ele>121.32</ele>
<time>2016-10-19T08:56:50Z</time>
</trkpt>
<trkpt lat="39.6487091" lon="2.7807058">
<ele>119.71</ele>
<time>2016-10-19T08:56:54Z</time>
</trkpt>
<trkpt lat="39.6489095" lon="2.7805627">
<ele>121.23</ele>
<time>2016-10-19T08:56:58Z</time>
</trkpt>
<trkpt lat="39.6490899" lon="2.7804327">
<ele>122.97</ele>
<time>2016-10-19T08:57:01Z</time>
</trkpt>
<trkpt lat="39.6492570" lon="2.7803029">
<ele>123.53</ele>
<time>2016-10-19T08:57:04Z</time>
</trkpt>
<trkpt lat="39.6494059" lon="2.7801447">
<ele>123.75</ele>
<time>2016-10-19T08:57:07Z</time>
</trkpt>
<trkpt lat="39.6495386" lon="2.7799435">
<ele>123.28</ele>
<time>2016-10-19T08:57:10Z</time>
</trkpt>
<trkpt lat="39.6496635" lon="2.7797250">
<ele>122.38</ele>
<time>2016-10-19T08:57:13Z</time>
</trkpt>
<trkpt lat="39.6497653" lon="2.7795155">
<ele>120.91</ele>
<time>2016-10-19T08:57:16Z</time>
</trkpt>
<trkpt lat="39.6498792" lon="2.7793041">
<ele>120.28</ele>
<time>2016-10-19T08:57:19Z</time>
</trkpt>
<trkpt lat="39.6499889" lon="2.7790967">
<ele>120.08</ele>
<time>2016-10-19T08:57:22Z</time>
</trkpt>
<trkpt lat="39.6500941" lon="2.7788932">
<ele>119.55</ele>
<time>2016-10-19T08:57:25Z</time>
</trkpt>
<trkpt lat="39.6501974" lon="2.7786950">
<ele>120.90</ele>
<time>2016-10-19T08:57:28Z</time>
</trkpt>
<trkpt lat="39.6503126" lon="2.7784907">
<ele>122.08</ele>
<time>2016-10-19T08:57:31Z</time>
</trkpt>
<trkpt lat="39.6504401" lon="2.7783237">
<ele>121.52</ele>
<time>2016-10-19T08:57:34Z</time>
</trkpt>
<trkpt lat="39.6505946" lon="2.7781770">
<ele>120.79</ele>
<time>2016-10-19T08:57:37Z</time>
</trkpt>
<trkpt lat="39.6507593" lon="2.7780412">
<ele>118.76</ele>
<time>2016-10-19T08:57:40Z</time>
</trkpt>
<trkpt lat="39.6509162" lon="2.7779133">
<ele>117.36</ele>
<time>2016-10-19T08:57:43Z</time>
</trkpt>
<trkpt lat="39.6510956" lon="2.7777780">
<ele>115.84</ele>
<time>2016-10-19T08:57:46Z</time>
</trkpt>
<trkpt lat="39.6512636" lon="2.7776461">
<ele>114.45</ele>
<time>2016-10-19T08:57:49Z</time>
</trkpt>
<trkpt lat="39.6514179" lon="2.7775232">
<ele>113.12</ele>
<time>2016-10-19T08:57:52Z</time>
</trkpt>
<trkpt lat="39.6515718" lon="2.7774019">
<ele>113.59</ele>
<time>2016-10-19T08:57:55Z</time>
</trkpt>
<trkpt lat="39.6517305" lon="2.7772723">
<ele>114.23</ele>
<time>2016-10-19T08:57:58Z</time>
</trkpt>
<trkpt lat="39.6518861" lon="2.7771439">
<ele>114.28</ele>
<time>2016-10-19T08:58:01Z</time>
</trkpt>
<trkpt lat="39.6520461" lon="2.7770178">
<ele>114.06</ele>
<time>2016-10-19T08:58:04Z</time>
</trkpt>
<trkpt lat="39.6522001" lon="2.7768915">
<ele>114.48</ele>
<time>2016-10-19T08:58:07Z</time>
</trkpt>
<trkpt lat="39.6523614" lon="2.7767570">
<ele>115.70</ele>
<time>2016-10-19T08:58:11Z</time>
</trkpt>
<trkpt lat="39.6525316" lon="2.7766291">
<ele>116.99</ele>
<time>2016-10-19T08:58:16Z</time>
</trkpt>
<trkpt lat="39.6526426" lon="2.7764392">
<ele>117.31</ele>
<time>2016-10-19T08:58:27Z</time>
</trkpt>
<trkpt lat="39.6525878" lon="2.7761874">
<ele>116.46</ele>
<time>2016-10-19T08:58:33Z</time>
</trkpt>
<trkpt lat="39.6525148" lon="2.7759069">
<ele>117.21</ele>
<time>2016-10-19T08:58:37Z</time>
</trkpt>
<trkpt lat="39.6524466" lon="2.7756833">
<ele>119.33</ele>
<time>2016-10-19T08:58:40Z</time>
</trkpt>
<trkpt lat="39.6523394" lon="2.7754034">
<ele>118.87</ele>
<time>2016-10-19T08:58:43Z</time>
</trkpt>
<trkpt lat="39.6522566" lon="2.7751850">
<ele>118.36</ele>
<time>2016-10-19T08:58:46Z</time>
</trkpt>
<trkpt lat="39.6521843" lon="2.7749670">
<ele>118.68</ele>
<time>2016-10-19T08:58:49Z</time>
</trkpt>
<trkpt lat="39.6520942" lon="2.7746917">
<ele>121.24</ele>
<time>2016-10-19T08:58:53Z</time>
</trkpt>
<trkpt lat="39.6520131" lon="2.7744813">
<ele>121.55</ele>
<time>2016-10-19T08:58:56Z</time>
</trkpt>
<trkpt lat="39.6518967" lon="2.7742258">
<ele>119.76</ele>
<time>2016-10-19T08:59:00Z</time>
</trkpt>
<trkpt lat="39.6517700" lon="2.7739795">
<ele>118.47</ele>
<time>2016-10-19T08:59:04Z</time>
</trkpt>
<trkpt lat="39.6516524" lon="2.7737065">
<ele>117.58</ele>
<time>2016-10-19T08:59:08Z</time>
</trkpt>
<trkpt lat="39.6515180" lon="2.7734759">
<ele>116.01</ele>
<time>2016-10-19T08:59:12Z</time>
</trkpt>
<trkpt lat="39.6513540" lon="2.7732901">
<ele>116.79</ele>
<time>2016-10-19T08:59:16Z</time>
</trkpt>
<trkpt lat="39.6511880" lon="2.7731063">
<ele>118.06</ele>
<time>2016-10-19T08:59:20Z</time>
</trkpt>
<trkpt lat="39.6510332" lon="2.7729428">
<ele>118.96</ele>
<time>2016-10-19T08:59:24Z</time>
</trkpt>
<trkpt lat="39.6508683" lon="2.7727623">
<ele>121.13</ele>
<time>2016-10-19T08:59:29Z</time>
</trkpt>
<trkpt lat="39.6507849" lon="2.7725538">
<ele>119.45</ele>
<time>2016-10-19T08:59:33Z</time>
</trkpt>
<trkpt lat="39.6508690" lon="2.7723090">
<ele>119.53</ele>
<time>2016-10-19T08:59:38Z</time>
</trkpt>
<trkpt lat="39.6509418" lon="2.7720530">
<ele>120.68</ele>
<time>2016-10-19T08:59:42Z</time>
</trkpt>
<trkpt lat="39.6509920" lon="2.7718279">
<ele>121.34</ele>
<time>2016-10-19T08:59:46Z</time>
</trkpt>
<trkpt lat="39.6510162" lon="2.7715631">
<ele>121.70</ele>
<time>2016-10-19T08:59:51Z</time>
</trkpt>
<trkpt lat="39.6510177" lon="2.7712851">
<ele>120.54</ele>
<time>2016-10-19T08:59:56Z</time>
</trkpt>
<trkpt lat="39.6510433" lon="2.7710147">
<ele>121.07</ele>
<time>2016-10-19T09:00:00Z</time>
</trkpt>
<trkpt lat="39.6510843" lon="2.7707840">
<ele>123.34</ele>
<time>2016-10-19T09:00:03Z</time>
</trkpt>
<trkpt lat="39.6511190" lon="2.7705449">
<ele>125.03</ele>
<time>2016-10-19T09:00:06Z</time>
</trkpt>
<trkpt lat="39.6511375" lon="2.7702991">
<ele>124.78</ele>
<time>2016-10-19T09:00:09Z</time>
</trkpt>
<trkpt lat="39.6511681" lon="2.7700443">
<ele>125.71</ele>
<time>2016-10-19T09:00:12Z</time>
</trkpt>
<trkpt lat="39.6512080" lon="2.7697996">
<ele>126.30</ele>
<time>2016-10-19T09:00:15Z</time>
</trkpt>
<trkpt lat="39.6512491" lon="2.7695648">
<ele>126.78</ele>
<time>2016-10-19T09:00:18Z</time>
</trkpt>
<trkpt lat="39.6512771" lon="2.7693276">
<ele>126.62</ele>
<time>2016-10-19T09:00:21Z</time>
</trkpt>
<trkpt lat="39.6513148" lon="2.7690817">
<ele>125.95</ele>
<time>2016-10-19T09:00:24Z</time>
</trkpt>
<trkpt lat="39.6513470" lon="2.7688464">
<ele>125.49</ele>
<time>2016-10-19T09:00:27Z</time>
</trkpt>
<trkpt lat="39.6513861" lon="2.7685972">
<ele>123.68</ele>
<time>2016-10-19T09:00:30Z</time>
</trkpt>
<trkpt lat="39.6514219" lon="2.7683529">
<ele>123.26</ele>
<time>2016-10-19T09:00:33Z</time>
</trkpt>
<trkpt lat="39.6514448" lon="2.7681113">
<ele>123.55</ele>
<time>2016-10-19T09:00:36Z</time>
</trkpt>
<trkpt lat="39.6514826" lon="2.7678632">
<ele>124.16</ele>
<time>2016-10-19T09:00:39Z</time>
</trkpt>
<trkpt lat="39.6515295" lon="2.7676062">
<ele>125.51</ele>
<time>2016-10-19T09:00:42Z</time>
</trkpt>
<trkpt lat="39.6515665" lon="2.7673535">
<ele>129.47</ele>
<time>2016-10-19T09:00:45Z</time>
</trkpt>
<trkpt lat="39.6515919" lon="2.7670981">
<ele>130.86</ele>
<time>2016-10-19T09:00:48Z</time>
</trkpt>
<trkpt lat="39.6516212" lon="2.7668522">
<ele>129.55</ele>
<time>2016-10-19T09:00:51Z</time>
</trkpt>
<trkpt lat="39.6516484" lon="2.7665933">
<ele>128.09</ele>
<time>2016-10-19T09:00:54Z</time>
</trkpt>
<trkpt lat="39.6516906" lon="2.7663158">
<ele>125.20</ele>
<time>2016-10-19T09:00:57Z</time>
</trkpt>
<trkpt lat="39.6517265" lon="2.7660184">
<ele>122.51</ele>
<time>2016-10-19T09:01:00Z</time>
</trkpt>
<trkpt lat="39.6517468" lon="2.7657303">
<ele>120.32</ele>
<time>2016-10-19T09:01:03Z</time>
</trkpt>
<trkpt lat="39.6517709" lon="2.7654539">
<ele>119.10</ele>
<time>2016-10-19T09:01:06Z</time>
</trkpt>
<trkpt lat="39.6518128" lon="2.7651701">
<ele>118.95</ele>
<time>2016-10-19T09:01:09Z</time>
</trkpt>
<trkpt lat="39.6518554" lon="2.7649074">
<ele>117.83</ele>
<time>2016-10-19T09:01:12Z</time>
</trkpt>
<trkpt lat="39.6518958" lon="2.7646350">
<ele>117.15</ele>
<time>2016-10-19T09:01:15Z</time>
</trkpt>
<trkpt lat="39.6519343" lon="2.7643796">
<ele>117.16</ele>
<time>2016-10-19T09:01:18Z</time>
</trkpt>
<trkpt lat="39.6519643" lon="2.7641400">
<ele>117.40</ele>
<time>2016-10-19T09:01:21Z</time>
</trkpt>
<trkpt lat="39.6519983" lon="2.7638861">
<ele>117.40</ele>
<time>2016-10-19T09:01:24Z</time>
</trkpt>
<trkpt lat="39.6520364" lon="2.7636136">
<ele>116.88</ele>
<time>2016-10-19T09:01:27Z</time>
</trkpt>
<trkpt lat="39.6520867" lon="2.7633506">
<ele>117.32</ele>
<time>2016-10-19T09:01:30Z</time>
</trkpt>
<trkpt lat="39.6521403" lon="2.7630837">
<ele>118.44</ele>
<time>2016-10-19T09:01:33Z</time>
</trkpt>
<trkpt lat="39.6521896" lon="2.7628354">
<ele>119.63</ele>
<time>2016-10-19T09:01:36Z</time>
</trkpt>
<trkpt lat="39.6522490" lon="2.7625977">
<ele>119.56</ele>
<time>2016-10-19T09:01:39Z</time>
</trkpt>
<trkpt lat="39.6523395" lon="2.7623365">
<ele>119.82</ele>
<time>2016-10-19T09:01:42Z</time>
</trkpt>
<trkpt lat="39.6524564" lon="2.7620946">
<ele>121.02</ele>
<time>2016-10-19T09:01:45Z</time>
</trkpt>
<trkpt lat="39.6525875" lon="2.7618658">
<ele>121.25</ele>
<time>2016-10-19T09:01:48Z</time>
</trkpt>
<trkpt lat="39.6527242" lon="2.7616326">
<ele>120.82</ele>
<time>2016-10-19T09:01:51Z</time>
</trkpt>
<trkpt lat="39.6528578" lon="2.7614117">
<ele>120.55</ele>
<time>2016-10-19T09:01:54Z</time>
</trkpt>
<trkpt lat="39.6529897" lon="2.7612005">
<ele>119.97</ele>
<time>2016-10-19T09:01:57Z</time>
</trkpt>
<trkpt lat="39.6531209" lon="2.7609798">
<ele>119.21</ele>
<time>2016-10-19T09:02:00Z</time>
</trkpt>
<trkpt lat="39.6532394" lon="2.7607512">
<ele>119.15</ele>
<time>2016-10-19T09:02:03Z</time>
</trkpt>
<trkpt lat="39.6533635" lon="2.7605201">
<ele>119.10</ele>
<time>2016-10-19T09:02:06Z</time>
</trkpt>
<trkpt lat="39.6534909" lon="2.7602694">
<ele>118.38</ele>
<time>2016-10-19T09:02:09Z</time>
</trkpt>
<trkpt lat="39.6536176" lon="2.7600284">
<ele>117.57</ele>
<time>2016-10-19T09:02:12Z</time>
</trkpt>
<trkpt lat="39.6537147" lon="2.7598220">
<ele>120.22</ele>
<time>2016-10-19T09:02:15Z</time>
</trkpt>
<trkpt lat="39.6538122" lon="2.7596249">
<ele>123.06</ele>
<time>2016-10-19T09:02:18Z</time>
</trkpt>
<trkpt lat="39.6539436" lon="2.7593972">
<ele>124.28</ele>
<time>2016-10-19T09:02:22Z</time>
</trkpt>
<trkpt lat="39.6540950" lon="2.7592220">
<ele>125.48</ele>
<time>2016-10-19T09:02:26Z</time>
</trkpt>
<trkpt lat="39.6542647" lon="2.7590379">
<ele>126.36</ele>
<time>2016-10-19T09:02:30Z</time>
</trkpt>
<trkpt lat="39.6543926" lon="2.7588578">
<ele>127.16</ele>
<time>2016-10-19T09:02:33Z</time>
</trkpt>
<trkpt lat="39.6544986" lon="2.7586325">
<ele>126.73</ele>
<time>2016-10-19T09:02:36Z</time>
</trkpt>
<trkpt lat="39.6545724" lon="2.7583354">
<ele>125.81</ele>
<time>2016-10-19T09:02:39Z</time>
</trkpt>
<trkpt lat="39.6546043" lon="2.7581034">
<ele>125.08</ele>
<time>2016-10-19T09:02:41Z</time>
</trkpt>
<trkpt lat="39.6546352" lon="2.7578567">
<ele>124.38</ele>
<time>2016-10-19T09:02:43Z</time>
</trkpt>
<trkpt lat="39.6546974" lon="2.7575196">
<ele>123.88</ele>
<time>2016-10-19T09:02:46Z</time>
</trkpt>
<trkpt lat="39.6547768" lon="2.7573013">
<ele>123.34</ele>
<time>2016-10-19T09:02:48Z</time>
</trkpt>
<trkpt lat="39.6548758" lon="2.7570819">
<ele>123.18</ele>
<time>2016-10-19T09:02:50Z</time>
</trkpt>
<trkpt lat="39.6549746" lon="2.7568706">
<ele>122.90</ele>
<time>2016-10-19T09:02:52Z</time>
</trkpt>
<trkpt lat="39.6551027" lon="2.7565711">
<ele>122.33</ele>
<time>2016-10-19T09:02:55Z</time>
</trkpt>
<trkpt lat="39.6552388" lon="2.7562870">
<ele>122.26</ele>
<time>2016-10-19T09:02:58Z</time>
</trkpt>
<trkpt lat="39.6554087" lon="2.7560399">
<ele>122.58</ele>
<time>2016-10-19T09:03:01Z</time>
</trkpt>
<trkpt lat="39.6555807" lon="2.7558447">
<ele>123.32</ele>
<time>2016-10-19T09:03:04Z</time>
</trkpt>
<trkpt lat="39.6557579" lon="2.7556679">
<ele>124.72</ele>
<time>2016-10-19T09:03:07Z</time>
</trkpt>
<trkpt lat="39.6559198" lon="2.7554916">
<ele>126.39</ele>
<time>2016-10-19T09:03:10Z</time>
</trkpt>
<trkpt lat="39.6560725" lon="2.7553014">
<ele>125.58</ele>
<time>2016-10-19T09:03:13Z</time>
</trkpt>
<trkpt lat="39.6562161" lon="2.7551134">
<ele>124.28</ele>
<time>2016-10-19T09:03:16Z</time>
</trkpt>
<trkpt lat="39.6563715" lon="2.7548932">
<ele>124.44</ele>
<time>2016-10-19T09:03:19Z</time>
</trkpt>
<trkpt lat="39.6565272" lon="2.7546693">
<ele>124.37</ele>
<time>2016-10-19T09:03:22Z</time>
</trkpt>
<trkpt lat="39.6566739" lon="2.7544415">
<ele>123.57</ele>
<time>2016-10-19T09:03:25Z</time>
</trkpt>
<trkpt lat="39.6568225" lon="2.7542164">
<ele>122.88</ele>
<time>2016-10-19T09:03:28Z</time>
</trkpt>
<trkpt lat="39.6569607" lon="2.7540075">
<ele>122.19</ele>
<time>2016-10-19T09:03:31Z</time>
</trkpt>
<trkpt lat="39.6571032" lon="2.7538252">
<ele>122.01</ele>
<time>2016-10-19T09:03:34Z</time>
</trkpt>
<trkpt lat="39.6572691" lon="2.7536467">
<ele>121.99</ele>
<time>2016-10-19T09:03:37Z</time>
</trkpt>
<trkpt lat="39.6574377" lon="2.7534520">
<ele>122.19</ele>
<time>2016-10-19T09:03:40Z</time>
</trkpt>
<trkpt lat="39.6575898" lon="2.7532626">
<ele>123.00</ele>
<time>2016-10-19T09:03:43Z</time>
</trkpt>
<trkpt lat="39.6577474" lon="2.7530432">
<ele>123.37</ele>
<time>2016-10-19T09:03:46Z</time>
</trkpt>
<trkpt lat="39.6578973" lon="2.7528159">
<ele>122.76</ele>
<time>2016-10-19T09:03:49Z</time>
</trkpt>
<trkpt lat="39.6580550" lon="2.7525794">
<ele>122.02</ele>
<time>2016-10-19T09:03:52Z</time>
</trkpt>
<trkpt lat="39.6582087" lon="2.7523360">
<ele>120.84</ele>
<time>2016-10-19T09:03:55Z</time>
</trkpt>
<trkpt lat="39.6583465" lon="2.7520460">
<ele>119.05</ele>
<time>2016-10-19T09:03:58Z</time>
</trkpt>
<trkpt lat="39.6584240" lon="2.7518340">
<ele>117.84</ele>
<time>2016-10-19T09:04:00Z</time>
</trkpt>
<trkpt lat="39.6585013" lon="2.7516015">
<ele>117.22</ele>
<time>2016-10-19T09:04:02Z</time>
</trkpt>
<trkpt lat="39.6585732" lon="2.7513752">
<ele>116.75</ele>
<time>2016-10-19T09:04:04Z</time>
</trkpt>
<trkpt lat="39.6586468" lon="2.7511546">
<ele>116.43</ele>
<time>2016-10-19T09:04:06Z</time>
</trkpt>
<trkpt lat="39.6587138" lon="2.7509374">
<ele>116.05</ele>
<time>2016-10-19T09:04:08Z</time>
</trkpt>
<trkpt lat="39.6587800" lon="2.7506281">
<ele>115.23</ele>
<time>2016-10-19T09:04:11Z</time>
</trkpt>
<trkpt lat="39.6588264" lon="2.7503309">
<ele>115.30</ele>
<time>2016-10-19T09:04:14Z</time>
</trkpt>
<trkpt lat="39.6588458" lon="2.7500456">
<ele>115.46</ele>
<time>2016-10-19T09:04:17Z</time>
</trkpt>
<trkpt lat="39.6588630" lon="2.7497516">
<ele>115.62</ele>
<time>2016-10-19T09:04:20Z</time>
</trkpt>
<trkpt lat="39.6588802" lon="2.7494542">
<ele>116.04</ele>
<time>2016-10-19T09:04:23Z</time>
</trkpt>
<trkpt lat="39.6589043" lon="2.7491924">
<ele>115.70</ele>
<time>2016-10-19T09:04:26Z</time>
</trkpt>
<trkpt lat="39.6589248" lon="2.7489410">
<ele>116.06</ele>
<time>2016-10-19T09:04:29Z</time>
</trkpt>
<trkpt lat="39.6589379" lon="2.7486996">
<ele>116.74</ele>
<time>2016-10-19T09:04:32Z</time>
</trkpt>
<trkpt lat="39.6589620" lon="2.7484521">
<ele>117.36</ele>
<time>2016-10-19T09:04:35Z</time>
</trkpt>
<trkpt lat="39.6590129" lon="2.7481468">
<ele>118.53</ele>
<time>2016-10-19T09:04:39Z</time>
</trkpt>
<trkpt lat="39.6590668" lon="2.7478969">
<ele>118.94</ele>
<time>2016-10-19T09:04:42Z</time>
</trkpt>
<trkpt lat="39.6591259" lon="2.7476585">
<ele>118.44</ele>
<time>2016-10-19T09:04:45Z</time>
</trkpt>
<trkpt lat="39.6591831" lon="2.7474138">
<ele>118.40</ele>
<time>2016-10-19T09:04:48Z</time>
</trkpt>
<trkpt lat="39.6592405" lon="2.7471719">
<ele>118.91</ele>
<time>2016-10-19T09:04:51Z</time>
</trkpt>
<trkpt lat="39.6592946" lon="2.7469182">
<ele>118.89</ele>
<time>2016-10-19T09:04:54Z</time>
</trkpt>
<trkpt lat="39.6593409" lon="2.7466674">
<ele>118.82</ele>
<time>2016-10-19T09:04:57Z</time>
</trkpt>
<trkpt lat="39.6593824" lon="2.7464107">
<ele>118.88</ele>
<time>2016-10-19T09:05:00Z</time>
</trkpt>
<trkpt lat="39.6594271" lon="2.7461357">
<ele>119.19</ele>
<time>2016-10-19T09:05:03Z</time>
</trkpt>
<trkpt lat="39.6594490" lon="2.7458990">
<ele>118.82</ele>
<time>2016-10-19T09:05:06Z</time>
</trkpt>
<trkpt lat="39.6594797" lon="2.7456436">
<ele>119.30</ele>
<time>2016-10-19T09:05:09Z</time>
</trkpt>
<trkpt lat="39.6595075" lon="2.7453919">
<ele>119.14</ele>
<time>2016-10-19T09:05:12Z</time>
</trkpt>
<trkpt lat="39.6595453" lon="2.7451209">
<ele>119.55</ele>
<time>2016-10-19T09:05:15Z</time>
</trkpt>
<trkpt lat="39.6595832" lon="2.7448489">
<ele>119.98</ele>
<time>2016-10-19T09:05:18Z</time>
</trkpt>
<trkpt lat="39.6596208" lon="2.7445698">
<ele>120.52</ele>
<time>2016-10-19T09:05:21Z</time>
</trkpt>
<trkpt lat="39.6596479" lon="2.7442974">
<ele>121.18</ele>
<time>2016-10-19T09:05:24Z</time>
</trkpt>
<trkpt lat="39.6596811" lon="2.7440122">
<ele>121.36</ele>
<time>2016-10-19T09:05:27Z</time>
</trkpt>
<trkpt lat="39.6597080" lon="2.7437381">
<ele>121.70</ele>
<time>2016-10-19T09:05:30Z</time>
</trkpt>
<trkpt lat="39.6597321" lon="2.7434920">
<ele>121.54</ele>
<time>2016-10-19T09:05:33Z</time>
</trkpt>
<trkpt lat="39.6597644" lon="2.7432100">
<ele>121.26</ele>
<time>2016-10-19T09:05:36Z</time>
</trkpt>
<trkpt lat="39.6597902" lon="2.7429248">
<ele>120.48</ele>
<time>2016-10-19T09:05:39Z</time>
</trkpt>
<trkpt lat="39.6598010" lon="2.7426453">
<ele>119.84</ele>
<time>2016-10-19T09:05:42Z</time>
</trkpt>
<trkpt lat="39.6598005" lon="2.7423519">
<ele>120.48</ele>
<time>2016-10-19T09:05:45Z</time>
</trkpt>
<trkpt lat="39.6597883" lon="2.7420436">
<ele>120.94</ele>
<time>2016-10-19T09:05:48Z</time>
</trkpt>
<trkpt lat="39.6597671" lon="2.7417540">
<ele>120.99</ele>
<time>2016-10-19T09:05:51Z</time>
</trkpt>
<trkpt lat="39.6597476" lon="2.7414546">
<ele>119.53</ele>
<time>2016-10-19T09:05:54Z</time>
</trkpt>
<trkpt lat="39.6597349" lon="2.7411646">
<ele>118.54</ele>
<time>2016-10-19T09:05:57Z</time>
</trkpt>
<trkpt lat="39.6597223" lon="2.7409071">
<ele>117.48</ele>
<time>2016-10-19T09:06:00Z</time>
</trkpt>
<trkpt lat="39.6597140" lon="2.7406355">
<ele>116.99</ele>
<time>2016-10-19T09:06:03Z</time>
</trkpt>
<trkpt lat="39.6597039" lon="2.7403403">
<ele>117.23</ele>
<time>2016-10-19T09:06:06Z</time>
</trkpt>
<trkpt lat="39.6596819" lon="2.7400475">
<ele>116.86</ele>
<time>2016-10-19T09:06:09Z</time>
</trkpt>
<trkpt lat="39.6596432" lon="2.7397486">
<ele>117.13</ele>
<time>2016-10-19T09:06:12Z</time>
</trkpt>
<trkpt lat="39.6595971" lon="2.7394675">
<ele>118.30</ele>
<time>2016-10-19T09:06:15Z</time>
</trkpt>
<trkpt lat="39.6595514" lon="2.7391906">
<ele>118.84</ele>
<time>2016-10-19T09:06:18Z</time>
</trkpt>
<trkpt lat="39.6594992" lon="2.7388941">
<ele>118.34</ele>
<time>2016-10-19T09:06:21Z</time>
</trkpt>
<trkpt lat="39.6594420" lon="2.7385849">
<ele>117.09</ele>
<time>2016-10-19T09:06:24Z</time>
</trkpt>
<trkpt lat="39.6593750" lon="2.7382814">
<ele>115.16</ele>
<time>2016-10-19T09:06:27Z</time>
</trkpt>
<trkpt lat="39.6593051" lon="2.7379839">
<ele>115.78</ele>
<time>2016-10-19T09:06:30Z</time>
</trkpt>
<trkpt lat="39.6592478" lon="2.7376893">
<ele>116.86</ele>
<time>2016-10-19T09:06:33Z</time>
</trkpt>
<trkpt lat="39.6592028" lon="2.7373927">
<ele>117.93</ele>
<time>2016-10-19T09:06:36Z</time>
</trkpt>
<trkpt lat="39.6591881" lon="2.7370775">
<ele>119.33</ele>
<time>2016-10-19T09:06:39Z</time>
</trkpt>
<trkpt lat="39.6591861" lon="2.7367351">
<ele>120.34</ele>
<time>2016-10-19T09:06:42Z</time>
</trkpt>
<trkpt lat="39.6591821" lon="2.7363893">
<ele>119.37</ele>
<time>2016-10-19T09:06:45Z</time>
</trkpt>
<trkpt lat="39.6591858" lon="2.7360517">
<ele>118.35</ele>
<time>2016-10-19T09:06:48Z</time>
</trkpt>
<trkpt lat="39.6592000" lon="2.7357185">
<ele>117.63</ele>
<time>2016-10-19T09:06:51Z</time>
</trkpt>
<trkpt lat="39.6592125" lon="2.7353795">
<ele>116.98</ele>
<time>2016-10-19T09:06:54Z</time>
</trkpt>
<trkpt lat="39.6592177" lon="2.7350349">
<ele>116.00</ele>
<time>2016-10-19T09:06:57Z</time>
</trkpt>
<trkpt lat="39.6592494" lon="2.7347029">
<ele>115.38</ele>
<time>2016-10-19T09:07:00Z</time>
</trkpt>
<trkpt lat="39.6593334" lon="2.7344039">
<ele>116.10</ele>
<time>2016-10-19T09:07:03Z</time>
</trkpt>
<trkpt lat="39.6594241" lon="2.7341220">
<ele>116.67</ele>
<time>2016-10-19T09:07:07Z</time>
</trkpt>
<trkpt lat="39.6595149" lon="2.7338273">
<ele>115.57</ele>
<time>2016-10-19T09:07:10Z</time>
</trkpt>
<trkpt lat="39.6596109" lon="2.7335258">
<ele>115.21</ele>
<time>2016-10-19T09:07:13Z</time>
</trkpt>
<trkpt lat="39.6597587" lon="2.7332319">
<ele>115.61</ele>
<time>2016-10-19T09:07:16Z</time>
</trkpt>
<trkpt lat="39.6598747" lon="2.7330290">
<ele>116.62</ele>
<time>2016-10-19T09:07:18Z</time>
</trkpt>
<trkpt lat="39.6599929" lon="2.7328349">
<ele>117.60</ele>
<time>2016-10-19T09:07:20Z</time>
</trkpt>
<trkpt lat="39.6601062" lon="2.7326531">
<ele>117.89</ele>
<time>2016-10-19T09:07:22Z</time>
</trkpt>
<trkpt lat="39.6602548" lon="2.7323938">
<ele>117.60</ele>
<time>2016-10-19T09:07:25Z</time>
</trkpt>
<trkpt lat="39.6603865" lon="2.7321180">
<ele>117.20</ele>
<time>2016-10-19T09:07:28Z</time>
</trkpt>
<trkpt lat="39.6605115" lon="2.7318335">
<ele>116.00</ele>
<time>2016-10-19T09:07:31Z</time>
</trkpt>
<trkpt lat="39.6606036" lon="2.7316243">
<ele>115.26</ele>
<time>2016-10-19T09:07:33Z</time>
</trkpt>
<trkpt lat="39.6606835" lon="2.7314103">
<ele>115.00</ele>
<time>2016-10-19T09:07:35Z</time>
</trkpt>
<trkpt lat="39.6607685" lon="2.7310942">
<ele>114.44</ele>
<time>2016-10-19T09:07:38Z</time>
</trkpt>
<trkpt lat="39.6608371" lon="2.7307716">
<ele>113.93</ele>
<time>2016-10-19T09:07:41Z</time>
</trkpt>
<trkpt lat="39.6608984" lon="2.7304412">
<ele>114.13</ele>
<time>2016-10-19T09:07:44Z</time>
</trkpt>
<trkpt lat="39.6609651" lon="2.7301102">
<ele>113.46</ele>
<time>2016-10-19T09:07:47Z</time>
</trkpt>
<trkpt lat="39.6610104" lon="2.7297796">
<ele>112.70</ele>
<time>2016-10-19T09:07:50Z</time>
</trkpt>
<trkpt lat="39.6610326" lon="2.7295452">
<ele>111.64</ele>
<time>2016-10-19T09:07:52Z</time>
</trkpt>
<trkpt lat="39.6610494" lon="2.7292232">
<ele>109.99</ele>
<time>2016-10-19T09:07:55Z</time>
</trkpt>
<trkpt lat="39.6610705" lon="2.7288853">
<ele>110.17</ele>
<time>2016-10-19T09:07:58Z</time>
</trkpt>
<trkpt lat="39.6610948" lon="2.7286512">
<ele>110.84</ele>
<time>2016-10-19T09:08:00Z</time>
</trkpt>
<trkpt lat="39.6611358" lon="2.7283064">
<ele>111.54</ele>
<time>2016-10-19T09:08:03Z</time>
</trkpt>
<trkpt lat="39.6611610" lon="2.7280661">
<ele>111.50</ele>
<time>2016-10-19T09:08:05Z</time>
</trkpt>
<trkpt lat="39.6612087" lon="2.7277308">
<ele>110.85</ele>
<time>2016-10-19T09:08:08Z</time>
</trkpt>
<trkpt lat="39.6612591" lon="2.7274020">
<ele>109.07</ele>
<time>2016-10-19T09:08:11Z</time>
</trkpt>
<trkpt lat="39.6612956" lon="2.7271669">
<ele>108.35</ele>
<time>2016-10-19T09:08:13Z</time>
</trkpt>
<trkpt lat="39.6613351" lon="2.7269219">
<ele>108.03</ele>
<time>2016-10-19T09:08:15Z</time>
</trkpt>
<trkpt lat="39.6613772" lon="2.7266620">
<ele>108.18</ele>
<time>2016-10-19T09:08:17Z</time>
</trkpt>
<trkpt lat="39.6614163" lon="2.7264051">
<ele>108.73</ele>
<time>2016-10-19T09:08:19Z</time>
</trkpt>
<trkpt lat="39.6614481" lon="2.7261603">
<ele>108.55</ele>
<time>2016-10-19T09:08:21Z</time>
</trkpt>
<trkpt lat="39.6614590" lon="2.7259228">
<ele>108.03</ele>
<time>2016-10-19T09:08:23Z</time>
</trkpt>
<trkpt lat="39.6614475" lon="2.7256874">
<ele>108.33</ele>
<time>2016-10-19T09:08:25Z</time>
</trkpt>
<trkpt lat="39.6614103" lon="2.7253585">
<ele>108.50</ele>
<time>2016-10-19T09:08:28Z</time>
</trkpt>
<trkpt lat="39.6613677" lon="2.7250650">
<ele>108.38</ele>
<time>2016-10-19T09:08:31Z</time>
</trkpt>
<trkpt lat="39.6613560" lon="2.7247447">
<ele>108.72</ele>
<time>2016-10-19T09:08:34Z</time>
</trkpt>
<trkpt lat="39.6613928" lon="2.7245048">
<ele>109.19</ele>
<time>2016-10-19T09:08:36Z</time>
</trkpt>
<trkpt lat="39.6614499" lon="2.7242689">
<ele>110.45</ele>
<time>2016-10-19T09:08:38Z</time>
</trkpt>
<trkpt lat="39.6615327" lon="2.7239534">
<ele>111.32</ele>
<time>2016-10-19T09:08:41Z</time>
</trkpt>
<trkpt lat="39.6616181" lon="2.7236534">
<ele>110.72</ele>
<time>2016-10-19T09:08:44Z</time>
</trkpt>
<trkpt lat="39.6617126" lon="2.7233369">
<ele>109.50</ele>
<time>2016-10-19T09:08:47Z</time>
</trkpt>
<trkpt lat="39.6617816" lon="2.7231171">
<ele>108.47</ele>
<time>2016-10-19T09:08:49Z</time>
</trkpt>
<trkpt lat="39.6618807" lon="2.7228018">
<ele>107.17</ele>
<time>2016-10-19T09:08:52Z</time>
</trkpt>
<trkpt lat="39.6619609" lon="2.7225211">
<ele>105.99</ele>
<time>2016-10-19T09:08:55Z</time>
</trkpt>
<trkpt lat="39.6620408" lon="2.7222382">
<ele>105.93</ele>
<time>2016-10-19T09:08:58Z</time>
</trkpt>
<trkpt lat="39.6621310" lon="2.7219375">
<ele>106.78</ele>
<time>2016-10-19T09:09:01Z</time>
</trkpt>
<trkpt lat="39.6622154" lon="2.7216502">
<ele>106.74</ele>
<time>2016-10-19T09:09:04Z</time>
</trkpt>
<trkpt lat="39.6622917" lon="2.7213704">
<ele>106.96</ele>
<time>2016-10-19T09:09:07Z</time>
</trkpt>
<trkpt lat="39.6623637" lon="2.7211066">
<ele>106.54</ele>
<time>2016-10-19T09:09:10Z</time>
</trkpt>
<trkpt lat="39.6624174" lon="2.7208446">
<ele>106.36</ele>
<time>2016-10-19T09:09:13Z</time>
</trkpt>
<trkpt lat="39.6624577" lon="2.7205745">
<ele>106.88</ele>
<time>2016-10-19T09:09:16Z</time>
</trkpt>
<trkpt lat="39.6624893" lon="2.7203126">
<ele>107.69</ele>
<time>2016-10-19T09:09:19Z</time>
</trkpt>
<trkpt lat="39.6625179" lon="2.7200796">
<ele>107.79</ele>
<time>2016-10-19T09:09:22Z</time>
</trkpt>
<trkpt lat="39.6625458" lon="2.7198442">
<ele>108.51</ele>
<time>2016-10-19T09:09:25Z</time>
</trkpt>
<trkpt lat="39.6625832" lon="2.7195925">
<ele>110.05</ele>
<time>2016-10-19T09:09:28Z</time>
</trkpt>
<trkpt lat="39.6626322" lon="2.7193559">
<ele>112.51</ele>
<time>2016-10-19T09:09:31Z</time>
</trkpt>
<trkpt lat="39.6627197" lon="2.7190742">
<ele>115.75</ele>
<time>2016-10-19T09:09:35Z</time>
</trkpt>
<trkpt lat="39.6628230" lon="2.7188428">
<ele>117.84</ele>
<time>2016-10-19T09:09:39Z</time>
</trkpt>
<trkpt lat="39.6629404" lon="2.7186313">
<ele>117.35</ele>
<time>2016-10-19T09:09:43Z</time>
</trkpt>
<trkpt lat="39.6630648" lon="2.7184327">
<ele>117.04</ele>
<time>2016-10-19T09:09:47Z</time>
</trkpt>
<trkpt lat="39.6631890" lon="2.7182464">
<ele>117.48</ele>
<time>2016-10-19T09:09:51Z</time>
</trkpt>
<trkpt lat="39.6633130" lon="2.7180419">
<ele>118.79</ele>
<time>2016-10-19T09:09:55Z</time>
</trkpt>
<trkpt lat="39.6634241" lon="2.7178002">
<ele>119.62</ele>
<time>2016-10-19T09:09:59Z</time>
</trkpt>
<trkpt lat="39.6635165" lon="2.7175864">
<ele>120.02</ele>
<time>2016-10-19T09:10:02Z</time>
</trkpt>
<trkpt lat="39.6636234" lon="2.7173418">
<ele>119.09</ele>
<time>2016-10-19T09:10:05Z</time>
</trkpt>
<trkpt lat="39.6637530" lon="2.7170809">
<ele>119.42</ele>
<time>2016-10-19T09:10:08Z</time>
</trkpt>
<trkpt lat="39.6638888" lon="2.7168237">
<ele>118.91</ele>
<time>2016-10-19T09:10:11Z</time>
</trkpt>
<trkpt lat="39.6640073" lon="2.7165910">
<ele>118.36</ele>
<time>2016-10-19T09:10:14Z</time>
</trkpt>
<trkpt lat="39.6641396" lon="2.7163405">
<ele>116.64</ele>
<time>2016-10-19T09:10:17Z</time>
</trkpt>
<trkpt lat="39.6642702" lon="2.7160991">
<ele>115.61</ele>
<time>2016-10-19T09:10:20Z</time>
</trkpt>
<trkpt lat="39.6644273" lon="2.7158723">
<ele>114.93</ele>
<time>2016-10-19T09:10:23Z</time>
</trkpt>
<trkpt lat="39.6645980" lon="2.7156676">
<ele>114.61</ele>
<time>2016-10-19T09:10:26Z</time>
</trkpt>
<trkpt lat="39.6647582" lon="2.7154813">
<ele>115.16</ele>
<time>2016-10-19T09:10:29Z</time>
</trkpt>
<trkpt lat="39.6649282" lon="2.7152774">
<ele>116.60</ele>
<time>2016-10-19T09:10:32Z</time>
</trkpt>
<trkpt lat="39.6650949" lon="2.7150765">
<ele>117.85</ele>
<time>2016-10-19T09:10:35Z</time>
</trkpt>
<trkpt lat="39.6652698" lon="2.7148729">
<ele>119.82</ele>
<time>2016-10-19T09:10:38Z</time>
</trkpt>
<trkpt lat="39.6654252" lon="2.7146797">
<ele>121.41</ele>
<time>2016-10-19T09:10:41Z</time>
</trkpt>
<trkpt lat="39.6655734" lon="2.7144950">
<ele>118.96</ele>
<time>2016-10-19T09:10:44Z</time>
</trkpt>
<trkpt lat="39.6657311" lon="2.7143049">
<ele>118.31</ele>
<time>2016-10-19T09:10:47Z</time>
</trkpt>
<trkpt lat="39.6658818" lon="2.7141201">
<ele>117.36</ele>
<time>2016-10-19T09:10:50Z</time>
</trkpt>
<trkpt lat="39.6660311" lon="2.7139623">
<ele>116.89</ele>
<time>2016-10-19T09:10:53Z</time>
</trkpt>
<trkpt lat="39.6662034" lon="2.7138129">
<ele>116.98</ele>
<time>2016-10-19T09:10:56Z</time>
</trkpt>
<trkpt lat="39.6663896" lon="2.7137073">
<ele>117.39</ele>
<time>2016-10-19T09:10:59Z</time>
</trkpt>
<trkpt lat="39.6665475" lon="2.7135586">
<ele>118.53</ele>
<time>2016-10-19T09:11:02Z</time>
</trkpt>
<trkpt lat="39.6667130" lon="2.7133721">
<ele>118.84</ele>
<time>2016-10-19T09:11:05Z</time>
</trkpt>
<trkpt lat="39.6668988" lon="2.7132166">
<ele>118.93</ele>
<time>2016-10-19T09:11:08Z</time>
</trkpt>
<trkpt lat="39.6670980" lon="2.7130719">
<ele>118.61</ele>
<time>2016-10-19T09:11:11Z</time>
</trkpt>
<trkpt lat="39.6672636" lon="2.7129634">
<ele>119.24</ele>
<time>2016-10-19T09:11:14Z</time>
</trkpt>
<trkpt lat="39.6674574" lon="2.7128288">
<ele>120.60</ele>
<time>2016-10-19T09:11:18Z</time>
</trkpt>
<trkpt lat="39.6676350" lon="2.7127136">
<ele>123.21</ele>
<time>2016-10-19T09:11:21Z</time>
</trkpt>
<trkpt lat="39.6678210" lon="2.7125871">
<ele>124.21</ele>
<time>2016-10-19T09:11:24Z</time>
</trkpt>
<trkpt lat="39.6679968" lon="2.7124694">
<ele>122.80</ele>
<time>2016-10-19T09:11:27Z</time>
</trkpt>
<trkpt lat="39.6681589" lon="2.7123501">
<ele>121.50</ele>
<time>2016-10-19T09:11:30Z</time>
</trkpt>
<trkpt lat="39.6683651" lon="2.7122059">
<ele>119.37</ele>
<time>2016-10-19T09:11:34Z</time>
</trkpt>
<trkpt lat="39.6685756" lon="2.7120671">
<ele>120.39</ele>
<time>2016-10-19T09:11:38Z</time>
</trkpt>
<trkpt lat="39.6687381" lon="2.7119614">
<ele>120.74</ele>
<time>2016-10-19T09:11:41Z</time>
</trkpt>
<trkpt lat="39.6689375" lon="2.7118269">
<ele>120.55</ele>
<time>2016-10-19T09:11:45Z</time>
</trkpt>
<trkpt lat="39.6691367" lon="2.7116984">
<ele>121.22</ele>
<time>2016-10-19T09:11:49Z</time>
</trkpt>
<trkpt lat="39.6693044" lon="2.7115703">
<ele>123.34</ele>
<time>2016-10-19T09:11:52Z</time>
</trkpt>
<trkpt lat="39.6695025" lon="2.7114211">
<ele>124.27</ele>
<time>2016-10-19T09:11:56Z</time>
</trkpt>
<trkpt lat="39.6696801" lon="2.7113030">
<ele>124.96</ele>
<time>2016-10-19T09:11:59Z</time>
</trkpt>
<trkpt lat="39.6698729" lon="2.7111688">
<ele>125.25</ele>
<time>2016-10-19T09:12:03Z</time>
</trkpt>
<trkpt lat="39.6700692" lon="2.7110272">
<ele>125.40</ele>
<time>2016-10-19T09:12:07Z</time>
</trkpt>
<trkpt lat="39.6702590" lon="2.7108945">
<ele>124.10</ele>
<time>2016-10-19T09:12:11Z</time>
</trkpt>
<trkpt lat="39.6704311" lon="2.7107685">
<ele>124.25</ele>
<time>2016-10-19T09:12:14Z</time>
</trkpt>
<trkpt lat="39.6706020" lon="2.7106426">
<ele>123.93</ele>
<time>2016-10-19T09:12:17Z</time>
</trkpt>
<trkpt lat="39.6707634" lon="2.7105241">
<ele>123.60</ele>
<time>2016-10-19T09:12:20Z</time>
</trkpt>
<trkpt lat="39.6709709" lon="2.7103691">
<ele>123.86</ele>
<time>2016-10-19T09:12:24Z</time>
</trkpt>
<trkpt lat="39.6711378" lon="2.7102498">
<ele>124.52</ele>
<time>2016-10-19T09:12:27Z</time>
</trkpt>
<trkpt lat="39.6712984" lon="2.7101289">
<ele>124.85</ele>
<time>2016-10-19T09:12:30Z</time>
</trkpt>
<trkpt lat="39.6714571" lon="2.7100108">
<ele>122.50</ele>
<time>2016-10-19T09:12:33Z</time>
</trkpt>
<trkpt lat="39.6716637" lon="2.7098597">
<ele>120.69</ele>
<time>2016-10-19T09:12:37Z</time>
</trkpt>
<trkpt lat="39.6718514" lon="2.7097172">
<ele>120.70</ele>
<time>2016-10-19T09:12:41Z</time>
</trkpt>
<trkpt lat="39.6720526" lon="2.7095810">
<ele>122.04</ele>
<time>2016-10-19T09:12:45Z</time>
</trkpt>
<trkpt lat="39.6722412" lon="2.7094426">
<ele>123.46</ele>
<time>2016-10-19T09:12:49Z</time>
</trkpt>
<trkpt lat="39.6724258" lon="2.7093050">
<ele>124.17</ele>
<time>2016-10-19T09:12:53Z</time>
</trkpt>
<trkpt lat="39.6725915" lon="2.7091855">
<ele>125.17</ele>
<time>2016-10-19T09:12:56Z</time>
</trkpt>
<trkpt lat="39.6727493" lon="2.7090682">
<ele>126.49</ele>
<time>2016-10-19T09:12:59Z</time>
</trkpt>
<trkpt lat="39.6729567" lon="2.7089143">
<ele>125.78</ele>
<time>2016-10-19T09:13:03Z</time>
</trkpt>
<trkpt lat="39.6731523" lon="2.7087676">
<ele>124.12</ele>
<time>2016-10-19T09:13:07Z</time>
</trkpt>
<trkpt lat="39.6733146" lon="2.7086569">
<ele>124.87</ele>
<time>2016-10-19T09:13:10Z</time>
</trkpt>
<trkpt lat="39.6734792" lon="2.7085490">
<ele>127.02</ele>
<time>2016-10-19T09:13:13Z</time>
</trkpt>
<trkpt lat="39.6736733" lon="2.7084103">
<ele>127.18</ele>
<time>2016-10-19T09:13:17Z</time>
</trkpt>
<trkpt lat="39.6738550" lon="2.7082805">
<ele>128.30</ele>
<time>2016-10-19T09:13:21Z</time>
</trkpt>
<trkpt lat="39.6740331" lon="2.7081686">
<ele>130.85</ele>
<time>2016-10-19T09:13:25Z</time>
</trkpt>
<trkpt lat="39.6742056" lon="2.7080479">
<ele>132.40</ele>
<time>2016-10-19T09:13:29Z</time>
</trkpt>
<trkpt lat="39.6743765" lon="2.7079500">
<ele>132.13</ele>
<time>2016-10-19T09:13:34Z</time>
</trkpt>
<trkpt lat="39.6745606" lon="2.7078320">
<ele>132.40</ele>
<time>2016-10-19T09:13:40Z</time>
</trkpt>
<trkpt lat="39.6747573" lon="2.7076920">
<ele>133.39</ele>
<time>2016-10-19T09:13:45Z</time>
</trkpt>
<trkpt lat="39.6749231" lon="2.7075935">
<ele>135.55</ele>
<time>2016-10-19T09:13:49Z</time>
</trkpt>
<trkpt lat="39.6751007" lon="2.7074700">
<ele>139.23</ele>
<time>2016-10-19T09:13:54Z</time>
</trkpt>
<trkpt lat="39.6752769" lon="2.7073549">
<ele>143.93</ele>
<time>2016-10-19T09:13:59Z</time>
</trkpt>
<trkpt lat="39.6754523" lon="2.7072394">
<ele>147.37</ele>
<time>2016-10-19T09:14:04Z</time>
</trkpt>
<trkpt lat="39.6756092" lon="2.7071199">
<ele>147.76</ele>
<time>2016-10-19T09:14:09Z</time>
</trkpt>
<trkpt lat="39.6757790" lon="2.7070074">
<ele>149.08</ele>
<time>2016-10-19T09:14:14Z</time>
</trkpt>
<trkpt lat="39.6759584" lon="2.7068835">
<ele>150.43</ele>
<time>2016-10-19T09:14:18Z</time>
</trkpt>
<trkpt lat="39.6761241" lon="2.7067674">
<ele>151.12</ele>
<time>2016-10-19T09:14:22Z</time>
</trkpt>
<trkpt lat="39.6762989" lon="2.7066371">
<ele>152.54</ele>
<time>2016-10-19T09:14:26Z</time>
</trkpt>
<trkpt lat="39.6764730" lon="2.7065000">
<ele>153.21</ele>
<time>2016-10-19T09:14:30Z</time>
</trkpt>
<trkpt lat="39.6766570" lon="2.7063634">
<ele>153.89</ele>
<time>2016-10-19T09:14:34Z</time>
</trkpt>
<trkpt lat="39.6768449" lon="2.7062320">
<ele>152.62</ele>
<time>2016-10-19T09:14:38Z</time>
</trkpt>
<trkpt lat="39.6770346" lon="2.7060955">
<ele>150.69</ele>
<time>2016-10-19T09:14:42Z</time>
</trkpt>
<trkpt lat="39.6772315" lon="2.7059623">
<ele>149.08</ele>
<time>2016-10-19T09:14:46Z</time>
</trkpt>
<trkpt lat="39.6774113" lon="2.7058379">
<ele>149.68</ele>
<time>2016-10-19T09:14:50Z</time>
</trkpt>
<trkpt lat="39.6776040" lon="2.7057125">
<ele>149.95</ele>
<time>2016-10-19T09:14:54Z</time>
</trkpt>
<trkpt lat="39.6777919" lon="2.7055696">
<ele>148.78</ele>
<time>2016-10-19T09:14:58Z</time>
</trkpt>
<trkpt lat="39.6780016" lon="2.7054329">
<ele>147.78</ele>
<time>2016-10-19T09:15:02Z</time>
</trkpt>
<trkpt lat="39.6781683" lon="2.7053445">
<ele>146.25</ele>
<time>2016-10-19T09:15:05Z</time>
</trkpt>
<trkpt lat="39.6783414" lon="2.7052712">
<ele>145.13</ele>
<time>2016-10-19T09:15:08Z</time>
</trkpt>
<trkpt lat="39.6785696" lon="2.7051899">
<ele>144.20</ele>
<time>2016-10-19T09:15:12Z</time>
</trkpt>
<trkpt lat="39.6787880" lon="2.7051016">
<ele>143.13</ele>
<time>2016-10-19T09:15:16Z</time>
</trkpt>
<trkpt lat="39.6790023" lon="2.7050142">
<ele>142.37</ele>
<time>2016-10-19T09:15:20Z</time>
</trkpt>
<trkpt lat="39.6792130" lon="2.7049370">
<ele>142.73</ele>
<time>2016-10-19T09:15:24Z</time>
</trkpt>
<trkpt lat="39.6793905" lon="2.7048748">
<ele>143.96</ele>
<time>2016-10-19T09:15:26Z</time>
</trkpt>
<trkpt lat="39.6795700" lon="2.7048108">
<ele>144.52</ele>
<time>2016-10-19T09:15:29Z</time>
</trkpt>
<trkpt lat="39.6798003" lon="2.7047456">
<ele>146.24</ele>
<time>2016-10-19T09:15:33Z</time>
</trkpt>
<trkpt lat="39.6799873" lon="2.7046890">
<ele>148.36</ele>
<time>2016-10-19T09:15:36Z</time>
</trkpt>
<trkpt lat="39.6801715" lon="2.7046332">
<ele>148.85</ele>
<time>2016-10-19T09:15:39Z</time>
</trkpt>
<trkpt lat="39.6803988" lon="2.7045580">
<ele>148.77</ele>
<time>2016-10-19T09:15:43Z</time>
</trkpt>
<trkpt lat="39.6806302" lon="2.7044803">
<ele>148.78</ele>
<time>2016-10-19T09:15:47Z</time>
</trkpt>
<trkpt lat="39.6808133" lon="2.7044217">
<ele>147.88</ele>
<time>2016-10-19T09:15:50Z</time>
</trkpt>
<trkpt lat="39.6809912" lon="2.7043725">
<ele>147.79</ele>
<time>2016-10-19T09:15:53Z</time>
</trkpt>
<trkpt lat="39.6811681" lon="2.7043192">
<ele>148.75</ele>
<time>2016-10-19T09:15:56Z</time>
</trkpt>
<trkpt lat="39.6813947" lon="2.7042426">
<ele>149.14</ele>
<time>2016-10-19T09:16:00Z</time>
</trkpt>
<trkpt lat="39.6816261" lon="2.7041604">
<ele>150.23</ele>
<time>2016-10-19T09:16:04Z</time>
</trkpt>
<trkpt lat="39.6818010" lon="2.7040915">
<ele>150.40</ele>
<time>2016-10-19T09:16:07Z</time>
</trkpt>
<trkpt lat="39.6819741" lon="2.7040167">
<ele>150.55</ele>
<time>2016-10-19T09:16:10Z</time>
</trkpt>
<trkpt lat="39.6821723" lon="2.7039808">
<ele>155.09</ele>
<time>2016-10-19T09:16:14Z</time>
</trkpt>
<trkpt lat="39.6823914" lon="2.7039338">
<ele>160.35</ele>
<time>2016-10-19T09:16:18Z</time>
</trkpt>
<trkpt lat="39.6825991" lon="2.7038785">
<ele>163.54</ele>
<time>2016-10-19T09:16:22Z</time>
</trkpt>
<trkpt lat="39.6828102" lon="2.7038094">
<ele>166.38</ele>
<time>2016-10-19T09:16:26Z</time>
</trkpt>
<trkpt lat="39.6830182" lon="2.7037362">
<ele>166.90</ele>
<time>2016-10-19T09:16:30Z</time>
</trkpt>
<trkpt lat="39.6831947" lon="2.7036746">
<ele>166.54</ele>
<time>2016-10-19T09:16:33Z</time>
</trkpt>
<trkpt lat="39.6834040" lon="2.7035914">
<ele>167.27</ele>
<time>2016-10-19T09:16:37Z</time>
</trkpt>
<trkpt lat="39.6835880" lon="2.7035162">
<ele>168.98</ele>
<time>2016-10-19T09:16:41Z</time>
</trkpt>
<trkpt lat="39.6837782" lon="2.7034497">
<ele>170.92</ele>
<time>2016-10-19T09:16:45Z</time>
</trkpt>
<trkpt lat="39.6839759" lon="2.7033902">
<ele>172.41</ele>
<time>2016-10-19T09:16:49Z</time>
</trkpt>
<trkpt lat="39.6841652" lon="2.7033323">
<ele>173.82</ele>
<time>2016-10-19T09:16:53Z</time>
</trkpt>
<trkpt lat="39.6843665" lon="2.7032650">
<ele>174.12</ele>
<time>2016-10-19T09:16:57Z</time>
</trkpt>
<trkpt lat="39.6845413" lon="2.7031983">
<ele>173.90</ele>
<time>2016-10-19T09:17:01Z</time>
</trkpt>
<trkpt lat="39.6847188" lon="2.7031443">
<ele>173.52</ele>
<time>2016-10-19T09:17:05Z</time>
</trkpt>
<trkpt lat="39.6849045" lon="2.7030875">
<ele>176.20</ele>
<time>2016-10-19T09:17:10Z</time>
</trkpt>
<trkpt lat="39.6850938" lon="2.7030271">
<ele>178.93</ele>
<time>2016-10-19T09:17:14Z</time>
</trkpt>
<trkpt lat="39.6852658" lon="2.7029541">
<ele>181.02</ele>
<time>2016-10-19T09:17:18Z</time>
</trkpt>
<trkpt lat="39.6854666" lon="2.7028804">
<ele>181.00</ele>
<time>2016-10-19T09:17:23Z</time>
</trkpt>
<trkpt lat="39.6856575" lon="2.7028215">
<ele>181.01</ele>
<time>2016-10-19T09:17:28Z</time>
</trkpt>
<trkpt lat="39.6858358" lon="2.7027698">
<ele>182.53</ele>
<time>2016-10-19T09:17:32Z</time>
</trkpt>
<trkpt lat="39.6860380" lon="2.7027255">
<ele>182.04</ele>
<time>2016-10-19T09:17:37Z</time>
</trkpt>
<trkpt lat="39.6862205" lon="2.7026596">
<ele>182.93</ele>
<time>2016-10-19T09:17:42Z</time>
</trkpt>
<trkpt lat="39.6864158" lon="2.7026040">
<ele>184.50</ele>
<time>2016-10-19T09:17:47Z</time>
</trkpt>
<trkpt lat="39.6865968" lon="2.7025497">
<ele>184.71</ele>
<time>2016-10-19T09:17:52Z</time>
</trkpt>
<trkpt lat="39.6867986" lon="2.7024794">
<ele>185.49</ele>
<time>2016-10-19T09:17:57Z</time>
</trkpt>
<trkpt lat="39.6870031" lon="2.7024084">
<ele>186.82</ele>
<time>2016-10-19T09:18:02Z</time>
</trkpt>
<trkpt lat="39.6871824" lon="2.7023714">
<ele>186.83</ele>
<time>2016-10-19T09:18:06Z</time>
</trkpt>
<trkpt lat="39.6873840" lon="2.7023389">
<ele>186.44</ele>
<time>2016-10-19T09:18:11Z</time>
</trkpt>
<trkpt lat="39.6875650" lon="2.7023297">
<ele>186.84</ele>
<time>2016-10-19T09:18:16Z</time>
</trkpt>
<trkpt lat="39.6877484" lon="2.7023177">
<ele>187.36</ele>
<time>2016-10-19T09:18:21Z</time>
</trkpt>
<trkpt lat="39.6879398" lon="2.7023110">
<ele>187.84</ele>
<time>2016-10-19T09:18:28Z</time>
</trkpt>
<trkpt lat="39.6881508" lon="2.7022990">
<ele>190.63</ele>
<time>2016-10-19T09:18:33Z</time>
</trkpt>
<trkpt lat="39.6883412" lon="2.7022991">
<ele>195.66</ele>
<time>2016-10-19T09:18:37Z</time>
</trkpt>
<trkpt lat="39.6885391" lon="2.7022953">
<ele>196.22</ele>
<time>2016-10-19T09:18:42Z</time>
</trkpt>
<trkpt lat="39.6887187" lon="2.7022801">
<ele>196.48</ele>
<time>2016-10-19T09:18:46Z</time>
</trkpt>
<trkpt lat="39.6889206" lon="2.7023010">
<ele>196.66</ele>
<time>2016-10-19T09:18:51Z</time>
</trkpt>
<trkpt lat="39.6891092" lon="2.7022854">
<ele>196.93</ele>
<time>2016-10-19T09:18:57Z</time>
</trkpt>
<trkpt lat="39.6893243" lon="2.7022608">
<ele>197.60</ele>
<time>2016-10-19T09:19:03Z</time>
</trkpt>
<trkpt lat="39.6895433" lon="2.7022245">
<ele>198.66</ele>
<time>2016-10-19T09:19:08Z</time>
</trkpt>
<trkpt lat="39.6897532" lon="2.7022213">
<ele>199.91</ele>
<time>2016-10-19T09:19:12Z</time>
</trkpt>
<trkpt lat="39.6899435" lon="2.7022279">
<ele>199.64</ele>
<time>2016-10-19T09:19:17Z</time>
</trkpt>
<trkpt lat="39.6901401" lon="2.7022426">
<ele>199.33</ele>
<time>2016-10-19T09:19:22Z</time>
</trkpt>
<trkpt lat="39.6903566" lon="2.7022300">
<ele>201.11</ele>
<time>2016-10-19T09:19:27Z</time>
</trkpt>
<trkpt lat="39.6905681" lon="2.7022201">
<ele>203.79</ele>
<time>2016-10-19T09:19:32Z</time>
</trkpt>
<trkpt lat="39.6907505" lon="2.7021983">
<ele>204.07</ele>
<time>2016-10-19T09:19:37Z</time>
</trkpt>
<trkpt lat="39.6909707" lon="2.7021570">
<ele>204.93</ele>
<time>2016-10-19T09:19:42Z</time>
</trkpt>
<trkpt lat="39.6911386" lon="2.7020629">
<ele>205.78</ele>
<time>2016-10-19T09:19:45Z</time>
</trkpt>
<trkpt lat="39.6913545" lon="2.7019463">
<ele>204.45</ele>
<time>2016-10-19T09:19:49Z</time>
</trkpt>
<trkpt lat="39.6915701" lon="2.7018477">
<ele>203.68</ele>
<time>2016-10-19T09:19:53Z</time>
</trkpt>
<trkpt lat="39.6917594" lon="2.7017696">
<ele>203.61</ele>
<time>2016-10-19T09:19:57Z</time>
</trkpt>
<trkpt lat="39.6919384" lon="2.7017012">
<ele>203.89</ele>
<time>2016-10-19T09:20:01Z</time>
</trkpt>
<trkpt lat="39.6921147" lon="2.7016318">
<ele>205.51</ele>
<time>2016-10-19T09:20:05Z</time>
</trkpt>
<trkpt lat="39.6922974" lon="2.7015533">
<ele>205.73</ele>
<time>2016-10-19T09:20:09Z</time>
</trkpt>
<trkpt lat="39.6924718" lon="2.7014566">
<ele>205.10</ele>
<time>2016-10-19T09:20:13Z</time>
</trkpt>
<trkpt lat="39.6926496" lon="2.7013738">
<ele>205.38</ele>
<time>2016-10-19T09:20:17Z</time>
</trkpt>
<trkpt lat="39.6928330" lon="2.7012823">
<ele>205.79</ele>
<time>2016-10-19T09:20:21Z</time>
</trkpt>
<trkpt lat="39.6930173" lon="2.7011916">
<ele>206.79</ele>
<time>2016-10-19T09:20:25Z</time>
</trkpt>
<trkpt lat="39.6932165" lon="2.7010879">
<ele>207.74</ele>
<time>2016-10-19T09:20:30Z</time>
</trkpt>
<trkpt lat="39.6933924" lon="2.7009956">
<ele>208.73</ele>
<time>2016-10-19T09:20:34Z</time>
</trkpt>
<trkpt lat="39.6935615" lon="2.7009000">
<ele>208.80</ele>
<time>2016-10-19T09:20:38Z</time>
</trkpt>
<trkpt lat="39.6937388" lon="2.7008149">
<ele>209.07</ele>
<time>2016-10-19T09:20:42Z</time>
</trkpt>
<trkpt lat="39.6939497" lon="2.7007172">
<ele>209.68</ele>
<time>2016-10-19T09:20:47Z</time>
</trkpt>
<trkpt lat="39.6941230" lon="2.7006387">
<ele>211.17</ele>
<time>2016-10-19T09:20:51Z</time>
</trkpt>
<trkpt lat="39.6943039" lon="2.7005636">
<ele>213.31</ele>
<time>2016-10-19T09:20:55Z</time>
</trkpt>
<trkpt lat="39.6945213" lon="2.7004450">
<ele>213.21</ele>
<time>2016-10-19T09:21:00Z</time>
</trkpt>
<trkpt lat="39.6946926" lon="2.7003250">
<ele>214.03</ele>
<time>2016-10-19T09:21:04Z</time>
</trkpt>
<trkpt lat="39.6948940" lon="2.7001932">
<ele>212.61</ele>
<time>2016-10-19T09:21:09Z</time>
</trkpt>
<trkpt lat="39.6950750" lon="2.7001030">
<ele>212.21</ele>
<time>2016-10-19T09:21:13Z</time>
</trkpt>
<trkpt lat="39.6952513" lon="2.7000368">
<ele>211.69</ele>
<time>2016-10-19T09:21:17Z</time>
</trkpt>
<trkpt lat="39.6954591" lon="2.6999566">
<ele>213.58</ele>
<time>2016-10-19T09:21:22Z</time>
</trkpt>
<trkpt lat="39.6956483" lon="2.6998571">
<ele>213.83</ele>
<time>2016-10-19T09:21:27Z</time>
</trkpt>
<trkpt lat="39.6958233" lon="2.6997716">
<ele>214.88</ele>
<time>2016-10-19T09:21:31Z</time>
</trkpt>
<trkpt lat="39.6959977" lon="2.6996769">
<ele>215.64</ele>
<time>2016-10-19T09:21:38Z</time>
</trkpt>
<trkpt lat="39.6961977" lon="2.6996093">
<ele>217.19</ele>
<time>2016-10-19T09:21:45Z</time>
</trkpt>
<trkpt lat="39.6963953" lon="2.6995802">
<ele>217.49</ele>
<time>2016-10-19T09:21:52Z</time>
</trkpt>
<trkpt lat="39.6965760" lon="2.6995755">
<ele>215.47</ele>
<time>2016-10-19T09:24:22Z</time>
</trkpt>
<trkpt lat="39.6965929" lon="2.6998142">
<ele>216.63</ele>
<time>2016-10-19T09:24:27Z</time>
</trkpt>
<trkpt lat="39.6966034" lon="2.7000646">
<ele>218.54</ele>
<time>2016-10-19T09:24:34Z</time>
</trkpt>
<trkpt lat="39.6966454" lon="2.7003042">
<ele>220.18</ele>
<time>2016-10-19T09:24:43Z</time>
</trkpt>
<trkpt lat="39.6966788" lon="2.7005452">
<ele>223.30</ele>
<time>2016-10-19T09:24:51Z</time>
</trkpt>
<trkpt lat="39.6968684" lon="2.7004677">
<ele>228.04</ele>
<time>2016-10-19T09:25:02Z</time>
</trkpt>
<trkpt lat="39.6970709" lon="2.7005177">
<ele>228.69</ele>
<time>2016-10-19T09:25:07Z</time>
</trkpt>
<trkpt lat="39.6972822" lon="2.7005592">
<ele>228.09</ele>
<time>2016-10-19T09:25:13Z</time>
</trkpt>
<trkpt lat="39.6974727" lon="2.7006183">
<ele>227.88</ele>
<time>2016-10-19T09:25:18Z</time>
</trkpt>
<trkpt lat="39.6976006" lon="2.7008117">
<ele>228.06</ele>
<time>2016-10-19T09:25:25Z</time>
</trkpt>
<trkpt lat="39.6977644" lon="2.7009207">
<ele>229.26</ele>
<time>2016-10-19T09:25:32Z</time>
</trkpt>
<trkpt lat="39.6979529" lon="2.7010033">
<ele>230.92</ele>
<time>2016-10-19T09:25:37Z</time>
</trkpt>
<trkpt lat="39.6980961" lon="2.7011458">
<ele>232.30</ele>
<time>2016-10-19T09:25:42Z</time>
</trkpt>
<trkpt lat="39.6981734" lon="2.7013970">
<ele>235.44</ele>
<time>2016-10-19T09:25:49Z</time>
</trkpt>
<trkpt lat="39.6980143" lon="2.7015336">
<ele>236.38</ele>
<time>2016-10-19T09:26:01Z</time>
</trkpt>
<trkpt lat="39.6980203" lon="2.7017760">
<ele>235.13</ele>
<time>2016-10-19T09:26:11Z</time>
</trkpt>
<trkpt lat="39.6980965" lon="2.7020124">
<ele>235.96</ele>
<time>2016-10-19T09:26:19Z</time>
</trkpt>
<trkpt lat="39.6982233" lon="2.7021920">
<ele>237.55</ele>
<time>2016-10-19T09:26:26Z</time>
</trkpt>
<trkpt lat="39.6984148" lon="2.7022845">
<ele>239.00</ele>
<time>2016-10-19T09:26:33Z</time>
</trkpt>
<trkpt lat="39.6986184" lon="2.7023386">
<ele>240.00</ele>
<time>2016-10-19T09:26:40Z</time>
</trkpt>
<trkpt lat="39.6988085" lon="2.7024080">
<ele>242.60</ele>
<time>2016-10-19T09:26:46Z</time>
</trkpt>
<trkpt lat="39.6989841" lon="2.7025335">
<ele>243.29</ele>
<time>2016-10-19T09:26:51Z</time>
</trkpt>
<trkpt lat="39.6991299" lon="2.7026766">
<ele>244.34</ele>
<time>2016-10-19T09:26:59Z</time>
</trkpt>
<trkpt lat="39.6992874" lon="2.7027960">
<ele>244.72</ele>
<time>2016-10-19T09:27:15Z</time>
</trkpt>
<trkpt lat="39.6994232" lon="2.7029963">
<ele>245.12</ele>
<time>2016-10-19T09:27:22Z</time>
</trkpt>
<trkpt lat="39.6995621" lon="2.7031654">
<ele>245.58</ele>
<time>2016-10-19T09:27:28Z</time>
</trkpt>
<trkpt lat="39.6997585" lon="2.7032419">
<ele>246.09</ele>
<time>2016-10-19T09:27:34Z</time>
</trkpt>
<trkpt lat="39.6999552" lon="2.7033451">
<ele>250.10</ele>
<time>2016-10-19T09:27:39Z</time>
</trkpt>
<trkpt lat="39.7001443" lon="2.7034698">
<ele>250.72</ele>
<time>2016-10-19T09:27:44Z</time>
</trkpt>
<trkpt lat="39.7003112" lon="2.7035941">
<ele>250.14</ele>
<time>2016-10-19T09:27:49Z</time>
</trkpt>
<trkpt lat="39.7004621" lon="2.7037328">
<ele>250.73</ele>
<time>2016-10-19T09:27:55Z</time>
</trkpt>
<trkpt lat="39.7005708" lon="2.7039325">
<ele>251.31</ele>
<time>2016-10-19T09:27:59Z</time>
</trkpt>
<trkpt lat="39.7006956" lon="2.7041580">
<ele>251.60</ele>
<time>2016-10-19T09:28:04Z</time>
</trkpt>
<trkpt lat="39.7008490" lon="2.7043636">
<ele>251.65</ele>
<time>2016-10-19T09:28:10Z</time>
</trkpt>
<trkpt lat="39.7009765" lon="2.7045300">
<ele>252.17</ele>
<time>2016-10-19T09:28:14Z</time>
</trkpt>
<trkpt lat="39.7011330" lon="2.7046816">
<ele>250.89</ele>
<time>2016-10-19T09:28:19Z</time>
</trkpt>
<trkpt lat="39.7013235" lon="2.7048125">
<ele>251.27</ele>
<time>2016-10-19T09:28:24Z</time>
</trkpt>
<trkpt lat="39.7015318" lon="2.7049266">
<ele>252.57</ele>
<time>2016-10-19T09:28:29Z</time>
</trkpt>
<trkpt lat="39.7016996" lon="2.7050631">
<ele>254.90</ele>
<time>2016-10-19T09:28:33Z</time>
</trkpt>
<trkpt lat="39.7018326" lon="2.7052831">
<ele>254.09</ele>
<time>2016-10-19T09:28:37Z</time>
</trkpt>
<trkpt lat="39.7019928" lon="2.7055061">
<ele>250.89</ele>
<time>2016-10-19T09:28:41Z</time>
</trkpt>
<trkpt lat="39.7021268" lon="2.7057230">
<ele>248.89</ele>
<time>2016-10-19T09:28:45Z</time>
</trkpt>
<trkpt lat="39.7022160" lon="2.7059433">
<ele>248.77</ele>
<time>2016-10-19T09:28:49Z</time>
</trkpt>
<trkpt lat="39.7023024" lon="2.7061750">
<ele>245.29</ele>
<time>2016-10-19T09:28:53Z</time>
</trkpt>
<trkpt lat="39.7024030" lon="2.7064110">
<ele>244.24</ele>
<time>2016-10-19T09:28:58Z</time>
</trkpt>
<trkpt lat="39.7025061" lon="2.7066507">
<ele>244.04</ele>
<time>2016-10-19T09:29:04Z</time>
</trkpt>
<trkpt lat="39.7025965" lon="2.7068786">
<ele>245.00</ele>
<time>2016-10-19T09:29:12Z</time>
</trkpt>
<trkpt lat="39.7027338" lon="2.7070468">
<ele>246.36</ele>
<time>2016-10-19T09:29:19Z</time>
</trkpt>
<trkpt lat="39.7028879" lon="2.7071804">
<ele>248.79</ele>
<time>2016-10-19T09:29:29Z</time>
</trkpt>
<trkpt lat="39.7030411" lon="2.7073337">
<ele>251.15</ele>
<time>2016-10-19T09:29:37Z</time>
</trkpt>
<trkpt lat="39.7031470" lon="2.7075312">
<ele>253.49</ele>
<time>2016-10-19T09:29:45Z</time>
</trkpt>
<trkpt lat="39.7031964" lon="2.7077735">
<ele>255.63</ele>
<time>2016-10-19T09:29:53Z</time>
</trkpt>
<trkpt lat="39.7032575" lon="2.7080148">
<ele>256.62</ele>
<time>2016-10-19T09:29:59Z</time>
</trkpt>
<trkpt lat="39.7034156" lon="2.7081289">
<ele>258.33</ele>
<time>2016-10-19T09:30:07Z</time>
</trkpt>
<trkpt lat="39.7036212" lon="2.7082147">
<ele>263.91</ele>
<time>2016-10-19T09:30:13Z</time>
</trkpt>
<trkpt lat="39.7038085" lon="2.7083623">
<ele>274.25</ele>
<time>2016-10-19T09:30:18Z</time>
</trkpt>
<trkpt lat="39.7039939" lon="2.7084821">
<ele>279.06</ele>
<time>2016-10-19T09:30:23Z</time>
</trkpt>
<trkpt lat="39.7041994" lon="2.7084899">
<ele>282.47</ele>
<time>2016-10-19T09:30:28Z</time>
</trkpt>
<trkpt lat="39.7044009" lon="2.7085247">
<ele>280.82</ele>
<time>2016-10-19T09:30:33Z</time>
</trkpt>
<trkpt lat="39.7045994" lon="2.7085475">
<ele>279.96</ele>
<time>2016-10-19T09:30:37Z</time>
</trkpt>
<trkpt lat="39.7047803" lon="2.7086018">
<ele>279.25</ele>
<time>2016-10-19T09:30:41Z</time>
</trkpt>
<trkpt lat="39.7049745" lon="2.7087336">
<ele>278.65</ele>
<time>2016-10-19T09:30:45Z</time>
</trkpt>
<trkpt lat="39.7051501" lon="2.7088522">
<ele>278.69</ele>
<time>2016-10-19T09:30:49Z</time>
</trkpt>
<trkpt lat="39.7053430" lon="2.7089958">
<ele>273.96</ele>
<time>2016-10-19T09:30:54Z</time>
</trkpt>
<trkpt lat="39.7055064" lon="2.7090954">
<ele>272.93</ele>
<time>2016-10-19T09:30:59Z</time>
</trkpt>
<trkpt lat="39.7056937" lon="2.7091959">
<ele>272.50</ele>
<time>2016-10-19T09:31:05Z</time>
</trkpt>
<trkpt lat="39.7058868" lon="2.7093183">
<ele>273.39</ele>
<time>2016-10-19T09:31:11Z</time>
</trkpt>
<trkpt lat="39.7060487" lon="2.7094601">
<ele>274.25</ele>
<time>2016-10-19T09:31:17Z</time>
</trkpt>
<trkpt lat="39.7062271" lon="2.7095970">
<ele>275.14</ele>
<time>2016-10-19T09:31:24Z</time>
</trkpt>
<trkpt lat="39.7063887" lon="2.7097007">
<ele>275.55</ele>
<time>2016-10-19T09:31:32Z</time>
</trkpt>
<trkpt lat="39.7066078" lon="2.7097134">
<ele>277.62</ele>
<time>2016-10-19T09:31:40Z</time>
</trkpt>
<trkpt lat="39.7067888" lon="2.7096931">
<ele>281.02</ele>
<time>2016-10-19T09:31:49Z</time>
</trkpt>
<trkpt lat="39.7069717" lon="2.7096820">
<ele>284.78</ele>
<time>2016-10-19T09:31:57Z</time>
</trkpt>
<trkpt lat="39.7071718" lon="2.7096708">
<ele>286.58</ele>
<time>2016-10-19T09:32:06Z</time>
</trkpt>
<trkpt lat="39.7073623" lon="2.7096536">
<ele>287.49</ele>
<time>2016-10-19T09:32:14Z</time>
</trkpt>
<trkpt lat="39.7075603" lon="2.7096379">
<ele>289.41</ele>
<time>2016-10-19T09:32:24Z</time>
</trkpt>
<trkpt lat="39.7077375" lon="2.7095932">
<ele>295.55</ele>
<time>2016-10-19T09:32:34Z</time>
</trkpt>
<trkpt lat="39.7079193" lon="2.7095227">
<ele>300.30</ele>
<time>2016-10-19T09:32:43Z</time>
</trkpt>
<trkpt lat="39.7080999" lon="2.7094333">
<ele>301.08</ele>
<time>2016-10-19T09:32:50Z</time>
</trkpt>
<trkpt lat="39.7082612" lon="2.7093282">
<ele>301.06</ele>
<time>2016-10-19T09:32:54Z</time>
</trkpt>
<trkpt lat="39.7084283" lon="2.7092266">
<ele>301.01</ele>
<time>2016-10-19T09:33:00Z</time>
</trkpt>
<trkpt lat="39.7086011" lon="2.7091265">
<ele>300.21</ele>
<time>2016-10-19T09:33:06Z</time>
</trkpt>
<trkpt lat="39.7088192" lon="2.7090624">
<ele>299.75</ele>
<time>2016-10-19T09:33:12Z</time>
</trkpt>
<trkpt lat="39.7090098" lon="2.7090770">
<ele>299.52</ele>
<time>2016-10-19T09:33:17Z</time>
</trkpt>
<trkpt lat="39.7092087" lon="2.7091110">
<ele>303.00</ele>
<time>2016-10-19T09:33:22Z</time>
</trkpt>
<trkpt lat="39.7093965" lon="2.7091739">
<ele>304.92</ele>
<time>2016-10-19T09:33:28Z</time>
</trkpt>
<trkpt lat="39.7095936" lon="2.7091831">
<ele>305.90</ele>
<time>2016-10-19T09:33:37Z</time>
</trkpt>
<trkpt lat="39.7097620" lon="2.7090407">
<ele>306.57</ele>
<time>2016-10-19T09:33:44Z</time>
</trkpt>
<trkpt lat="39.7099438" lon="2.7089309">
<ele>306.71</ele>
<time>2016-10-19T09:33:50Z</time>
</trkpt>
<trkpt lat="39.7100920" lon="2.7087971">
<ele>306.36</ele>
<time>2016-10-19T09:33:56Z</time>
</trkpt>
<trkpt lat="39.7102711" lon="2.7087365">
<ele>306.17</ele>
<time>2016-10-19T09:34:02Z</time>
</trkpt>
<trkpt lat="39.7104665" lon="2.7087459">
<ele>305.53</ele>
<time>2016-10-19T09:34:09Z</time>
</trkpt>
<trkpt lat="39.7106553" lon="2.7087950">
<ele>305.83</ele>
<time>2016-10-19T09:34:16Z</time>
</trkpt>
<trkpt lat="39.7108375" lon="2.7088749">
<ele>309.36</ele>
<time>2016-10-19T09:34:23Z</time>
</trkpt>
<trkpt lat="39.7109973" lon="2.7090054">
<ele>314.45</ele>
<time>2016-10-19T09:34:31Z</time>
</trkpt>
<trkpt lat="39.7111765" lon="2.7090938">
<ele>319.26</ele>
<time>2016-10-19T09:34:40Z</time>
</trkpt>
<trkpt lat="39.7111573" lon="2.7088498">
<ele>323.96</ele>
<time>2016-10-19T09:34:59Z</time>
</trkpt>
<trkpt lat="39.7111303" lon="2.7086161">
<ele>323.34</ele>
<time>2016-10-19T09:35:09Z</time>
</trkpt>
<trkpt lat="39.7110089" lon="2.7084201">
<ele>321.31</ele>
<time>2016-10-19T09:35:21Z</time>
</trkpt>
<trkpt lat="39.7109277" lon="2.7081810">
<ele>320.36</ele>
<time>2016-10-19T09:35:30Z</time>
</trkpt>
<trkpt lat="39.7109116" lon="2.7079256">
<ele>318.99</ele>
<time>2016-10-19T09:35:37Z</time>
</trkpt>
<trkpt lat="39.7109959" lon="2.7077080">
<ele>317.16</ele>
<time>2016-10-19T09:35:45Z</time>
</trkpt>
<trkpt lat="39.7110713" lon="2.7079287">
<ele>312.95</ele>
<time>2016-10-19T09:36:00Z</time>
</trkpt>
<trkpt lat="39.7112399" lon="2.7080477">
<ele>313.01</ele>
<time>2016-10-19T09:36:10Z</time>
</trkpt>
<trkpt lat="39.7114243" lon="2.7080959">
<ele>314.13</ele>
<time>2016-10-19T09:36:19Z</time>
</trkpt>
<trkpt lat="39.7116053" lon="2.7081865">
<ele>316.29</ele>
<time>2016-10-19T09:36:29Z</time>
</trkpt>
<trkpt lat="39.7116956" lon="2.7083946">
<ele>318.45</ele>
<time>2016-10-19T09:36:35Z</time>
</trkpt>
<trkpt lat="39.7117243" lon="2.7086275">
<ele>321.41</ele>
<time>2016-10-19T09:36:42Z</time>
</trkpt>
<trkpt lat="39.7117951" lon="2.7088806">
<ele>324.23</ele>
<time>2016-10-19T09:36:49Z</time>
</trkpt>
<trkpt lat="39.7119248" lon="2.7090617">
<ele>326.51</ele>
<time>2016-10-19T09:36:57Z</time>
</trkpt>
<trkpt lat="39.7120768" lon="2.7092057">
<ele>327.30</ele>
<time>2016-10-19T09:37:08Z</time>
</trkpt>
<trkpt lat="39.7122239" lon="2.7093626">
<ele>328.71</ele>
<time>2016-10-19T09:37:18Z</time>
</trkpt>
<trkpt lat="39.7123826" lon="2.7094985">
<ele>330.51</ele>
<time>2016-10-19T09:37:29Z</time>
</trkpt>
<trkpt lat="39.7125599" lon="2.7096188">
<ele>333.51</ele>
<time>2016-10-19T09:37:38Z</time>
</trkpt>
<trkpt lat="39.7127521" lon="2.7096603">
<ele>335.14</ele>
<time>2016-10-19T09:37:47Z</time>
</trkpt>
<trkpt lat="39.7129241" lon="2.7097716">
<ele>337.03</ele>
<time>2016-10-19T09:37:55Z</time>
</trkpt>
<trkpt lat="39.7130790" lon="2.7099504">
<ele>339.28</ele>
<time>2016-10-19T09:38:05Z</time>
</trkpt>
<trkpt lat="39.7132736" lon="2.7099847">
<ele>342.26</ele>
<time>2016-10-19T09:38:12Z</time>
</trkpt>
<trkpt lat="39.7134365" lon="2.7101418">
<ele>345.18</ele>
<time>2016-10-19T09:38:20Z</time>
</trkpt>
<trkpt lat="39.7135325" lon="2.7103810">
<ele>346.88</ele>
<time>2016-10-19T09:38:25Z</time>
</trkpt>
<trkpt lat="39.7135833" lon="2.7106111">
<ele>348.49</ele>
<time>2016-10-19T09:38:30Z</time>
</trkpt>
<trkpt lat="39.7136939" lon="2.7107957">
<ele>349.94</ele>
<time>2016-10-19T09:38:36Z</time>
</trkpt>
<trkpt lat="39.7138380" lon="2.7109520">
<ele>354.56</ele>
<time>2016-10-19T09:38:46Z</time>
</trkpt>
<trkpt lat="39.7139939" lon="2.7110841">
<ele>358.81</ele>
<time>2016-10-19T09:38:54Z</time>
</trkpt>
<trkpt lat="39.7141276" lon="2.7112690">
<ele>362.22</ele>
<time>2016-10-19T09:39:02Z</time>
</trkpt>
<trkpt lat="39.7142692" lon="2.7114579">
<ele>365.86</ele>
<time>2016-10-19T09:39:11Z</time>
</trkpt>
<trkpt lat="39.7144000" lon="2.7116421">
<ele>368.33</ele>
<time>2016-10-19T09:39:18Z</time>
</trkpt>
<trkpt lat="39.7144935" lon="2.7118542">
<ele>370.50</ele>
<time>2016-10-19T09:39:26Z</time>
</trkpt>
<trkpt lat="39.7146375" lon="2.7120066">
<ele>372.89</ele>
<time>2016-10-19T09:39:35Z</time>
</trkpt>
<trkpt lat="39.7147553" lon="2.7121943">
<ele>378.21</ele>
<time>2016-10-19T09:39:47Z</time>
</trkpt>
<trkpt lat="39.7148478" lon="2.7124119">
<ele>379.53</ele>
<time>2016-10-19T09:39:53Z</time>
</trkpt>
<trkpt lat="39.7149077" lon="2.7126342">
<ele>380.69</ele>
<time>2016-10-19T09:40:01Z</time>
</trkpt>
<trkpt lat="39.7149677" lon="2.7128630">
<ele>381.21</ele>
<time>2016-10-19T09:40:08Z</time>
</trkpt>
<trkpt lat="39.7151069" lon="2.7130151">
<ele>381.23</ele>
<time>2016-10-19T09:40:17Z</time>
</trkpt>
<trkpt lat="39.7151668" lon="2.7132487">
<ele>382.23</ele>
<time>2016-10-19T09:40:30Z</time>
</trkpt>
<trkpt lat="39.7153081" lon="2.7134107">
<ele>384.41</ele>
<time>2016-10-19T09:40:42Z</time>
</trkpt>
<trkpt lat="39.7153885" lon="2.7136286">
<ele>385.80</ele>
<time>2016-10-19T09:40:50Z</time>
</trkpt>
<trkpt lat="39.7152942" lon="2.7138488">
<ele>382.08</ele>
<time>2016-10-19T09:41:02Z</time>
</trkpt>
<trkpt lat="39.7154135" lon="2.7140343">
<ele>378.30</ele>
<time>2016-10-19T09:41:40Z</time>
</trkpt>
<trkpt lat="39.7155715" lon="2.7141550">
<ele>383.11</ele>
<time>2016-10-19T09:41:50Z</time>
</trkpt>
<trkpt lat="39.7157186" lon="2.7143112">
<ele>387.38</ele>
<time>2016-10-19T09:41:58Z</time>
</trkpt>
<trkpt lat="39.7158599" lon="2.7144558">
<ele>391.61</ele>
<time>2016-10-19T09:42:07Z</time>
</trkpt>
<trkpt lat="39.7160061" lon="2.7146300">
<ele>395.33</ele>
<time>2016-10-19T09:42:16Z</time>
</trkpt>
<trkpt lat="39.7161588" lon="2.7147696">
<ele>398.31</ele>
<time>2016-10-19T09:42:25Z</time>
</trkpt>
<trkpt lat="39.7163281" lon="2.7148984">
<ele>401.15</ele>
<time>2016-10-19T09:42:34Z</time>
</trkpt>
<trkpt lat="39.7164701" lon="2.7150422">
<ele>404.71</ele>
<time>2016-10-19T09:42:44Z</time>
</trkpt>
<trkpt lat="39.7166275" lon="2.7151616">
<ele>408.31</ele>
<time>2016-10-19T09:42:53Z</time>
</trkpt>
<trkpt lat="39.7167776" lon="2.7153291">
<ele>410.81</ele>
<time>2016-10-19T09:43:01Z</time>
</trkpt>
<trkpt lat="39.7168953" lon="2.7155410">
<ele>412.48</ele>
<time>2016-10-19T09:43:09Z</time>
</trkpt>
<trkpt lat="39.7170270" lon="2.7157356">
<ele>413.29</ele>
<time>2016-10-19T09:43:18Z</time>
</trkpt>
<trkpt lat="39.7171530" lon="2.7159279">
<ele>414.00</ele>
<time>2016-10-19T09:43:28Z</time>
</trkpt>
<trkpt lat="39.7173090" lon="2.7160588">
<ele>416.25</ele>
<time>2016-10-19T09:43:38Z</time>
</trkpt>
<trkpt lat="39.7174445" lon="2.7162246">
<ele>418.79</ele>
<time>2016-10-19T09:43:46Z</time>
</trkpt>
<trkpt lat="39.7175479" lon="2.7164317">
<ele>421.39</ele>
<time>2016-10-19T09:43:55Z</time>
</trkpt>
<trkpt lat="39.7176570" lon="2.7166414">
<ele>422.36</ele>
<time>2016-10-19T09:44:03Z</time>
</trkpt>
<trkpt lat="39.7177743" lon="2.7168332">
<ele>422.79</ele>
<time>2016-10-19T09:44:11Z</time>
</trkpt>
<trkpt lat="39.7178965" lon="2.7170361">
<ele>422.36</ele>
<time>2016-10-19T09:44:19Z</time>
</trkpt>
<trkpt lat="39.7180445" lon="2.7172078">
<ele>421.15</ele>
<time>2016-10-19T09:44:29Z</time>
</trkpt>
<trkpt lat="39.7182025" lon="2.7173334">
<ele>421.84</ele>
<time>2016-10-19T09:44:40Z</time>
</trkpt>
<trkpt lat="39.7183489" lon="2.7174790">
<ele>422.43</ele>
<time>2016-10-19T09:44:50Z</time>
</trkpt>
<trkpt lat="39.7185330" lon="2.7175766">
<ele>422.86</ele>
<time>2016-10-19T09:45:00Z</time>
</trkpt>
<trkpt lat="39.7187306" lon="2.7176344">
<ele>424.13</ele>
<time>2016-10-19T09:45:11Z</time>
</trkpt>
<trkpt lat="39.7189072" lon="2.7177239">
<ele>424.41</ele>
<time>2016-10-19T09:45:19Z</time>
</trkpt>
<trkpt lat="39.7190817" lon="2.7178197">
<ele>424.08</ele>
<time>2016-10-19T09:45:27Z</time>
</trkpt>
<trkpt lat="39.7192437" lon="2.7179596">
<ele>423.68</ele>
<time>2016-10-19T09:45:34Z</time>
</trkpt>
<trkpt lat="39.7194447" lon="2.7179859">
<ele>422.40</ele>
<time>2016-10-19T09:45:41Z</time>
</trkpt>
<trkpt lat="39.7196179" lon="2.7180970">
<ele>421.02</ele>
<time>2016-10-19T09:45:49Z</time>
</trkpt>
<trkpt lat="39.7197955" lon="2.7180463">
<ele>420.37</ele>
<time>2016-10-19T09:45:57Z</time>
</trkpt>
<trkpt lat="39.7199897" lon="2.7179728">
<ele>419.22</ele>
<time>2016-10-19T09:46:07Z</time>
</trkpt>
<trkpt lat="39.7201742" lon="2.7179140">
<ele>419.44</ele>
<time>2016-10-19T09:46:14Z</time>
</trkpt>
<trkpt lat="39.7203669" lon="2.7178411">
<ele>419.90</ele>
<time>2016-10-19T09:46:22Z</time>
</trkpt>
<trkpt lat="39.7205435" lon="2.7177475">
<ele>420.09</ele>
<time>2016-10-19T09:46:31Z</time>
</trkpt>
<trkpt lat="39.7207341" lon="2.7177257">
<ele>422.83</ele>
<time>2016-10-19T09:46:40Z</time>
</trkpt>
<trkpt lat="39.7209225" lon="2.7177449">
<ele>425.79</ele>
<time>2016-10-19T09:46:49Z</time>
</trkpt>
<trkpt lat="39.7210799" lon="2.7178940">
<ele>430.01</ele>
<time>2016-10-19T09:46:59Z</time>
</trkpt>
<trkpt lat="39.7211701" lon="2.7181048">
<ele>432.93</ele>
<time>2016-10-19T09:47:07Z</time>
</trkpt>
<trkpt lat="39.7212072" lon="2.7183474">
<ele>435.36</ele>
<time>2016-10-19T09:47:15Z</time>
</trkpt>
<trkpt lat="39.7212623" lon="2.7185801">
<ele>436.68</ele>
<time>2016-10-19T09:47:22Z</time>
</trkpt>
<trkpt lat="39.7212906" lon="2.7188309">
<ele>437.62</ele>
<time>2016-10-19T09:47:31Z</time>
</trkpt>
<trkpt lat="39.7213193" lon="2.7190920">
<ele>438.32</ele>
<time>2016-10-19T09:47:39Z</time>
</trkpt>
<trkpt lat="39.7213960" lon="2.7193219">
<ele>437.91</ele>
<time>2016-10-19T09:47:48Z</time>
</trkpt>
<trkpt lat="39.7215881" lon="2.7193365">
<ele>438.96</ele>
<time>2016-10-19T09:48:01Z</time>
</trkpt>
<trkpt lat="39.7217790" lon="2.7193041">
<ele>442.82</ele>
<time>2016-10-19T09:48:14Z</time>
</trkpt>
<trkpt lat="39.7219534" lon="2.7191610">
<ele>445.16</ele>
<time>2016-10-19T09:48:21Z</time>
</trkpt>
<trkpt lat="39.7221393" lon="2.7190900">
<ele>446.85</ele>
<time>2016-10-19T09:48:29Z</time>
</trkpt>
<trkpt lat="39.7223025" lon="2.7191907">
<ele>447.11</ele>
<time>2016-10-19T09:48:34Z</time>
</trkpt>
<trkpt lat="39.7224189" lon="2.7193995">
<ele>446.76</ele>
<time>2016-10-19T09:48:40Z</time>
</trkpt>
<trkpt lat="39.7225577" lon="2.7195508">
<ele>445.66</ele>
<time>2016-10-19T09:48:48Z</time>
</trkpt>
<trkpt lat="39.7226068" lon="2.7197784">
<ele>445.64</ele>
<time>2016-10-19T09:48:56Z</time>
</trkpt>
<trkpt lat="39.7226615" lon="2.7200337">
<ele>446.87</ele>
<time>2016-10-19T09:49:00Z</time>
</trkpt>
<trkpt lat="39.7227826" lon="2.7202137">
<ele>451.62</ele>
<time>2016-10-19T09:49:24Z</time>
</trkpt>
<trkpt lat="39.7228379" lon="2.7204571">
<ele>452.42</ele>
<time>2016-10-19T09:49:40Z</time>
</trkpt>
<trkpt lat="39.7228389" lon="2.7206939">
<ele>453.37</ele>
<time>2016-10-19T09:49:49Z</time>
</trkpt>
<trkpt lat="39.7228617" lon="2.7209352">
<ele>453.52</ele>
<time>2016-10-19T09:49:59Z</time>
</trkpt>
<trkpt lat="39.7230530" lon="2.7209369">
<ele>457.51</ele>
<time>2016-10-19T09:50:24Z</time>
</trkpt>
<trkpt lat="39.7232056" lon="2.7208028">
<ele>460.12</ele>
<time>2016-10-19T09:50:31Z</time>
</trkpt>
<trkpt lat="39.7233908" lon="2.7208364">
<ele>461.15</ele>
<time>2016-10-19T09:50:41Z</time>
</trkpt>
<trkpt lat="39.7235551" lon="2.7210482">
<ele>465.12</ele>
<time>2016-10-19T09:50:52Z</time>
</trkpt>
<trkpt lat="39.7236884" lon="2.7212158">
<ele>468.14</ele>
<time>2016-10-19T09:50:58Z</time>
</trkpt>
<trkpt lat="39.7238366" lon="2.7213615">
<ele>471.05</ele>
<time>2016-10-19T09:51:04Z</time>
</trkpt>
<trkpt lat="39.7239573" lon="2.7215705">
<ele>474.96</ele>
<time>2016-10-19T09:51:11Z</time>
</trkpt>
<trkpt lat="39.7240560" lon="2.7217750">
<ele>476.97</ele>
<time>2016-10-19T09:51:16Z</time>
</trkpt>
<trkpt lat="39.7241603" lon="2.7219897">
<ele>477.33</ele>
<time>2016-10-19T09:51:21Z</time>
</trkpt>
<trkpt lat="39.7242480" lon="2.7222089">
<ele>476.88</ele>
<time>2016-10-19T09:51:27Z</time>
</trkpt>
<trkpt lat="39.7243452" lon="2.7224228">
<ele>475.33</ele>
<time>2016-10-19T09:51:34Z</time>
</trkpt>
<trkpt lat="39.7244129" lon="2.7226671">
<ele>474.60</ele>
<time>2016-10-19T09:51:42Z</time>
</trkpt>
<trkpt lat="39.7244662" lon="2.7228928">
<ele>473.58</ele>
<time>2016-10-19T09:51:49Z</time>
</trkpt>
<trkpt lat="39.7245592" lon="2.7231105">
<ele>472.14</ele>
<time>2016-10-19T09:51:57Z</time>
</trkpt>
<trkpt lat="39.7246452" lon="2.7233331">
<ele>471.46</ele>
<time>2016-10-19T09:52:06Z</time>
</trkpt>
<trkpt lat="39.7247290" lon="2.7235402">
<ele>471.00</ele>
<time>2016-10-19T09:52:14Z</time>
</trkpt>
<trkpt lat="39.7248156" lon="2.7237736">
<ele>471.18</ele>
<time>2016-10-19T09:52:22Z</time>
</trkpt>
<trkpt lat="39.7249463" lon="2.7239367">
<ele>470.87</ele>
<time>2016-10-19T09:52:32Z</time>
</trkpt>
<trkpt lat="39.7250832" lon="2.7240969">
<ele>471.27</ele>
<time>2016-10-19T09:52:40Z</time>
</trkpt>
<trkpt lat="39.7252036" lon="2.7242735">
<ele>472.54</ele>
<time>2016-10-19T09:52:47Z</time>
</trkpt>
<trkpt lat="39.7253536" lon="2.7244532">
<ele>473.96</ele>
<time>2016-10-19T09:52:55Z</time>
</trkpt>
<trkpt lat="39.7254876" lon="2.7246095">
<ele>474.86</ele>
<time>2016-10-19T09:53:02Z</time>
</trkpt>
<trkpt lat="39.7256348" lon="2.7247728">
<ele>475.80</ele>
<time>2016-10-19T09:53:10Z</time>
</trkpt>
<trkpt lat="39.7257855" lon="2.7249496">
<ele>475.91</ele>
<time>2016-10-19T09:53:18Z</time>
</trkpt>
<trkpt lat="39.7259193" lon="2.7251361">
<ele>475.96</ele>
<time>2016-10-19T09:53:27Z</time>
</trkpt>
<trkpt lat="39.7260016" lon="2.7253575">
<ele>476.18</ele>
<time>2016-10-19T09:53:36Z</time>
</trkpt>
<trkpt lat="39.7260376" lon="2.7255895">
<ele>476.28</ele>
<time>2016-10-19T09:53:45Z</time>
</trkpt>
<trkpt lat="39.7260408" lon="2.7258498">
<ele>477.22</ele>
<time>2016-10-19T09:53:55Z</time>
</trkpt>
<trkpt lat="39.7260196" lon="2.7260835">
<ele>478.22</ele>
<time>2016-10-19T09:54:03Z</time>
</trkpt>
<trkpt lat="39.7259904" lon="2.7263424">
<ele>479.50</ele>
<time>2016-10-19T09:54:11Z</time>
</trkpt>
<trkpt lat="39.7259411" lon="2.7265896">
<ele>480.71</ele>
<time>2016-10-19T09:54:19Z</time>
</trkpt>
<trkpt lat="39.7259402" lon="2.7268285">
<ele>481.91</ele>
<time>2016-10-19T09:54:27Z</time>
</trkpt>
<trkpt lat="39.7259678" lon="2.7270708">
<ele>482.86</ele>
<time>2016-10-19T09:54:34Z</time>
</trkpt>
<trkpt lat="39.7260029" lon="2.7273171">
<ele>483.55</ele>
<time>2016-10-19T09:54:42Z</time>
</trkpt>
<trkpt lat="39.7260588" lon="2.7275587">
<ele>484.50</ele>
<time>2016-10-19T09:54:52Z</time>
</trkpt>
<trkpt lat="39.7261227" lon="2.7277787">
<ele>485.38</ele>
<time>2016-10-19T09:55:01Z</time>
</trkpt>
<trkpt lat="39.7261843" lon="2.7280009">
<ele>486.14</ele>
<time>2016-10-19T09:55:09Z</time>
</trkpt>
<trkpt lat="39.7262484" lon="2.7282284">
<ele>486.79</ele>
<time>2016-10-19T09:55:18Z</time>
</trkpt>
<trkpt lat="39.7260593" lon="2.7281938">
<ele>488.30</ele>
<time>2016-10-19T09:55:30Z</time>
</trkpt>
<trkpt lat="39.7258778" lon="2.7280875">
<ele>489.38</ele>
<time>2016-10-19T09:55:41Z</time>
</trkpt>
<trkpt lat="39.7257016" lon="2.7279934">
<ele>490.76</ele>
<time>2016-10-19T09:55:50Z</time>
</trkpt>
<trkpt lat="39.7255101" lon="2.7279061">
<ele>492.33</ele>
<time>2016-10-19T09:55:59Z</time>
</trkpt>
<trkpt lat="39.7253223" lon="2.7278165">
<ele>493.33</ele>
<time>2016-10-19T09:56:08Z</time>
</trkpt>
<trkpt lat="39.7252998" lon="2.7280588">
<ele>498.64</ele>
<time>2016-10-19T09:56:31Z</time>
</trkpt>
<trkpt lat="39.7253997" lon="2.7282836">
<ele>501.58</ele>
<time>2016-10-19T09:56:41Z</time>
</trkpt>
<trkpt lat="39.7255020" lon="2.7284767">
<ele>503.73</ele>
<time>2016-10-19T09:56:50Z</time>
</trkpt>
<trkpt lat="39.7256334" lon="2.7286425">
<ele>506.09</ele>
<time>2016-10-19T09:57:00Z</time>
</trkpt>
<trkpt lat="39.7257299" lon="2.7288417">
<ele>509.56</ele>
<time>2016-10-19T09:57:11Z</time>
</trkpt>
<trkpt lat="39.7258410" lon="2.7290419">
<ele>513.46</ele>
<time>2016-10-19T09:57:22Z</time>
</trkpt>
<trkpt lat="39.7259457" lon="2.7292448">
<ele>516.95</ele>
<time>2016-10-19T09:57:33Z</time>
</trkpt>
<trkpt lat="39.7260377" lon="2.7294587">
<ele>519.01</ele>
<time>2016-10-19T09:57:42Z</time>
</trkpt>
<trkpt lat="39.7261264" lon="2.7296645">
<ele>522.10</ele>
<time>2016-10-19T09:57:52Z</time>
</trkpt>
<trkpt lat="39.7262707" lon="2.7298134">
<ele>525.72</ele>
<time>2016-10-19T09:58:03Z</time>
</trkpt>
<trkpt lat="39.7264469" lon="2.7299043">
<ele>528.02</ele>
<time>2016-10-19T09:58:12Z</time>
</trkpt>
<trkpt lat="39.7266282" lon="2.7299507">
<ele>529.98</ele>
<time>2016-10-19T09:58:24Z</time>
</trkpt>
<trkpt lat="39.7268232" lon="2.7300258">
<ele>533.12</ele>
<time>2016-10-19T09:58:33Z</time>
</trkpt>
<trkpt lat="39.7269633" lon="2.7302163">
<ele>536.48</ele>
<time>2016-10-19T09:58:41Z</time>
</trkpt>
<trkpt lat="39.7271492" lon="2.7302476">
<ele>540.11</ele>
<time>2016-10-19T09:58:53Z</time>
</trkpt>
<trkpt lat="39.7273355" lon="2.7301913">
<ele>542.95</ele>
<time>2016-10-19T09:59:03Z</time>
</trkpt>
<trkpt lat="39.7275275" lon="2.7301051">
<ele>546.26</ele>
<time>2016-10-19T09:59:11Z</time>
</trkpt>
<trkpt lat="39.7277249" lon="2.7300935">
<ele>550.19</ele>
<time>2016-10-19T09:59:20Z</time>
</trkpt>
<trkpt lat="39.7277524" lon="2.7303252">
<ele>552.08</ele>
<time>2016-10-19T09:59:28Z</time>
</trkpt>
<trkpt lat="39.7276532" lon="2.7305408">
<ele>551.18</ele>
<time>2016-10-19T09:59:40Z</time>
</trkpt>
<trkpt lat="39.7275147" lon="2.7307214">
<ele>551.60</ele>
<time>2016-10-19T09:59:50Z</time>
</trkpt>
<trkpt lat="39.7273591" lon="2.7308502">
<ele>552.18</ele>
<time>2016-10-19T09:59:59Z</time>
</trkpt>
<trkpt lat="39.7272763" lon="2.7310664">
<ele>555.91</ele>
<time>2016-10-19T10:00:34Z</time>
</trkpt>
<trkpt lat="39.7271476" lon="2.7312481">
<ele>560.92</ele>
<time>2016-10-19T10:00:54Z</time>
</trkpt>
<trkpt lat="39.7270787" lon="2.7314790">
<ele>562.11</ele>
<time>2016-10-19T10:01:06Z</time>
</trkpt>
<trkpt lat="39.7269685" lon="2.7317041">
<ele>553.15</ele>
<time>2016-10-19T10:04:33Z</time>
</trkpt>
<trkpt lat="39.7268305" lon="2.7318788">
<ele>555.51</ele>
<time>2016-10-19T10:04:38Z</time>
</trkpt>
<trkpt lat="39.7266903" lon="2.7320410">
<ele>557.07</ele>
<time>2016-10-19T10:04:42Z</time>
</trkpt>
<trkpt lat="39.7266980" lon="2.7323026">
<ele>558.69</ele>
<time>2016-10-19T10:04:47Z</time>
</trkpt>
<trkpt lat="39.7267539" lon="2.7325425">
<ele>563.44</ele>
<time>2016-10-19T10:04:53Z</time>
</trkpt>
<trkpt lat="39.7267201" lon="2.7327792">
<ele>563.79</ele>
<time>2016-10-19T10:04:56Z</time>
</trkpt>
<trkpt lat="39.7268130" lon="2.7330652">
<ele>564.47</ele>
<time>2016-10-19T10:04:59Z</time>
</trkpt>
<trkpt lat="39.7268639" lon="2.7333448">
<ele>566.39</ele>
<time>2016-10-19T10:05:02Z</time>
</trkpt>
<trkpt lat="39.7268852" lon="2.7335790">
<ele>565.82</ele>
<time>2016-10-19T10:05:06Z</time>
</trkpt>
<trkpt lat="39.7270026" lon="2.7338056">
<ele>566.93</ele>
<time>2016-10-19T10:05:09Z</time>
</trkpt>
<trkpt lat="39.7270099" lon="2.7341140">
<ele>568.94</ele>
<time>2016-10-19T10:05:12Z</time>
</trkpt>
<trkpt lat="39.7269465" lon="2.7344373">
<ele>563.50</ele>
<time>2016-10-19T10:05:15Z</time>
</trkpt>
<trkpt lat="39.7269469" lon="2.7346831">
<ele>558.26</ele>
<time>2016-10-19T10:05:19Z</time>
</trkpt>
<trkpt lat="39.7270005" lon="2.7344512">
<ele>557.49</ele>
<time>2016-10-19T10:05:31Z</time>
</trkpt>
<trkpt lat="39.7271043" lon="2.7342064">
<ele>557.37</ele>
<time>2016-10-19T10:05:35Z</time>
</trkpt>
<trkpt lat="39.7273010" lon="2.7342730">
<ele>554.89</ele>
<time>2016-10-19T10:05:40Z</time>
</trkpt>
<trkpt lat="39.7274442" lon="2.7344721">
<ele>551.90</ele>
<time>2016-10-19T10:05:43Z</time>
</trkpt>
<trkpt lat="39.7275050" lon="2.7347624">
<ele>547.88</ele>
<time>2016-10-19T10:05:47Z</time>
</trkpt>
<trkpt lat="39.7274269" lon="2.7349909">
<ele>544.85</ele>
<time>2016-10-19T10:05:49Z</time>
</trkpt>
<trkpt lat="39.7273395" lon="2.7352451">
<ele>539.83</ele>
<time>2016-10-19T10:05:52Z</time>
</trkpt>
<trkpt lat="39.7273134" lon="2.7354951">
<ele>538.28</ele>
<time>2016-10-19T10:05:58Z</time>
</trkpt>
<trkpt lat="39.7275082" lon="2.7353397">
<ele>538.56</ele>
<time>2016-10-19T10:06:06Z</time>
</trkpt>
<trkpt lat="39.7276820" lon="2.7352679">
<ele>538.05</ele>
<time>2016-10-19T10:06:09Z</time>
</trkpt>
<trkpt lat="39.7276610" lon="2.7355381">
<ele>539.26</ele>
<time>2016-10-19T10:06:21Z</time>
</trkpt>
<trkpt lat="39.7278490" lon="2.7354096">
<ele>533.14</ele>
<time>2016-10-19T10:06:43Z</time>
</trkpt>
<trkpt lat="39.7280819" lon="2.7353478">
<ele>531.66</ele>
<time>2016-10-19T10:06:47Z</time>
</trkpt>
<trkpt lat="39.7283192" lon="2.7353152">
<ele>531.26</ele>
<time>2016-10-19T10:06:52Z</time>
</trkpt>
<trkpt lat="39.7285521" lon="2.7353985">
<ele>532.78</ele>
<time>2016-10-19T10:06:56Z</time>
</trkpt>
<trkpt lat="39.7287453" lon="2.7354958">
<ele>531.97</ele>
<time>2016-10-19T10:06:59Z</time>
</trkpt>
<trkpt lat="39.7289630" lon="2.7355415">
<ele>529.30</ele>
<time>2016-10-19T10:07:02Z</time>
</trkpt>
<trkpt lat="39.7291720" lon="2.7355358">
<ele>527.33</ele>
<time>2016-10-19T10:07:05Z</time>
</trkpt>
<trkpt lat="39.7293810" lon="2.7355555">
<ele>525.71</ele>
<time>2016-10-19T10:07:10Z</time>
</trkpt>
<trkpt lat="39.7294224" lon="2.7357931">
<ele>520.12</ele>
<time>2016-10-19T10:07:14Z</time>
</trkpt>
<trkpt lat="39.7292484" lon="2.7359211">
<ele>513.39</ele>
<time>2016-10-19T10:07:19Z</time>
</trkpt>
<trkpt lat="39.7294697" lon="2.7359255">
<ele>509.76</ele>
<time>2016-10-19T10:07:33Z</time>
</trkpt>
<trkpt lat="39.7296616" lon="2.7359173">
<ele>508.81</ele>
<time>2016-10-19T10:07:36Z</time>
</trkpt>
<trkpt lat="39.7298553" lon="2.7358516">
<ele>506.63</ele>
<time>2016-10-19T10:07:40Z</time>
</trkpt>
<trkpt lat="39.7300581" lon="2.7357872">
<ele>505.36</ele>
<time>2016-10-19T10:07:44Z</time>
</trkpt>
<trkpt lat="39.7302467" lon="2.7357574">
<ele>504.74</ele>
<time>2016-10-19T10:07:48Z</time>
</trkpt>
<trkpt lat="39.7304236" lon="2.7358797">
<ele>499.11</ele>
<time>2016-10-19T10:07:58Z</time>
</trkpt>
<trkpt lat="39.7302607" lon="2.7360997">
<ele>494.20</ele>
<time>2016-10-19T10:08:02Z</time>
</trkpt>
<trkpt lat="39.7300698" lon="2.7362478">
<ele>492.62</ele>
<time>2016-10-19T10:08:05Z</time>
</trkpt>
<trkpt lat="39.7298729" lon="2.7363864">
<ele>490.10</ele>
<time>2016-10-19T10:08:08Z</time>
</trkpt>
<trkpt lat="39.7296775" lon="2.7365276">
<ele>486.78</ele>
<time>2016-10-19T10:08:11Z</time>
</trkpt>
<trkpt lat="39.7294931" lon="2.7366659">
<ele>483.20</ele>
<time>2016-10-19T10:08:15Z</time>
</trkpt>
<trkpt lat="39.7296589" lon="2.7365638">
<ele>481.40</ele>
<time>2016-10-19T10:08:24Z</time>
</trkpt>
<trkpt lat="39.7298782" lon="2.7364740">
<ele>480.74</ele>
<time>2016-10-19T10:08:28Z</time>
</trkpt>
<trkpt lat="39.7300910" lon="2.7364455">
<ele>484.04</ele>
<time>2016-10-19T10:08:31Z</time>
</trkpt>
<trkpt lat="39.7303305" lon="2.7364271">
<ele>482.06</ele>
<time>2016-10-19T10:08:34Z</time>
</trkpt>
<trkpt lat="39.7305191" lon="2.7363954">
<ele>482.56</ele>
<time>2016-10-19T10:08:36Z</time>
</trkpt>
<trkpt lat="39.7307086" lon="2.7363520">
<ele>483.42</ele>
<time>2016-10-19T10:08:38Z</time>
</trkpt>
<trkpt lat="39.7308975" lon="2.7363284">
<ele>484.00</ele>
<time>2016-10-19T10:08:40Z</time>
</trkpt>
<trkpt lat="39.7310791" lon="2.7363125">
<ele>482.92</ele>
<time>2016-10-19T10:08:42Z</time>
</trkpt>
<trkpt lat="39.7312664" lon="2.7362801">
<ele>480.99</ele>
<time>2016-10-19T10:08:44Z</time>
</trkpt>
<trkpt lat="39.7314489" lon="2.7362374">
<ele>477.61</ele>
<time>2016-10-19T10:08:46Z</time>
</trkpt>
<trkpt lat="39.7316309" lon="2.7361931">
<ele>474.06</ele>
<time>2016-10-19T10:08:48Z</time>
</trkpt>
<trkpt lat="39.7318809" lon="2.7361261">
<ele>470.11</ele>
<time>2016-10-19T10:08:51Z</time>
</trkpt>
<trkpt lat="39.7321196" lon="2.7360985">
<ele>466.45</ele>
<time>2016-10-19T10:08:54Z</time>
</trkpt>
<trkpt lat="39.7323335" lon="2.7360973">
<ele>462.09</ele>
<time>2016-10-19T10:08:57Z</time>
</trkpt>
<trkpt lat="39.7325234" lon="2.7361706">
<ele>458.41</ele>
<time>2016-10-19T10:09:00Z</time>
</trkpt>
<trkpt lat="39.7326426" lon="2.7364065">
<ele>456.07</ele>
<time>2016-10-19T10:09:03Z</time>
</trkpt>
<trkpt lat="39.7327029" lon="2.7367189">
<ele>457.97</ele>
<time>2016-10-19T10:09:06Z</time>
</trkpt>
<trkpt lat="39.7327461" lon="2.7369898">
<ele>457.61</ele>
<time>2016-10-19T10:09:08Z</time>
</trkpt>
<trkpt lat="39.7327932" lon="2.7372375">
<ele>457.33</ele>
<time>2016-10-19T10:09:10Z</time>
</trkpt>
<trkpt lat="39.7328554" lon="2.7375651">
<ele>456.94</ele>
<time>2016-10-19T10:09:13Z</time>
</trkpt>
<trkpt lat="39.7329242" lon="2.7378810">
<ele>456.62</ele>
<time>2016-10-19T10:09:16Z</time>
</trkpt>
<trkpt lat="39.7329660" lon="2.7381780">
<ele>455.29</ele>
<time>2016-10-19T10:09:19Z</time>
</trkpt>
<trkpt lat="39.7330011" lon="2.7384625">
<ele>453.19</ele>
<time>2016-10-19T10:09:22Z</time>
</trkpt>
<trkpt lat="39.7330295" lon="2.7387487">
<ele>450.47</ele>
<time>2016-10-19T10:09:25Z</time>
</trkpt>
<trkpt lat="39.7330673" lon="2.7390194">
<ele>448.11</ele>
<time>2016-10-19T10:09:28Z</time>
</trkpt>
<trkpt lat="39.7330889" lon="2.7392840">
<ele>447.48</ele>
<time>2016-10-19T10:09:31Z</time>
</trkpt>
<trkpt lat="39.7331018" lon="2.7395619">
<ele>447.51</ele>
<time>2016-10-19T10:09:34Z</time>
</trkpt>
<trkpt lat="39.7331243" lon="2.7398464">
<ele>445.53</ele>
<time>2016-10-19T10:09:37Z</time>
</trkpt>
<trkpt lat="39.7331423" lon="2.7401453">
<ele>443.46</ele>
<time>2016-10-19T10:09:40Z</time>
</trkpt>
<trkpt lat="39.7331376" lon="2.7403948">
<ele>443.84</ele>
<time>2016-10-19T10:09:43Z</time>
</trkpt>
<trkpt lat="39.7330595" lon="2.7406079">
<ele>446.06</ele>
<time>2016-10-19T10:09:47Z</time>
</trkpt>
<trkpt lat="39.7329324" lon="2.7407863">
<ele>445.46</ele>
<time>2016-10-19T10:09:51Z</time>
</trkpt>
<trkpt lat="39.7328941" lon="2.7410423">
<ele>446.83</ele>
<time>2016-10-19T10:09:57Z</time>
</trkpt>
<trkpt lat="39.7328748" lon="2.7413491">
<ele>447.33</ele>
<time>2016-10-19T10:10:01Z</time>
</trkpt>
<trkpt lat="39.7327810" lon="2.7415643">
<ele>446.28</ele>
<time>2016-10-19T10:10:04Z</time>
</trkpt>
<trkpt lat="39.7326646" lon="2.7417976">
<ele>446.01</ele>
<time>2016-10-19T10:10:08Z</time>
</trkpt>
<trkpt lat="39.7325783" lon="2.7420530">
<ele>446.58</ele>
<time>2016-10-19T10:10:12Z</time>
</trkpt>
<trkpt lat="39.7326414" lon="2.7422912">
<ele>446.66</ele>
<time>2016-10-19T10:10:20Z</time>
</trkpt>
<trkpt lat="39.7327380" lon="2.7425493">
<ele>446.69</ele>
<time>2016-10-19T10:10:24Z</time>
</trkpt>
<trkpt lat="39.7328283" lon="2.7427521">
<ele>447.31</ele>
<time>2016-10-19T10:10:27Z</time>
</trkpt>
<trkpt lat="39.7329775" lon="2.7429357">
<ele>446.49</ele>
<time>2016-10-19T10:10:31Z</time>
</trkpt>
<trkpt lat="39.7329783" lon="2.7433011">
<ele>445.37</ele>
<time>2016-10-19T10:10:34Z</time>
</trkpt>
<trkpt lat="39.7329889" lon="2.7436290">
<ele>442.56</ele>
<time>2016-10-19T10:10:37Z</time>
</trkpt>
<trkpt lat="39.7329721" lon="2.7439132">
<ele>439.74</ele>
<time>2016-10-19T10:10:40Z</time>
</trkpt>
<trkpt lat="39.7329644" lon="2.7442406">
<ele>437.26</ele>
<time>2016-10-19T10:10:43Z</time>
</trkpt>
<trkpt lat="39.7329531" lon="2.7444753">
<ele>435.83</ele>
<time>2016-10-19T10:10:45Z</time>
</trkpt>
<trkpt lat="39.7329321" lon="2.7448320">
<ele>431.34</ele>
<time>2016-10-19T10:10:48Z</time>
</trkpt>
<trkpt lat="39.7329146" lon="2.7450819">
<ele>428.55</ele>
<time>2016-10-19T10:10:50Z</time>
</trkpt>
<trkpt lat="39.7328929" lon="2.7453215">
<ele>426.73</ele>
<time>2016-10-19T10:10:52Z</time>
</trkpt>
<trkpt lat="39.7328797" lon="2.7455750">
<ele>425.61</ele>
<time>2016-10-19T10:10:54Z</time>
</trkpt>
<trkpt lat="39.7328645" lon="2.7459038">
<ele>424.92</ele>
<time>2016-10-19T10:10:57Z</time>
</trkpt>
<trkpt lat="39.7329264" lon="2.7461863">
<ele>423.88</ele>
<time>2016-10-19T10:11:00Z</time>
</trkpt>
<trkpt lat="39.7330335" lon="2.7464261">
<ele>422.46</ele>
<time>2016-10-19T10:11:03Z</time>
</trkpt>
<trkpt lat="39.7331340" lon="2.7466631">
<ele>422.77</ele>
<time>2016-10-19T10:11:06Z</time>
</trkpt>
<trkpt lat="39.7332196" lon="2.7469147">
<ele>423.41</ele>
<time>2016-10-19T10:11:09Z</time>
</trkpt>
<trkpt lat="39.7332877" lon="2.7471364">
<ele>423.21</ele>
<time>2016-10-19T10:11:12Z</time>
</trkpt>
<trkpt lat="39.7334192" lon="2.7473422">
<ele>423.99</ele>
<time>2016-10-19T10:11:16Z</time>
</trkpt>
<trkpt lat="39.7335528" lon="2.7475065">
<ele>425.33</ele>
<time>2016-10-19T10:11:19Z</time>
</trkpt>
<trkpt lat="39.7337218" lon="2.7477037">
<ele>424.05</ele>
<time>2016-10-19T10:11:23Z</time>
</trkpt>
<trkpt lat="39.7338756" lon="2.7479484">
<ele>420.25</ele>
<time>2016-10-19T10:11:27Z</time>
</trkpt>
<trkpt lat="39.7340201" lon="2.7481660">
<ele>417.94</ele>
<time>2016-10-19T10:11:31Z</time>
</trkpt>
<trkpt lat="39.7341664" lon="2.7483843">
<ele>417.85</ele>
<time>2016-10-19T10:11:36Z</time>
</trkpt>
<trkpt lat="39.7343203" lon="2.7485925">
<ele>417.09</ele>
<time>2016-10-19T10:11:41Z</time>
</trkpt>
<trkpt lat="39.7344515" lon="2.7488435">
<ele>420.04</ele>
<time>2016-10-19T10:11:45Z</time>
</trkpt>
<trkpt lat="39.7345399" lon="2.7490872">
<ele>420.63</ele>
<time>2016-10-19T10:11:48Z</time>
</trkpt>
<trkpt lat="39.7346156" lon="2.7493205">
<ele>419.75</ele>
<time>2016-10-19T10:11:51Z</time>
</trkpt>
<trkpt lat="39.7347156" lon="2.7495441">
<ele>419.39</ele>
<time>2016-10-19T10:11:54Z</time>
</trkpt>
<trkpt lat="39.7348062" lon="2.7497701">
<ele>421.13</ele>
<time>2016-10-19T10:11:57Z</time>
</trkpt>
<trkpt lat="39.7349322" lon="2.7500335">
<ele>422.43</ele>
<time>2016-10-19T10:12:01Z</time>
</trkpt>
<trkpt lat="39.7350234" lon="2.7502450">
<ele>421.67</ele>
<time>2016-10-19T10:12:04Z</time>
</trkpt>
<trkpt lat="39.7351211" lon="2.7505113">
<ele>420.45</ele>
<time>2016-10-19T10:12:08Z</time>
</trkpt>
<trkpt lat="39.7351791" lon="2.7507551">
<ele>420.26</ele>
<time>2016-10-19T10:12:11Z</time>
</trkpt>
<trkpt lat="39.7352209" lon="2.7509845">
<ele>420.97</ele>
<time>2016-10-19T10:12:14Z</time>
</trkpt>
<trkpt lat="39.7352479" lon="2.7512997">
<ele>421.62</ele>
<time>2016-10-19T10:12:18Z</time>
</trkpt>
<trkpt lat="39.7352618" lon="2.7515840">
<ele>420.32</ele>
<time>2016-10-19T10:12:22Z</time>
</trkpt>
<trkpt lat="39.7352574" lon="2.7518649">
<ele>422.95</ele>
<time>2016-10-19T10:12:26Z</time>
</trkpt>
<trkpt lat="39.7352402" lon="2.7521641">
<ele>424.84</ele>
<time>2016-10-19T10:12:30Z</time>
</trkpt>
<trkpt lat="39.7352249" lon="2.7524080">
<ele>425.76</ele>
<time>2016-10-19T10:12:33Z</time>
</trkpt>
<trkpt lat="39.7352078" lon="2.7526505">
<ele>425.97</ele>
<time>2016-10-19T10:12:36Z</time>
</trkpt>
<trkpt lat="39.7351888" lon="2.7528873">
<ele>425.72</ele>
<time>2016-10-19T10:12:39Z</time>
</trkpt>
<trkpt lat="39.7351741" lon="2.7531771">
<ele>425.43</ele>
<time>2016-10-19T10:12:43Z</time>
</trkpt>
<trkpt lat="39.7351733" lon="2.7534246">
<ele>424.56</ele>
<time>2016-10-19T10:12:47Z</time>
</trkpt>
<trkpt lat="39.7351888" lon="2.7537176">
<ele>426.65</ele>
<time>2016-10-19T10:12:52Z</time>
</trkpt>
<trkpt lat="39.7351865" lon="2.7539888">
<ele>425.78</ele>
<time>2016-10-19T10:12:56Z</time>
</trkpt>
<trkpt lat="39.7351987" lon="2.7542832">
<ele>425.57</ele>
<time>2016-10-19T10:13:00Z</time>
</trkpt>
<trkpt lat="39.7352713" lon="2.7545002">
<ele>425.60</ele>
<time>2016-10-19T10:13:03Z</time>
</trkpt>
<trkpt lat="39.7353500" lon="2.7547915">
<ele>424.49</ele>
<time>2016-10-19T10:13:07Z</time>
</trkpt>
<trkpt lat="39.7354221" lon="2.7550117">
<ele>424.45</ele>
<time>2016-10-19T10:13:10Z</time>
</trkpt>
<trkpt lat="39.7355209" lon="2.7552666">
<ele>422.75</ele>
<time>2016-10-19T10:13:14Z</time>
</trkpt>
<trkpt lat="39.7356056" lon="2.7555190">
<ele>421.04</ele>
<time>2016-10-19T10:13:18Z</time>
</trkpt>
<trkpt lat="39.7356725" lon="2.7557648">
<ele>421.21</ele>
<time>2016-10-19T10:13:22Z</time>
</trkpt>
<trkpt lat="39.7357498" lon="2.7560258">
<ele>421.80</ele>
<time>2016-10-19T10:13:26Z</time>
</trkpt>
<trkpt lat="39.7358133" lon="2.7562553">
<ele>423.21</ele>
<time>2016-10-19T10:13:30Z</time>
</trkpt>
<trkpt lat="39.7358714" lon="2.7565083">
<ele>424.56</ele>
<time>2016-10-19T10:13:34Z</time>
</trkpt>
<trkpt lat="39.7358757" lon="2.7567439">
<ele>426.11</ele>
<time>2016-10-19T10:13:38Z</time>
</trkpt>
<trkpt lat="39.7358694" lon="2.7569964">
<ele>426.14</ele>
<time>2016-10-19T10:13:42Z</time>
</trkpt>
<trkpt lat="39.7358165" lon="2.7572417">
<ele>425.89</ele>
<time>2016-10-19T10:13:46Z</time>
</trkpt>
<trkpt lat="39.7357094" lon="2.7574445">
<ele>426.73</ele>
<time>2016-10-19T10:13:51Z</time>
</trkpt>
<trkpt lat="39.7356850" lon="2.7576884">
<ele>427.07</ele>
<time>2016-10-19T10:13:57Z</time>
</trkpt>
<trkpt lat="39.7355712" lon="2.7578762">
<ele>427.10</ele>
<time>2016-10-19T10:14:05Z</time>
</trkpt>
<trkpt lat="39.7354174" lon="2.7580663">
<ele>427.80</ele>
<time>2016-10-19T10:14:11Z</time>
</trkpt>
<trkpt lat="39.7353555" lon="2.7583109">
<ele>429.41</ele>
<time>2016-10-19T10:14:20Z</time>
</trkpt>
<trkpt lat="39.7354051" lon="2.7585365">
<ele>430.89</ele>
<time>2016-10-19T10:14:32Z</time>
</trkpt>
<trkpt lat="39.7354629" lon="2.7587731">
<ele>433.74</ele>
<time>2016-10-19T10:14:43Z</time>
</trkpt>
<trkpt lat="39.7354996" lon="2.7590172">
<ele>436.12</ele>
<time>2016-10-19T10:14:53Z</time>
</trkpt>
<trkpt lat="39.7355574" lon="2.7592558">
<ele>438.84</ele>
<time>2016-10-19T10:15:02Z</time>
</trkpt>
<trkpt lat="39.7355291" lon="2.7594902">
<ele>440.53</ele>
<time>2016-10-19T10:15:11Z</time>
</trkpt>
<trkpt lat="39.7354015" lon="2.7597654">
<ele>447.37</ele>
<time>2016-10-19T10:16:08Z</time>
</trkpt>
<trkpt lat="39.7352595" lon="2.7599864">
<ele>448.91</ele>
<time>2016-10-19T10:17:15Z</time>
</trkpt>
<trkpt lat="39.7351159" lon="2.7601479">
<ele>451.29</ele>
<time>2016-10-19T10:17:27Z</time>
</trkpt>
<trkpt lat="39.7349609" lon="2.7603063">
<ele>452.68</ele>
<time>2016-10-19T10:17:35Z</time>
</trkpt>
<trkpt lat="39.7348041" lon="2.7604235">
<ele>453.74</ele>
<time>2016-10-19T10:17:42Z</time>
</trkpt>
<trkpt lat="39.7346257" lon="2.7605343">
<ele>454.85</ele>
<time>2016-10-19T10:17:50Z</time>
</trkpt>
<trkpt lat="39.7344756" lon="2.7606999">
<ele>455.62</ele>
<time>2016-10-19T10:17:57Z</time>
</trkpt>
<trkpt lat="39.7343214" lon="2.7608519">
<ele>455.72</ele>
<time>2016-10-19T10:18:04Z</time>
</trkpt>
<trkpt lat="39.7341664" lon="2.7609758">
<ele>455.61</ele>
<time>2016-10-19T10:18:11Z</time>
</trkpt>
<trkpt lat="39.7340006" lon="2.7611279">
<ele>456.24</ele>
<time>2016-10-19T10:18:18Z</time>
</trkpt>
<trkpt lat="39.7338499" lon="2.7612599">
<ele>456.82</ele>
<time>2016-10-19T10:18:24Z</time>
</trkpt>
<trkpt lat="39.7337090" lon="2.7614194">
<ele>457.55</ele>
<time>2016-10-19T10:18:30Z</time>
</trkpt>
<trkpt lat="39.7335682" lon="2.7615666">
<ele>458.34</ele>
<time>2016-10-19T10:18:36Z</time>
</trkpt>
<trkpt lat="39.7334131" lon="2.7617385">
<ele>458.95</ele>
<time>2016-10-19T10:18:44Z</time>
</trkpt>
<trkpt lat="39.7332335" lon="2.7617553">
<ele>459.57</ele>
<time>2016-10-19T10:18:55Z</time>
</trkpt>
<trkpt lat="39.7331525" lon="2.7615209">
<ele>462.54</ele>
<time>2016-10-19T10:19:02Z</time>
</trkpt>
<trkpt lat="39.7330784" lon="2.7612985">
<ele>465.78</ele>
<time>2016-10-19T10:19:10Z</time>
</trkpt>
<trkpt lat="39.7329687" lon="2.7610819">
<ele>468.79</ele>
<time>2016-10-19T10:19:18Z</time>
</trkpt>
<trkpt lat="39.7328553" lon="2.7612874">
<ele>470.53</ele>
<time>2016-10-19T10:19:29Z</time>
</trkpt>
<trkpt lat="39.7327917" lon="2.7615346">
<ele>470.58</ele>
<time>2016-10-19T10:19:36Z</time>
</trkpt>
<trkpt lat="39.7327260" lon="2.7617836">
<ele>470.96</ele>
<time>2016-10-19T10:19:44Z</time>
</trkpt>
<trkpt lat="39.7326887" lon="2.7620380">
<ele>471.25</ele>
<time>2016-10-19T10:19:52Z</time>
</trkpt>
<trkpt lat="39.7326355" lon="2.7622645">
<ele>471.55</ele>
<time>2016-10-19T10:19:59Z</time>
</trkpt>
<trkpt lat="39.7325895" lon="2.7625087">
<ele>472.10</ele>
<time>2016-10-19T10:20:06Z</time>
</trkpt>
<trkpt lat="39.7325236" lon="2.7627424">
<ele>472.92</ele>
<time>2016-10-19T10:20:14Z</time>
</trkpt>
<trkpt lat="39.7324294" lon="2.7629494">
<ele>473.66</ele>
<time>2016-10-19T10:20:21Z</time>
</trkpt>
<trkpt lat="39.7323659" lon="2.7631750">
<ele>474.80</ele>
<time>2016-10-19T10:20:28Z</time>
</trkpt>
<trkpt lat="39.7323280" lon="2.7634477">
<ele>475.87</ele>
<time>2016-10-19T10:20:35Z</time>
</trkpt>
<trkpt lat="39.7323281" lon="2.7637092">
<ele>477.55</ele>
<time>2016-10-19T10:20:40Z</time>
</trkpt>
<trkpt lat="39.7323724" lon="2.7639428">
<ele>479.01</ele>
<time>2016-10-19T10:20:44Z</time>
</trkpt>
<trkpt lat="39.7324711" lon="2.7641921">
<ele>479.30</ele>
<time>2016-10-19T10:20:48Z</time>
</trkpt>
<trkpt lat="39.7325981" lon="2.7644447">
<ele>478.61</ele>
<time>2016-10-19T10:20:52Z</time>
</trkpt>
<trkpt lat="39.7327424" lon="2.7646744">
<ele>479.43</ele>
<time>2016-10-19T10:20:56Z</time>
</trkpt>
<trkpt lat="39.7328593" lon="2.7648536">
<ele>479.66</ele>
<time>2016-10-19T10:21:01Z</time>
</trkpt>
<trkpt lat="39.7330034" lon="2.7650479">
<ele>480.10</ele>
<time>2016-10-19T10:21:08Z</time>
</trkpt>
<trkpt lat="39.7331466" lon="2.7652152">
<ele>480.67</ele>
<time>2016-10-19T10:21:18Z</time>
</trkpt>
<trkpt lat="39.7333119" lon="2.7653445">
<ele>482.84</ele>
<time>2016-10-19T10:21:27Z</time>
</trkpt>
<trkpt lat="39.7334613" lon="2.7655485">
<ele>487.51</ele>
<time>2016-10-19T10:21:34Z</time>
</trkpt>
<trkpt lat="39.7335189" lon="2.7658034">
<ele>493.41</ele>
<time>2016-10-19T10:21:39Z</time>
</trkpt>
<trkpt lat="39.7335598" lon="2.7660355">
<ele>491.01</ele>
<time>2016-10-19T10:21:43Z</time>
</trkpt>
<trkpt lat="39.7336086" lon="2.7662907">
<ele>490.23</ele>
<time>2016-10-19T10:21:48Z</time>
</trkpt>
<trkpt lat="39.7336385" lon="2.7665358">
<ele>490.01</ele>
<time>2016-10-19T10:21:53Z</time>
</trkpt>
<trkpt lat="39.7337062" lon="2.7668110">
<ele>490.06</ele>
<time>2016-10-19T10:21:58Z</time>
</trkpt>
<trkpt lat="39.7337205" lon="2.7670764">
<ele>489.87</ele>
<time>2016-10-19T10:22:02Z</time>
</trkpt>
<trkpt lat="39.7337313" lon="2.7673505">
<ele>489.91</ele>
<time>2016-10-19T10:22:06Z</time>
</trkpt>
<trkpt lat="39.7337547" lon="2.7676307">
<ele>491.07</ele>
<time>2016-10-19T10:22:10Z</time>
</trkpt>
<trkpt lat="39.7337857" lon="2.7679473">
<ele>491.19</ele>
<time>2016-10-19T10:22:14Z</time>
</trkpt>
<trkpt lat="39.7338365" lon="2.7681888">
<ele>490.34</ele>
<time>2016-10-19T10:22:17Z</time>
</trkpt>
<trkpt lat="39.7339093" lon="2.7684460">
<ele>488.46</ele>
<time>2016-10-19T10:22:20Z</time>
</trkpt>
<trkpt lat="39.7339896" lon="2.7686954">
<ele>487.70</ele>
<time>2016-10-19T10:22:23Z</time>
</trkpt>
<trkpt lat="39.7340664" lon="2.7689235">
<ele>486.94</ele>
<time>2016-10-19T10:22:26Z</time>
</trkpt>
<trkpt lat="39.7341700" lon="2.7691177">
<ele>486.54</ele>
<time>2016-10-19T10:22:29Z</time>
</trkpt>
<trkpt lat="39.7342911" lon="2.7693113">
<ele>486.72</ele>
<time>2016-10-19T10:22:32Z</time>
</trkpt>
<trkpt lat="39.7344179" lon="2.7695348">
<ele>486.04</ele>
<time>2016-10-19T10:22:35Z</time>
</trkpt>
<trkpt lat="39.7345496" lon="2.7697707">
<ele>484.45</ele>
<time>2016-10-19T10:22:38Z</time>
</trkpt>
<trkpt lat="39.7346722" lon="2.7699987">
<ele>483.43</ele>
<time>2016-10-19T10:22:41Z</time>
</trkpt>
<trkpt lat="39.7347963" lon="2.7702183">
<ele>482.56</ele>
<time>2016-10-19T10:22:44Z</time>
</trkpt>
<trkpt lat="39.7349154" lon="2.7704406">
<ele>482.16</ele>
<time>2016-10-19T10:22:47Z</time>
</trkpt>
<trkpt lat="39.7350345" lon="2.7706900">
<ele>482.61</ele>
<time>2016-10-19T10:22:51Z</time>
</trkpt>
<trkpt lat="39.7351218" lon="2.7709248">
<ele>484.04</ele>
<time>2016-10-19T10:22:55Z</time>
</trkpt>
<trkpt lat="39.7351968" lon="2.7711706">
<ele>485.23</ele>
<time>2016-10-19T10:22:59Z</time>
</trkpt>
<trkpt lat="39.7352596" lon="2.7714389">
<ele>486.95</ele>
<time>2016-10-19T10:23:02Z</time>
</trkpt>
<trkpt lat="39.7353488" lon="2.7716923">
<ele>489.45</ele>
<time>2016-10-19T10:23:06Z</time>
</trkpt>
<trkpt lat="39.7354554" lon="2.7719300">
<ele>490.59</ele>
<time>2016-10-19T10:23:10Z</time>
</trkpt>
<trkpt lat="39.7355535" lon="2.7721278">
<ele>490.98</ele>
<time>2016-10-19T10:23:14Z</time>
</trkpt>
<trkpt lat="39.7356572" lon="2.7723323">
<ele>491.07</ele>
<time>2016-10-19T10:23:18Z</time>
</trkpt>
<trkpt lat="39.7357571" lon="2.7725656">
<ele>490.76</ele>
<time>2016-10-19T10:23:23Z</time>
</trkpt>
<trkpt lat="39.7358304" lon="2.7728046">
<ele>489.33</ele>
<time>2016-10-19T10:23:27Z</time>
</trkpt>
<trkpt lat="39.7359132" lon="2.7730641">
<ele>486.92</ele>
<time>2016-10-19T10:23:31Z</time>
</trkpt>
<trkpt lat="39.7359807" lon="2.7733601">
<ele>486.69</ele>
<time>2016-10-19T10:23:35Z</time>
</trkpt>
<trkpt lat="39.7360584" lon="2.7736434">
<ele>486.85</ele>
<time>2016-10-19T10:23:39Z</time>
</trkpt>
<trkpt lat="39.7361357" lon="2.7738606">
<ele>486.89</ele>
<time>2016-10-19T10:23:42Z</time>
</trkpt>
<trkpt lat="39.7362350" lon="2.7741162">
<ele>487.43</ele>
<time>2016-10-19T10:23:46Z</time>
</trkpt>
<trkpt lat="39.7363345" lon="2.7743469">
<ele>488.84</ele>
<time>2016-10-19T10:23:50Z</time>
</trkpt>
<trkpt lat="39.7364380" lon="2.7745600">
<ele>490.81</ele>
<time>2016-10-19T10:23:54Z</time>
</trkpt>
<trkpt lat="39.7365442" lon="2.7747913">
<ele>494.38</ele>
<time>2016-10-19T10:23:59Z</time>
</trkpt>
<trkpt lat="39.7365995" lon="2.7750483">
<ele>497.04</ele>
<time>2016-10-19T10:24:04Z</time>
</trkpt>
<trkpt lat="39.7366075" lon="2.7752938">
<ele>497.86</ele>
<time>2016-10-19T10:24:09Z</time>
</trkpt>
<trkpt lat="39.7365940" lon="2.7755686">
<ele>497.48</ele>
<time>2016-10-19T10:24:13Z</time>
</trkpt>
<trkpt lat="39.7366117" lon="2.7758577">
<ele>496.37</ele>
<time>2016-10-19T10:24:16Z</time>
</trkpt>
<trkpt lat="39.7366831" lon="2.7761101">
<ele>495.94</ele>
<time>2016-10-19T10:24:19Z</time>
</trkpt>
<trkpt lat="39.7368313" lon="2.7763433">
<ele>496.26</ele>
<time>2016-10-19T10:24:22Z</time>
</trkpt>
<trkpt lat="39.7369425" lon="2.7765346">
<ele>495.51</ele>
<time>2016-10-19T10:24:24Z</time>
</trkpt>
<trkpt lat="39.7370415" lon="2.7767371">
<ele>494.08</ele>
<time>2016-10-19T10:24:26Z</time>
</trkpt>
<trkpt lat="39.7371685" lon="2.7769399">
<ele>492.20</ele>
<time>2016-10-19T10:24:28Z</time>
</trkpt>
<trkpt lat="39.7373155" lon="2.7771322">
<ele>490.51</ele>
<time>2016-10-19T10:24:30Z</time>
</trkpt>
<trkpt lat="39.7374616" lon="2.7773091">
<ele>488.56</ele>
<time>2016-10-19T10:24:32Z</time>
</trkpt>
<trkpt lat="39.7375973" lon="2.7775024">
<ele>486.15</ele>
<time>2016-10-19T10:24:34Z</time>
</trkpt>
<trkpt lat="39.7377142" lon="2.7777046">
<ele>483.61</ele>
<time>2016-10-19T10:24:36Z</time>
</trkpt>
<trkpt lat="39.7377767" lon="2.7779624">
<ele>481.53</ele>
<time>2016-10-19T10:24:38Z</time>
</trkpt>
<trkpt lat="39.7378454" lon="2.7782246">
<ele>480.18</ele>
<time>2016-10-19T10:24:40Z</time>
</trkpt>
<trkpt lat="39.7379352" lon="2.7784784">
<ele>478.72</ele>
<time>2016-10-19T10:24:42Z</time>
</trkpt>
<trkpt lat="39.7380782" lon="2.7787052">
<ele>477.98</ele>
<time>2016-10-19T10:24:44Z</time>
</trkpt>
<trkpt lat="39.7382345" lon="2.7789306">
<ele>476.78</ele>
<time>2016-10-19T10:24:46Z</time>
</trkpt>
<trkpt lat="39.7383975" lon="2.7791847">
<ele>475.14</ele>
<time>2016-10-19T10:24:48Z</time>
</trkpt>
<trkpt lat="39.7385682" lon="2.7794458">
<ele>472.43</ele>
<time>2016-10-19T10:24:50Z</time>
</trkpt>
<trkpt lat="39.7387252" lon="2.7797103">
<ele>469.95</ele>
<time>2016-10-19T10:24:52Z</time>
</trkpt>
<trkpt lat="39.7388648" lon="2.7799926">
<ele>468.58</ele>
<time>2016-10-19T10:24:54Z</time>
</trkpt>
<trkpt lat="39.7389944" lon="2.7802861">
<ele>467.53</ele>
<time>2016-10-19T10:24:56Z</time>
</trkpt>
<trkpt lat="39.7391596" lon="2.7805450">
<ele>466.65</ele>
<time>2016-10-19T10:24:58Z</time>
</trkpt>
<trkpt lat="39.7393604" lon="2.7807638">
<ele>465.44</ele>
<time>2016-10-19T10:25:00Z</time>
</trkpt>
<trkpt lat="39.7395530" lon="2.7809673">
<ele>464.12</ele>
<time>2016-10-19T10:25:02Z</time>
</trkpt>
<trkpt lat="39.7397454" lon="2.7811863">
<ele>462.78</ele>
<time>2016-10-19T10:25:04Z</time>
</trkpt>
<trkpt lat="39.7399176" lon="2.7814107">
<ele>462.10</ele>
<time>2016-10-19T10:25:06Z</time>
</trkpt>
<trkpt lat="39.7400817" lon="2.7816401">
<ele>461.87</ele>
<time>2016-10-19T10:25:08Z</time>
</trkpt>
<trkpt lat="39.7402464" lon="2.7818790">
<ele>461.43</ele>
<time>2016-10-19T10:25:10Z</time>
</trkpt>
<trkpt lat="39.7404077" lon="2.7821141">
<ele>460.75</ele>
<time>2016-10-19T10:25:12Z</time>
</trkpt>
<trkpt lat="39.7405531" lon="2.7823406">
<ele>460.73</ele>
<time>2016-10-19T10:25:14Z</time>
</trkpt>
<trkpt lat="39.7406911" lon="2.7825522">
<ele>460.80</ele>
<time>2016-10-19T10:25:16Z</time>
</trkpt>
<trkpt lat="39.7408242" lon="2.7827613">
<ele>460.24</ele>
<time>2016-10-19T10:25:18Z</time>
</trkpt>
<trkpt lat="39.7409441" lon="2.7829454">
<ele>459.74</ele>
<time>2016-10-19T10:25:20Z</time>
</trkpt>
<trkpt lat="39.7410703" lon="2.7831224">
<ele>459.68</ele>
<time>2016-10-19T10:25:22Z</time>
</trkpt>
<trkpt lat="39.7411945" lon="2.7832968">
<ele>459.81</ele>
<time>2016-10-19T10:25:24Z</time>
</trkpt>
<trkpt lat="39.7413836" lon="2.7835323">
<ele>457.72</ele>
<time>2016-10-19T10:25:27Z</time>
</trkpt>
<trkpt lat="39.7415801" lon="2.7837641">
<ele>454.11</ele>
<time>2016-10-19T10:25:30Z</time>
</trkpt>
<trkpt lat="39.7417238" lon="2.7839329">
<ele>452.09</ele>
<time>2016-10-19T10:25:32Z</time>
</trkpt>
<trkpt lat="39.7418756" lon="2.7841176">
<ele>449.63</ele>
<time>2016-10-19T10:25:34Z</time>
</trkpt>
<trkpt lat="39.7420162" lon="2.7842935">
<ele>446.31</ele>
<time>2016-10-19T10:25:36Z</time>
</trkpt>
<trkpt lat="39.7422143" lon="2.7845159">
<ele>441.56</ele>
<time>2016-10-19T10:25:39Z</time>
</trkpt>
<trkpt lat="39.7423835" lon="2.7847685">
<ele>437.61</ele>
<time>2016-10-19T10:25:42Z</time>
</trkpt>
<trkpt lat="39.7424349" lon="2.7850926">
<ele>433.88</ele>
<time>2016-10-19T10:25:45Z</time>
</trkpt>
<trkpt lat="39.7424164" lon="2.7853854">
<ele>431.09</ele>
<time>2016-10-19T10:25:48Z</time>
</trkpt>
<trkpt lat="39.7423734" lon="2.7856467">
<ele>429.38</ele>
<time>2016-10-19T10:25:51Z</time>
</trkpt>
<trkpt lat="39.7423655" lon="2.7859276">
<ele>428.31</ele>
<time>2016-10-19T10:25:54Z</time>
</trkpt>
<trkpt lat="39.7424576" lon="2.7861406">
<ele>424.93</ele>
<time>2016-10-19T10:25:57Z</time>
</trkpt>
<trkpt lat="39.7426211" lon="2.7862892">
<ele>424.79</ele>
<time>2016-10-19T10:26:00Z</time>
</trkpt>
<trkpt lat="39.7428240" lon="2.7864341">
<ele>427.18</ele>
<time>2016-10-19T10:26:03Z</time>
</trkpt>
<trkpt lat="39.7430129" lon="2.7866265">
<ele>428.83</ele>
<time>2016-10-19T10:26:06Z</time>
</trkpt>
<trkpt lat="39.7431682" lon="2.7869085">
<ele>430.88</ele>
<time>2016-10-19T10:26:09Z</time>
</trkpt>
<trkpt lat="39.7432620" lon="2.7871942">
<ele>433.53</ele>
<time>2016-10-19T10:26:12Z</time>
</trkpt>
<trkpt lat="39.7433814" lon="2.7874373">
<ele>434.85</ele>
<time>2016-10-19T10:26:15Z</time>
</trkpt>
<trkpt lat="39.7435919" lon="2.7875787">
<ele>435.73</ele>
<time>2016-10-19T10:26:18Z</time>
</trkpt>
<trkpt lat="39.7437879" lon="2.7877879">
<ele>438.10</ele>
<time>2016-10-19T10:26:21Z</time>
</trkpt>
<trkpt lat="39.7439132" lon="2.7880630">
<ele>441.81</ele>
<time>2016-10-19T10:26:24Z</time>
</trkpt>
<trkpt lat="39.7440511" lon="2.7883512">
<ele>444.79</ele>
<time>2016-10-19T10:26:27Z</time>
</trkpt>
<trkpt lat="39.7441298" lon="2.7885618">
<ele>446.51</ele>
<time>2016-10-19T10:26:29Z</time>
</trkpt>
<trkpt lat="39.7442064" lon="2.7887745">
<ele>447.64</ele>
<time>2016-10-19T10:26:31Z</time>
</trkpt>
<trkpt lat="39.7443117" lon="2.7890976">
<ele>448.28</ele>
<time>2016-10-19T10:26:34Z</time>
</trkpt>
<trkpt lat="39.7443815" lon="2.7893607">
<ele>449.40</ele>
<time>2016-10-19T10:26:37Z</time>
</trkpt>
<trkpt lat="39.7443683" lon="2.7896489">
<ele>449.41</ele>
<time>2016-10-19T10:26:40Z</time>
</trkpt>
<trkpt lat="39.7442627" lon="2.7899841">
<ele>445.61</ele>
<time>2016-10-19T10:26:43Z</time>
</trkpt>
<trkpt lat="39.7443152" lon="2.7902406">
<ele>444.91</ele>
<time>2016-10-19T10:26:45Z</time>
</trkpt>
<trkpt lat="39.7443737" lon="2.7904711">
<ele>443.10</ele>
<time>2016-10-19T10:26:47Z</time>
</trkpt>
<trkpt lat="39.7444385" lon="2.7907273">
<ele>441.23</ele>
<time>2016-10-19T10:26:49Z</time>
</trkpt>
<trkpt lat="39.7444962" lon="2.7909705">
<ele>439.35</ele>
<time>2016-10-19T10:26:51Z</time>
</trkpt>
<trkpt lat="39.7445474" lon="2.7912139">
<ele>436.89</ele>
<time>2016-10-19T10:26:53Z</time>
</trkpt>
<trkpt lat="39.7445898" lon="2.7914424">
<ele>434.68</ele>
<time>2016-10-19T10:26:55Z</time>
</trkpt>
<trkpt lat="39.7446421" lon="2.7917729">
<ele>433.61</ele>
<time>2016-10-19T10:26:58Z</time>
</trkpt>
<trkpt lat="39.7446312" lon="2.7920144">
<ele>432.35</ele>
<time>2016-10-19T10:27:00Z</time>
</trkpt>
<trkpt lat="39.7445987" lon="2.7923440">
<ele>429.23</ele>
<time>2016-10-19T10:27:02Z</time>
</trkpt>
<trkpt lat="39.7445347" lon="2.7925841">
<ele>426.48</ele>
<time>2016-10-19T10:27:04Z</time>
</trkpt>
<trkpt lat="39.7444738" lon="2.7928229">
<ele>424.61</ele>
<time>2016-10-19T10:27:06Z</time>
</trkpt>
<trkpt lat="39.7445064" lon="2.7931405">
<ele>422.78</ele>
<time>2016-10-19T10:27:09Z</time>
</trkpt>
<trkpt lat="39.7446135" lon="2.7933374">
<ele>421.58</ele>
<time>2016-10-19T10:27:11Z</time>
</trkpt>
<trkpt lat="39.7447503" lon="2.7935411">
<ele>419.76</ele>
<time>2016-10-19T10:27:13Z</time>
</trkpt>
<trkpt lat="39.7448962" lon="2.7937623">
<ele>417.71</ele>
<time>2016-10-19T10:27:15Z</time>
</trkpt>
<trkpt lat="39.7450540" lon="2.7939774">
<ele>415.82</ele>
<time>2016-10-19T10:27:17Z</time>
</trkpt>
<trkpt lat="39.7452083" lon="2.7941832">
<ele>413.29</ele>
<time>2016-10-19T10:27:19Z</time>
</trkpt>
<trkpt lat="39.7453443" lon="2.7943817">
<ele>410.54</ele>
<time>2016-10-19T10:27:21Z</time>
</trkpt>
<trkpt lat="39.7454730" lon="2.7945747">
<ele>408.46</ele>
<time>2016-10-19T10:27:23Z</time>
</trkpt>
<trkpt lat="39.7456355" lon="2.7948563">
<ele>405.31</ele>
<time>2016-10-19T10:27:26Z</time>
</trkpt>
<trkpt lat="39.7456052" lon="2.7951997">
<ele>404.16</ele>
<time>2016-10-19T10:27:29Z</time>
</trkpt>
<trkpt lat="39.7454405" lon="2.7954154">
<ele>404.98</ele>
<time>2016-10-19T10:27:32Z</time>
</trkpt>
<trkpt lat="39.7452441" lon="2.7954268">
<ele>406.67</ele>
<time>2016-10-19T10:27:34Z</time>
</trkpt>
<trkpt lat="39.7450420" lon="2.7954177">
<ele>406.91</ele>
<time>2016-10-19T10:27:36Z</time>
</trkpt>
<trkpt lat="39.7448349" lon="2.7953970">
<ele>405.85</ele>
<time>2016-10-19T10:27:38Z</time>
</trkpt>
<trkpt lat="39.7446369" lon="2.7953780">
<ele>404.44</ele>
<time>2016-10-19T10:27:40Z</time>
</trkpt>
<trkpt lat="39.7444478" lon="2.7953521">
<ele>403.03</ele>
<time>2016-10-19T10:27:42Z</time>
</trkpt>
<trkpt lat="39.7442645" lon="2.7953366">
<ele>402.86</ele>
<time>2016-10-19T10:27:44Z</time>
</trkpt>
<trkpt lat="39.7440097" lon="2.7954483">
<ele>401.77</ele>
<time>2016-10-19T10:27:47Z</time>
</trkpt>
<trkpt lat="39.7438708" lon="2.7956025">
<ele>400.06</ele>
<time>2016-10-19T10:27:49Z</time>
</trkpt>
<trkpt lat="39.7437502" lon="2.7958025">
<ele>397.60</ele>
<time>2016-10-19T10:27:51Z</time>
</trkpt>
<trkpt lat="39.7436313" lon="2.7960138">
<ele>395.44</ele>
<time>2016-10-19T10:27:53Z</time>
</trkpt>
<trkpt lat="39.7435116" lon="2.7962207">
<ele>393.47</ele>
<time>2016-10-19T10:27:55Z</time>
</trkpt>
<trkpt lat="39.7433982" lon="2.7964258">
<ele>391.20</ele>
<time>2016-10-19T10:27:57Z</time>
</trkpt>
<trkpt lat="39.7433012" lon="2.7966470">
<ele>388.92</ele>
<time>2016-10-19T10:27:59Z</time>
</trkpt>
<trkpt lat="39.7432555" lon="2.7968931">
<ele>386.90</ele>
<time>2016-10-19T10:28:01Z</time>
</trkpt>
<trkpt lat="39.7432430" lon="2.7971662">
<ele>384.24</ele>
<time>2016-10-19T10:28:03Z</time>
</trkpt>
<trkpt lat="39.7432550" lon="2.7974566">
<ele>381.17</ele>
<time>2016-10-19T10:28:05Z</time>
</trkpt>
<trkpt lat="39.7432724" lon="2.7977452">
<ele>377.75</ele>
<time>2016-10-19T10:28:07Z</time>
</trkpt>
<trkpt lat="39.7432792" lon="2.7980542">
<ele>375.63</ele>
<time>2016-10-19T10:28:09Z</time>
</trkpt>
<trkpt lat="39.7433195" lon="2.7983699">
<ele>374.17</ele>
<time>2016-10-19T10:28:11Z</time>
</trkpt>
<trkpt lat="39.7433467" lon="2.7986883">
<ele>372.60</ele>
<time>2016-10-19T10:28:13Z</time>
</trkpt>
<trkpt lat="39.7433691" lon="2.7990041">
<ele>371.20</ele>
<time>2016-10-19T10:28:15Z</time>
</trkpt>
<trkpt lat="39.7433864" lon="2.7993220">
<ele>369.79</ele>
<time>2016-10-19T10:28:17Z</time>
</trkpt>
<trkpt lat="39.7434002" lon="2.7996319">
<ele>368.20</ele>
<time>2016-10-19T10:28:19Z</time>
</trkpt>
<trkpt lat="39.7434109" lon="2.7999078">
<ele>366.40</ele>
<time>2016-10-19T10:28:21Z</time>
</trkpt>
<trkpt lat="39.7434113" lon="2.8001531">
<ele>365.11</ele>
<time>2016-10-19T10:28:23Z</time>
</trkpt>
<trkpt lat="39.7434222" lon="2.8004003">
<ele>364.04</ele>
<time>2016-10-19T10:28:25Z</time>
</trkpt>
<trkpt lat="39.7433636" lon="2.8007191">
<ele>363.02</ele>
<time>2016-10-19T10:28:28Z</time>
</trkpt>
<trkpt lat="39.7431865" lon="2.8009386">
<ele>362.47</ele>
<time>2016-10-19T10:28:31Z</time>
</trkpt>
<trkpt lat="39.7429583" lon="2.8010142">
<ele>362.16</ele>
<time>2016-10-19T10:28:34Z</time>
</trkpt>
<trkpt lat="39.7427381" lon="2.8010441">
<ele>364.80</ele>
<time>2016-10-19T10:28:37Z</time>
</trkpt>
<trkpt lat="39.7425034" lon="2.8010828">
<ele>367.37</ele>
<time>2016-10-19T10:28:40Z</time>
</trkpt>
<trkpt lat="39.7422510" lon="2.8011266">
<ele>370.81</ele>
<time>2016-10-19T10:28:43Z</time>
</trkpt>
<trkpt lat="39.7420586" lon="2.8011577">
<ele>373.06</ele>
<time>2016-10-19T10:28:45Z</time>
</trkpt>
<trkpt lat="39.7418669" lon="2.8011888">
<ele>373.91</ele>
<time>2016-10-19T10:28:47Z</time>
</trkpt>
<trkpt lat="39.7416213" lon="2.8012195">
<ele>373.31</ele>
<time>2016-10-19T10:28:50Z</time>
</trkpt>
<trkpt lat="39.7414031" lon="2.8010829">
<ele>371.26</ele>
<time>2016-10-19T10:28:53Z</time>
</trkpt>
<trkpt lat="39.7412452" lon="2.8008001">
<ele>368.77</ele>
<time>2016-10-19T10:28:56Z</time>
</trkpt>
<trkpt lat="39.7411400" lon="2.8006019">
<ele>366.82</ele>
<time>2016-10-19T10:28:58Z</time>
</trkpt>
<trkpt lat="39.7409058" lon="2.8004458">
<ele>365.88</ele>
<time>2016-10-19T10:29:01Z</time>
</trkpt>
<trkpt lat="39.7406779" lon="2.8005184">
<ele>365.36</ele>
<time>2016-10-19T10:29:04Z</time>
</trkpt>
<trkpt lat="39.7405336" lon="2.8007284">
<ele>360.48</ele>
<time>2016-10-19T10:29:07Z</time>
</trkpt>
<trkpt lat="39.7404435" lon="2.8009390">
<ele>356.56</ele>
<time>2016-10-19T10:29:09Z</time>
</trkpt>
<trkpt lat="39.7402602" lon="2.8011865">
<ele>351.73</ele>
<time>2016-10-19T10:29:12Z</time>
</trkpt>
<trkpt lat="39.7400733" lon="2.8012597">
<ele>348.97</ele>
<time>2016-10-19T10:29:14Z</time>
</trkpt>
<trkpt lat="39.7398304" lon="2.8013214">
<ele>347.98</ele>
<time>2016-10-19T10:29:17Z</time>
</trkpt>
<trkpt lat="39.7395658" lon="2.8012572">
<ele>349.86</ele>
<time>2016-10-19T10:29:20Z</time>
</trkpt>
<trkpt lat="39.7393936" lon="2.8011489">
<ele>350.69</ele>
<time>2016-10-19T10:29:22Z</time>
</trkpt>
<trkpt lat="39.7392296" lon="2.8010277">
<ele>350.98</ele>
<time>2016-10-19T10:29:24Z</time>
</trkpt>
<trkpt lat="39.7390004" lon="2.8008667">
<ele>350.18</ele>
<time>2016-10-19T10:29:27Z</time>
</trkpt>
<trkpt lat="39.7387883" lon="2.8007921">
<ele>348.77</ele>
<time>2016-10-19T10:29:29Z</time>
</trkpt>
<trkpt lat="39.7385823" lon="2.8007709">
<ele>347.19</ele>
<time>2016-10-19T10:29:31Z</time>
</trkpt>
<trkpt lat="39.7383338" lon="2.8007769">
<ele>343.92</ele>
<time>2016-10-19T10:29:34Z</time>
</trkpt>
<trkpt lat="39.7381469" lon="2.8009514">
<ele>341.13</ele>
<time>2016-10-19T10:29:37Z</time>
</trkpt>
<trkpt lat="39.7380169" lon="2.8012324">
<ele>335.69</ele>
<time>2016-10-19T10:29:40Z</time>
</trkpt>
<trkpt lat="39.7379245" lon="2.8014745">
<ele>331.25</ele>
<time>2016-10-19T10:29:42Z</time>
</trkpt>
<trkpt lat="39.7378286" lon="2.8017370">
<ele>327.54</ele>
<time>2016-10-19T10:29:44Z</time>
</trkpt>
<trkpt lat="39.7377438" lon="2.8019607">
<ele>324.58</ele>
<time>2016-10-19T10:29:46Z</time>
</trkpt>
<trkpt lat="39.7376598" lon="2.8021775">
<ele>322.15</ele>
<time>2016-10-19T10:29:48Z</time>
</trkpt>
<trkpt lat="39.7375315" lon="2.8023490">
<ele>320.06</ele>
<time>2016-10-19T10:29:50Z</time>
</trkpt>
<trkpt lat="39.7373342" lon="2.8024886">
<ele>319.00</ele>
<time>2016-10-19T10:29:52Z</time>
</trkpt>
<trkpt lat="39.7371229" lon="2.8025957">
<ele>318.26</ele>
<time>2016-10-19T10:29:54Z</time>
</trkpt>
<trkpt lat="39.7369013" lon="2.8026942">
<ele>317.68</ele>
<time>2016-10-19T10:29:56Z</time>
</trkpt>
<trkpt lat="39.7366856" lon="2.8027732">
<ele>316.82</ele>
<time>2016-10-19T10:29:58Z</time>
</trkpt>
<trkpt lat="39.7364806" lon="2.8028307">
<ele>315.35</ele>
<time>2016-10-19T10:30:00Z</time>
</trkpt>
<trkpt lat="39.7362823" lon="2.8028544">
<ele>313.64</ele>
<time>2016-10-19T10:30:02Z</time>
</trkpt>
<trkpt lat="39.7360718" lon="2.8028733">
<ele>311.27</ele>
<time>2016-10-19T10:30:04Z</time>
</trkpt>
<trkpt lat="39.7358834" lon="2.8028765">
<ele>311.30</ele>
<time>2016-10-19T10:30:06Z</time>
</trkpt>
<trkpt lat="39.7356837" lon="2.8028830">
<ele>312.55</ele>
<time>2016-10-19T10:30:08Z</time>
</trkpt>
<trkpt lat="39.7354693" lon="2.8028914">
<ele>312.60</ele>
<time>2016-10-19T10:30:10Z</time>
</trkpt>
<trkpt lat="39.7352846" lon="2.8028913">
<ele>312.70</ele>
<time>2016-10-19T10:30:12Z</time>
</trkpt>
<trkpt lat="39.7350421" lon="2.8029831">
<ele>313.64</ele>
<time>2016-10-19T10:30:15Z</time>
</trkpt>
<trkpt lat="39.7348003" lon="2.8031666">
<ele>313.82</ele>
<time>2016-10-19T10:30:18Z</time>
</trkpt>
<trkpt lat="39.7346183" lon="2.8033175">
<ele>313.26</ele>
<time>2016-10-19T10:30:20Z</time>
</trkpt>
<trkpt lat="39.7344156" lon="2.8034676">
<ele>312.74</ele>
<time>2016-10-19T10:30:22Z</time>
</trkpt>
<trkpt lat="39.7342021" lon="2.8035907">
<ele>312.05</ele>
<time>2016-10-19T10:30:24Z</time>
</trkpt>
<trkpt lat="39.7339938" lon="2.8036896">
<ele>311.92</ele>
<time>2016-10-19T10:30:26Z</time>
</trkpt>
<trkpt lat="39.7338011" lon="2.8037707">
<ele>311.78</ele>
<time>2016-10-19T10:30:28Z</time>
</trkpt>
<trkpt lat="39.7336008" lon="2.8038545">
<ele>310.48</ele>
<time>2016-10-19T10:30:30Z</time>
</trkpt>
<trkpt lat="39.7333843" lon="2.8039429">
<ele>309.40</ele>
<time>2016-10-19T10:30:32Z</time>
</trkpt>
<trkpt lat="39.7331909" lon="2.8040258">
<ele>307.61</ele>
<time>2016-10-19T10:30:34Z</time>
</trkpt>
<trkpt lat="39.7329881" lon="2.8041133">
<ele>305.91</ele>
<time>2016-10-19T10:30:36Z</time>
</trkpt>
<trkpt lat="39.7327256" lon="2.8042118">
<ele>304.64</ele>
<time>2016-10-19T10:30:38Z</time>
</trkpt>
<trkpt lat="39.7324805" lon="2.8042795">
<ele>303.44</ele>
<time>2016-10-19T10:30:40Z</time>
</trkpt>
<trkpt lat="39.7322394" lon="2.8043160">
<ele>301.30</ele>
<time>2016-10-19T10:30:42Z</time>
</trkpt>
<trkpt lat="39.7320140" lon="2.8043339">
<ele>298.74</ele>
<time>2016-10-19T10:30:44Z</time>
</trkpt>
<trkpt lat="39.7318109" lon="2.8043397">
<ele>296.74</ele>
<time>2016-10-19T10:30:46Z</time>
</trkpt>
<trkpt lat="39.7316146" lon="2.8043802">
<ele>294.41</ele>
<time>2016-10-19T10:30:48Z</time>
</trkpt>
<trkpt lat="39.7314319" lon="2.8044487">
<ele>292.29</ele>
<time>2016-10-19T10:30:50Z</time>
</trkpt>
<trkpt lat="39.7312538" lon="2.8045289">
<ele>290.60</ele>
<time>2016-10-19T10:30:52Z</time>
</trkpt>
<trkpt lat="39.7310482" lon="2.8046294">
<ele>289.59</ele>
<time>2016-10-19T10:30:54Z</time>
</trkpt>
<trkpt lat="39.7308588" lon="2.8047311">
<ele>288.67</ele>
<time>2016-10-19T10:30:56Z</time>
</trkpt>
<trkpt lat="39.7306841" lon="2.8048277">
<ele>288.26</ele>
<time>2016-10-19T10:30:58Z</time>
</trkpt>
<trkpt lat="39.7304684" lon="2.8048752">
<ele>287.45</ele>
<time>2016-10-19T10:31:00Z</time>
</trkpt>
<trkpt lat="39.7302277" lon="2.8048923">
<ele>286.61</ele>
<time>2016-10-19T10:31:02Z</time>
</trkpt>
<trkpt lat="39.7299768" lon="2.8048970">
<ele>285.84</ele>
<time>2016-10-19T10:31:04Z</time>
</trkpt>
<trkpt lat="39.7297264" lon="2.8048994">
<ele>285.81</ele>
<time>2016-10-19T10:31:06Z</time>
</trkpt>
<trkpt lat="39.7294819" lon="2.8049056">
<ele>285.73</ele>
<time>2016-10-19T10:31:08Z</time>
</trkpt>
<trkpt lat="39.7292323" lon="2.8049006">
<ele>286.12</ele>
<time>2016-10-19T10:31:10Z</time>
</trkpt>
<trkpt lat="39.7289882" lon="2.8048973">
<ele>286.55</ele>
<time>2016-10-19T10:31:12Z</time>
</trkpt>
<trkpt lat="39.7287410" lon="2.8048983">
<ele>286.32</ele>
<time>2016-10-19T10:31:14Z</time>
</trkpt>
<trkpt lat="39.7285054" lon="2.8048990">
<ele>285.74</ele>
<time>2016-10-19T10:31:16Z</time>
</trkpt>
<trkpt lat="39.7283214" lon="2.8049337">
<ele>282.86</ele>
<time>2016-10-19T10:31:18Z</time>
</trkpt>
<trkpt lat="39.7281418" lon="2.8049960">
<ele>279.27</ele>
<time>2016-10-19T10:31:20Z</time>
</trkpt>
<trkpt lat="39.7279415" lon="2.8050683">
<ele>276.84</ele>
<time>2016-10-19T10:31:22Z</time>
</trkpt>
<trkpt lat="39.7277316" lon="2.8051499">
<ele>274.78</ele>
<time>2016-10-19T10:31:24Z</time>
</trkpt>
<trkpt lat="39.7275348" lon="2.8051601">
<ele>272.99</ele>
<time>2016-10-19T10:31:26Z</time>
</trkpt>
<trkpt lat="39.7273613" lon="2.8050658">
<ele>272.90</ele>
<time>2016-10-19T10:31:28Z</time>
</trkpt>
<trkpt lat="39.7272089" lon="2.8049204">
<ele>273.32</ele>
<time>2016-10-19T10:31:30Z</time>
</trkpt>
<trkpt lat="39.7270452" lon="2.8047704">
<ele>274.00</ele>
<time>2016-10-19T10:31:32Z</time>
</trkpt>
<trkpt lat="39.7268578" lon="2.8046948">
<ele>273.14</ele>
<time>2016-10-19T10:31:35Z</time>
</trkpt>
<trkpt lat="39.7265872" lon="2.8047177">
<ele>272.25</ele>
<time>2016-10-19T10:31:38Z</time>
</trkpt>
<trkpt lat="39.7263715" lon="2.8047327">
<ele>271.79</ele>
<time>2016-10-19T10:31:40Z</time>
</trkpt>
<trkpt lat="39.7261707" lon="2.8047485">
<ele>271.26</ele>
<time>2016-10-19T10:31:42Z</time>
</trkpt>
<trkpt lat="39.7259798" lon="2.8047638">
<ele>269.65</ele>
<time>2016-10-19T10:31:44Z</time>
</trkpt>
<trkpt lat="39.7257742" lon="2.8047767">
<ele>269.11</ele>
<time>2016-10-19T10:31:46Z</time>
</trkpt>
<trkpt lat="39.7255480" lon="2.8047740">
<ele>268.80</ele>
<time>2016-10-19T10:31:48Z</time>
</trkpt>
<trkpt lat="39.7253305" lon="2.8047314">
<ele>267.29</ele>
<time>2016-10-19T10:31:50Z</time>
</trkpt>
<trkpt lat="39.7251015" lon="2.8046707">
<ele>264.93</ele>
<time>2016-10-19T10:31:52Z</time>
</trkpt>
<trkpt lat="39.7248804" lon="2.8046120">
<ele>263.72</ele>
<time>2016-10-19T10:31:54Z</time>
</trkpt>
<trkpt lat="39.7246555" lon="2.8045399">
<ele>264.28</ele>
<time>2016-10-19T10:31:56Z</time>
</trkpt>
<trkpt lat="39.7243999" lon="2.8044611">
<ele>263.20</ele>
<time>2016-10-19T10:31:58Z</time>
</trkpt>
<trkpt lat="39.7241509" lon="2.8043854">
<ele>261.29</ele>
<time>2016-10-19T10:32:00Z</time>
</trkpt>
<trkpt lat="39.7239174" lon="2.8043160">
<ele>258.43</ele>
<time>2016-10-19T10:32:02Z</time>
</trkpt>
<trkpt lat="39.7236755" lon="2.8042338">
<ele>256.35</ele>
<time>2016-10-19T10:32:04Z</time>
</trkpt>
<trkpt lat="39.7234477" lon="2.8041622">
<ele>256.16</ele>
<time>2016-10-19T10:32:06Z</time>
</trkpt>
<trkpt lat="39.7232344" lon="2.8040889">
<ele>256.83</ele>
<time>2016-10-19T10:32:08Z</time>
</trkpt>
<trkpt lat="39.7230227" lon="2.8040160">
<ele>257.22</ele>
<time>2016-10-19T10:32:10Z</time>
</trkpt>
<trkpt lat="39.7228115" lon="2.8039563">
<ele>255.67</ele>
<time>2016-10-19T10:32:12Z</time>
</trkpt>
<trkpt lat="39.7226040" lon="2.8038962">
<ele>252.64</ele>
<time>2016-10-19T10:32:14Z</time>
</trkpt>
<trkpt lat="39.7224074" lon="2.8038141">
<ele>251.17</ele>
<time>2016-10-19T10:32:16Z</time>
</trkpt>
<trkpt lat="39.7222155" lon="2.8037407">
<ele>249.78</ele>
<time>2016-10-19T10:32:18Z</time>
</trkpt>
<trkpt lat="39.7220393" lon="2.8036610">
<ele>248.24</ele>
<time>2016-10-19T10:32:20Z</time>
</trkpt>
<trkpt lat="39.7217921" lon="2.8035449">
<ele>247.19</ele>
<time>2016-10-19T10:32:23Z</time>
</trkpt>
<trkpt lat="39.7216010" lon="2.8034771">
<ele>246.68</ele>
<time>2016-10-19T10:32:25Z</time>
</trkpt>
<trkpt lat="39.7214030" lon="2.8034019">
<ele>247.21</ele>
<time>2016-10-19T10:32:27Z</time>
</trkpt>
<trkpt lat="39.7212142" lon="2.8033316">
<ele>247.15</ele>
<time>2016-10-19T10:32:29Z</time>
</trkpt>
<trkpt lat="39.7209629" lon="2.8032397">
<ele>245.16</ele>
<time>2016-10-19T10:32:32Z</time>
</trkpt>
<trkpt lat="39.7206977" lon="2.8031908">
<ele>243.87</ele>
<time>2016-10-19T10:32:35Z</time>
</trkpt>
<trkpt lat="39.7205184" lon="2.8031661">
<ele>242.62</ele>
<time>2016-10-19T10:32:37Z</time>
</trkpt>
<trkpt lat="39.7203284" lon="2.8031431">
<ele>240.19</ele>
<time>2016-10-19T10:32:39Z</time>
</trkpt>
<trkpt lat="39.7201258" lon="2.8031244">
<ele>237.47</ele>
<time>2016-10-19T10:32:41Z</time>
</trkpt>
<trkpt lat="39.7199205" lon="2.8031069">
<ele>235.87</ele>
<time>2016-10-19T10:32:43Z</time>
</trkpt>
<trkpt lat="39.7197295" lon="2.8030836">
<ele>234.23</ele>
<time>2016-10-19T10:32:45Z</time>
</trkpt>
<trkpt lat="39.7195480" lon="2.8030573">
<ele>231.79</ele>
<time>2016-10-19T10:32:47Z</time>
</trkpt>
<trkpt lat="39.7192863" lon="2.8030165">
<ele>230.12</ele>
<time>2016-10-19T10:32:50Z</time>
</trkpt>
<trkpt lat="39.7190461" lon="2.8029751">
<ele>229.71</ele>
<time>2016-10-19T10:32:53Z</time>
</trkpt>
<trkpt lat="39.7188216" lon="2.8029489">
<ele>229.17</ele>
<time>2016-10-19T10:32:56Z</time>
</trkpt>
<trkpt lat="39.7186046" lon="2.8029179">
<ele>228.65</ele>
<time>2016-10-19T10:32:59Z</time>
</trkpt>
<trkpt lat="39.7183719" lon="2.8028806">
<ele>228.40</ele>
<time>2016-10-19T10:33:02Z</time>
</trkpt>
<trkpt lat="39.7181634" lon="2.8028592">
<ele>229.46</ele>
<time>2016-10-19T10:33:05Z</time>
</trkpt>
<trkpt lat="39.7179538" lon="2.8028271">
<ele>232.28</ele>
<time>2016-10-19T10:33:08Z</time>
</trkpt>
<trkpt lat="39.7177191" lon="2.8027733">
<ele>234.63</ele>
<time>2016-10-19T10:33:11Z</time>
</trkpt>
<trkpt lat="39.7174836" lon="2.8027242">
<ele>235.52</ele>
<time>2016-10-19T10:33:14Z</time>
</trkpt>
<trkpt lat="39.7172460" lon="2.8026835">
<ele>235.80</ele>
<time>2016-10-19T10:33:17Z</time>
</trkpt>
<trkpt lat="39.7170187" lon="2.8026581">
<ele>235.73</ele>
<time>2016-10-19T10:33:20Z</time>
</trkpt>
<trkpt lat="39.7167685" lon="2.8026179">
<ele>236.37</ele>
<time>2016-10-19T10:33:23Z</time>
</trkpt>
<trkpt lat="39.7165437" lon="2.8025782">
<ele>235.62</ele>
<time>2016-10-19T10:33:26Z</time>
</trkpt>
<trkpt lat="39.7163102" lon="2.8024899">
<ele>235.95</ele>
<time>2016-10-19T10:33:29Z</time>
</trkpt>
<trkpt lat="39.7160956" lon="2.8023492">
<ele>236.09</ele>
<time>2016-10-19T10:33:32Z</time>
</trkpt>
<trkpt lat="39.7158942" lon="2.8021750">
<ele>238.54</ele>
<time>2016-10-19T10:33:35Z</time>
</trkpt>
<trkpt lat="39.7156711" lon="2.8019787">
<ele>241.33</ele>
<time>2016-10-19T10:33:38Z</time>
</trkpt>
<trkpt lat="39.7155114" lon="2.8018414">
<ele>242.41</ele>
<time>2016-10-19T10:33:40Z</time>
</trkpt>
<trkpt lat="39.7153503" lon="2.8017104">
<ele>242.42</ele>
<time>2016-10-19T10:33:42Z</time>
</trkpt>
<trkpt lat="39.7151969" lon="2.8015832">
<ele>241.90</ele>
<time>2016-10-19T10:33:44Z</time>
</trkpt>
<trkpt lat="39.7149920" lon="2.8014185">
<ele>240.73</ele>
<time>2016-10-19T10:33:47Z</time>
</trkpt>
<trkpt lat="39.7148001" lon="2.8012825">
<ele>236.71</ele>
<time>2016-10-19T10:33:50Z</time>
</trkpt>
<trkpt lat="39.7146272" lon="2.8011707">
<ele>232.99</ele>
<time>2016-10-19T10:33:53Z</time>
</trkpt>
<trkpt lat="39.7144209" lon="2.8010379">
<ele>230.92</ele>
<time>2016-10-19T10:33:57Z</time>
</trkpt>
<trkpt lat="39.7142322" lon="2.8009522">
<ele>231.14</ele>
<time>2016-10-19T10:34:02Z</time>
</trkpt>
<trkpt lat="39.7141001" lon="2.8011510">
<ele>229.64</ele>
<time>2016-10-19T10:35:21Z</time>
</trkpt>
<trkpt lat="39.7139558" lon="2.8013345">
<ele>224.34</ele>
<time>2016-10-19T10:35:25Z</time>
</trkpt>
<trkpt lat="39.7137844" lon="2.8015565">
<ele>221.76</ele>
<time>2016-10-19T10:35:29Z</time>
</trkpt>
<trkpt lat="39.7136267" lon="2.8017562">
<ele>220.21</ele>
<time>2016-10-19T10:35:32Z</time>
</trkpt>
<trkpt lat="39.7134629" lon="2.8019621">
<ele>218.21</ele>
<time>2016-10-19T10:35:35Z</time>
</trkpt>
<trkpt lat="39.7132815" lon="2.8022041">
<ele>216.95</ele>
<time>2016-10-19T10:35:38Z</time>
</trkpt>
<trkpt lat="39.7131502" lon="2.8023782">
<ele>216.54</ele>
<time>2016-10-19T10:35:40Z</time>
</trkpt>
<trkpt lat="39.7130119" lon="2.8025542">
<ele>215.72</ele>
<time>2016-10-19T10:35:42Z</time>
</trkpt>
<trkpt lat="39.7128762" lon="2.8027393">
<ele>214.78</ele>
<time>2016-10-19T10:35:44Z</time>
</trkpt>
<trkpt lat="39.7127294" lon="2.8029305">
<ele>213.42</ele>
<time>2016-10-19T10:35:46Z</time>
</trkpt>
<trkpt lat="39.7125824" lon="2.8031254">
<ele>211.92</ele>
<time>2016-10-19T10:35:48Z</time>
</trkpt>
<trkpt lat="39.7124330" lon="2.8033266">
<ele>210.73</ele>
<time>2016-10-19T10:35:50Z</time>
</trkpt>
<trkpt lat="39.7122818" lon="2.8035341">
<ele>209.25</ele>
<time>2016-10-19T10:35:52Z</time>
</trkpt>
<trkpt lat="39.7121308" lon="2.8037285">
<ele>207.24</ele>
<time>2016-10-19T10:35:54Z</time>
</trkpt>
<trkpt lat="39.7119623" lon="2.8038669">
<ele>205.11</ele>
<time>2016-10-19T10:35:56Z</time>
</trkpt>
<trkpt lat="39.7117910" lon="2.8039515">
<ele>203.31</ele>
<time>2016-10-19T10:35:58Z</time>
</trkpt>
<trkpt lat="39.7116067" lon="2.8039782">
<ele>201.75</ele>
<time>2016-10-19T10:36:00Z</time>
</trkpt>
<trkpt lat="39.7114231" lon="2.8039567">
<ele>201.23</ele>
<time>2016-10-19T10:36:02Z</time>
</trkpt>
<trkpt lat="39.7112392" lon="2.8039270">
<ele>200.89</ele>
<time>2016-10-19T10:36:04Z</time>
</trkpt>
<trkpt lat="39.7110592" lon="2.8038921">
<ele>200.28</ele>
<time>2016-10-19T10:36:06Z</time>
</trkpt>
<trkpt lat="39.7108785" lon="2.8038549">
<ele>199.91</ele>
<time>2016-10-19T10:36:08Z</time>
</trkpt>
<trkpt lat="39.7106821" lon="2.8038044">
<ele>198.59</ele>
<time>2016-10-19T10:36:10Z</time>
</trkpt>
<trkpt lat="39.7105011" lon="2.8037525">
<ele>197.63</ele>
<time>2016-10-19T10:36:12Z</time>
</trkpt>
<trkpt lat="39.7102548" lon="2.8036946">
<ele>197.21</ele>
<time>2016-10-19T10:36:15Z</time>
</trkpt>
<trkpt lat="39.7100319" lon="2.8036454">
<ele>196.59</ele>
<time>2016-10-19T10:36:18Z</time>
</trkpt>
<trkpt lat="39.7098368" lon="2.8036038">
<ele>195.95</ele>
<time>2016-10-19T10:36:21Z</time>
</trkpt>
<trkpt lat="39.7096183" lon="2.8035661">
<ele>197.03</ele>
<time>2016-10-19T10:36:25Z</time>
</trkpt>
<trkpt lat="39.7094340" lon="2.8035845">
<ele>198.11</ele>
<time>2016-10-19T10:36:30Z</time>
</trkpt>
<trkpt lat="39.7095276" lon="2.8038473">
<ele>198.05</ele>
<time>2016-10-19T10:36:36Z</time>
</trkpt>
<trkpt lat="39.7096368" lon="2.8040934">
<ele>195.83</ele>
<time>2016-10-19T10:36:40Z</time>
</trkpt>
<trkpt lat="39.7097546" lon="2.8043357">
<ele>193.34</ele>
<time>2016-10-19T10:36:44Z</time>
</trkpt>
<trkpt lat="39.7098626" lon="2.8045636">
<ele>192.59</ele>
<time>2016-10-19T10:36:48Z</time>
</trkpt>
<trkpt lat="39.7099623" lon="2.8048049">
<ele>191.30</ele>
<time>2016-10-19T10:36:52Z</time>
</trkpt>
<trkpt lat="39.7100810" lon="2.8050402">
<ele>189.75</ele>
<time>2016-10-19T10:36:56Z</time>
</trkpt>
<trkpt lat="39.7101775" lon="2.8052426">
<ele>189.89</ele>
<time>2016-10-19T10:36:59Z</time>
</trkpt>
<trkpt lat="39.7102703" lon="2.8054590">
<ele>189.66</ele>
<time>2016-10-19T10:37:02Z</time>
</trkpt>
<trkpt lat="39.7103657" lon="2.8056741">
<ele>189.86</ele>
<time>2016-10-19T10:37:05Z</time>
</trkpt>
<trkpt lat="39.7104554" lon="2.8059070">
<ele>190.50</ele>
<time>2016-10-19T10:37:08Z</time>
</trkpt>
<trkpt lat="39.7105452" lon="2.8061308">
<ele>191.16</ele>
<time>2016-10-19T10:37:11Z</time>
</trkpt>
<trkpt lat="39.7106327" lon="2.8063606">
<ele>191.04</ele>
<time>2016-10-19T10:37:14Z</time>
</trkpt>
<trkpt lat="39.7107279" lon="2.8065868">
<ele>191.82</ele>
<time>2016-10-19T10:37:17Z</time>
</trkpt>
<trkpt lat="39.7108292" lon="2.8068323">
<ele>193.69</ele>
<time>2016-10-19T10:37:20Z</time>
</trkpt>
<trkpt lat="39.7109392" lon="2.8071036">
<ele>194.25</ele>
<time>2016-10-19T10:37:23Z</time>
</trkpt>
<trkpt lat="39.7110637" lon="2.8073711">
<ele>194.21</ele>
<time>2016-10-19T10:37:26Z</time>
</trkpt>
<trkpt lat="39.7111572" lon="2.8075758">
<ele>192.72</ele>
<time>2016-10-19T10:37:28Z</time>
</trkpt>
<trkpt lat="39.7112850" lon="2.8078533">
<ele>190.61</ele>
<time>2016-10-19T10:37:31Z</time>
</trkpt>
<trkpt lat="39.7113855" lon="2.8080936">
<ele>188.92</ele>
<time>2016-10-19T10:37:34Z</time>
</trkpt>
<trkpt lat="39.7114852" lon="2.8083418">
<ele>187.57</ele>
<time>2016-10-19T10:37:37Z</time>
</trkpt>
<trkpt lat="39.7115855" lon="2.8086064">
<ele>185.92</ele>
<time>2016-10-19T10:37:40Z</time>
</trkpt>
<trkpt lat="39.7116787" lon="2.8088907">
<ele>184.50</ele>
<time>2016-10-19T10:37:43Z</time>
</trkpt>
<trkpt lat="39.7117542" lon="2.8091624">
<ele>184.89</ele>
<time>2016-10-19T10:37:46Z</time>
</trkpt>
<trkpt lat="39.7118428" lon="2.8094348">
<ele>185.54</ele>
<time>2016-10-19T10:37:49Z</time>
</trkpt>
<trkpt lat="39.7119388" lon="2.8097030">
<ele>185.04</ele>
<time>2016-10-19T10:37:52Z</time>
</trkpt>
<trkpt lat="39.7120352" lon="2.8099486">
<ele>182.98</ele>
<time>2016-10-19T10:37:55Z</time>
</trkpt>
<trkpt lat="39.7121466" lon="2.8102037">
<ele>181.98</ele>
<time>2016-10-19T10:37:58Z</time>
</trkpt>
<trkpt lat="39.7122476" lon="2.8104203">
<ele>181.71</ele>
<time>2016-10-19T10:38:01Z</time>
</trkpt>
<trkpt lat="39.7123445" lon="2.8106211">
<ele>180.98</ele>
<time>2016-10-19T10:38:04Z</time>
</trkpt>
<trkpt lat="39.7124308" lon="2.8108383">
<ele>180.57</ele>
<time>2016-10-19T10:38:08Z</time>
</trkpt>
<trkpt lat="39.7124524" lon="2.8111027">
<ele>182.83</ele>
<time>2016-10-19T10:38:15Z</time>
</trkpt>
<trkpt lat="39.7124777" lon="2.8113675">
<ele>184.85</ele>
<time>2016-10-19T10:38:23Z</time>
</trkpt>
<trkpt lat="39.7125017" lon="2.8116068">
<ele>186.61</ele>
<time>2016-10-19T10:38:29Z</time>
</trkpt>
<trkpt lat="39.7125396" lon="2.8118462">
<ele>189.39</ele>
<time>2016-10-19T10:38:36Z</time>
</trkpt>
<trkpt lat="39.7126231" lon="2.8120911">
<ele>191.66</ele>
<time>2016-10-19T10:38:43Z</time>
</trkpt>
<trkpt lat="39.7126857" lon="2.8123175">
<ele>193.34</ele>
<time>2016-10-19T10:38:49Z</time>
</trkpt>
<trkpt lat="39.7127153" lon="2.8125587">
<ele>195.29</ele>
<time>2016-10-19T10:38:56Z</time>
</trkpt>
<trkpt lat="39.7127272" lon="2.8127941">
<ele>196.47</ele>
<time>2016-10-19T10:39:02Z</time>
</trkpt>
<trkpt lat="39.7127368" lon="2.8130356">
<ele>197.59</ele>
<time>2016-10-19T10:39:09Z</time>
</trkpt>
<trkpt lat="39.7127686" lon="2.8133025">
<ele>198.94</ele>
<time>2016-10-19T10:39:16Z</time>
</trkpt>
<trkpt lat="39.7127770" lon="2.8135498">
<ele>200.35</ele>
<time>2016-10-19T10:39:22Z</time>
</trkpt>
<trkpt lat="39.7127385" lon="2.8137902">
<ele>201.53</ele>
<time>2016-10-19T10:39:28Z</time>
</trkpt>
<trkpt lat="39.7126814" lon="2.8140237">
<ele>202.77</ele>
<time>2016-10-19T10:39:34Z</time>
</trkpt>
<trkpt lat="39.7126396" lon="2.8142954">
<ele>204.93</ele>
<time>2016-10-19T10:39:39Z</time>
</trkpt>
<trkpt lat="39.7126137" lon="2.8145354">
<ele>206.53</ele>
<time>2016-10-19T10:39:43Z</time>
</trkpt>
<trkpt lat="39.7126443" lon="2.8147980">
<ele>209.73</ele>
<time>2016-10-19T10:39:47Z</time>
</trkpt>
<trkpt lat="39.7127370" lon="2.8150073">
<ele>211.12</ele>
<time>2016-10-19T10:39:50Z</time>
</trkpt>
<trkpt lat="39.7128404" lon="2.8152081">
<ele>212.14</ele>
<time>2016-10-19T10:39:53Z</time>
</trkpt>
<trkpt lat="39.7129867" lon="2.8154283">
<ele>212.78</ele>
<time>2016-10-19T10:39:57Z</time>
</trkpt>
<trkpt lat="39.7131331" lon="2.8156015">
<ele>211.82</ele>
<time>2016-10-19T10:40:00Z</time>
</trkpt>
<trkpt lat="39.7132660" lon="2.8157633">
<ele>208.55</ele>
<time>2016-10-19T10:40:02Z</time>
</trkpt>
<trkpt lat="39.7133910" lon="2.8159895">
<ele>207.69</ele>
<time>2016-10-19T10:40:06Z</time>
</trkpt>
<trkpt lat="39.7135077" lon="2.8162444">
<ele>208.87</ele>
<time>2016-10-19T10:40:10Z</time>
</trkpt>
<trkpt lat="39.7136009" lon="2.8164715">
<ele>208.22</ele>
<time>2016-10-19T10:40:14Z</time>
</trkpt>
<trkpt lat="39.7136916" lon="2.8167098">
<ele>208.30</ele>
<time>2016-10-19T10:40:18Z</time>
</trkpt>
<trkpt lat="39.7138329" lon="2.8169244">
<ele>207.74</ele>
<time>2016-10-19T10:40:23Z</time>
</trkpt>
<trkpt lat="39.7139943" lon="2.8171355">
<ele>206.24</ele>
<time>2016-10-19T10:40:28Z</time>
</trkpt>
<trkpt lat="39.7141373" lon="2.8173062">
<ele>207.96</ele>
<time>2016-10-19T10:40:31Z</time>
</trkpt>
<trkpt lat="39.7143059" lon="2.8174899">
<ele>208.35</ele>
<time>2016-10-19T10:40:34Z</time>
</trkpt>
<trkpt lat="39.7144884" lon="2.8176595">
<ele>207.11</ele>
<time>2016-10-19T10:40:37Z</time>
</trkpt>
<trkpt lat="39.7146728" lon="2.8178296">
<ele>203.54</ele>
<time>2016-10-19T10:40:40Z</time>
</trkpt>
<trkpt lat="39.7148712" lon="2.8179808">
<ele>196.16</ele>
<time>2016-10-19T10:40:43Z</time>
</trkpt>
<trkpt lat="39.7150692" lon="2.8181282">
<ele>190.51</ele>
<time>2016-10-19T10:40:46Z</time>
</trkpt>
<trkpt lat="39.7152459" lon="2.8182943">
<ele>188.27</ele>
<time>2016-10-19T10:40:49Z</time>
</trkpt>
<trkpt lat="39.7154035" lon="2.8184638">
<ele>190.00</ele>
<time>2016-10-19T10:40:52Z</time>
</trkpt>
<trkpt lat="39.7155513" lon="2.8186256">
<ele>191.26</ele>
<time>2016-10-19T10:40:55Z</time>
</trkpt>
<trkpt lat="39.7157411" lon="2.8188115">
<ele>193.25</ele>
<time>2016-10-19T10:40:59Z</time>
</trkpt>
<trkpt lat="39.7159512" lon="2.8189696">
<ele>193.84</ele>
<time>2016-10-19T10:41:03Z</time>
</trkpt>
<trkpt lat="39.7161602" lon="2.8190713">
<ele>194.26</ele>
<time>2016-10-19T10:41:07Z</time>
</trkpt>
<trkpt lat="39.7163246" lon="2.8191956">
<ele>195.96</ele>
<time>2016-10-19T10:41:11Z</time>
</trkpt>
<trkpt lat="39.7164810" lon="2.8193910">
<ele>202.60</ele>
<time>2016-10-19T10:41:16Z</time>
</trkpt>
<trkpt lat="39.7165956" lon="2.8195945">
<ele>204.20</ele>
<time>2016-10-19T10:41:21Z</time>
</trkpt>
<trkpt lat="39.7167262" lon="2.8198198">
<ele>203.83</ele>
<time>2016-10-19T10:41:26Z</time>
</trkpt>
<trkpt lat="39.7168440" lon="2.8200125">
<ele>205.53</ele>
<time>2016-10-19T10:41:31Z</time>
</trkpt>
<trkpt lat="39.7169886" lon="2.8202286">
<ele>211.53</ele>
<time>2016-10-19T10:41:36Z</time>
</trkpt>
<trkpt lat="39.7171252" lon="2.8204743">
<ele>213.92</ele>
<time>2016-10-19T10:41:40Z</time>
</trkpt>
<trkpt lat="39.7172480" lon="2.8206886">
<ele>218.09</ele>
<time>2016-10-19T10:41:44Z</time>
</trkpt>
<trkpt lat="39.7173648" lon="2.8208985">
<ele>218.38</ele>
<time>2016-10-19T10:41:48Z</time>
</trkpt>
<trkpt lat="39.7173961" lon="2.8211513">
<ele>221.38</ele>
<time>2016-10-19T10:41:52Z</time>
</trkpt>
<trkpt lat="39.7174323" lon="2.8213811">
<ele>222.21</ele>
<time>2016-10-19T10:41:57Z</time>
</trkpt>
<trkpt lat="39.7174594" lon="2.8216342">
<ele>221.00</ele>
<time>2016-10-19T10:42:02Z</time>
</trkpt>
<trkpt lat="39.7174918" lon="2.8218810">
<ele>222.67</ele>
<time>2016-10-19T10:42:07Z</time>
</trkpt>
<trkpt lat="39.7175380" lon="2.8221234">
<ele>225.80</ele>
<time>2016-10-19T10:42:12Z</time>
</trkpt>
<trkpt lat="39.7175921" lon="2.8223806">
<ele>231.51</ele>
<time>2016-10-19T10:42:17Z</time>
</trkpt>
<trkpt lat="39.7176875" lon="2.8226610">
<ele>231.35</ele>
<time>2016-10-19T10:42:21Z</time>
</trkpt>
<trkpt lat="39.7177635" lon="2.8228814">
<ele>228.03</ele>
<time>2016-10-19T10:42:24Z</time>
</trkpt>
<trkpt lat="39.7178450" lon="2.8231525">
<ele>226.61</ele>
<time>2016-10-19T10:42:28Z</time>
</trkpt>
<trkpt lat="39.7179235" lon="2.8233950">
<ele>225.84</ele>
<time>2016-10-19T10:42:32Z</time>
</trkpt>
<trkpt lat="39.7180073" lon="2.8236533">
<ele>227.68</ele>
<time>2016-10-19T10:42:37Z</time>
</trkpt>
<trkpt lat="39.7180551" lon="2.8239064">
<ele>228.49</ele>
<time>2016-10-19T10:42:44Z</time>
</trkpt>
<trkpt lat="39.7180954" lon="2.8241574">
<ele>229.24</ele>
<time>2016-10-19T10:42:49Z</time>
</trkpt>
<trkpt lat="39.7181374" lon="2.8244076">
<ele>229.87</ele>
<time>2016-10-19T10:42:55Z</time>
</trkpt>
<trkpt lat="39.7181892" lon="2.8246339">
<ele>230.85</ele>
<time>2016-10-19T10:43:01Z</time>
</trkpt>
<trkpt lat="39.7182337" lon="2.8248641">
<ele>231.80</ele>
<time>2016-10-19T10:43:07Z</time>
</trkpt>
<trkpt lat="39.7182664" lon="2.8251133">
<ele>232.32</ele>
<time>2016-10-19T10:43:14Z</time>
</trkpt>
<trkpt lat="39.7183317" lon="2.8253434">
<ele>232.93</ele>
<time>2016-10-19T10:43:20Z</time>
</trkpt>
<trkpt lat="39.7183837" lon="2.8255981">
<ele>233.87</ele>
<time>2016-10-19T10:43:27Z</time>
</trkpt>
<trkpt lat="39.7184640" lon="2.8258478">
<ele>234.29</ele>
<time>2016-10-19T10:43:33Z</time>
</trkpt>
<trkpt lat="39.7185725" lon="2.8260737">
<ele>234.76</ele>
<time>2016-10-19T10:43:39Z</time>
</trkpt>
<trkpt lat="39.7187119" lon="2.8262739">
<ele>234.94</ele>
<time>2016-10-19T10:43:45Z</time>
</trkpt>
<trkpt lat="39.7188781" lon="2.8264236">
<ele>234.71</ele>
<time>2016-10-19T10:43:52Z</time>
</trkpt>
<trkpt lat="39.7190564" lon="2.8265350">
<ele>234.44</ele>
<time>2016-10-19T10:43:58Z</time>
</trkpt>
<trkpt lat="39.7192312" lon="2.8266354">
<ele>233.42</ele>
<time>2016-10-19T10:44:03Z</time>
</trkpt>
<trkpt lat="39.7194206" lon="2.8267081">
<ele>232.11</ele>
<time>2016-10-19T10:44:09Z</time>
</trkpt>
<trkpt lat="39.7195984" lon="2.8268071">
<ele>226.04</ele>
<time>2016-10-19T10:44:14Z</time>
</trkpt>
<trkpt lat="39.7197988" lon="2.8269318">
<ele>221.22</ele>
<time>2016-10-19T10:44:18Z</time>
</trkpt>
<trkpt lat="39.7199896" lon="2.8270806">
<ele>221.63</ele>
<time>2016-10-19T10:44:22Z</time>
</trkpt>
<trkpt lat="39.7201842" lon="2.8272136">
<ele>222.62</ele>
<time>2016-10-19T10:44:26Z</time>
</trkpt>
<trkpt lat="39.7203662" lon="2.8272721">
<ele>223.91</ele>
<time>2016-10-19T10:44:30Z</time>
</trkpt>
<trkpt lat="39.7205208" lon="2.8274443">
<ele>227.71</ele>
<time>2016-10-19T10:44:35Z</time>
</trkpt>
<trkpt lat="39.7206374" lon="2.8276854">
<ele>228.86</ele>
<time>2016-10-19T10:44:40Z</time>
</trkpt>
<trkpt lat="39.7207644" lon="2.8279080">
<ele>230.32</ele>
<time>2016-10-19T10:44:46Z</time>
</trkpt>
<trkpt lat="39.7208961" lon="2.8280886">
<ele>230.68</ele>
<time>2016-10-19T10:44:51Z</time>
</trkpt>
<trkpt lat="39.7210366" lon="2.8282682">
<ele>231.16</ele>
<time>2016-10-19T10:44:57Z</time>
</trkpt>
<trkpt lat="39.7211761" lon="2.8284613">
<ele>233.50</ele>
<time>2016-10-19T10:45:04Z</time>
</trkpt>
<trkpt lat="39.7213028" lon="2.8286487">
<ele>235.20</ele>
<time>2016-10-19T10:45:11Z</time>
</trkpt>
<trkpt lat="39.7213589" lon="2.8288728">
<ele>237.08</ele>
<time>2016-10-19T10:45:19Z</time>
</trkpt>
<trkpt lat="39.7214073" lon="2.8291196">
<ele>240.18</ele>
<time>2016-10-19T10:45:28Z</time>
</trkpt>
<trkpt lat="39.7214524" lon="2.8293762">
<ele>243.32</ele>
<time>2016-10-19T10:45:36Z</time>
</trkpt>
<trkpt lat="39.7215425" lon="2.8296202">
<ele>253.77</ele>
<time>2016-10-19T10:45:41Z</time>
</trkpt>
<trkpt lat="39.7216544" lon="2.8298434">
<ele>258.56</ele>
<time>2016-10-19T10:45:45Z</time>
</trkpt>
<trkpt lat="39.7217893" lon="2.8300159">
<ele>260.30</ele>
<time>2016-10-19T10:45:48Z</time>
</trkpt>
<trkpt lat="39.7219614" lon="2.8301804">
<ele>261.13</ele>
<time>2016-10-19T10:45:51Z</time>
</trkpt>
<trkpt lat="39.7221693" lon="2.8303991">
<ele>257.77</ele>
<time>2016-10-19T10:45:54Z</time>
</trkpt>
<trkpt lat="39.7222866" lon="2.8305956">
<ele>253.93</ele>
<time>2016-10-19T10:45:56Z</time>
</trkpt>
<trkpt lat="39.7224050" lon="2.8308050">
<ele>249.40</ele>
<time>2016-10-19T10:45:58Z</time>
</trkpt>
<trkpt lat="39.7225244" lon="2.8310095">
<ele>245.77</ele>
<time>2016-10-19T10:46:00Z</time>
</trkpt>
<trkpt lat="39.7226319" lon="2.8311998">
<ele>243.15</ele>
<time>2016-10-19T10:46:02Z</time>
</trkpt>
<trkpt lat="39.7227218" lon="2.8315137">
<ele>239.85</ele>
<time>2016-10-19T10:46:05Z</time>
</trkpt>
<trkpt lat="39.7227973" lon="2.8318514">
<ele>238.32</ele>
<time>2016-10-19T10:46:08Z</time>
</trkpt>
<trkpt lat="39.7228541" lon="2.8321696">
<ele>237.19</ele>
<time>2016-10-19T10:46:11Z</time>
</trkpt>
<trkpt lat="39.7228888" lon="2.8324902">
<ele>236.11</ele>
<time>2016-10-19T10:46:14Z</time>
</trkpt>
<trkpt lat="39.7229008" lon="2.8327814">
<ele>235.50</ele>
<time>2016-10-19T10:46:17Z</time>
</trkpt>
<trkpt lat="39.7229217" lon="2.8330703">
<ele>234.57</ele>
<time>2016-10-19T10:46:20Z</time>
</trkpt>
<trkpt lat="39.7229407" lon="2.8333679">
<ele>232.54</ele>
<time>2016-10-19T10:46:23Z</time>
</trkpt>
<trkpt lat="39.7229462" lon="2.8336651">
<ele>229.85</ele>
<time>2016-10-19T10:46:26Z</time>
</trkpt>
<trkpt lat="39.7229404" lon="2.8339493">
<ele>227.77</ele>
<time>2016-10-19T10:46:29Z</time>
</trkpt>
<trkpt lat="39.7229502" lon="2.8342462">
<ele>226.30</ele>
<time>2016-10-19T10:46:32Z</time>
</trkpt>
<trkpt lat="39.7229565" lon="2.8345459">
<ele>224.55</ele>
<time>2016-10-19T10:46:35Z</time>
</trkpt>
<trkpt lat="39.7229473" lon="2.8348587">
<ele>223.11</ele>
<time>2016-10-19T10:46:38Z</time>
</trkpt>
<trkpt lat="39.7229232" lon="2.8352070">
<ele>221.34</ele>
<time>2016-10-19T10:46:41Z</time>
</trkpt>
<trkpt lat="39.7229235" lon="2.8354677">
<ele>219.85</ele>
<time>2016-10-19T10:46:43Z</time>
</trkpt>
<trkpt lat="39.7229389" lon="2.8357454">
<ele>218.38</ele>
<time>2016-10-19T10:46:45Z</time>
</trkpt>
<trkpt lat="39.7229499" lon="2.8360070">
<ele>216.90</ele>
<time>2016-10-19T10:46:47Z</time>
</trkpt>
<trkpt lat="39.7229596" lon="2.8362608">
<ele>215.70</ele>
<time>2016-10-19T10:46:49Z</time>
</trkpt>
<trkpt lat="39.7228954" lon="2.8365509">
<ele>213.93</ele>
<time>2016-10-19T10:46:52Z</time>
</trkpt>
<trkpt lat="39.7227888" lon="2.8367771">
<ele>212.88</ele>
<time>2016-10-19T10:46:54Z</time>
</trkpt>
<trkpt lat="39.7226686" lon="2.8369897">
<ele>210.42</ele>
<time>2016-10-19T10:46:56Z</time>
</trkpt>
<trkpt lat="39.7225403" lon="2.8372090">
<ele>207.28</ele>
<time>2016-10-19T10:46:58Z</time>
</trkpt>
<trkpt lat="39.7224054" lon="2.8374118">
<ele>205.43</ele>
<time>2016-10-19T10:47:00Z</time>
</trkpt>
<trkpt lat="39.7222818" lon="2.8375999">
<ele>204.54</ele>
<time>2016-10-19T10:47:02Z</time>
</trkpt>
<trkpt lat="39.7221240" lon="2.8378282">
<ele>204.72</ele>
<time>2016-10-19T10:47:05Z</time>
</trkpt>
<trkpt lat="39.7219587" lon="2.8380649">
<ele>204.43</ele>
<time>2016-10-19T10:47:08Z</time>
</trkpt>
<trkpt lat="39.7218049" lon="2.8383015">
<ele>203.29</ele>
<time>2016-10-19T10:47:11Z</time>
</trkpt>
<trkpt lat="39.7217142" lon="2.8385985">
<ele>201.66</ele>
<time>2016-10-19T10:47:14Z</time>
</trkpt>
<trkpt lat="39.7216603" lon="2.8389268">
<ele>200.81</ele>
<time>2016-10-19T10:47:17Z</time>
</trkpt>
<trkpt lat="39.7215919" lon="2.8392605">
<ele>197.56</ele>
<time>2016-10-19T10:47:20Z</time>
</trkpt>
<trkpt lat="39.7215391" lon="2.8394853">
<ele>195.24</ele>
<time>2016-10-19T10:47:22Z</time>
</trkpt>
<trkpt lat="39.7214651" lon="2.8397269">
<ele>193.84</ele>
<time>2016-10-19T10:47:24Z</time>
</trkpt>
<trkpt lat="39.7213915" lon="2.8399412">
<ele>191.54</ele>
<time>2016-10-19T10:47:26Z</time>
</trkpt>
<trkpt lat="39.7212843" lon="2.8402394">
<ele>187.89</ele>
<time>2016-10-19T10:47:29Z</time>
</trkpt>
<trkpt lat="39.7211877" lon="2.8405741">
<ele>185.33</ele>
<time>2016-10-19T10:47:32Z</time>
</trkpt>
<trkpt lat="39.7211157" lon="2.8408944">
<ele>182.43</ele>
<time>2016-10-19T10:47:35Z</time>
</trkpt>
<trkpt lat="39.7210569" lon="2.8412188">
<ele>180.86</ele>
<time>2016-10-19T10:47:38Z</time>
</trkpt>
<trkpt lat="39.7210193" lon="2.8414610">
<ele>179.34</ele>
<time>2016-10-19T10:47:40Z</time>
</trkpt>
<trkpt lat="39.7209917" lon="2.8417171">
<ele>178.92</ele>
<time>2016-10-19T10:47:42Z</time>
</trkpt>
<trkpt lat="39.7209672" lon="2.8419844">
<ele>178.38</ele>
<time>2016-10-19T10:47:44Z</time>
</trkpt>
<trkpt lat="39.7209475" lon="2.8422619">
<ele>176.79</ele>
<time>2016-10-19T10:47:46Z</time>
</trkpt>
<trkpt lat="39.7209388" lon="2.8425604">
<ele>176.13</ele>
<time>2016-10-19T10:47:48Z</time>
</trkpt>
<trkpt lat="39.7209253" lon="2.8428386">
<ele>174.47</ele>
<time>2016-10-19T10:47:50Z</time>
</trkpt>
<trkpt lat="39.7209149" lon="2.8430950">
<ele>173.18</ele>
<time>2016-10-19T10:47:52Z</time>
</trkpt>
<trkpt lat="39.7208876" lon="2.8433651">
<ele>172.00</ele>
<time>2016-10-19T10:47:54Z</time>
</trkpt>
<trkpt lat="39.7208335" lon="2.8436460">
<ele>170.90</ele>
<time>2016-10-19T10:47:56Z</time>
</trkpt>
<trkpt lat="39.7207610" lon="2.8439121">
<ele>169.30</ele>
<time>2016-10-19T10:47:58Z</time>
</trkpt>
<trkpt lat="39.7206858" lon="2.8441736">
<ele>167.80</ele>
<time>2016-10-19T10:48:00Z</time>
</trkpt>
<trkpt lat="39.7205977" lon="2.8445037">
<ele>166.07</ele>
<time>2016-10-19T10:48:03Z</time>
</trkpt>
<trkpt lat="39.7205082" lon="2.8448041">
<ele>165.45</ele>
<time>2016-10-19T10:48:06Z</time>
</trkpt>
<trkpt lat="39.7204137" lon="2.8450736">
<ele>164.30</ele>
<time>2016-10-19T10:48:09Z</time>
</trkpt>
<trkpt lat="39.7203998" lon="2.8453684">
<ele>161.94</ele>
<time>2016-10-19T10:48:12Z</time>
</trkpt>
<trkpt lat="39.7204291" lon="2.8456079">
<ele>160.40</ele>
<time>2016-10-19T10:48:14Z</time>
</trkpt>
<trkpt lat="39.7204613" lon="2.8458384">
<ele>158.77</ele>
<time>2016-10-19T10:48:16Z</time>
</trkpt>
<trkpt lat="39.7205094" lon="2.8461524">
<ele>156.95</ele>
<time>2016-10-19T10:48:19Z</time>
</trkpt>
<trkpt lat="39.7206531" lon="2.8463868">
<ele>155.28</ele>
<time>2016-10-19T10:48:23Z</time>
</trkpt>
<trkpt lat="39.7208958" lon="2.8464171">
<ele>154.05</ele>
<time>2016-10-19T10:48:27Z</time>
</trkpt>
<trkpt lat="39.7211130" lon="2.8463717">
<ele>152.93</ele>
<time>2016-10-19T10:48:30Z</time>
</trkpt>
<trkpt lat="39.7213309" lon="2.8464808">
<ele>153.56</ele>
<time>2016-10-19T10:48:35Z</time>
</trkpt>
<trkpt lat="39.7214866" lon="2.8466484">
<ele>153.61</ele>
<time>2016-10-19T10:48:38Z</time>
</trkpt>
<trkpt lat="39.7216337" lon="2.8468478">
<ele>152.19</ele>
<time>2016-10-19T10:48:41Z</time>
</trkpt>
<trkpt lat="39.7217644" lon="2.8470690">
<ele>152.46</ele>
<time>2016-10-19T10:48:44Z</time>
</trkpt>
<trkpt lat="39.7217430" lon="2.8473253">
<ele>152.17</ele>
<time>2016-10-19T10:48:48Z</time>
</trkpt>
<trkpt lat="39.7215609" lon="2.8474638">
<ele>153.03</ele>
<time>2016-10-19T10:48:52Z</time>
</trkpt>
<trkpt lat="39.7213707" lon="2.8476460">
<ele>154.10</ele>
<time>2016-10-19T10:48:56Z</time>
</trkpt>
<trkpt lat="39.7211748" lon="2.8478189">
<ele>153.69</ele>
<time>2016-10-19T10:49:00Z</time>
</trkpt>
<trkpt lat="39.7210091" lon="2.8479522">
<ele>152.23</ele>
<time>2016-10-19T10:49:03Z</time>
</trkpt>
<trkpt lat="39.7208265" lon="2.8480845">
<ele>150.61</ele>
<time>2016-10-19T10:49:06Z</time>
</trkpt>
<trkpt lat="39.7206619" lon="2.8482149">
<ele>149.59</ele>
<time>2016-10-19T10:49:09Z</time>
</trkpt>
<trkpt lat="39.7204632" lon="2.8483664">
<ele>150.61</ele>
<time>2016-10-19T10:49:13Z</time>
</trkpt>
<trkpt lat="39.7203053" lon="2.8484934">
<ele>148.67</ele>
<time>2016-10-19T10:49:16Z</time>
</trkpt>
<trkpt lat="39.7201515" lon="2.8486250">
<ele>145.75</ele>
<time>2016-10-19T10:49:19Z</time>
</trkpt>
<trkpt lat="39.7199937" lon="2.8487746">
<ele>143.25</ele>
<time>2016-10-19T10:49:22Z</time>
</trkpt>
<trkpt lat="39.7198225" lon="2.8489396">
<ele>140.71</ele>
<time>2016-10-19T10:49:25Z</time>
</trkpt>
<trkpt lat="39.7196606" lon="2.8490901">
<ele>138.75</ele>
<time>2016-10-19T10:49:28Z</time>
</trkpt>
<trkpt lat="39.7195072" lon="2.8492406">
<ele>137.86</ele>
<time>2016-10-19T10:49:31Z</time>
</trkpt>
<trkpt lat="39.7193281" lon="2.8494216">
<ele>139.73</ele>
<time>2016-10-19T10:49:35Z</time>
</trkpt>
<trkpt lat="39.7191683" lon="2.8495844">
<ele>141.24</ele>
<time>2016-10-19T10:49:38Z</time>
</trkpt>
<trkpt lat="39.7190096" lon="2.8497486">
<ele>141.90</ele>
<time>2016-10-19T10:49:41Z</time>
</trkpt>
<trkpt lat="39.7188463" lon="2.8499194">
<ele>141.56</ele>
<time>2016-10-19T10:49:44Z</time>
</trkpt>
<trkpt lat="39.7186960" lon="2.8500826">
<ele>141.26</ele>
<time>2016-10-19T10:49:47Z</time>
</trkpt>
<trkpt lat="39.7185209" lon="2.8502679">
<ele>142.40</ele>
<time>2016-10-19T10:49:51Z</time>
</trkpt>
<trkpt lat="39.7183452" lon="2.8504603">
<ele>144.02</ele>
<time>2016-10-19T10:49:55Z</time>
</trkpt>
<trkpt lat="39.7182035" lon="2.8506044">
<ele>144.38</ele>
<time>2016-10-19T10:49:58Z</time>
</trkpt>
<trkpt lat="39.7180569" lon="2.8507501">
<ele>144.45</ele>
<time>2016-10-19T10:50:01Z</time>
</trkpt>
<trkpt lat="39.7179066" lon="2.8508931">
<ele>143.96</ele>
<time>2016-10-19T10:50:04Z</time>
</trkpt>
<trkpt lat="39.7177601" lon="2.8510344">
<ele>143.81</ele>
<time>2016-10-19T10:50:07Z</time>
</trkpt>
<trkpt lat="39.7176180" lon="2.8512043">
<ele>143.77</ele>
<time>2016-10-19T10:50:10Z</time>
</trkpt>
<trkpt lat="39.7174990" lon="2.8513918">
<ele>143.45</ele>
<time>2016-10-19T10:50:13Z</time>
</trkpt>
<trkpt lat="39.7173796" lon="2.8515962">
<ele>142.85</ele>
<time>2016-10-19T10:50:16Z</time>
</trkpt>
<trkpt lat="39.7172582" lon="2.8517892">
<ele>142.88</ele>
<time>2016-10-19T10:50:19Z</time>
</trkpt>
<trkpt lat="39.7171307" lon="2.8519800">
<ele>142.92</ele>
<time>2016-10-19T10:50:22Z</time>
</trkpt>
<trkpt lat="39.7169950" lon="2.8521719">
<ele>143.94</ele>
<time>2016-10-19T10:50:25Z</time>
</trkpt>
<trkpt lat="39.7168601" lon="2.8523594">
<ele>144.25</ele>
<time>2016-10-19T10:50:28Z</time>
</trkpt>
<trkpt lat="39.7167418" lon="2.8525361">
<ele>144.65</ele>
<time>2016-10-19T10:50:31Z</time>
</trkpt>
<trkpt lat="39.7166640" lon="2.8527635">
<ele>145.43</ele>
<time>2016-10-19T10:50:34Z</time>
</trkpt>
<trkpt lat="39.7166028" lon="2.8529959">
<ele>145.84</ele>
<time>2016-10-19T10:50:37Z</time>
</trkpt>
<trkpt lat="39.7165605" lon="2.8532371">
<ele>146.03</ele>
<time>2016-10-19T10:50:40Z</time>
</trkpt>
<trkpt lat="39.7165398" lon="2.8534925">
<ele>147.09</ele>
<time>2016-10-19T10:50:43Z</time>
</trkpt>
<trkpt lat="39.7165471" lon="2.8537740">
<ele>147.69</ele>
<time>2016-10-19T10:50:46Z</time>
</trkpt>
<trkpt lat="39.7165833" lon="2.8540195">
<ele>148.23</ele>
<time>2016-10-19T10:50:49Z</time>
</trkpt>
<trkpt lat="39.7166294" lon="2.8542644">
<ele>148.65</ele>
<time>2016-10-19T10:50:52Z</time>
</trkpt>
<trkpt lat="39.7166598" lon="2.8545025">
<ele>148.78</ele>
<time>2016-10-19T10:50:55Z</time>
</trkpt>
<trkpt lat="39.7166563" lon="2.8547760">
<ele>148.87</ele>
<time>2016-10-19T10:50:58Z</time>
</trkpt>
<trkpt lat="39.7166024" lon="2.8550913">
<ele>147.92</ele>
<time>2016-10-19T10:51:01Z</time>
</trkpt>
<trkpt lat="39.7165419" lon="2.8553393">
<ele>147.86</ele>
<time>2016-10-19T10:51:04Z</time>
</trkpt>
<trkpt lat="39.7164783" lon="2.8555831">
<ele>147.37</ele>
<time>2016-10-19T10:51:07Z</time>
</trkpt>
<trkpt lat="39.7163828" lon="2.8558496">
<ele>146.36</ele>
<time>2016-10-19T10:51:10Z</time>
</trkpt>
<trkpt lat="39.7162548" lon="2.8560731">
<ele>145.10</ele>
<time>2016-10-19T10:51:13Z</time>
</trkpt>
<trkpt lat="39.7161021" lon="2.8562352">
<ele>144.40</ele>
<time>2016-10-19T10:51:16Z</time>
</trkpt>
<trkpt lat="39.7159214" lon="2.8563685">
<ele>144.20</ele>
<time>2016-10-19T10:51:19Z</time>
</trkpt>
<trkpt lat="39.7157254" lon="2.8564879">
<ele>142.24</ele>
<time>2016-10-19T10:51:22Z</time>
</trkpt>
<trkpt lat="39.7155382" lon="2.8566154">
<ele>139.96</ele>
<time>2016-10-19T10:51:25Z</time>
</trkpt>
<trkpt lat="39.7153615" lon="2.8567493">
<ele>137.92</ele>
<time>2016-10-19T10:51:28Z</time>
</trkpt>
<trkpt lat="39.7151853" lon="2.8568777">
<ele>136.34</ele>
<time>2016-10-19T10:51:31Z</time>
</trkpt>
<trkpt lat="39.7150047" lon="2.8569997">
<ele>134.52</ele>
<time>2016-10-19T10:51:36Z</time>
</trkpt>
<trkpt lat="39.7149967" lon="2.8573125">
<ele>136.97</ele>
<time>2016-10-19T10:52:01Z</time>
</trkpt>
<trkpt lat="39.7150523" lon="2.8575457">
<ele>139.18</ele>
<time>2016-10-19T10:52:12Z</time>
</trkpt>
<trkpt lat="39.7151521" lon="2.8577681">
<ele>140.57</ele>
<time>2016-10-19T10:52:20Z</time>
</trkpt>
<trkpt lat="39.7152639" lon="2.8579904">
<ele>140.88</ele>
<time>2016-10-19T10:52:26Z</time>
</trkpt>
<trkpt lat="39.7153536" lon="2.8582088">
<ele>141.30</ele>
<time>2016-10-19T10:52:32Z</time>
</trkpt>
<trkpt lat="39.7154618" lon="2.8584190">
<ele>141.93</ele>
<time>2016-10-19T10:52:39Z</time>
</trkpt>
<trkpt lat="39.7155736" lon="2.8586438">
<ele>142.54</ele>
<time>2016-10-19T10:52:45Z</time>
</trkpt>
<trkpt lat="39.7156828" lon="2.8588720">
<ele>143.20</ele>
<time>2016-10-19T10:52:52Z</time>
</trkpt>
<trkpt lat="39.7158017" lon="2.8590581">
<ele>143.54</ele>
<time>2016-10-19T10:52:58Z</time>
</trkpt>
<trkpt lat="39.7159719" lon="2.8592360">
<ele>143.80</ele>
<time>2016-10-19T10:53:04Z</time>
</trkpt>
<trkpt lat="39.7161644" lon="2.8593601">
<ele>143.49</ele>
<time>2016-10-19T10:53:10Z</time>
</trkpt>
<trkpt lat="39.7163139" lon="2.8595353">
<ele>143.01</ele>
<time>2016-10-19T10:53:16Z</time>
</trkpt>
<trkpt lat="39.7164267" lon="2.8597298">
<ele>142.91</ele>
<time>2016-10-19T10:53:21Z</time>
</trkpt>
<trkpt lat="39.7165293" lon="2.8599243">
<ele>143.14</ele>
<time>2016-10-19T10:53:28Z</time>
</trkpt>
<trkpt lat="39.7165506" lon="2.8601703">
<ele>146.21</ele>
<time>2016-10-19T10:53:52Z</time>
</trkpt>
<trkpt lat="39.7165499" lon="2.8604684">
<ele>148.67</ele>
<time>2016-10-19T10:53:57Z</time>
</trkpt>
<trkpt lat="39.7165138" lon="2.8607422">
<ele>147.80</ele>
<time>2016-10-19T10:54:01Z</time>
</trkpt>
<trkpt lat="39.7164863" lon="2.8610302">
<ele>147.07</ele>
<time>2016-10-19T10:54:06Z</time>
</trkpt>
<trkpt lat="39.7164533" lon="2.8613190">
<ele>148.04</ele>
<time>2016-10-19T10:54:10Z</time>
</trkpt>
<trkpt lat="39.7164318" lon="2.8615958">
<ele>149.02</ele>
<time>2016-10-19T10:54:14Z</time>
</trkpt>
<trkpt lat="39.7164030" lon="2.8618818">
<ele>150.25</ele>
<time>2016-10-19T10:54:18Z</time>
</trkpt>
<trkpt lat="39.7163750" lon="2.8621676">
<ele>150.53</ele>
<time>2016-10-19T10:54:22Z</time>
</trkpt>
<trkpt lat="39.7163622" lon="2.8624646">
<ele>150.79</ele>
<time>2016-10-19T10:54:26Z</time>
</trkpt>
<trkpt lat="39.7163458" lon="2.8627559">
<ele>150.33</ele>
<time>2016-10-19T10:54:30Z</time>
</trkpt>
<trkpt lat="39.7163219" lon="2.8630106">
<ele>148.93</ele>
<time>2016-10-19T10:54:33Z</time>
</trkpt>
<trkpt lat="39.7162980" lon="2.8632621">
<ele>148.02</ele>
<time>2016-10-19T10:54:36Z</time>
</trkpt>
<trkpt lat="39.7162816" lon="2.8635092">
<ele>147.39</ele>
<time>2016-10-19T10:54:39Z</time>
</trkpt>
<trkpt lat="39.7162687" lon="2.8637510">
<ele>146.46</ele>
<time>2016-10-19T10:54:42Z</time>
</trkpt>
<trkpt lat="39.7162548" lon="2.8639916">
<ele>147.69</ele>
<time>2016-10-19T10:54:46Z</time>
</trkpt>
<trkpt lat="39.7162370" lon="2.8642752">
<ele>148.72</ele>
<time>2016-10-19T10:54:51Z</time>
</trkpt>
<trkpt lat="39.7162460" lon="2.8645387">
<ele>148.34</ele>
<time>2016-10-19T10:54:56Z</time>
</trkpt>
<trkpt lat="39.7162681" lon="2.8648020">
<ele>148.76</ele>
<time>2016-10-19T10:55:01Z</time>
</trkpt>
<trkpt lat="39.7162112" lon="2.8650551">
<ele>147.37</ele>
<time>2016-10-19T10:55:06Z</time>
</trkpt>
<trkpt lat="39.7160287" lon="2.8651804">
<ele>145.27</ele>
<time>2016-10-19T10:55:11Z</time>
</trkpt>
<trkpt lat="39.7158362" lon="2.8653191">
<ele>149.25</ele>
<time>2016-10-19T10:55:17Z</time>
</trkpt>
<trkpt lat="39.7157047" lon="2.8655085">
<ele>149.24</ele>
<time>2016-10-19T10:55:26Z</time>
</trkpt>
<trkpt lat="39.7157747" lon="2.8657644">
<ele>144.22</ele>
<time>2016-10-19T10:55:31Z</time>
</trkpt>
<trkpt lat="39.7158298" lon="2.8660022">
<ele>142.67</ele>
<time>2016-10-19T10:55:36Z</time>
</trkpt>
<trkpt lat="39.7158913" lon="2.8662410">
<ele>142.57</ele>
<time>2016-10-19T10:55:42Z</time>
</trkpt>
<trkpt lat="39.7157080" lon="2.8663363">
<ele>143.76</ele>
<time>2016-10-19T10:55:47Z</time>
</trkpt>
<trkpt lat="39.7155313" lon="2.8664331">
<ele>146.77</ele>
<time>2016-10-19T10:55:51Z</time>
</trkpt>
<trkpt lat="39.7153469" lon="2.8665321">
<ele>147.42</ele>
<time>2016-10-19T10:55:55Z</time>
</trkpt>
<trkpt lat="39.7151837" lon="2.8666438">
<ele>145.93</ele>
<time>2016-10-19T10:55:59Z</time>
</trkpt>
<trkpt lat="39.7150787" lon="2.8668503">
<ele>145.13</ele>
<time>2016-10-19T10:56:05Z</time>
</trkpt>
<trkpt lat="39.7149435" lon="2.8670218">
<ele>144.32</ele>
<time>2016-10-19T10:56:12Z</time>
</trkpt>
<trkpt lat="39.7150600" lon="2.8672200">
<ele>143.81</ele>
<time>2016-10-19T10:56:19Z</time>
</trkpt>
<trkpt lat="39.7151968" lon="2.8673807">
<ele>140.28</ele>
<time>2016-10-19T10:56:23Z</time>
</trkpt>
<trkpt lat="39.7153403" lon="2.8675614">
<ele>137.88</ele>
<time>2016-10-19T10:56:27Z</time>
</trkpt>
<trkpt lat="39.7154868" lon="2.8677468">
<ele>137.02</ele>
<time>2016-10-19T10:56:31Z</time>
</trkpt>
<trkpt lat="39.7156304" lon="2.8679300">
<ele>138.26</ele>
<time>2016-10-19T10:56:35Z</time>
</trkpt>
<trkpt lat="39.7157951" lon="2.8681226">
<ele>138.86</ele>
<time>2016-10-19T10:56:39Z</time>
</trkpt>
<trkpt lat="39.7159532" lon="2.8683127">
<ele>138.71</ele>
<time>2016-10-19T10:56:43Z</time>
</trkpt>
<trkpt lat="39.7161073" lon="2.8685077">
<ele>138.20</ele>
<time>2016-10-19T10:56:47Z</time>
</trkpt>
<trkpt lat="39.7162240" lon="2.8687172">
<ele>138.72</ele>
<time>2016-10-19T10:56:51Z</time>
</trkpt>
<trkpt lat="39.7163530" lon="2.8688884">
<ele>139.19</ele>
<time>2016-10-19T10:56:55Z</time>
</trkpt>
<trkpt lat="39.7164853" lon="2.8691135">
<ele>139.72</ele>
<time>2016-10-19T10:56:59Z</time>
</trkpt>
<trkpt lat="39.7165931" lon="2.8693150">
<ele>140.43</ele>
<time>2016-10-19T10:57:03Z</time>
</trkpt>
<trkpt lat="39.7167265" lon="2.8695384">
<ele>140.78</ele>
<time>2016-10-19T10:57:08Z</time>
</trkpt>
<trkpt lat="39.7168393" lon="2.8697250">
<ele>141.61</ele>
<time>2016-10-19T10:57:12Z</time>
</trkpt>
<trkpt lat="39.7169778" lon="2.8699323">
<ele>141.48</ele>
<time>2016-10-19T10:57:16Z</time>
</trkpt>
<trkpt lat="39.7171145" lon="2.8701456">
<ele>140.92</ele>
<time>2016-10-19T10:57:20Z</time>
</trkpt>
<trkpt lat="39.7172164" lon="2.8703397">
<ele>140.88</ele>
<time>2016-10-19T10:57:24Z</time>
</trkpt>
<trkpt lat="39.7173609" lon="2.8705726">
<ele>141.40</ele>
<time>2016-10-19T10:57:29Z</time>
</trkpt>
<trkpt lat="39.7175036" lon="2.8707572">
<ele>140.62</ele>
<time>2016-10-19T10:57:33Z</time>
</trkpt>
<trkpt lat="39.7176588" lon="2.8709110">
<ele>140.47</ele>
<time>2016-10-19T10:57:37Z</time>
</trkpt>
<trkpt lat="39.7178390" lon="2.8710587">
<ele>140.61</ele>
<time>2016-10-19T10:57:41Z</time>
</trkpt>
<trkpt lat="39.7180127" lon="2.8711923">
<ele>139.33</ele>
<time>2016-10-19T10:57:45Z</time>
</trkpt>
<trkpt lat="39.7181885" lon="2.8713151">
<ele>138.34</ele>
<time>2016-10-19T10:57:49Z</time>
</trkpt>
<trkpt lat="39.7183499" lon="2.8714361">
<ele>138.39</ele>
<time>2016-10-19T10:57:53Z</time>
</trkpt>
<trkpt lat="39.7185185" lon="2.8716074">
<ele>141.97</ele>
<time>2016-10-19T10:57:58Z</time>
</trkpt>
<trkpt lat="39.7186854" lon="2.8718006">
<ele>144.72</ele>
<time>2016-10-19T10:58:03Z</time>
</trkpt>
<trkpt lat="39.7188409" lon="2.8719638">
<ele>147.19</ele>
<time>2016-10-19T10:58:07Z</time>
</trkpt>
<trkpt lat="39.7189947" lon="2.8721384">
<ele>148.53</ele>
<time>2016-10-19T10:58:11Z</time>
</trkpt>
<trkpt lat="39.7191276" lon="2.8722968">
<ele>148.74</ele>
<time>2016-10-19T10:58:15Z</time>
</trkpt>
<trkpt lat="39.7192908" lon="2.8724747">
<ele>153.33</ele>
<time>2016-10-19T10:58:20Z</time>
</trkpt>
<trkpt lat="39.7194539" lon="2.8726478">
<ele>157.81</ele>
<time>2016-10-19T10:58:25Z</time>
</trkpt>
<trkpt lat="39.7195905" lon="2.8728041">
<ele>159.25</ele>
<time>2016-10-19T10:58:29Z</time>
</trkpt>
<trkpt lat="39.7197289" lon="2.8729777">
<ele>158.34</ele>
<time>2016-10-19T10:58:33Z</time>
</trkpt>
<trkpt lat="39.7198626" lon="2.8731406">
<ele>156.55</ele>
<time>2016-10-19T10:58:37Z</time>
</trkpt>
<trkpt lat="39.7199751" lon="2.8733282">
<ele>155.33</ele>
<time>2016-10-19T10:58:41Z</time>
</trkpt>
<trkpt lat="39.7199651" lon="2.8735861">
<ele>153.52</ele>
<time>2016-10-19T10:58:45Z</time>
</trkpt>
<trkpt lat="39.7199678" lon="2.8738556">
<ele>151.28</ele>
<time>2016-10-19T10:58:49Z</time>
</trkpt>
<trkpt lat="39.7199618" lon="2.8741239">
<ele>152.68</ele>
<time>2016-10-19T10:58:53Z</time>
</trkpt>
<trkpt lat="39.7199522" lon="2.8743758">
<ele>155.76</ele>
<time>2016-10-19T10:58:57Z</time>
</trkpt>
<trkpt lat="39.7199573" lon="2.8746461">
<ele>159.95</ele>
<time>2016-10-19T10:59:02Z</time>
</trkpt>
<trkpt lat="39.7199889" lon="2.8748912">
<ele>162.43</ele>
<time>2016-10-19T10:59:06Z</time>
</trkpt>
<trkpt lat="39.7200582" lon="2.8751776">
<ele>163.24</ele>
<time>2016-10-19T10:59:10Z</time>
</trkpt>
<trkpt lat="39.7201415" lon="2.8754399">
<ele>162.44</ele>
<time>2016-10-19T10:59:14Z</time>
</trkpt>
<trkpt lat="39.7202231" lon="2.8756901">
<ele>162.68</ele>
<time>2016-10-19T10:59:18Z</time>
</trkpt>
<trkpt lat="39.7203064" lon="2.8759280">
<ele>163.36</ele>
<time>2016-10-19T10:59:22Z</time>
</trkpt>
<trkpt lat="39.7203886" lon="2.8761917">
<ele>163.06</ele>
<time>2016-10-19T10:59:26Z</time>
</trkpt>
<trkpt lat="39.7204448" lon="2.8764333">
<ele>162.55</ele>
<time>2016-10-19T10:59:29Z</time>
</trkpt>
<trkpt lat="39.7204822" lon="2.8766881">
<ele>161.25</ele>
<time>2016-10-19T10:59:32Z</time>
</trkpt>
<trkpt lat="39.7205022" lon="2.8770147">
<ele>159.87</ele>
<time>2016-10-19T10:59:35Z</time>
</trkpt>
<trkpt lat="39.7204974" lon="2.8772655">
<ele>159.13</ele>
<time>2016-10-19T10:59:37Z</time>
</trkpt>
<trkpt lat="39.7204942" lon="2.8775332">
<ele>158.07</ele>
<time>2016-10-19T10:59:39Z</time>
</trkpt>
<trkpt lat="39.7204923" lon="2.8778082">
<ele>157.08</ele>
<time>2016-10-19T10:59:41Z</time>
</trkpt>
<trkpt lat="39.7204919" lon="2.8780932">
<ele>155.94</ele>
<time>2016-10-19T10:59:43Z</time>
</trkpt>
<trkpt lat="39.7204985" lon="2.8783759">
<ele>155.55</ele>
<time>2016-10-19T10:59:45Z</time>
</trkpt>
<trkpt lat="39.7205125" lon="2.8786563">
<ele>155.30</ele>
<time>2016-10-19T10:59:47Z</time>
</trkpt>
<trkpt lat="39.7205326" lon="2.8789131">
<ele>155.31</ele>
<time>2016-10-19T10:59:49Z</time>
</trkpt>
<trkpt lat="39.7205526" lon="2.8791487">
<ele>155.52</ele>
<time>2016-10-19T10:59:51Z</time>
</trkpt>
<trkpt lat="39.7205771" lon="2.8793875">
<ele>155.97</ele>
<time>2016-10-19T10:59:53Z</time>
</trkpt>
<trkpt lat="39.7205959" lon="2.8796233">
<ele>156.71</ele>
<time>2016-10-19T10:59:55Z</time>
</trkpt>
<trkpt lat="39.7206070" lon="2.8798688">
<ele>156.70</ele>
<time>2016-10-19T10:59:57Z</time>
</trkpt>
<trkpt lat="39.7206128" lon="2.8801581">
<ele>156.46</ele>
<time>2016-10-19T10:59:59Z</time>
</trkpt>
<trkpt lat="39.7206102" lon="2.8804435">
<ele>156.47</ele>
<time>2016-10-19T11:00:01Z</time>
</trkpt>
<trkpt lat="39.7205891" lon="2.8807171">
<ele>156.41</ele>
<time>2016-10-19T11:00:03Z</time>
</trkpt>
<trkpt lat="39.7205489" lon="2.8809829">
<ele>155.41</ele>
<time>2016-10-19T11:00:05Z</time>
</trkpt>
<trkpt lat="39.7204977" lon="2.8812539">
<ele>154.41</ele>
<time>2016-10-19T11:00:07Z</time>
</trkpt>
<trkpt lat="39.7204383" lon="2.8815178">
<ele>153.36</ele>
<time>2016-10-19T11:00:09Z</time>
</trkpt>
<trkpt lat="39.7203743" lon="2.8817502">
<ele>152.26</ele>
<time>2016-10-19T11:00:11Z</time>
</trkpt>
<trkpt lat="39.7203109" lon="2.8819914">
<ele>151.81</ele>
<time>2016-10-19T11:00:13Z</time>
</trkpt>
<trkpt lat="39.7202144" lon="2.8823108">
<ele>152.02</ele>
<time>2016-10-19T11:00:16Z</time>
</trkpt>
<trkpt lat="39.7201464" lon="2.8825377">
<ele>151.24</ele>
<time>2016-10-19T11:00:18Z</time>
</trkpt>
<trkpt lat="39.7200354" lon="2.8828620">
<ele>150.02</ele>
<time>2016-10-19T11:00:21Z</time>
</trkpt>
<trkpt lat="39.7199675" lon="2.8830806">
<ele>148.78</ele>
<time>2016-10-19T11:00:23Z</time>
</trkpt>
<trkpt lat="39.7199021" lon="2.8833112">
<ele>147.42</ele>
<time>2016-10-19T11:00:25Z</time>
</trkpt>
<trkpt lat="39.7198427" lon="2.8835520">
<ele>146.38</ele>
<time>2016-10-19T11:00:27Z</time>
</trkpt>
<trkpt lat="39.7197906" lon="2.8837895">
<ele>145.88</ele>
<time>2016-10-19T11:00:29Z</time>
</trkpt>
<trkpt lat="39.7197446" lon="2.8840540">
<ele>145.83</ele>
<time>2016-10-19T11:00:31Z</time>
</trkpt>
<trkpt lat="39.7197130" lon="2.8843048">
<ele>145.79</ele>
<time>2016-10-19T11:00:33Z</time>
</trkpt>
<trkpt lat="39.7196917" lon="2.8845665">
<ele>145.83</ele>
<time>2016-10-19T11:00:35Z</time>
</trkpt>
<trkpt lat="39.7196819" lon="2.8848469">
<ele>145.90</ele>
<time>2016-10-19T11:00:37Z</time>
</trkpt>
<trkpt lat="39.7196866" lon="2.8851347">
<ele>145.37</ele>
<time>2016-10-19T11:00:39Z</time>
</trkpt>
<trkpt lat="39.7196978" lon="2.8854281">
<ele>145.48</ele>
<time>2016-10-19T11:00:41Z</time>
</trkpt>
<trkpt lat="39.7197041" lon="2.8856947">
<ele>144.79</ele>
<time>2016-10-19T11:00:43Z</time>
</trkpt>
<trkpt lat="39.7197111" lon="2.8859522">
<ele>144.08</ele>
<time>2016-10-19T11:00:45Z</time>
</trkpt>
<trkpt lat="39.7197147" lon="2.8862062">
<ele>143.55</ele>
<time>2016-10-19T11:00:47Z</time>
</trkpt>
<trkpt lat="39.7197143" lon="2.8864728">
<ele>143.61</ele>
<time>2016-10-19T11:00:49Z</time>
</trkpt>
<trkpt lat="39.7197151" lon="2.8867428">
<ele>144.13</ele>
<time>2016-10-19T11:00:51Z</time>
</trkpt>
<trkpt lat="39.7197061" lon="2.8870113">
<ele>144.18</ele>
<time>2016-10-19T11:00:53Z</time>
</trkpt>
<trkpt lat="39.7197018" lon="2.8872917">
<ele>144.58</ele>
<time>2016-10-19T11:00:55Z</time>
</trkpt>
<trkpt lat="39.7197010" lon="2.8875743">
<ele>144.61</ele>
<time>2016-10-19T11:00:57Z</time>
</trkpt>
<trkpt lat="39.7196953" lon="2.8878438">
<ele>143.61</ele>
<time>2016-10-19T11:00:59Z</time>
</trkpt>
<trkpt lat="39.7196923" lon="2.8881111">
<ele>142.88</ele>
<time>2016-10-19T11:01:01Z</time>
</trkpt>
<trkpt lat="39.7196883" lon="2.8883608">
<ele>141.97</ele>
<time>2016-10-19T11:01:03Z</time>
</trkpt>
<trkpt lat="39.7196928" lon="2.8886015">
<ele>141.50</ele>
<time>2016-10-19T11:01:05Z</time>
</trkpt>
<trkpt lat="39.7196915" lon="2.8888495">
<ele>141.22</ele>
<time>2016-10-19T11:01:07Z</time>
</trkpt>
<trkpt lat="39.7196903" lon="2.8890959">
<ele>140.94</ele>
<time>2016-10-19T11:01:09Z</time>
</trkpt>
<trkpt lat="39.7196912" lon="2.8893493">
<ele>140.53</ele>
<time>2016-10-19T11:01:11Z</time>
</trkpt>
<trkpt lat="39.7196904" lon="2.8895978">
<ele>140.42</ele>
<time>2016-10-19T11:01:13Z</time>
</trkpt>
<trkpt lat="39.7196903" lon="2.8899405">
<ele>140.78</ele>
<time>2016-10-19T11:01:16Z</time>
</trkpt>
<trkpt lat="39.7196904" lon="2.8902897">
<ele>140.99</ele>
<time>2016-10-19T11:01:19Z</time>
</trkpt>
<trkpt lat="39.7196937" lon="2.8906186">
<ele>141.49</ele>
<time>2016-10-19T11:01:22Z</time>
</trkpt>
<trkpt lat="39.7196944" lon="2.8909614">
<ele>141.82</ele>
<time>2016-10-19T11:01:25Z</time>
</trkpt>
<trkpt lat="39.7196921" lon="2.8913047">
<ele>142.17</ele>
<time>2016-10-19T11:01:28Z</time>
</trkpt>
<trkpt lat="39.7196893" lon="2.8916268">
<ele>142.21</ele>
<time>2016-10-19T11:01:31Z</time>
</trkpt>
<trkpt lat="39.7196887" lon="2.8919350">
<ele>142.01</ele>
<time>2016-10-19T11:01:34Z</time>
</trkpt>
<trkpt lat="39.7196882" lon="2.8922648">
<ele>142.19</ele>
<time>2016-10-19T11:01:37Z</time>
</trkpt>
<trkpt lat="39.7196826" lon="2.8925890">
<ele>142.34</ele>
<time>2016-10-19T11:01:40Z</time>
</trkpt>
<trkpt lat="39.7196822" lon="2.8929117">
<ele>143.34</ele>
<time>2016-10-19T11:01:43Z</time>
</trkpt>
<trkpt lat="39.7196831" lon="2.8932468">
<ele>143.06</ele>
<time>2016-10-19T11:01:46Z</time>
</trkpt>
<trkpt lat="39.7196829" lon="2.8935756">
<ele>143.66</ele>
<time>2016-10-19T11:01:49Z</time>
</trkpt>
<trkpt lat="39.7196834" lon="2.8938959">
<ele>143.89</ele>
<time>2016-10-19T11:01:52Z</time>
</trkpt>
<trkpt lat="39.7196826" lon="2.8942174">
<ele>144.26</ele>
<time>2016-10-19T11:01:55Z</time>
</trkpt>
<trkpt lat="39.7196879" lon="2.8945414">
<ele>145.01</ele>
<time>2016-10-19T11:01:58Z</time>
</trkpt>
<trkpt lat="39.7196909" lon="2.8948709">
<ele>145.32</ele>
<time>2016-10-19T11:02:01Z</time>
</trkpt>
<trkpt lat="39.7196864" lon="2.8951890">
<ele>145.46</ele>
<time>2016-10-19T11:02:04Z</time>
</trkpt>
<trkpt lat="39.7196827" lon="2.8955010">
<ele>145.38</ele>
<time>2016-10-19T11:02:07Z</time>
</trkpt>
<trkpt lat="39.7196723" lon="2.8958401">
<ele>145.02</ele>
<time>2016-10-19T11:02:10Z</time>
</trkpt>
<trkpt lat="39.7196721" lon="2.8961680">
<ele>143.60</ele>
<time>2016-10-19T11:02:13Z</time>
</trkpt>
<trkpt lat="39.7196771" lon="2.8964729">
<ele>141.96</ele>
<time>2016-10-19T11:02:16Z</time>
</trkpt>
<trkpt lat="39.7196845" lon="2.8967835">
<ele>140.59</ele>
<time>2016-10-19T11:02:19Z</time>
</trkpt>
<trkpt lat="39.7196824" lon="2.8971079">
<ele>140.16</ele>
<time>2016-10-19T11:02:22Z</time>
</trkpt>
<trkpt lat="39.7196824" lon="2.8974421">
<ele>139.72</ele>
<time>2016-10-19T11:02:25Z</time>
</trkpt>
<trkpt lat="39.7196829" lon="2.8977862">
<ele>138.72</ele>
<time>2016-10-19T11:02:28Z</time>
</trkpt>
<trkpt lat="39.7196777" lon="2.8980976">
<ele>138.11</ele>
<time>2016-10-19T11:02:31Z</time>
</trkpt>
<trkpt lat="39.7196742" lon="2.8983991">
<ele>138.44</ele>
<time>2016-10-19T11:02:34Z</time>
</trkpt>
<trkpt lat="39.7196764" lon="2.8987013">
<ele>138.03</ele>
<time>2016-10-19T11:02:37Z</time>
</trkpt>
<trkpt lat="39.7196755" lon="2.8990205">
<ele>136.78</ele>
<time>2016-10-19T11:02:40Z</time>
</trkpt>
<trkpt lat="39.7196762" lon="2.8993031">
<ele>137.04</ele>
<time>2016-10-19T11:02:43Z</time>
</trkpt>
<trkpt lat="39.7196837" lon="2.8996070">
<ele>138.09</ele>
<time>2016-10-19T11:02:46Z</time>
</trkpt>
<trkpt lat="39.7196839" lon="2.8999284">
<ele>136.63</ele>
<time>2016-10-19T11:02:49Z</time>
</trkpt>
<trkpt lat="39.7196873" lon="2.9002542">
<ele>135.75</ele>
<time>2016-10-19T11:02:52Z</time>
</trkpt>
<trkpt lat="39.7196834" lon="2.9005733">
<ele>135.89</ele>
<time>2016-10-19T11:02:55Z</time>
</trkpt>
<trkpt lat="39.7196825" lon="2.9008612">
<ele>136.36</ele>
<time>2016-10-19T11:02:58Z</time>
</trkpt>
<trkpt lat="39.7196686" lon="2.9011448">
<ele>136.43</ele>
<time>2016-10-19T11:03:01Z</time>
</trkpt>
<trkpt lat="39.7196411" lon="2.9014377">
<ele>135.82</ele>
<time>2016-10-19T11:03:04Z</time>
</trkpt>
<trkpt lat="39.7196046" lon="2.9017278">
<ele>134.95</ele>
<time>2016-10-19T11:03:07Z</time>
</trkpt>
<trkpt lat="39.7195577" lon="2.9020058">
<ele>132.86</ele>
<time>2016-10-19T11:03:10Z</time>
</trkpt>
<trkpt lat="39.7195175" lon="2.9022467">
<ele>131.50</ele>
<time>2016-10-19T11:03:13Z</time>
</trkpt>
<trkpt lat="39.7194712" lon="2.9025342">
<ele>132.16</ele>
<time>2016-10-19T11:03:16Z</time>
</trkpt>
<trkpt lat="39.7194180" lon="2.9027755">
<ele>132.92</ele>
<time>2016-10-19T11:03:19Z</time>
</trkpt>
<trkpt lat="39.7193433" lon="2.9030675">
<ele>133.41</ele>
<time>2016-10-19T11:03:23Z</time>
</trkpt>
<trkpt lat="39.7192687" lon="2.9033142">
<ele>132.73</ele>
<time>2016-10-19T11:03:26Z</time>
</trkpt>
<trkpt lat="39.7191843" lon="2.9035485">
<ele>131.58</ele>
<time>2016-10-19T11:03:29Z</time>
</trkpt>
<trkpt lat="39.7190973" lon="2.9037587">
<ele>130.44</ele>
<time>2016-10-19T11:03:32Z</time>
</trkpt>
<trkpt lat="39.7189890" lon="2.9040347">
<ele>130.44</ele>
<time>2016-10-19T11:03:36Z</time>
</trkpt>
<trkpt lat="39.7189705" lon="2.9043080">
<ele>129.46</ele>
<time>2016-10-19T11:03:40Z</time>
</trkpt>
<trkpt lat="39.7191317" lon="2.9045131">
<ele>129.89</ele>
<time>2016-10-19T11:03:45Z</time>
</trkpt>
<trkpt lat="39.7192742" lon="2.9047077">
<ele>127.84</ele>
<time>2016-10-19T11:03:49Z</time>
</trkpt>
<trkpt lat="39.7193472" lon="2.9049323">
<ele>125.36</ele>
<time>2016-10-19T11:03:53Z</time>
</trkpt>
<trkpt lat="39.7194247" lon="2.9052118">
<ele>124.25</ele>
<time>2016-10-19T11:03:58Z</time>
</trkpt>
<trkpt lat="39.7195498" lon="2.9054391">
<ele>124.84</ele>
<time>2016-10-19T11:04:02Z</time>
</trkpt>
<trkpt lat="39.7196926" lon="2.9056534">
<ele>124.98</ele>
<time>2016-10-19T11:04:06Z</time>
</trkpt>
<trkpt lat="39.7198138" lon="2.9058275">
<ele>124.85</ele>
<time>2016-10-19T11:04:11Z</time>
</trkpt>
<trkpt lat="39.7199455" lon="2.9060373">
<ele>125.70</ele>
<time>2016-10-19T11:04:20Z</time>
</trkpt>
<trkpt lat="39.7200969" lon="2.9062292">
<ele>125.92</ele>
<time>2016-10-19T11:04:26Z</time>
</trkpt>
<trkpt lat="39.7202527" lon="2.9064080">
<ele>126.12</ele>
<time>2016-10-19T11:04:31Z</time>
</trkpt>
<trkpt lat="39.7204066" lon="2.9066279">
<ele>127.72</ele>
<time>2016-10-19T11:04:35Z</time>
</trkpt>
<trkpt lat="39.7205507" lon="2.9068501">
<ele>125.71</ele>
<time>2016-10-19T11:04:39Z</time>
</trkpt>
<trkpt lat="39.7206673" lon="2.9070360">
<ele>123.79</ele>
<time>2016-10-19T11:04:42Z</time>
</trkpt>
<trkpt lat="39.7207996" lon="2.9072802">
<ele>124.56</ele>
<time>2016-10-19T11:04:46Z</time>
</trkpt>
<trkpt lat="39.7209004" lon="2.9075074">
<ele>126.86</ele>
<time>2016-10-19T11:04:50Z</time>
</trkpt>
<trkpt lat="39.7210446" lon="2.9077382">
<ele>125.84</ele>
<time>2016-10-19T11:04:55Z</time>
</trkpt>
<trkpt lat="39.7211693" lon="2.9079778">
<ele>124.28</ele>
<time>2016-10-19T11:05:00Z</time>
</trkpt>
<trkpt lat="39.7212641" lon="2.9082362">
<ele>125.16</ele>
<time>2016-10-19T11:05:04Z</time>
</trkpt>
<trkpt lat="39.7213592" lon="2.9084865">
<ele>127.98</ele>
<time>2016-10-19T11:05:08Z</time>
</trkpt>
<trkpt lat="39.7214301" lon="2.9087210">
<ele>130.20</ele>
<time>2016-10-19T11:05:13Z</time>
</trkpt>
<trkpt lat="39.7214917" lon="2.9089699">
<ele>130.66</ele>
<time>2016-10-19T11:05:22Z</time>
</trkpt>
<trkpt lat="39.7215697" lon="2.9091940">
<ele>131.99</ele>
<time>2016-10-19T11:05:30Z</time>
</trkpt>
<trkpt lat="39.7215176" lon="2.9094486">
<ele>132.71</ele>
<time>2016-10-19T11:05:50Z</time>
</trkpt>
<trkpt lat="39.7213558" lon="2.9096637">
<ele>136.70</ele>
<time>2016-10-19T11:06:06Z</time>
</trkpt>
<trkpt lat="39.7213535" lon="2.9103105">
<ele>149.61</ele>
<time>2016-10-19T11:07:20Z</time>
</trkpt>
<trkpt lat="39.7215129" lon="2.9106286">
<ele>150.49</ele>
<time>2016-10-19T11:07:30Z</time>
</trkpt>
<trkpt lat="39.7216364" lon="2.9109120">
<ele>150.40</ele>
<time>2016-10-19T11:07:42Z</time>
</trkpt>
<trkpt lat="39.7215986" lon="2.9111924">
<ele>150.06</ele>
<time>2016-10-19T11:07:47Z</time>
</trkpt>
<trkpt lat="39.7215156" lon="2.9114821">
<ele>149.25</ele>
<time>2016-10-19T11:07:53Z</time>
</trkpt>
<trkpt lat="39.7212739" lon="2.9116493">
<ele>144.11</ele>
<time>2016-10-19T11:09:01Z</time>
</trkpt>
<trkpt lat="39.7213649" lon="2.9114400">
<ele>135.72</ele>
<time>2016-10-19T11:10:10Z</time>
</trkpt>
<trkpt lat="39.7213803" lon="2.9111824">
<ele>136.28</ele>
<time>2016-10-19T11:10:17Z</time>
</trkpt>
<trkpt lat="39.7213304" lon="2.9109528">
<ele>137.16</ele>
<time>2016-10-19T11:10:26Z</time>
</trkpt>
<trkpt lat="39.7212969" lon="2.9107127">
<ele>138.41</ele>
<time>2016-10-19T11:10:33Z</time>
</trkpt>
<trkpt lat="39.7212265" lon="2.9104890">
<ele>140.83</ele>
<time>2016-10-19T11:10:41Z</time>
</trkpt>
<trkpt lat="39.7211014" lon="2.9103151">
<ele>143.32</ele>
<time>2016-10-19T11:10:50Z</time>
</trkpt>
<trkpt lat="39.7209945" lon="2.9101123">
<ele>139.18</ele>
<time>2016-10-19T11:11:48Z</time>
</trkpt>
<trkpt lat="39.7208993" lon="2.9099066">
<ele>124.61</ele>
<time>2016-10-19T11:28:53Z</time>
</trkpt>
<trkpt lat="39.7208395" lon="2.9096804">
<ele>118.35</ele>
<time>2016-10-19T11:36:58Z</time>
</trkpt>
<trkpt lat="39.7210186" lon="2.9097421">
<ele>125.26</ele>
<time>2016-10-19T11:37:38Z</time>
</trkpt>
<trkpt lat="39.7210779" lon="2.9099688">
<ele>130.43</ele>
<time>2016-10-19T11:45:42Z</time>
</trkpt>
<trkpt lat="39.7209176" lon="2.9098456">
<ele>137.84</ele>
<time>2016-10-19T11:57:21Z</time>
</trkpt>
<trkpt lat="39.7210848" lon="2.9099666">
<ele>134.28</ele>
<time>2016-10-19T12:00:36Z</time>
</trkpt>
<trkpt lat="39.7211856" lon="2.9101667">
<ele>135.11</ele>
<time>2016-10-19T12:00:44Z</time>
</trkpt>
<trkpt lat="39.7212332" lon="2.9104207">
<ele>135.96</ele>
<time>2016-10-19T12:00:51Z</time>
</trkpt>
<trkpt lat="39.7212594" lon="2.9106840">
<ele>137.07</ele>
<time>2016-10-19T12:00:57Z</time>
</trkpt>
<trkpt lat="39.7213049" lon="2.9109655">
<ele>137.83</ele>
<time>2016-10-19T12:01:03Z</time>
</trkpt>
<trkpt lat="39.7213763" lon="2.9111933">
<ele>138.07</ele>
<time>2016-10-19T12:01:10Z</time>
</trkpt>
<trkpt lat="39.7213192" lon="2.9114210">
<ele>140.37</ele>
<time>2016-10-19T12:01:20Z</time>
</trkpt>
<trkpt lat="39.7212908" lon="2.9116527">
<ele>139.43</ele>
<time>2016-10-19T12:01:25Z</time>
</trkpt>
<trkpt lat="39.7213574" lon="2.9118774">
<ele>137.12</ele>
<time>2016-10-19T12:01:48Z</time>
</trkpt>
<trkpt lat="39.7215309" lon="2.9120414">
<ele>137.22</ele>
<time>2016-10-19T12:01:57Z</time>
</trkpt>
<trkpt lat="39.7216273" lon="2.9122480">
<ele>136.77</ele>
<time>2016-10-19T12:02:02Z</time>
</trkpt>
<trkpt lat="39.7217628" lon="2.9124394">
<ele>136.16</ele>
<time>2016-10-19T12:02:08Z</time>
</trkpt>
<trkpt lat="39.7218785" lon="2.9126480">
<ele>136.07</ele>
<time>2016-10-19T12:02:15Z</time>
</trkpt>
<trkpt lat="39.7217856" lon="2.9128594">
<ele>135.86</ele>
<time>2016-10-19T12:02:20Z</time>
</trkpt>
<trkpt lat="39.7216625" lon="2.9130903">
<ele>132.76</ele>
<time>2016-10-19T12:02:24Z</time>
</trkpt>
<trkpt lat="39.7215362" lon="2.9132573">
<ele>132.81</ele>
<time>2016-10-19T12:02:28Z</time>
</trkpt>
<trkpt lat="39.7213608" lon="2.9134277">
<ele>131.18</ele>
<time>2016-10-19T12:02:33Z</time>
</trkpt>
<trkpt lat="39.7213635" lon="2.9137033">
<ele>126.84</ele>
<time>2016-10-19T12:02:39Z</time>
</trkpt>
<trkpt lat="39.7213570" lon="2.9140065">
<ele>124.72</ele>
<time>2016-10-19T12:02:43Z</time>
</trkpt>
<trkpt lat="39.7212846" lon="2.9142861">
<ele>122.03</ele>
<time>2016-10-19T12:02:46Z</time>
</trkpt>
<trkpt lat="39.7211670" lon="2.9145421">
<ele>117.49</ele>
<time>2016-10-19T12:02:49Z</time>
</trkpt>
<trkpt lat="39.7210740" lon="2.9147457">
<ele>113.62</ele>
<time>2016-10-19T12:02:52Z</time>
</trkpt>
<trkpt lat="39.7209824" lon="2.9149605">
<ele>110.51</ele>
<time>2016-10-19T12:02:56Z</time>
</trkpt>
<trkpt lat="39.7208964" lon="2.9151924">
<ele>112.48</ele>
<time>2016-10-19T12:03:00Z</time>
</trkpt>
<trkpt lat="39.7208239" lon="2.9154484">
<ele>115.14</ele>
<time>2016-10-19T12:03:04Z</time>
</trkpt>
<trkpt lat="39.7207211" lon="2.9156857">
<ele>114.66</ele>
<time>2016-10-19T12:03:08Z</time>
</trkpt>
<trkpt lat="39.7206648" lon="2.9159182">
<ele>115.10</ele>
<time>2016-10-19T12:03:12Z</time>
</trkpt>
<trkpt lat="39.7206160" lon="2.9161637">
<ele>116.08</ele>
<time>2016-10-19T12:03:16Z</time>
</trkpt>
<trkpt lat="39.7205683" lon="2.9164137">
<ele>116.75</ele>
<time>2016-10-19T12:03:21Z</time>
</trkpt>
<trkpt lat="39.7204689" lon="2.9166392">
<ele>120.01</ele>
<time>2016-10-19T12:03:25Z</time>
</trkpt>
<trkpt lat="39.7203657" lon="2.9168426">
<ele>118.52</ele>
<time>2016-10-19T12:03:29Z</time>
</trkpt>
<trkpt lat="39.7202589" lon="2.9170559">
<ele>116.56</ele>
<time>2016-10-19T12:03:34Z</time>
</trkpt>
<trkpt lat="39.7201227" lon="2.9172223">
<ele>115.42</ele>
<time>2016-10-19T12:03:42Z</time>
</trkpt>
<trkpt lat="39.7200217" lon="2.9174527">
<ele>112.24</ele>
<time>2016-10-19T12:03:47Z</time>
</trkpt>
<trkpt lat="39.7201039" lon="2.9176907">
<ele>110.73</ele>
<time>2016-10-19T12:03:54Z</time>
</trkpt>
<trkpt lat="39.7200702" lon="2.9179304">
<ele>108.22</ele>
<time>2016-10-19T12:03:57Z</time>
</trkpt>
<trkpt lat="39.7199806" lon="2.9181630">
<ele>106.96</ele>
<time>2016-10-19T12:04:01Z</time>
</trkpt>
<trkpt lat="39.7198775" lon="2.9184346">
<ele>106.61</ele>
<time>2016-10-19T12:04:05Z</time>
</trkpt>
<trkpt lat="39.7197896" lon="2.9187017">
<ele>105.82</ele>
<time>2016-10-19T12:04:09Z</time>
</trkpt>
<trkpt lat="39.7197029" lon="2.9189667">
<ele>103.36</ele>
<time>2016-10-19T12:04:13Z</time>
</trkpt>
<trkpt lat="39.7195995" lon="2.9192318">
<ele>101.41</ele>
<time>2016-10-19T12:04:17Z</time>
</trkpt>
<trkpt lat="39.7195180" lon="2.9194533">
<ele>100.29</ele>
<time>2016-10-19T12:04:20Z</time>
</trkpt>
<trkpt lat="39.7194356" lon="2.9196729">
<ele>99.78</ele>
<time>2016-10-19T12:04:23Z</time>
</trkpt>
<trkpt lat="39.7193224" lon="2.9199512">
<ele>100.00</ele>
<time>2016-10-19T12:04:27Z</time>
</trkpt>
<trkpt lat="39.7192342" lon="2.9201774">
<ele>99.73</ele>
<time>2016-10-19T12:04:30Z</time>
</trkpt>
<trkpt lat="39.7191520" lon="2.9204080">
<ele>99.38</ele>
<time>2016-10-19T12:04:33Z</time>
</trkpt>
<trkpt lat="39.7190726" lon="2.9206339">
<ele>99.36</ele>
<time>2016-10-19T12:04:36Z</time>
</trkpt>
<trkpt lat="39.7189789" lon="2.9208803">
<ele>99.25</ele>
<time>2016-10-19T12:04:39Z</time>
</trkpt>
<trkpt lat="39.7188854" lon="2.9211219">
<ele>98.97</ele>
<time>2016-10-19T12:04:42Z</time>
</trkpt>
<trkpt lat="39.7187995" lon="2.9213601">
<ele>98.80</ele>
<time>2016-10-19T12:04:45Z</time>
</trkpt>
<trkpt lat="39.7187138" lon="2.9215949">
<ele>99.44</ele>
<time>2016-10-19T12:04:48Z</time>
</trkpt>
<trkpt lat="39.7186305" lon="2.9218335">
<ele>100.30</ele>
<time>2016-10-19T12:04:51Z</time>
</trkpt>
<trkpt lat="39.7185516" lon="2.9220638">
<ele>101.33</ele>
<time>2016-10-19T12:04:54Z</time>
</trkpt>
<trkpt lat="39.7184870" lon="2.9223033">
<ele>102.27</ele>
<time>2016-10-19T12:04:57Z</time>
</trkpt>
<trkpt lat="39.7185398" lon="2.9225514">
<ele>102.10</ele>
<time>2016-10-19T12:05:02Z</time>
</trkpt>
<trkpt lat="39.7187158" lon="2.9227351">
<ele>101.46</ele>
<time>2016-10-19T12:05:06Z</time>
</trkpt>
<trkpt lat="39.7188781" lon="2.9228867">
<ele>99.02</ele>
<time>2016-10-19T12:05:09Z</time>
</trkpt>
<trkpt lat="39.7190314" lon="2.9230717">
<ele>96.27</ele>
<time>2016-10-19T12:05:12Z</time>
</trkpt>
<trkpt lat="39.7191546" lon="2.9233092">
<ele>94.78</ele>
<time>2016-10-19T12:05:16Z</time>
</trkpt>
<trkpt lat="39.7192539" lon="2.9235351">
<ele>95.08</ele>
<time>2016-10-19T12:05:19Z</time>
</trkpt>
<trkpt lat="39.7193636" lon="2.9237698">
<ele>94.85</ele>
<time>2016-10-19T12:05:22Z</time>
</trkpt>
<trkpt lat="39.7194603" lon="2.9239952">
<ele>94.06</ele>
<time>2016-10-19T12:05:25Z</time>
</trkpt>
<trkpt lat="39.7195715" lon="2.9242392">
<ele>93.70</ele>
<time>2016-10-19T12:05:28Z</time>
</trkpt>
<trkpt lat="39.7196873" lon="2.9244616">
<ele>92.74</ele>
<time>2016-10-19T12:05:31Z</time>
</trkpt>
<trkpt lat="39.7197998" lon="2.9246711">
<ele>92.00</ele>
<time>2016-10-19T12:05:34Z</time>
</trkpt>
<trkpt lat="39.7199136" lon="2.9249079">
<ele>91.93</ele>
<time>2016-10-19T12:05:37Z</time>
</trkpt>
<trkpt lat="39.7200192" lon="2.9251152">
<ele>92.11</ele>
<time>2016-10-19T12:05:40Z</time>
</trkpt>
<trkpt lat="39.7201343" lon="2.9253147">
<ele>92.53</ele>
<time>2016-10-19T12:05:43Z</time>
</trkpt>
<trkpt lat="39.7202531" lon="2.9255275">
<ele>93.92</ele>
<time>2016-10-19T12:05:46Z</time>
</trkpt>
<trkpt lat="39.7203694" lon="2.9257295">
<ele>95.47</ele>
<time>2016-10-19T12:05:49Z</time>
</trkpt>
<trkpt lat="39.7204941" lon="2.9259356">
<ele>95.86</ele>
<time>2016-10-19T12:05:52Z</time>
</trkpt>
<trkpt lat="39.7206237" lon="2.9261561">
<ele>95.76</ele>
<time>2016-10-19T12:05:55Z</time>
</trkpt>
<trkpt lat="39.7207426" lon="2.9263653">
<ele>95.34</ele>
<time>2016-10-19T12:05:58Z</time>
</trkpt>
<trkpt lat="39.7208515" lon="2.9265739">
<ele>93.43</ele>
<time>2016-10-19T12:06:01Z</time>
</trkpt>
<trkpt lat="39.7209499" lon="2.9267990">
<ele>94.09</ele>
<time>2016-10-19T12:06:04Z</time>
</trkpt>
<trkpt lat="39.7210484" lon="2.9270253">
<ele>94.33</ele>
<time>2016-10-19T12:06:07Z</time>
</trkpt>
<trkpt lat="39.7211525" lon="2.9272891">
<ele>93.63</ele>
<time>2016-10-19T12:06:10Z</time>
</trkpt>
<trkpt lat="39.7212467" lon="2.9275596">
<ele>94.18</ele>
<time>2016-10-19T12:06:13Z</time>
</trkpt>
<trkpt lat="39.7213237" lon="2.9277735">
<ele>96.21</ele>
<time>2016-10-19T12:06:16Z</time>
</trkpt>
<trkpt lat="39.7214197" lon="2.9280161">
<ele>100.73</ele>
<time>2016-10-19T12:06:21Z</time>
</trkpt>
<trkpt lat="39.7215192" lon="2.9282543">
<ele>104.94</ele>
<time>2016-10-19T12:06:26Z</time>
</trkpt>
<trkpt lat="39.7216025" lon="2.9285127">
<ele>105.34</ele>
<time>2016-10-19T12:06:31Z</time>
</trkpt>
<trkpt lat="39.7216821" lon="2.9287326">
<ele>103.59</ele>
<time>2016-10-19T12:06:35Z</time>
</trkpt>
<trkpt lat="39.7217960" lon="2.9289820">
<ele>103.51</ele>
<time>2016-10-19T12:06:40Z</time>
</trkpt>
<trkpt lat="39.7218861" lon="2.9292155">
<ele>104.12</ele>
<time>2016-10-19T12:06:44Z</time>
</trkpt>
<trkpt lat="39.7219718" lon="2.9294391">
<ele>104.79</ele>
<time>2016-10-19T12:06:47Z</time>
</trkpt>
<trkpt lat="39.7220709" lon="2.9297152">
<ele>104.51</ele>
<time>2016-10-19T12:06:50Z</time>
</trkpt>
<trkpt lat="39.7221517" lon="2.9299358">
<ele>103.66</ele>
<time>2016-10-19T12:06:52Z</time>
</trkpt>
<trkpt lat="39.7222451" lon="2.9301723">
<ele>102.73</ele>
<time>2016-10-19T12:06:54Z</time>
</trkpt>
<trkpt lat="39.7223434" lon="2.9304238">
<ele>100.97</ele>
<time>2016-10-19T12:06:56Z</time>
</trkpt>
<trkpt lat="39.7224496" lon="2.9306862">
<ele>99.27</ele>
<time>2016-10-19T12:06:58Z</time>
</trkpt>
<trkpt lat="39.7225477" lon="2.9309288">
<ele>98.10</ele>
<time>2016-10-19T12:07:00Z</time>
</trkpt>
<trkpt lat="39.7226366" lon="2.9311680">
<ele>96.26</ele>
<time>2016-10-19T12:07:02Z</time>
</trkpt>
<trkpt lat="39.7227199" lon="2.9313869">
<ele>93.74</ele>
<time>2016-10-19T12:07:04Z</time>
</trkpt>
<trkpt lat="39.7228053" lon="2.9316091">
<ele>91.29</ele>
<time>2016-10-19T12:07:06Z</time>
</trkpt>
<trkpt lat="39.7228866" lon="2.9318261">
<ele>89.53</ele>
<time>2016-10-19T12:07:08Z</time>
</trkpt>
<trkpt lat="39.7229907" lon="2.9321257">
<ele>87.87</ele>
<time>2016-10-19T12:07:11Z</time>
</trkpt>
<trkpt lat="39.7230894" lon="2.9324230">
<ele>88.02</ele>
<time>2016-10-19T12:07:14Z</time>
</trkpt>
<trkpt lat="39.7231980" lon="2.9327250">
<ele>88.61</ele>
<time>2016-10-19T12:07:17Z</time>
</trkpt>
<trkpt lat="39.7233128" lon="2.9330097">
<ele>89.98</ele>
<time>2016-10-19T12:07:20Z</time>
</trkpt>
<trkpt lat="39.7234344" lon="2.9332759">
<ele>90.95</ele>
<time>2016-10-19T12:07:23Z</time>
</trkpt>
<trkpt lat="39.7235663" lon="2.9335380">
<ele>91.30</ele>
<time>2016-10-19T12:07:26Z</time>
</trkpt>
<trkpt lat="39.7236901" lon="2.9337898">
<ele>91.50</ele>
<time>2016-10-19T12:07:29Z</time>
</trkpt>
<trkpt lat="39.7238151" lon="2.9340445">
<ele>92.63</ele>
<time>2016-10-19T12:07:32Z</time>
</trkpt>
<trkpt lat="39.7239283" lon="2.9342569">
<ele>93.57</ele>
<time>2016-10-19T12:07:35Z</time>
</trkpt>
<trkpt lat="39.7240417" lon="2.9344644">
<ele>94.18</ele>
<time>2016-10-19T12:07:38Z</time>
</trkpt>
<trkpt lat="39.7241539" lon="2.9346774">
<ele>93.95</ele>
<time>2016-10-19T12:07:41Z</time>
</trkpt>
<trkpt lat="39.7242702" lon="2.9349014">
<ele>93.39</ele>
<time>2016-10-19T12:07:44Z</time>
</trkpt>
<trkpt lat="39.7243875" lon="2.9351297">
<ele>93.36</ele>
<time>2016-10-19T12:07:47Z</time>
</trkpt>
<trkpt lat="39.7245178" lon="2.9353305">
<ele>94.10</ele>
<time>2016-10-19T12:07:50Z</time>
</trkpt>
<trkpt lat="39.7246226" lon="2.9355356">
<ele>93.85</ele>
<time>2016-10-19T12:07:53Z</time>
</trkpt>
<trkpt lat="39.7247548" lon="2.9357647">
<ele>94.05</ele>
<time>2016-10-19T12:07:57Z</time>
</trkpt>
<trkpt lat="39.7248834" lon="2.9359574">
<ele>94.16</ele>
<time>2016-10-19T12:08:01Z</time>
</trkpt>
<trkpt lat="39.7250241" lon="2.9361793">
<ele>94.46</ele>
<time>2016-10-19T12:08:05Z</time>
</trkpt>
<trkpt lat="39.7251340" lon="2.9364340">
<ele>94.27</ele>
<time>2016-10-19T12:08:10Z</time>
</trkpt>
<trkpt lat="39.7252357" lon="2.9366715">
<ele>93.70</ele>
<time>2016-10-19T12:08:15Z</time>
</trkpt>
<trkpt lat="39.7253250" lon="2.9369105">
<ele>95.41</ele>
<time>2016-10-19T12:08:20Z</time>
</trkpt>
<trkpt lat="39.7254271" lon="2.9371456">
<ele>96.76</ele>
<time>2016-10-19T12:08:25Z</time>
</trkpt>
<trkpt lat="39.7255347" lon="2.9373886">
<ele>98.03</ele>
<time>2016-10-19T12:08:31Z</time>
</trkpt>
<trkpt lat="39.7256374" lon="2.9376239">
<ele>98.98</ele>
<time>2016-10-19T12:08:36Z</time>
</trkpt>
<trkpt lat="39.7257339" lon="2.9378602">
<ele>100.78</ele>
<time>2016-10-19T12:08:41Z</time>
</trkpt>
<trkpt lat="39.7258304" lon="2.9380636">
<ele>101.38</ele>
<time>2016-10-19T12:08:46Z</time>
</trkpt>
<trkpt lat="39.7259478" lon="2.9383048">
<ele>101.88</ele>
<time>2016-10-19T12:08:52Z</time>
</trkpt>
<trkpt lat="39.7260533" lon="2.9385195">
<ele>103.06</ele>
<time>2016-10-19T12:08:57Z</time>
</trkpt>
<trkpt lat="39.7261729" lon="2.9387730">
<ele>105.43</ele>
<time>2016-10-19T12:09:02Z</time>
</trkpt>
<trkpt lat="39.7262687" lon="2.9389813">
<ele>105.26</ele>
<time>2016-10-19T12:09:07Z</time>
</trkpt>
<trkpt lat="39.7263467" lon="2.9391956">
<ele>105.16</ele>
<time>2016-10-19T12:09:12Z</time>
</trkpt>
<trkpt lat="39.7264543" lon="2.9394216">
<ele>105.93</ele>
<time>2016-10-19T12:09:16Z</time>
</trkpt>
<trkpt lat="39.7265511" lon="2.9396356">
<ele>106.57</ele>
<time>2016-10-19T12:09:20Z</time>
</trkpt>
<trkpt lat="39.7266609" lon="2.9398837">
<ele>105.88</ele>
<time>2016-10-19T12:09:25Z</time>
</trkpt>
<trkpt lat="39.7267566" lon="2.9401050">
<ele>106.03</ele>
<time>2016-10-19T12:09:29Z</time>
</trkpt>
<trkpt lat="39.7268357" lon="2.9403286">
<ele>106.08</ele>
<time>2016-10-19T12:09:33Z</time>
</trkpt>
<trkpt lat="39.7269219" lon="2.9405740">
<ele>106.20</ele>
<time>2016-10-19T12:09:37Z</time>
</trkpt>
<trkpt lat="39.7270331" lon="2.9408223">
<ele>105.62</ele>
<time>2016-10-19T12:09:41Z</time>
</trkpt>
<trkpt lat="39.7271459" lon="2.9410111">
<ele>104.04</ele>
<time>2016-10-19T12:09:44Z</time>
</trkpt>
<trkpt lat="39.7272817" lon="2.9412168">
<ele>103.09</ele>
<time>2016-10-19T12:09:47Z</time>
</trkpt>
<trkpt lat="39.7274317" lon="2.9414269">
<ele>103.09</ele>
<time>2016-10-19T12:09:50Z</time>
</trkpt>
<trkpt lat="39.7275798" lon="2.9416149">
<ele>103.09</ele>
<time>2016-10-19T12:09:53Z</time>
</trkpt>
<trkpt lat="39.7277102" lon="2.9418077">
<ele>102.63</ele>
<time>2016-10-19T12:09:56Z</time>
</trkpt>
<trkpt lat="39.7278618" lon="2.9420313">
<ele>101.29</ele>
<time>2016-10-19T12:09:59Z</time>
</trkpt>
<trkpt lat="39.7279950" lon="2.9422214">
<ele>101.65</ele>
<time>2016-10-19T12:10:02Z</time>
</trkpt>
<trkpt lat="39.7281301" lon="2.9424027">
<ele>101.83</ele>
<time>2016-10-19T12:10:05Z</time>
</trkpt>
<trkpt lat="39.7282677" lon="2.9426139">
<ele>102.62</ele>
<time>2016-10-19T12:10:08Z</time>
</trkpt>
<trkpt lat="39.7284121" lon="2.9428127">
<ele>103.66</ele>
<time>2016-10-19T12:10:11Z</time>
</trkpt>
<trkpt lat="39.7285459" lon="2.9429975">
<ele>104.05</ele>
<time>2016-10-19T12:10:14Z</time>
</trkpt>
<trkpt lat="39.7286962" lon="2.9431654">
<ele>104.26</ele>
<time>2016-10-19T12:10:17Z</time>
</trkpt>
<trkpt lat="39.7288896" lon="2.9433521">
<ele>104.88</ele>
<time>2016-10-19T12:10:20Z</time>
</trkpt>
<trkpt lat="39.7291106" lon="2.9435296">
<ele>105.38</ele>
<time>2016-10-19T12:10:23Z</time>
</trkpt>
<trkpt lat="39.7292684" lon="2.9436483">
<ele>105.31</ele>
<time>2016-10-19T12:10:25Z</time>
</trkpt>
<trkpt lat="39.7294940" lon="2.9438301">
<ele>104.98</ele>
<time>2016-10-19T12:10:28Z</time>
</trkpt>
<trkpt lat="39.7297012" lon="2.9440235">
<ele>104.99</ele>
<time>2016-10-19T12:10:31Z</time>
</trkpt>
<trkpt lat="39.7298278" lon="2.9442245">
<ele>104.55</ele>
<time>2016-10-19T12:10:34Z</time>
</trkpt>
<trkpt lat="39.7297764" lon="2.9444959">
<ele>104.40</ele>
<time>2016-10-19T12:10:38Z</time>
</trkpt>
<trkpt lat="39.7296238" lon="2.9447104">
<ele>104.94</ele>
<time>2016-10-19T12:10:42Z</time>
</trkpt>
<trkpt lat="39.7294846" lon="2.9448880">
<ele>105.69</ele>
<time>2016-10-19T12:10:46Z</time>
</trkpt>
<trkpt lat="39.7293252" lon="2.9450890">
<ele>108.41</ele>
<time>2016-10-19T12:10:51Z</time>
</trkpt>
<trkpt lat="39.7291954" lon="2.9452745">
<ele>108.57</ele>
<time>2016-10-19T12:10:55Z</time>
</trkpt>
<trkpt lat="39.7290435" lon="2.9454693">
<ele>108.99</ele>
<time>2016-10-19T12:11:00Z</time>
</trkpt>
<trkpt lat="39.7289139" lon="2.9456410">
<ele>109.20</ele>
<time>2016-10-19T12:11:05Z</time>
</trkpt>
<trkpt lat="39.7287850" lon="2.9458343">
<ele>109.91</ele>
<time>2016-10-19T12:11:10Z</time>
</trkpt>
<trkpt lat="39.7286483" lon="2.9460163">
<ele>110.27</ele>
<time>2016-10-19T12:11:15Z</time>
</trkpt>
<trkpt lat="39.7285212" lon="2.9461874">
<ele>110.25</ele>
<time>2016-10-19T12:11:20Z</time>
</trkpt>
<trkpt lat="39.7283766" lon="2.9463515">
<ele>110.49</ele>
<time>2016-10-19T12:11:26Z</time>
</trkpt>
<trkpt lat="39.7282330" lon="2.9465312">
<ele>111.01</ele>
<time>2016-10-19T12:11:33Z</time>
</trkpt>
<trkpt lat="39.7281015" lon="2.9467284">
<ele>111.60</ele>
<time>2016-10-19T12:11:40Z</time>
</trkpt>
<trkpt lat="39.7279822" lon="2.9469052">
<ele>112.09</ele>
<time>2016-10-19T12:11:46Z</time>
</trkpt>
<trkpt lat="39.7278408" lon="2.9471036">
<ele>112.66</ele>
<time>2016-10-19T12:11:53Z</time>
</trkpt>
<trkpt lat="39.7276975" lon="2.9472857">
<ele>113.05</ele>
<time>2016-10-19T12:11:59Z</time>
</trkpt>
<trkpt lat="39.7275726" lon="2.9474638">
<ele>113.38</ele>
<time>2016-10-19T12:12:07Z</time>
</trkpt>
<trkpt lat="39.7274454" lon="2.9476371">
<ele>114.15</ele>
<time>2016-10-19T12:12:14Z</time>
</trkpt>
<trkpt lat="39.7273006" lon="2.9478222">
<ele>115.08</ele>
<time>2016-10-19T12:12:21Z</time>
</trkpt>
<trkpt lat="39.7271398" lon="2.9479959">
<ele>116.75</ele>
<time>2016-10-19T12:12:28Z</time>
</trkpt>
<trkpt lat="39.7269862" lon="2.9481547">
<ele>118.75</ele>
<time>2016-10-19T12:12:37Z</time>
</trkpt>
<trkpt lat="39.7268385" lon="2.9483158">
<ele>119.94</ele>
<time>2016-10-19T12:12:44Z</time>
</trkpt>
<trkpt lat="39.7266881" lon="2.9484869">
<ele>121.31</ele>
<time>2016-10-19T12:12:52Z</time>
</trkpt>
<trkpt lat="39.7265285" lon="2.9486205">
<ele>123.17</ele>
<time>2016-10-19T12:13:00Z</time>
</trkpt>
<trkpt lat="39.7263630" lon="2.9487231">
<ele>124.86</ele>
<time>2016-10-19T12:13:08Z</time>
</trkpt>
<trkpt lat="39.7261811" lon="2.9488300">
<ele>126.11</ele>
<time>2016-10-19T12:13:18Z</time>
</trkpt>
<trkpt lat="39.7259903" lon="2.9489258">
<ele>127.84</ele>
<time>2016-10-19T12:13:27Z</time>
</trkpt>
<trkpt lat="39.7257985" lon="2.9490047">
<ele>129.26</ele>
<time>2016-10-19T12:13:36Z</time>
</trkpt>
<trkpt lat="39.7256310" lon="2.9491418">
<ele>131.17</ele>
<time>2016-10-19T12:13:45Z</time>
</trkpt>
<trkpt lat="39.7254704" lon="2.9492673">
<ele>133.52</ele>
<time>2016-10-19T12:13:59Z</time>
</trkpt>
<trkpt lat="39.7253011" lon="2.9493657">
<ele>135.16</ele>
<time>2016-10-19T12:14:09Z</time>
</trkpt>
<trkpt lat="39.7251310" lon="2.9494990">
<ele>136.65</ele>
<time>2016-10-19T12:14:18Z</time>
</trkpt>
<trkpt lat="39.7250834" lon="2.9497277">
<ele>139.57</ele>
<time>2016-10-19T12:14:29Z</time>
</trkpt>
<trkpt lat="39.7251156" lon="2.9499781">
<ele>142.80</ele>
<time>2016-10-19T12:14:39Z</time>
</trkpt>
<trkpt lat="39.7251648" lon="2.9502077">
<ele>144.98</ele>
<time>2016-10-19T12:14:50Z</time>
</trkpt>
<trkpt lat="39.7252273" lon="2.9504493">
<ele>146.69</ele>
<time>2016-10-19T12:15:00Z</time>
</trkpt>
<trkpt lat="39.7251960" lon="2.9506958">
<ele>148.14</ele>
<time>2016-10-19T12:15:10Z</time>
</trkpt>
<trkpt lat="39.7251045" lon="2.9509054">
<ele>149.39</ele>
<time>2016-10-19T12:15:19Z</time>
</trkpt>
<trkpt lat="39.7249766" lon="2.9510972">
<ele>150.84</ele>
<time>2016-10-19T12:15:26Z</time>
</trkpt>
<trkpt lat="39.7248359" lon="2.9512664">
<ele>152.42</ele>
<time>2016-10-19T12:15:34Z</time>
</trkpt>
<trkpt lat="39.7246821" lon="2.9514199">
<ele>153.41</ele>
<time>2016-10-19T12:15:41Z</time>
</trkpt>
<trkpt lat="39.7246091" lon="2.9516356">
<ele>154.65</ele>
<time>2016-10-19T12:15:49Z</time>
</trkpt>
<trkpt lat="39.7245769" lon="2.9518915">
<ele>156.00</ele>
<time>2016-10-19T12:15:58Z</time>
</trkpt>
<trkpt lat="39.7245724" lon="2.9521310">
<ele>157.50</ele>
<time>2016-10-19T12:16:07Z</time>
</trkpt>
<trkpt lat="39.7245839" lon="2.9523644">
<ele>159.18</ele>
<time>2016-10-19T12:16:15Z</time>
</trkpt>
<trkpt lat="39.7247377" lon="2.9522249">
<ele>163.49</ele>
<time>2016-10-19T12:16:43Z</time>
</trkpt>
<trkpt lat="39.7247907" lon="2.9519895">
<ele>165.62</ele>
<time>2016-10-19T12:16:53Z</time>
</trkpt>
<trkpt lat="39.7248469" lon="2.9517554">
<ele>167.40</ele>
<time>2016-10-19T12:17:02Z</time>
</trkpt>
<trkpt lat="39.7249454" lon="2.9519542">
<ele>171.67</ele>
<time>2016-10-19T12:17:17Z</time>
</trkpt>
<trkpt lat="39.7249589" lon="2.9521916">
<ele>173.95</ele>
<time>2016-10-19T12:17:27Z</time>
</trkpt>
<trkpt lat="39.7249498" lon="2.9524397">
<ele>176.04</ele>
<time>2016-10-19T12:17:37Z</time>
</trkpt>
<trkpt lat="39.7249706" lon="2.9526838">
<ele>177.37</ele>
<time>2016-10-19T12:17:46Z</time>
</trkpt>
<trkpt lat="39.7250003" lon="2.9529346">
<ele>179.03</ele>
<time>2016-10-19T12:17:57Z</time>
</trkpt>
<trkpt lat="39.7250267" lon="2.9531914">
<ele>180.83</ele>
<time>2016-10-19T12:18:08Z</time>
</trkpt>
<trkpt lat="39.7250893" lon="2.9534244">
<ele>183.02</ele>
<time>2016-10-19T12:18:19Z</time>
</trkpt>
<trkpt lat="39.7251686" lon="2.9536502">
<ele>185.04</ele>
<time>2016-10-19T12:18:29Z</time>
</trkpt>
<trkpt lat="39.7251646" lon="2.9534054">
<ele>189.47</ele>
<time>2016-10-19T12:19:00Z</time>
</trkpt>
<trkpt lat="39.7251622" lon="2.9531619">
<ele>192.17</ele>
<time>2016-10-19T12:19:10Z</time>
</trkpt>
<trkpt lat="39.7251876" lon="2.9529250">
<ele>195.03</ele>
<time>2016-10-19T12:19:20Z</time>
</trkpt>
<trkpt lat="39.7252375" lon="2.9526919">
<ele>197.61</ele>
<time>2016-10-19T12:19:28Z</time>
</trkpt>
<trkpt lat="39.7253133" lon="2.9524658">
<ele>200.63</ele>
<time>2016-10-19T12:19:38Z</time>
</trkpt>
<trkpt lat="39.7254375" lon="2.9522848">
<ele>203.35</ele>
<time>2016-10-19T12:19:47Z</time>
</trkpt>
<trkpt lat="39.7255023" lon="2.9525045">
<ele>204.58</ele>
<time>2016-10-19T12:20:02Z</time>
</trkpt>
<trkpt lat="39.7255057" lon="2.9527402">
<ele>206.76</ele>
<time>2016-10-19T12:20:12Z</time>
</trkpt>
<trkpt lat="39.7256089" lon="2.9525453">
<ele>210.24</ele>
<time>2016-10-19T12:20:41Z</time>
</trkpt>
<trkpt lat="39.7256794" lon="2.9527624">
<ele>212.00</ele>
<time>2016-10-19T12:20:58Z</time>
</trkpt>
<trkpt lat="39.7257052" lon="2.9530211">
<ele>213.18</ele>
<time>2016-10-19T12:21:07Z</time>
</trkpt>
<trkpt lat="39.7257314" lon="2.9532662">
<ele>214.21</ele>
<time>2016-10-19T12:21:17Z</time>
</trkpt>
<trkpt lat="39.7258210" lon="2.9530617">
<ele>216.64</ele>
<time>2016-10-19T12:21:41Z</time>
</trkpt>
<trkpt lat="39.7259670" lon="2.9532100">
<ele>220.10</ele>
<time>2016-10-19T12:22:02Z</time>
</trkpt>
<trkpt lat="39.7260234" lon="2.9534454">
<ele>222.60</ele>
<time>2016-10-19T12:22:14Z</time>
</trkpt>
<trkpt lat="39.7260676" lon="2.9536900">
<ele>225.29</ele>
<time>2016-10-19T12:22:24Z</time>
</trkpt>
<trkpt lat="39.7260691" lon="2.9539245">
<ele>227.93</ele>
<time>2016-10-19T12:22:34Z</time>
</trkpt>
<trkpt lat="39.7260500" lon="2.9541780">
<ele>230.19</ele>
<time>2016-10-19T12:22:45Z</time>
</trkpt>
<trkpt lat="39.7260058" lon="2.9544257">
<ele>231.94</ele>
<time>2016-10-19T12:22:55Z</time>
</trkpt>
<trkpt lat="39.7259497" lon="2.9546600">
<ele>233.89</ele>
<time>2016-10-19T12:23:05Z</time>
</trkpt>
<trkpt lat="39.7258498" lon="2.9548807">
<ele>236.27</ele>
<time>2016-10-19T12:23:17Z</time>
</trkpt>
<trkpt lat="39.7257238" lon="2.9550481">
<ele>237.99</ele>
<time>2016-10-19T12:23:26Z</time>
</trkpt>
<trkpt lat="39.7255649" lon="2.9551999">
<ele>239.63</ele>
<time>2016-10-19T12:23:35Z</time>
</trkpt>
<trkpt lat="39.7253807" lon="2.9552798">
<ele>241.00</ele>
<time>2016-10-19T12:23:45Z</time>
</trkpt>
<trkpt lat="39.7255394" lon="2.9554026">
<ele>241.62</ele>
<time>2016-10-19T12:24:02Z</time>
</trkpt>
<trkpt lat="39.7257383" lon="2.9554109">
<ele>241.18</ele>
<time>2016-10-19T12:24:12Z</time>
</trkpt>
<trkpt lat="39.7259379" lon="2.9554121">
<ele>240.29</ele>
<time>2016-10-19T12:24:22Z</time>
</trkpt>
<trkpt lat="39.7261229" lon="2.9554606">
<ele>239.60</ele>
<time>2016-10-19T12:24:31Z</time>
</trkpt>
<trkpt lat="39.7263113" lon="2.9554448">
<ele>240.13</ele>
<time>2016-10-19T12:24:41Z</time>
</trkpt>
<trkpt lat="39.7265145" lon="2.9554293">
<ele>242.47</ele>
<time>2016-10-19T12:24:50Z</time>
</trkpt>
<trkpt lat="39.7267032" lon="2.9553896">
<ele>244.59</ele>
<time>2016-10-19T12:24:56Z</time>
</trkpt>
<trkpt lat="39.7269206" lon="2.9553614">
<ele>251.17</ele>
<time>2016-10-19T12:25:01Z</time>
</trkpt>
<trkpt lat="39.7271219" lon="2.9553927">
<ele>255.13</ele>
<time>2016-10-19T12:25:05Z</time>
</trkpt>
<trkpt lat="39.7273077" lon="2.9554721">
<ele>255.75</ele>
<time>2016-10-19T12:25:10Z</time>
</trkpt>
<trkpt lat="39.7274060" lon="2.9556761">
<ele>255.32</ele>
<time>2016-10-19T12:25:16Z</time>
</trkpt>
<trkpt lat="39.7275251" lon="2.9558839">
<ele>255.16</ele>
<time>2016-10-19T12:25:24Z</time>
</trkpt>
<trkpt lat="39.7276468" lon="2.9561010">
<ele>255.66</ele>
<time>2016-10-19T12:25:33Z</time>
</trkpt>
<trkpt lat="39.7277377" lon="2.9563311">
<ele>255.75</ele>
<time>2016-10-19T12:25:42Z</time>
</trkpt>
<trkpt lat="39.7277436" lon="2.9565907">
<ele>256.31</ele>
<time>2016-10-19T12:25:52Z</time>
</trkpt>
<trkpt lat="39.7277508" lon="2.9568344">
<ele>257.24</ele>
<time>2016-10-19T12:26:01Z</time>
</trkpt>
<trkpt lat="39.7277886" lon="2.9570662">
<ele>258.53</ele>
<time>2016-10-19T12:26:10Z</time>
</trkpt>
<trkpt lat="39.7278094" lon="2.9573093">
<ele>259.13</ele>
<time>2016-10-19T12:26:19Z</time>
</trkpt>
<trkpt lat="39.7278579" lon="2.9575547">
<ele>260.08</ele>
<time>2016-10-19T12:26:28Z</time>
</trkpt>
<trkpt lat="39.7278774" lon="2.9578054">
<ele>261.10</ele>
<time>2016-10-19T12:26:37Z</time>
</trkpt>
<trkpt lat="39.7280560" lon="2.9579062">
<ele>262.17</ele>
<time>2016-10-19T12:26:46Z</time>
</trkpt>
<trkpt lat="39.7282473" lon="2.9579016">
<ele>262.85</ele>
<time>2016-10-19T12:26:55Z</time>
</trkpt>
<trkpt lat="39.7284382" lon="2.9578840">
<ele>263.65</ele>
<time>2016-10-19T12:27:05Z</time>
</trkpt>
<trkpt lat="39.7286221" lon="2.9578500">
<ele>265.32</ele>
<time>2016-10-19T12:27:15Z</time>
</trkpt>
<trkpt lat="39.7288005" lon="2.9577472">
<ele>267.64</ele>
<time>2016-10-19T12:27:25Z</time>
</trkpt>
<trkpt lat="39.7289290" lon="2.9575682">
<ele>269.57</ele>
<time>2016-10-19T12:27:33Z</time>
</trkpt>
<trkpt lat="39.7290206" lon="2.9573536">
<ele>271.27</ele>
<time>2016-10-19T12:27:42Z</time>
</trkpt>
<trkpt lat="39.7290786" lon="2.9571169">
<ele>273.06</ele>
<time>2016-10-19T12:27:52Z</time>
</trkpt>
<trkpt lat="39.7290784" lon="2.9568651">
<ele>274.52</ele>
<time>2016-10-19T12:28:00Z</time>
</trkpt>
<trkpt lat="39.7289956" lon="2.9566292">
<ele>275.70</ele>
<time>2016-10-19T12:28:09Z</time>
</trkpt>
<trkpt lat="39.7288129" lon="2.9566374">
<ele>276.14</ele>
<time>2016-10-19T12:28:16Z</time>
</trkpt>
<trkpt lat="39.7286594" lon="2.9567954">
<ele>277.09</ele>
<time>2016-10-19T12:28:26Z</time>
</trkpt>
<trkpt lat="39.7287561" lon="2.9570082">
<ele>277.87</ele>
<time>2016-10-19T12:28:33Z</time>
</trkpt>
<trkpt lat="39.7288682" lon="2.9571925">
<ele>281.10</ele>
<time>2016-10-19T12:29:36Z</time>
</trkpt>
</trkseg>
<trkseg>
<trkpt lat="39.7288547" lon="2.9572253">
<ele>280.14</ele>
<time>2016-10-19T12:30:11Z</time>
</trkpt>
<trkpt lat="39.7287386" lon="2.9570141">
<ele>284.19</ele>
<time>2016-10-19T12:31:43Z</time>
</trkpt>
<trkpt lat="39.7287250" lon="2.9567806">
<ele>284.96</ele>
<time>2016-10-19T12:31:49Z</time>
</trkpt>
<trkpt lat="39.7289022" lon="2.9566328">
<ele>287.01</ele>
<time>2016-10-19T12:31:54Z</time>
</trkpt>
<trkpt lat="39.7290534" lon="2.9567995">
<ele>286.02</ele>
<time>2016-10-19T12:32:00Z</time>
</trkpt>
<trkpt lat="39.7290710" lon="2.9570755">
<ele>284.02</ele>
<time>2016-10-19T12:32:04Z</time>
</trkpt>
<trkpt lat="39.7290161" lon="2.9573789">
<ele>281.74</ele>
<time>2016-10-19T12:32:08Z</time>
</trkpt>
<trkpt lat="39.7289209" lon="2.9576193">
<ele>280.45</ele>
<time>2016-10-19T12:32:11Z</time>
</trkpt>
<trkpt lat="39.7287803" lon="2.9578080">
<ele>279.77</ele>
<time>2016-10-19T12:32:14Z</time>
</trkpt>
<trkpt lat="39.7285906" lon="2.9578925">
<ele>278.84</ele>
<time>2016-10-19T12:32:17Z</time>
</trkpt>
<trkpt lat="39.7283608" lon="2.9579309">
<ele>276.99</ele>
<time>2016-10-19T12:32:20Z</time>
</trkpt>
<trkpt lat="39.7281453" lon="2.9579538">
<ele>274.99</ele>
<time>2016-10-19T12:32:23Z</time>
</trkpt>
<trkpt lat="39.7279396" lon="2.9579413">
<ele>274.31</ele>
<time>2016-10-19T12:32:27Z</time>
</trkpt>
<trkpt lat="39.7278335" lon="2.9577034">
<ele>272.99</ele>
<time>2016-10-19T12:32:31Z</time>
</trkpt>
<trkpt lat="39.7278154" lon="2.9574670">
<ele>272.32</ele>
<time>2016-10-19T12:32:34Z</time>
</trkpt>
<trkpt lat="39.7277839" lon="2.9571936">
<ele>272.16</ele>
<time>2016-10-19T12:32:37Z</time>
</trkpt>
<trkpt lat="39.7277482" lon="2.9569292">
<ele>271.38</ele>
<time>2016-10-19T12:32:40Z</time>
</trkpt>
<trkpt lat="39.7277241" lon="2.9566525">
<ele>270.69</ele>
<time>2016-10-19T12:32:43Z</time>
</trkpt>
<trkpt lat="39.7277100" lon="2.9563874">
<ele>269.79</ele>
<time>2016-10-19T12:32:46Z</time>
</trkpt>
<trkpt lat="39.7276409" lon="2.9561381">
<ele>268.62</ele>
<time>2016-10-19T12:32:49Z</time>
</trkpt>
<trkpt lat="39.7275202" lon="2.9558728">
<ele>266.04</ele>
<time>2016-10-19T12:32:52Z</time>
</trkpt>
<trkpt lat="39.7273763" lon="2.9556184">
<ele>263.29</ele>
<time>2016-10-19T12:32:55Z</time>
</trkpt>
<trkpt lat="39.7272222" lon="2.9554906">
<ele>262.72</ele>
<time>2016-10-19T12:32:57Z</time>
</trkpt>
<trkpt lat="39.7269807" lon="2.9553995">
<ele>260.33</ele>
<time>2016-10-19T12:33:00Z</time>
</trkpt>
<trkpt lat="39.7267591" lon="2.9554082">
<ele>258.74</ele>
<time>2016-10-19T12:33:03Z</time>
</trkpt>
<trkpt lat="39.7265425" lon="2.9554501">
<ele>258.33</ele>
<time>2016-10-19T12:33:06Z</time>
</trkpt>
<trkpt lat="39.7263105" lon="2.9554998">
<ele>256.80</ele>
<time>2016-10-19T12:33:10Z</time>
</trkpt>
<trkpt lat="39.7261166" lon="2.9554989">
<ele>256.06</ele>
<time>2016-10-19T12:33:13Z</time>
</trkpt>
<trkpt lat="39.7258742" lon="2.9554825">
<ele>254.96</ele>
<time>2016-10-19T12:33:17Z</time>
</trkpt>
<trkpt lat="39.7256645" lon="2.9554603">
<ele>252.47</ele>
<time>2016-10-19T12:33:20Z</time>
</trkpt>
<trkpt lat="39.7254786" lon="2.9554443">
<ele>251.38</ele>
<time>2016-10-19T12:33:23Z</time>
</trkpt>
<trkpt lat="39.7255768" lon="2.9551932">
<ele>249.45</ele>
<time>2016-10-19T12:33:34Z</time>
</trkpt>
<trkpt lat="39.7257451" lon="2.9550156">
<ele>248.47</ele>
<time>2016-10-19T12:33:37Z</time>
</trkpt>
<trkpt lat="39.7258992" lon="2.9548052">
<ele>245.92</ele>
<time>2016-10-19T12:33:40Z</time>
</trkpt>
<trkpt lat="39.7259981" lon="2.9545010">
<ele>244.53</ele>
<time>2016-10-19T12:33:43Z</time>
</trkpt>
<trkpt lat="39.7260614" lon="2.9541705">
<ele>243.42</ele>
<time>2016-10-19T12:33:46Z</time>
</trkpt>
<trkpt lat="39.7260748" lon="2.9538439">
<ele>242.70</ele>
<time>2016-10-19T12:33:49Z</time>
</trkpt>
<trkpt lat="39.7260448" lon="2.9535365">
<ele>240.93</ele>
<time>2016-10-19T12:33:52Z</time>
</trkpt>
<trkpt lat="39.7259919" lon="2.9532679">
<ele>238.58</ele>
<time>2016-10-19T12:33:55Z</time>
</trkpt>
<trkpt lat="39.7259880" lon="2.9530178">
<ele>237.28</ele>
<time>2016-10-19T12:33:59Z</time>
</trkpt>
<trkpt lat="39.7258702" lon="2.9531982">
<ele>231.93</ele>
<time>2016-10-19T12:34:07Z</time>
</trkpt>
<trkpt lat="39.7256953" lon="2.9531213">
<ele>230.46</ele>
<time>2016-10-19T12:34:16Z</time>
</trkpt>
<trkpt lat="39.7256574" lon="2.9528860">
<ele>230.63</ele>
<time>2016-10-19T12:34:19Z</time>
</trkpt>
<trkpt lat="39.7256954" lon="2.9526000">
<ele>229.68</ele>
<time>2016-10-19T12:34:23Z</time>
</trkpt>
<trkpt lat="39.7255804" lon="2.9528332">
<ele>220.38</ele>
<time>2016-10-19T12:34:32Z</time>
</trkpt>
<trkpt lat="39.7254483" lon="2.9526711">
<ele>216.29</ele>
<time>2016-10-19T12:34:42Z</time>
</trkpt>
<trkpt lat="39.7254859" lon="2.9523903">
<ele>217.91</ele>
<time>2016-10-19T12:34:46Z</time>
</trkpt>
<trkpt lat="39.7253492" lon="2.9525613">
<ele>215.15</ele>
<time>2016-10-19T12:34:54Z</time>
</trkpt>
<trkpt lat="39.7252586" lon="2.9528113">
<ele>213.16</ele>
<time>2016-10-19T12:34:57Z</time>
</trkpt>
<trkpt lat="39.7252108" lon="2.9531114">
<ele>207.60</ele>
<time>2016-10-19T12:35:01Z</time>
</trkpt>
<trkpt lat="39.7252259" lon="2.9533817">
<ele>202.73</ele>
<time>2016-10-19T12:35:04Z</time>
</trkpt>
<trkpt lat="39.7252647" lon="2.9536148">
<ele>199.37</ele>
<time>2016-10-19T12:35:07Z</time>
</trkpt>
<trkpt lat="39.7252387" lon="2.9538477">
<ele>197.81</ele>
<time>2016-10-19T12:35:12Z</time>
</trkpt>
<trkpt lat="39.7251169" lon="2.9536400">
<ele>197.94</ele>
<time>2016-10-19T12:35:18Z</time>
</trkpt>
<trkpt lat="39.7250064" lon="2.9534109">
<ele>197.79</ele>
<time>2016-10-19T12:35:21Z</time>
</trkpt>
<trkpt lat="39.7249247" lon="2.9531590">
<ele>196.30</ele>
<time>2016-10-19T12:35:24Z</time>
</trkpt>
<trkpt lat="39.7248786" lon="2.9528748">
<ele>195.01</ele>
<time>2016-10-19T12:35:27Z</time>
</trkpt>
<trkpt lat="39.7248695" lon="2.9525328">
<ele>193.60</ele>
<time>2016-10-19T12:35:30Z</time>
</trkpt>
<trkpt lat="39.7249020" lon="2.9522436">
<ele>192.87</ele>
<time>2016-10-19T12:35:33Z</time>
</trkpt>
<trkpt lat="39.7249099" lon="2.9519805">
<ele>191.66</ele>
<time>2016-10-19T12:35:36Z</time>
</trkpt>
<trkpt lat="39.7249217" lon="2.9517258">
<ele>190.87</ele>
<time>2016-10-19T12:35:40Z</time>
</trkpt>
<trkpt lat="39.7248384" lon="2.9519860">
<ele>183.62</ele>
<time>2016-10-19T12:35:47Z</time>
</trkpt>
<trkpt lat="39.7247800" lon="2.9522306">
<ele>181.23</ele>
<time>2016-10-19T12:35:50Z</time>
</trkpt>
<trkpt lat="39.7247204" lon="2.9524547">
<ele>179.43</ele>
<time>2016-10-19T12:35:53Z</time>
</trkpt>
<trkpt lat="39.7245550" lon="2.9525514">
<ele>179.14</ele>
<time>2016-10-19T12:35:59Z</time>
</trkpt>
<trkpt lat="39.7245432" lon="2.9522656">
<ele>178.49</ele>
<time>2016-10-19T12:36:03Z</time>
</trkpt>
<trkpt lat="39.7245430" lon="2.9519478">
<ele>176.77</ele>
<time>2016-10-19T12:36:06Z</time>
</trkpt>
<trkpt lat="39.7245501" lon="2.9516429">
<ele>175.16</ele>
<time>2016-10-19T12:36:09Z</time>
</trkpt>
<trkpt lat="39.7246126" lon="2.9514164">
<ele>172.84</ele>
<time>2016-10-19T12:36:12Z</time>
</trkpt>
<trkpt lat="39.7247905" lon="2.9512244">
<ele>170.19</ele>
<time>2016-10-19T12:36:15Z</time>
</trkpt>
<trkpt lat="39.7249702" lon="2.9510476">
<ele>165.78</ele>
<time>2016-10-19T12:36:18Z</time>
</trkpt>
<trkpt lat="39.7251283" lon="2.9508597">
<ele>161.37</ele>
<time>2016-10-19T12:36:21Z</time>
</trkpt>
<trkpt lat="39.7252322" lon="2.9506648">
<ele>158.44</ele>
<time>2016-10-19T12:36:24Z</time>
</trkpt>
<trkpt lat="39.7252330" lon="2.9503561">
<ele>156.70</ele>
<time>2016-10-19T12:36:28Z</time>
</trkpt>
<trkpt lat="39.7251466" lon="2.9500518">
<ele>155.25</ele>
<time>2016-10-19T12:36:31Z</time>
</trkpt>
<trkpt lat="39.7250685" lon="2.9497768">
<ele>152.39</ele>
<time>2016-10-19T12:36:35Z</time>
</trkpt>
<trkpt lat="39.7251382" lon="2.9495303">
<ele>152.28</ele>
<time>2016-10-19T12:36:39Z</time>
</trkpt>
<trkpt lat="39.7252876" lon="2.9493974">
<ele>151.41</ele>
<time>2016-10-19T12:36:42Z</time>
</trkpt>
<trkpt lat="39.7254711" lon="2.9492735">
<ele>149.67</ele>
<time>2016-10-19T12:36:45Z</time>
</trkpt>
<trkpt lat="39.7256658" lon="2.9491446">
<ele>146.57</ele>
<time>2016-10-19T12:36:48Z</time>
</trkpt>
<trkpt lat="39.7258859" lon="2.9490045">
<ele>143.14</ele>
<time>2016-10-19T12:36:51Z</time>
</trkpt>
<trkpt lat="39.7261066" lon="2.9488892">
<ele>140.25</ele>
<time>2016-10-19T12:36:54Z</time>
</trkpt>
<trkpt lat="39.7263395" lon="2.9487719">
<ele>136.57</ele>
<time>2016-10-19T12:36:57Z</time>
</trkpt>
<trkpt lat="39.7265828" lon="2.9486295">
<ele>132.73</ele>
<time>2016-10-19T12:37:00Z</time>
</trkpt>
<trkpt lat="39.7268045" lon="2.9484727">
<ele>129.52</ele>
<time>2016-10-19T12:37:03Z</time>
</trkpt>
<trkpt lat="39.7270092" lon="2.9482684">
<ele>127.45</ele>
<time>2016-10-19T12:37:06Z</time>
</trkpt>
<trkpt lat="39.7271558" lon="2.9480913">
<ele>126.47</ele>
<time>2016-10-19T12:37:08Z</time>
</trkpt>
<trkpt lat="39.7273015" lon="2.9479036">
<ele>125.26</ele>
<time>2016-10-19T12:37:10Z</time>
</trkpt>
<trkpt lat="39.7274531" lon="2.9476998">
<ele>124.13</ele>
<time>2016-10-19T12:37:12Z</time>
</trkpt>
<trkpt lat="39.7276093" lon="2.9474858">
<ele>122.82</ele>
<time>2016-10-19T12:37:14Z</time>
</trkpt>
<trkpt lat="39.7277745" lon="2.9472660">
<ele>121.39</ele>
<time>2016-10-19T12:37:16Z</time>
</trkpt>
<trkpt lat="39.7279348" lon="2.9470504">
<ele>120.14</ele>
<time>2016-10-19T12:37:18Z</time>
</trkpt>
<trkpt lat="39.7280946" lon="2.9468290">
<ele>118.95</ele>
<time>2016-10-19T12:37:20Z</time>
</trkpt>
<trkpt lat="39.7282511" lon="2.9466158">
<ele>117.91</ele>
<time>2016-10-19T12:37:22Z</time>
</trkpt>
<trkpt lat="39.7284082" lon="2.9464054">
<ele>116.70</ele>
<time>2016-10-19T12:37:24Z</time>
</trkpt>
<trkpt lat="39.7285649" lon="2.9461966">
<ele>115.26</ele>
<time>2016-10-19T12:37:26Z</time>
</trkpt>
<trkpt lat="39.7287248" lon="2.9459993">
<ele>113.26</ele>
<time>2016-10-19T12:37:28Z</time>
</trkpt>
<trkpt lat="39.7288718" lon="2.9458006">
<ele>111.49</ele>
<time>2016-10-19T12:37:30Z</time>
</trkpt>
<trkpt lat="39.7290202" lon="2.9456005">
<ele>109.97</ele>
<time>2016-10-19T12:37:32Z</time>
</trkpt>
<trkpt lat="39.7291631" lon="2.9454052">
<ele>108.95</ele>
<time>2016-10-19T12:37:34Z</time>
</trkpt>
<trkpt lat="39.7292983" lon="2.9452248">
<ele>108.90</ele>
<time>2016-10-19T12:37:36Z</time>
</trkpt>
<trkpt lat="39.7294690" lon="2.9449820">
<ele>109.03</ele>
<time>2016-10-19T12:37:39Z</time>
</trkpt>
<trkpt lat="39.7296242" lon="2.9447780">
<ele>109.02</ele>
<time>2016-10-19T12:37:42Z</time>
</trkpt>
<trkpt lat="39.7297804" lon="2.9445700">
<ele>108.36</ele>
<time>2016-10-19T12:37:46Z</time>
</trkpt>
<trkpt lat="39.7298792" lon="2.9443666">
<ele>107.89</ele>
<time>2016-10-19T12:37:52Z</time>
</trkpt>
<trkpt lat="39.7300503" lon="2.9445145">
<ele>105.28</ele>
<time>2016-10-19T12:37:56Z</time>
</trkpt>
<trkpt lat="39.7302015" lon="2.9446775">
<ele>104.37</ele>
<time>2016-10-19T12:38:00Z</time>
</trkpt>
<trkpt lat="39.7303561" lon="2.9448812">
<ele>104.16</ele>
<time>2016-10-19T12:38:04Z</time>
</trkpt>
<trkpt lat="39.7305231" lon="2.9450889">
<ele>103.03</ele>
<time>2016-10-19T12:38:08Z</time>
</trkpt>
<trkpt lat="39.7306581" lon="2.9452637">
<ele>102.35</ele>
<time>2016-10-19T12:38:11Z</time>
</trkpt>
<trkpt lat="39.7307889" lon="2.9454481">
<ele>101.13</ele>
<time>2016-10-19T12:38:14Z</time>
</trkpt>
<trkpt lat="39.7309445" lon="2.9456430">
<ele>99.47</ele>
<time>2016-10-19T12:38:18Z</time>
</trkpt>
<trkpt lat="39.7310884" lon="2.9458518">
<ele>98.04</ele>
<time>2016-10-19T12:38:22Z</time>
</trkpt>
<trkpt lat="39.7312386" lon="2.9460556">
<ele>99.07</ele>
<time>2016-10-19T12:38:26Z</time>
</trkpt>
<trkpt lat="39.7313832" lon="2.9462345">
<ele>99.83</ele>
<time>2016-10-19T12:38:30Z</time>
</trkpt>
<trkpt lat="39.7315193" lon="2.9464017">
<ele>99.90</ele>
<time>2016-10-19T12:38:35Z</time>
</trkpt>
<trkpt lat="39.7316780" lon="2.9465598">
<ele>100.00</ele>
<time>2016-10-19T12:39:27Z</time>
</trkpt>
<trkpt lat="39.7318112" lon="2.9467494">
<ele>102.38</ele>
<time>2016-10-19T12:39:32Z</time>
</trkpt>
<trkpt lat="39.7319413" lon="2.9469111">
<ele>101.86</ele>
<time>2016-10-19T12:39:36Z</time>
</trkpt>
<trkpt lat="39.7321099" lon="2.9470789">
<ele>100.30</ele>
<time>2016-10-19T12:39:40Z</time>
</trkpt>
<trkpt lat="39.7322826" lon="2.9472607">
<ele>98.25</ele>
<time>2016-10-19T12:39:44Z</time>
</trkpt>
<trkpt lat="39.7324594" lon="2.9474480">
<ele>96.87</ele>
<time>2016-10-19T12:39:48Z</time>
</trkpt>
<trkpt lat="39.7326088" lon="2.9476006">
<ele>97.35</ele>
<time>2016-10-19T12:39:51Z</time>
</trkpt>
<trkpt lat="39.7327614" lon="2.9477468">
<ele>97.88</ele>
<time>2016-10-19T12:39:54Z</time>
</trkpt>
<trkpt lat="39.7329182" lon="2.9478947">
<ele>98.42</ele>
<time>2016-10-19T12:39:57Z</time>
</trkpt>
<trkpt lat="39.7330954" lon="2.9480374">
<ele>98.27</ele>
<time>2016-10-19T12:40:00Z</time>
</trkpt>
<trkpt lat="39.7332796" lon="2.9481795">
<ele>98.44</ele>
<time>2016-10-19T12:40:03Z</time>
</trkpt>
<trkpt lat="39.7334698" lon="2.9483326">
<ele>96.82</ele>
<time>2016-10-19T12:40:06Z</time>
</trkpt>
<trkpt lat="39.7336587" lon="2.9484737">
<ele>94.91</ele>
<time>2016-10-19T12:40:09Z</time>
</trkpt>
<trkpt lat="39.7338556" lon="2.9486276">
<ele>93.87</ele>
<time>2016-10-19T12:40:12Z</time>
</trkpt>
<trkpt lat="39.7340818" lon="2.9488105">
<ele>92.42</ele>
<time>2016-10-19T12:40:15Z</time>
</trkpt>
<trkpt lat="39.7343012" lon="2.9490029">
<ele>91.83</ele>
<time>2016-10-19T12:40:18Z</time>
</trkpt>
<trkpt lat="39.7344582" lon="2.9491427">
<ele>90.86</ele>
<time>2016-10-19T12:40:20Z</time>
</trkpt>
<trkpt lat="39.7346155" lon="2.9492778">
<ele>89.51</ele>
<time>2016-10-19T12:40:22Z</time>
</trkpt>
<trkpt lat="39.7347599" lon="2.9494236">
<ele>88.51</ele>
<time>2016-10-19T12:40:24Z</time>
</trkpt>
<trkpt lat="39.7349578" lon="2.9496444">
<ele>88.08</ele>
<time>2016-10-19T12:40:27Z</time>
</trkpt>
<trkpt lat="39.7351220" lon="2.9498827">
<ele>88.34</ele>
<time>2016-10-19T12:40:30Z</time>
</trkpt>
<trkpt lat="39.7352582" lon="2.9501557">
<ele>88.60</ele>
<time>2016-10-19T12:40:33Z</time>
</trkpt>
<trkpt lat="39.7353851" lon="2.9504245">
<ele>88.62</ele>
<time>2016-10-19T12:40:36Z</time>
</trkpt>
<trkpt lat="39.7355158" lon="2.9507133">
<ele>90.12</ele>
<time>2016-10-19T12:40:39Z</time>
</trkpt>
<trkpt lat="39.7356491" lon="2.9509911">
<ele>90.76</ele>
<time>2016-10-19T12:40:42Z</time>
</trkpt>
<trkpt lat="39.7357709" lon="2.9512761">
<ele>90.34</ele>
<time>2016-10-19T12:40:45Z</time>
</trkpt>
<trkpt lat="39.7359025" lon="2.9515612">
<ele>88.51</ele>
<time>2016-10-19T12:40:48Z</time>
</trkpt>
<trkpt lat="39.7360373" lon="2.9518405">
<ele>87.85</ele>
<time>2016-10-19T12:40:51Z</time>
</trkpt>
<trkpt lat="39.7361847" lon="2.9521043">
<ele>88.09</ele>
<time>2016-10-19T12:40:54Z</time>
</trkpt>
<trkpt lat="39.7363470" lon="2.9523514">
<ele>87.54</ele>
<time>2016-10-19T12:40:57Z</time>
</trkpt>
<trkpt lat="39.7365238" lon="2.9525965">
<ele>86.35</ele>
<time>2016-10-19T12:41:00Z</time>
</trkpt>
<trkpt lat="39.7366883" lon="2.9528187">
<ele>85.10</ele>
<time>2016-10-19T12:41:03Z</time>
</trkpt>
<trkpt lat="39.7368563" lon="2.9530528">
<ele>84.26</ele>
<time>2016-10-19T12:41:06Z</time>
</trkpt>
<trkpt lat="39.7370198" lon="2.9532853">
<ele>84.31</ele>
<time>2016-10-19T12:41:09Z</time>
</trkpt>
<trkpt lat="39.7371805" lon="2.9535234">
<ele>85.20</ele>
<time>2016-10-19T12:41:12Z</time>
</trkpt>
<trkpt lat="39.7373413" lon="2.9537677">
<ele>84.56</ele>
<time>2016-10-19T12:41:15Z</time>
</trkpt>
<trkpt lat="39.7374928" lon="2.9540191">
<ele>82.45</ele>
<time>2016-10-19T12:41:18Z</time>
</trkpt>
<trkpt lat="39.7376421" lon="2.9542709">
<ele>81.45</ele>
<time>2016-10-19T12:41:21Z</time>
</trkpt>
<trkpt lat="39.7377927" lon="2.9545260">
<ele>82.78</ele>
<time>2016-10-19T12:41:24Z</time>
</trkpt>
<trkpt lat="39.7379521" lon="2.9547962">
<ele>84.31</ele>
<time>2016-10-19T12:41:27Z</time>
</trkpt>
<trkpt lat="39.7380697" lon="2.9549839">
<ele>84.14</ele>
<time>2016-10-19T12:41:29Z</time>
</trkpt>
<trkpt lat="39.7382330" lon="2.9552633">
<ele>83.63</ele>
<time>2016-10-19T12:41:32Z</time>
</trkpt>
<trkpt lat="39.7383879" lon="2.9555304">
<ele>83.53</ele>
<time>2016-10-19T12:41:35Z</time>
</trkpt>
<trkpt lat="39.7385430" lon="2.9557971">
<ele>82.97</ele>
<time>2016-10-19T12:41:38Z</time>
</trkpt>
<trkpt lat="39.7387042" lon="2.9560613">
<ele>83.08</ele>
<time>2016-10-19T12:41:41Z</time>
</trkpt>
<trkpt lat="39.7388162" lon="2.9562515">
<ele>82.35</ele>
<time>2016-10-19T12:41:43Z</time>
</trkpt>
<trkpt lat="39.7389870" lon="2.9565271">
<ele>80.39</ele>
<time>2016-10-19T12:41:46Z</time>
</trkpt>
<trkpt lat="39.7391550" lon="2.9567656">
<ele>79.32</ele>
<time>2016-10-19T12:41:49Z</time>
</trkpt>
<trkpt lat="39.7393205" lon="2.9569943">
<ele>77.33</ele>
<time>2016-10-19T12:41:52Z</time>
</trkpt>
<trkpt lat="39.7394852" lon="2.9572265">
<ele>75.66</ele>
<time>2016-10-19T12:41:55Z</time>
</trkpt>
<trkpt lat="39.7396511" lon="2.9574493">
<ele>73.99</ele>
<time>2016-10-19T12:41:58Z</time>
</trkpt>
<trkpt lat="39.7398123" lon="2.9576721">
<ele>74.66</ele>
<time>2016-10-19T12:42:01Z</time>
</trkpt>
<trkpt lat="39.7399740" lon="2.9579205">
<ele>76.73</ele>
<time>2016-10-19T12:42:04Z</time>
</trkpt>
<trkpt lat="39.7401247" lon="2.9581485">
<ele>76.99</ele>
<time>2016-10-19T12:42:07Z</time>
</trkpt>
<trkpt lat="39.7402786" lon="2.9583615">
<ele>76.24</ele>
<time>2016-10-19T12:42:10Z</time>
</trkpt>
<trkpt lat="39.7404229" lon="2.9585741">
<ele>77.08</ele>
<time>2016-10-19T12:42:13Z</time>
</trkpt>
<trkpt lat="39.7405595" lon="2.9587734">
<ele>77.70</ele>
<time>2016-10-19T12:42:16Z</time>
</trkpt>
<trkpt lat="39.7407151" lon="2.9589940">
<ele>76.75</ele>
<time>2016-10-19T12:42:19Z</time>
</trkpt>
<trkpt lat="39.7408775" lon="2.9592219">
<ele>75.30</ele>
<time>2016-10-19T12:42:22Z</time>
</trkpt>
<trkpt lat="39.7410386" lon="2.9594471">
<ele>74.66</ele>
<time>2016-10-19T12:42:25Z</time>
</trkpt>
<trkpt lat="39.7411973" lon="2.9596710">
<ele>73.51</ele>
<time>2016-10-19T12:42:28Z</time>
</trkpt>
<trkpt lat="39.7413383" lon="2.9599010">
<ele>74.00</ele>
<time>2016-10-19T12:42:31Z</time>
</trkpt>
<trkpt lat="39.7414815" lon="2.9601212">
<ele>74.93</ele>
<time>2016-10-19T12:42:34Z</time>
</trkpt>
<trkpt lat="39.7416363" lon="2.9603124">
<ele>75.26</ele>
<time>2016-10-19T12:42:37Z</time>
</trkpt>
<trkpt lat="39.7418136" lon="2.9605126">
<ele>74.39</ele>
<time>2016-10-19T12:42:40Z</time>
</trkpt>
<trkpt lat="39.7419876" lon="2.9606978">
<ele>73.46</ele>
<time>2016-10-19T12:42:43Z</time>
</trkpt>
<trkpt lat="39.7421747" lon="2.9608987">
<ele>72.33</ele>
<time>2016-10-19T12:42:46Z</time>
</trkpt>
<trkpt lat="39.7423286" lon="2.9610798">
<ele>73.11</ele>
<time>2016-10-19T12:42:49Z</time>
</trkpt>
<trkpt lat="39.7424810" lon="2.9612870">
<ele>73.72</ele>
<time>2016-10-19T12:42:52Z</time>
</trkpt>
<trkpt lat="39.7426293" lon="2.9614734">
<ele>73.36</ele>
<time>2016-10-19T12:42:55Z</time>
</trkpt>
<trkpt lat="39.7427981" lon="2.9616340">
<ele>72.32</ele>
<time>2016-10-19T12:42:58Z</time>
</trkpt>
<trkpt lat="39.7429744" lon="2.9618036">
<ele>71.55</ele>
<time>2016-10-19T12:43:01Z</time>
</trkpt>
<trkpt lat="39.7431442" lon="2.9619692">
<ele>72.21</ele>
<time>2016-10-19T12:43:04Z</time>
</trkpt>
<trkpt lat="39.7433062" lon="2.9621402">
<ele>72.14</ele>
<time>2016-10-19T12:43:07Z</time>
</trkpt>
<trkpt lat="39.7434674" lon="2.9623227">
<ele>70.92</ele>
<time>2016-10-19T12:43:10Z</time>
</trkpt>
<trkpt lat="39.7436339" lon="2.9625036">
<ele>70.13</ele>
<time>2016-10-19T12:43:13Z</time>
</trkpt>
<trkpt lat="39.7437989" lon="2.9626887">
<ele>69.07</ele>
<time>2016-10-19T12:43:16Z</time>
</trkpt>
<trkpt lat="39.7439666" lon="2.9628797">
<ele>68.53</ele>
<time>2016-10-19T12:43:19Z</time>
</trkpt>
<trkpt lat="39.7441506" lon="2.9630982">
<ele>67.78</ele>
<time>2016-10-19T12:43:22Z</time>
</trkpt>
<trkpt lat="39.7443235" lon="2.9633011">
<ele>66.81</ele>
<time>2016-10-19T12:43:25Z</time>
</trkpt>
<trkpt lat="39.7444995" lon="2.9634933">
<ele>66.71</ele>
<time>2016-10-19T12:43:28Z</time>
</trkpt>
<trkpt lat="39.7446792" lon="2.9636956">
<ele>67.88</ele>
<time>2016-10-19T12:43:31Z</time>
</trkpt>
<trkpt lat="39.7448454" lon="2.9638975">
<ele>68.77</ele>
<time>2016-10-19T12:43:34Z</time>
</trkpt>
<trkpt lat="39.7450090" lon="2.9640883">
<ele>69.11</ele>
<time>2016-10-19T12:43:37Z</time>
</trkpt>
<trkpt lat="39.7451840" lon="2.9642733">
<ele>68.64</ele>
<time>2016-10-19T12:43:40Z</time>
</trkpt>
<trkpt lat="39.7453607" lon="2.9644625">
<ele>68.00</ele>
<time>2016-10-19T12:43:43Z</time>
</trkpt>
<trkpt lat="39.7455360" lon="2.9646641">
<ele>67.33</ele>
<time>2016-10-19T12:43:46Z</time>
</trkpt>
<trkpt lat="39.7457052" lon="2.9648774">
<ele>67.06</ele>
<time>2016-10-19T12:43:49Z</time>
</trkpt>
<trkpt lat="39.7458574" lon="2.9650883">
<ele>66.76</ele>
<time>2016-10-19T12:43:52Z</time>
</trkpt>
<trkpt lat="39.7460020" lon="2.9652980">
<ele>67.35</ele>
<time>2016-10-19T12:43:55Z</time>
</trkpt>
<trkpt lat="39.7461506" lon="2.9655045">
<ele>67.80</ele>
<time>2016-10-19T12:43:58Z</time>
</trkpt>
<trkpt lat="39.7462963" lon="2.9657151">
<ele>68.08</ele>
<time>2016-10-19T12:44:01Z</time>
</trkpt>
<trkpt lat="39.7464501" lon="2.9659428">
<ele>67.10</ele>
<time>2016-10-19T12:44:04Z</time>
</trkpt>
<trkpt lat="39.7466153" lon="2.9661634">
<ele>66.07</ele>
<time>2016-10-19T12:44:07Z</time>
</trkpt>
<trkpt lat="39.7467765" lon="2.9663941">
<ele>65.93</ele>
<time>2016-10-19T12:44:10Z</time>
</trkpt>
<trkpt lat="39.7469412" lon="2.9666470">
<ele>66.65</ele>
<time>2016-10-19T12:44:13Z</time>
</trkpt>
<trkpt lat="39.7471070" lon="2.9668800">
<ele>67.71</ele>
<time>2016-10-19T12:44:16Z</time>
</trkpt>
<trkpt lat="39.7472428" lon="2.9671069">
<ele>67.15</ele>
<time>2016-10-19T12:44:19Z</time>
</trkpt>
<trkpt lat="39.7473674" lon="2.9673470">
<ele>66.03</ele>
<time>2016-10-19T12:44:22Z</time>
</trkpt>
<trkpt lat="39.7474747" lon="2.9676111">
<ele>66.40</ele>
<time>2016-10-19T12:44:25Z</time>
</trkpt>
<trkpt lat="39.7475817" lon="2.9678854">
<ele>65.82</ele>
<time>2016-10-19T12:44:28Z</time>
</trkpt>
<trkpt lat="39.7477135" lon="2.9681612">
<ele>65.55</ele>
<time>2016-10-19T12:44:31Z</time>
</trkpt>
<trkpt lat="39.7478355" lon="2.9684110">
<ele>67.59</ele>
<time>2016-10-19T12:44:34Z</time>
</trkpt>
<trkpt lat="39.7479510" lon="2.9686304">
<ele>68.72</ele>
<time>2016-10-19T12:44:37Z</time>
</trkpt>
<trkpt lat="39.7480793" lon="2.9688815">
<ele>68.81</ele>
<time>2016-10-19T12:44:40Z</time>
</trkpt>
<trkpt lat="39.7482157" lon="2.9691235">
<ele>68.67</ele>
<time>2016-10-19T12:44:43Z</time>
</trkpt>
<trkpt lat="39.7483558" lon="2.9693537">
<ele>68.04</ele>
<time>2016-10-19T12:44:46Z</time>
</trkpt>
<trkpt lat="39.7484085" lon="2.9696319">
<ele>69.22</ele>
<time>2016-10-19T12:44:49Z</time>
</trkpt>
<trkpt lat="39.7484438" lon="2.9698893">
<ele>70.84</ele>
<time>2016-10-19T12:44:52Z</time>
</trkpt>
<trkpt lat="39.7484669" lon="2.9701314">
<ele>71.42</ele>
<time>2016-10-19T12:44:55Z</time>
</trkpt>
<trkpt lat="39.7484939" lon="2.9703980">
<ele>71.05</ele>
<time>2016-10-19T12:44:58Z</time>
</trkpt>
<trkpt lat="39.7485317" lon="2.9706794">
<ele>70.90</ele>
<time>2016-10-19T12:45:01Z</time>
</trkpt>
<trkpt lat="39.7485704" lon="2.9709453">
<ele>71.46</ele>
<time>2016-10-19T12:45:04Z</time>
</trkpt>
<trkpt lat="39.7485954" lon="2.9711864">
<ele>72.26</ele>
<time>2016-10-19T12:45:07Z</time>
</trkpt>
<trkpt lat="39.7486003" lon="2.9714228">
<ele>72.54</ele>
<time>2016-10-19T12:45:10Z</time>
</trkpt>
<trkpt lat="39.7485989" lon="2.9717405">
<ele>71.85</ele>
<time>2016-10-19T12:45:13Z</time>
</trkpt>
<trkpt lat="39.7485971" lon="2.9720243">
<ele>71.12</ele>
<time>2016-10-19T12:45:16Z</time>
</trkpt>
<trkpt lat="39.7486153" lon="2.9723245">
<ele>69.83</ele>
<time>2016-10-19T12:45:19Z</time>
</trkpt>
<trkpt lat="39.7486480" lon="2.9726046">
<ele>66.98</ele>
<time>2016-10-19T12:45:22Z</time>
</trkpt>
<trkpt lat="39.7487343" lon="2.9728875">
<ele>65.69</ele>
<time>2016-10-19T12:45:25Z</time>
</trkpt>
<trkpt lat="39.7488655" lon="2.9731944">
<ele>64.33</ele>
<time>2016-10-19T12:45:28Z</time>
</trkpt>
<trkpt lat="39.7489737" lon="2.9734635">
<ele>62.88</ele>
<time>2016-10-19T12:45:31Z</time>
</trkpt>
<trkpt lat="39.7490654" lon="2.9737175">
<ele>62.58</ele>
<time>2016-10-19T12:45:34Z</time>
</trkpt>
<trkpt lat="39.7491370" lon="2.9739793">
<ele>62.71</ele>
<time>2016-10-19T12:45:37Z</time>
</trkpt>
<trkpt lat="39.7491994" lon="2.9742582">
<ele>62.38</ele>
<time>2016-10-19T12:45:40Z</time>
</trkpt>
<trkpt lat="39.7492951" lon="2.9745810">
<ele>62.32</ele>
<time>2016-10-19T12:45:43Z</time>
</trkpt>
<trkpt lat="39.7493534" lon="2.9748039">
<ele>62.33</ele>
<time>2016-10-19T12:45:45Z</time>
</trkpt>
<trkpt lat="39.7494104" lon="2.9750955">
<ele>63.02</ele>
<time>2016-10-19T12:45:48Z</time>
</trkpt>
<trkpt lat="39.7494629" lon="2.9753580">
<ele>61.34</ele>
<time>2016-10-19T12:45:51Z</time>
</trkpt>
<trkpt lat="39.7495334" lon="2.9756138">
<ele>61.46</ele>
<time>2016-10-19T12:45:54Z</time>
</trkpt>
<trkpt lat="39.7495924" lon="2.9758364">
<ele>62.56</ele>
<time>2016-10-19T12:45:58Z</time>
</trkpt>
<trkpt lat="39.7496378" lon="2.9760742">
<ele>62.72</ele>
<time>2016-10-19T12:46:03Z</time>
</trkpt>
<trkpt lat="39.7495697" lon="2.9763054">
<ele>63.86</ele>
<time>2016-10-19T12:46:07Z</time>
</trkpt>
<trkpt lat="39.7494839" lon="2.9765358">
<ele>61.56</ele>
<time>2016-10-19T12:46:10Z</time>
</trkpt>
<trkpt lat="39.7495209" lon="2.9768249">
<ele>58.17</ele>
<time>2016-10-19T12:46:14Z</time>
</trkpt>
<trkpt lat="39.7495829" lon="2.9770508">
<ele>59.00</ele>
<time>2016-10-19T12:46:17Z</time>
</trkpt>
<trkpt lat="39.7496605" lon="2.9773122">
<ele>60.53</ele>
<time>2016-10-19T12:46:20Z</time>
</trkpt>
<trkpt lat="39.7497176" lon="2.9775659">
<ele>62.21</ele>
<time>2016-10-19T12:46:23Z</time>
</trkpt>
<trkpt lat="39.7497481" lon="2.9778424">
<ele>63.48</ele>
<time>2016-10-19T12:46:27Z</time>
</trkpt>
<trkpt lat="39.7497620" lon="2.9781077">
<ele>64.80</ele>
<time>2016-10-19T12:46:30Z</time>
</trkpt>
<trkpt lat="39.7497860" lon="2.9783521">
<ele>64.47</ele>
<time>2016-10-19T12:46:33Z</time>
</trkpt>
<trkpt lat="39.7498209" lon="2.9786133">
<ele>63.71</ele>
<time>2016-10-19T12:46:36Z</time>
</trkpt>
<trkpt lat="39.7498550" lon="2.9788977">
<ele>64.18</ele>
<time>2016-10-19T12:46:39Z</time>
</trkpt>
<trkpt lat="39.7498744" lon="2.9791331">
<ele>63.65</ele>
<time>2016-10-19T12:46:42Z</time>
</trkpt>
<trkpt lat="39.7498864" lon="2.9794433">
<ele>62.77</ele>
<time>2016-10-19T12:46:46Z</time>
</trkpt>
<trkpt lat="39.7499037" lon="2.9797299">
<ele>63.47</ele>
<time>2016-10-19T12:46:49Z</time>
</trkpt>
<trkpt lat="39.7499384" lon="2.9800383">
<ele>63.39</ele>
<time>2016-10-19T12:46:52Z</time>
</trkpt>
<trkpt lat="39.7499669" lon="2.9803485">
<ele>62.94</ele>
<time>2016-10-19T12:46:55Z</time>
</trkpt>
<trkpt lat="39.7499941" lon="2.9806736">
<ele>63.84</ele>
<time>2016-10-19T12:46:58Z</time>
</trkpt>
<trkpt lat="39.7500181" lon="2.9809658">
<ele>65.39</ele>
<time>2016-10-19T12:47:01Z</time>
</trkpt>
<trkpt lat="39.7500517" lon="2.9812680">
<ele>64.87</ele>
<time>2016-10-19T12:47:04Z</time>
</trkpt>
<trkpt lat="39.7500818" lon="2.9815741">
<ele>63.75</ele>
<time>2016-10-19T12:47:07Z</time>
</trkpt>
<trkpt lat="39.7501068" lon="2.9818923">
<ele>63.69</ele>
<time>2016-10-19T12:47:10Z</time>
</trkpt>
<trkpt lat="39.7501354" lon="2.9822135">
<ele>63.40</ele>
<time>2016-10-19T12:47:13Z</time>
</trkpt>
<trkpt lat="39.7501661" lon="2.9825378">
<ele>63.09</ele>
<time>2016-10-19T12:47:16Z</time>
</trkpt>
<trkpt lat="39.7502019" lon="2.9828321">
<ele>63.51</ele>
<time>2016-10-19T12:47:19Z</time>
</trkpt>
<trkpt lat="39.7502318" lon="2.9831274">
<ele>63.83</ele>
<time>2016-10-19T12:47:22Z</time>
</trkpt>
<trkpt lat="39.7502603" lon="2.9833670">
<ele>64.12</ele>
<time>2016-10-19T12:47:25Z</time>
</trkpt>
<trkpt lat="39.7502974" lon="2.9836555">
<ele>62.26</ele>
<time>2016-10-19T12:47:29Z</time>
</trkpt>
<trkpt lat="39.7503367" lon="2.9838981">
<ele>61.58</ele>
<time>2016-10-19T12:47:33Z</time>
</trkpt>
<trkpt lat="39.7503437" lon="2.9841840">
<ele>60.95</ele>
<time>2016-10-19T12:47:37Z</time>
</trkpt>
<trkpt lat="39.7502973" lon="2.9844871">
<ele>62.00</ele>
<time>2016-10-19T12:47:41Z</time>
</trkpt>
<trkpt lat="39.7502556" lon="2.9847863">
<ele>62.24</ele>
<time>2016-10-19T12:47:45Z</time>
</trkpt>
<trkpt lat="39.7502047" lon="2.9850487">
<ele>61.90</ele>
<time>2016-10-19T12:47:48Z</time>
</trkpt>
<trkpt lat="39.7501366" lon="2.9853006">
<ele>61.13</ele>
<time>2016-10-19T12:47:51Z</time>
</trkpt>
<trkpt lat="39.7500674" lon="2.9855284">
<ele>59.31</ele>
<time>2016-10-19T12:47:54Z</time>
</trkpt>
<trkpt lat="39.7500073" lon="2.9857520">
<ele>57.51</ele>
<time>2016-10-19T12:47:57Z</time>
</trkpt>
<trkpt lat="39.7499313" lon="2.9860216">
<ele>55.45</ele>
<time>2016-10-19T12:48:00Z</time>
</trkpt>
<trkpt lat="39.7498463" lon="2.9862780">
<ele>53.38</ele>
<time>2016-10-19T12:48:03Z</time>
</trkpt>
<trkpt lat="39.7497180" lon="2.9864915">
<ele>52.33</ele>
<time>2016-10-19T12:48:06Z</time>
</trkpt>
<trkpt lat="39.7496121" lon="2.9867174">
<ele>51.91</ele>
<time>2016-10-19T12:48:09Z</time>
</trkpt>
<trkpt lat="39.7495321" lon="2.9869730">
<ele>51.19</ele>
<time>2016-10-19T12:48:12Z</time>
</trkpt>
<trkpt lat="39.7494863" lon="2.9872238">
<ele>50.82</ele>
<time>2016-10-19T12:48:15Z</time>
</trkpt>
<trkpt lat="39.7494464" lon="2.9875287">
<ele>51.56</ele>
<time>2016-10-19T12:48:18Z</time>
</trkpt>
<trkpt lat="39.7494081" lon="2.9878223">
<ele>52.56</ele>
<time>2016-10-19T12:48:21Z</time>
</trkpt>
<trkpt lat="39.7493409" lon="2.9880584">
<ele>52.02</ele>
<time>2016-10-19T12:48:24Z</time>
</trkpt>
<trkpt lat="39.7492339" lon="2.9882985">
<ele>52.59</ele>
<time>2016-10-19T12:48:27Z</time>
</trkpt>
<trkpt lat="39.7491897" lon="2.9885699">
<ele>51.85</ele>
<time>2016-10-19T12:48:30Z</time>
</trkpt>
<trkpt lat="39.7491499" lon="2.9888620">
<ele>51.09</ele>
<time>2016-10-19T12:48:33Z</time>
</trkpt>
<trkpt lat="39.7491328" lon="2.9891406">
<ele>50.68</ele>
<time>2016-10-19T12:48:36Z</time>
</trkpt>
<trkpt lat="39.7491506" lon="2.9894128">
<ele>50.68</ele>
<time>2016-10-19T12:48:39Z</time>
</trkpt>
<trkpt lat="39.7491873" lon="2.9896760">
<ele>51.91</ele>
<time>2016-10-19T12:48:42Z</time>
</trkpt>
<trkpt lat="39.7492307" lon="2.9899680">
<ele>52.37</ele>
<time>2016-10-19T12:48:45Z</time>
</trkpt>
<trkpt lat="39.7492885" lon="2.9902581">
<ele>52.38</ele>
<time>2016-10-19T12:48:48Z</time>
</trkpt>
<trkpt lat="39.7493482" lon="2.9905441">
<ele>53.04</ele>
<time>2016-10-19T12:48:51Z</time>
</trkpt>
<trkpt lat="39.7493985" lon="2.9908028">
<ele>53.62</ele>
<time>2016-10-19T12:48:54Z</time>
</trkpt>
<trkpt lat="39.7493730" lon="2.9910665">
<ele>54.45</ele>
<time>2016-10-19T12:48:57Z</time>
</trkpt>
<trkpt lat="39.7493619" lon="2.9913291">
<ele>56.12</ele>
<time>2016-10-19T12:49:00Z</time>
</trkpt>
<trkpt lat="39.7494495" lon="2.9915775">
<ele>56.44</ele>
<time>2016-10-19T12:49:03Z</time>
</trkpt>
<trkpt lat="39.7495769" lon="2.9918213">
<ele>56.90</ele>
<time>2016-10-19T12:49:06Z</time>
</trkpt>
<trkpt lat="39.7497257" lon="2.9920617">
<ele>56.99</ele>
<time>2016-10-19T12:49:09Z</time>
</trkpt>
<trkpt lat="39.7498428" lon="2.9922781">
<ele>55.58</ele>
<time>2016-10-19T12:49:11Z</time>
</trkpt>
<trkpt lat="39.7499792" lon="2.9925157">
<ele>52.08</ele>
<time>2016-10-19T12:49:14Z</time>
</trkpt>
<trkpt lat="39.7501266" lon="2.9927332">
<ele>48.84</ele>
<time>2016-10-19T12:49:17Z</time>
</trkpt>
<trkpt lat="39.7503233" lon="2.9928951">
<ele>46.45</ele>
<time>2016-10-19T12:49:20Z</time>
</trkpt>
<trkpt lat="39.7505459" lon="2.9930304">
<ele>44.39</ele>
<time>2016-10-19T12:49:23Z</time>
</trkpt>
<trkpt lat="39.7507281" lon="2.9932705">
<ele>42.54</ele>
<time>2016-10-19T12:49:26Z</time>
</trkpt>
<trkpt lat="39.7508262" lon="2.9935880">
<ele>42.17</ele>
<time>2016-10-19T12:49:29Z</time>
</trkpt>
<trkpt lat="39.7509004" lon="2.9939123">
<ele>43.82</ele>
<time>2016-10-19T12:49:32Z</time>
</trkpt>
<trkpt lat="39.7509828" lon="2.9942095">
<ele>45.86</ele>
<time>2016-10-19T12:49:35Z</time>
</trkpt>
<trkpt lat="39.7511097" lon="2.9945091">
<ele>48.10</ele>
<time>2016-10-19T12:49:38Z</time>
</trkpt>
<trkpt lat="39.7513037" lon="2.9947272">
<ele>48.42</ele>
<time>2016-10-19T12:49:41Z</time>
</trkpt>
<trkpt lat="39.7515314" lon="2.9948564">
<ele>47.53</ele>
<time>2016-10-19T12:49:44Z</time>
</trkpt>
<trkpt lat="39.7517825" lon="2.9949578">
<ele>45.98</ele>
<time>2016-10-19T12:49:47Z</time>
</trkpt>
<trkpt lat="39.7519589" lon="2.9950035">
<ele>45.30</ele>
<time>2016-10-19T12:49:49Z</time>
</trkpt>
<trkpt lat="39.7522099" lon="2.9950496">
<ele>42.87</ele>
<time>2016-10-19T12:49:52Z</time>
</trkpt>
<trkpt lat="39.7524387" lon="2.9950787">
<ele>41.49</ele>
<time>2016-10-19T12:49:55Z</time>
</trkpt>
<trkpt lat="39.7526502" lon="2.9951734">
<ele>41.15</ele>
<time>2016-10-19T12:49:58Z</time>
</trkpt>
<trkpt lat="39.7528257" lon="2.9953538">
<ele>41.36</ele>
<time>2016-10-19T12:50:01Z</time>
</trkpt>
<trkpt lat="39.7529373" lon="2.9955786">
<ele>42.38</ele>
<time>2016-10-19T12:50:04Z</time>
</trkpt>
<trkpt lat="39.7530444" lon="2.9958103">
<ele>43.14</ele>
<time>2016-10-19T12:50:07Z</time>
</trkpt>
<trkpt lat="39.7531361" lon="2.9960391">
<ele>44.62</ele>
<time>2016-10-19T12:50:10Z</time>
</trkpt>
<trkpt lat="39.7532242" lon="2.9962719">
<ele>46.17</ele>
<time>2016-10-19T12:50:13Z</time>
</trkpt>
<trkpt lat="39.7533179" lon="2.9965217">
<ele>48.19</ele>
<time>2016-10-19T12:50:16Z</time>
</trkpt>
<trkpt lat="39.7534234" lon="2.9967908">
<ele>49.74</ele>
<time>2016-10-19T12:50:19Z</time>
</trkpt>
<trkpt lat="39.7535585" lon="2.9970299">
<ele>50.05</ele>
<time>2016-10-19T12:50:22Z</time>
</trkpt>
<trkpt lat="39.7537154" lon="2.9972765">
<ele>49.98</ele>
<time>2016-10-19T12:50:25Z</time>
</trkpt>
<trkpt lat="39.7538767" lon="2.9975129">
<ele>49.66</ele>
<time>2016-10-19T12:50:28Z</time>
</trkpt>
<trkpt lat="39.7540686" lon="2.9976717">
<ele>48.36</ele>
<time>2016-10-19T12:50:31Z</time>
</trkpt>
<trkpt lat="39.7542859" lon="2.9978122">
<ele>45.22</ele>
<time>2016-10-19T12:50:34Z</time>
</trkpt>
<trkpt lat="39.7544966" lon="2.9979355">
<ele>43.23</ele>
<time>2016-10-19T12:50:37Z</time>
</trkpt>
<trkpt lat="39.7547116" lon="2.9980799">
<ele>41.39</ele>
<time>2016-10-19T12:50:40Z</time>
</trkpt>
<trkpt lat="39.7549268" lon="2.9982416">
<ele>39.96</ele>
<time>2016-10-19T12:50:43Z</time>
</trkpt>
<trkpt lat="39.7551363" lon="2.9984464">
<ele>39.71</ele>
<time>2016-10-19T12:50:46Z</time>
</trkpt>
<trkpt lat="39.7552790" lon="2.9987290">
<ele>40.53</ele>
<time>2016-10-19T12:50:49Z</time>
</trkpt>
<trkpt lat="39.7554337" lon="2.9989926">
<ele>42.21</ele>
<time>2016-10-19T12:50:52Z</time>
</trkpt>
<trkpt lat="39.7556062" lon="2.9992388">
<ele>42.77</ele>
<time>2016-10-19T12:50:55Z</time>
</trkpt>
<trkpt lat="39.7557790" lon="2.9994696">
<ele>43.87</ele>
<time>2016-10-19T12:50:58Z</time>
</trkpt>
<trkpt lat="39.7559522" lon="2.9996975">
<ele>44.84</ele>
<time>2016-10-19T12:51:01Z</time>
</trkpt>
<trkpt lat="39.7561094" lon="2.9999224">
<ele>44.44</ele>
<time>2016-10-19T12:51:04Z</time>
</trkpt>
<trkpt lat="39.7562307" lon="3.0001012">
<ele>43.92</ele>
<time>2016-10-19T12:51:06Z</time>
</trkpt>
<trkpt lat="39.7563910" lon="3.0003180">
<ele>43.06</ele>
<time>2016-10-19T12:51:09Z</time>
</trkpt>
<trkpt lat="39.7565542" lon="3.0005148">
<ele>41.56</ele>
<time>2016-10-19T12:51:12Z</time>
</trkpt>
<trkpt lat="39.7567249" lon="3.0007185">
<ele>42.08</ele>
<time>2016-10-19T12:51:15Z</time>
</trkpt>
<trkpt lat="39.7568981" lon="3.0009244">
<ele>43.02</ele>
<time>2016-10-19T12:51:18Z</time>
</trkpt>
<trkpt lat="39.7570776" lon="3.0011222">
<ele>42.92</ele>
<time>2016-10-19T12:51:21Z</time>
</trkpt>
<trkpt lat="39.7572757" lon="3.0013258">
<ele>41.19</ele>
<time>2016-10-19T12:51:24Z</time>
</trkpt>
<trkpt lat="39.7574549" lon="3.0015179">
<ele>40.42</ele>
<time>2016-10-19T12:51:27Z</time>
</trkpt>
<trkpt lat="39.7576434" lon="3.0017083">
<ele>40.75</ele>
<time>2016-10-19T12:51:30Z</time>
</trkpt>
<trkpt lat="39.7578404" lon="3.0018936">
<ele>40.09</ele>
<time>2016-10-19T12:51:33Z</time>
</trkpt>
<trkpt lat="39.7580512" lon="3.0020699">
<ele>39.14</ele>
<time>2016-10-19T12:51:36Z</time>
</trkpt>
<trkpt lat="39.7582599" lon="3.0022367">
<ele>38.25</ele>
<time>2016-10-19T12:51:39Z</time>
</trkpt>
<trkpt lat="39.7584609" lon="3.0023976">
<ele>38.36</ele>
<time>2016-10-19T12:51:42Z</time>
</trkpt>
<trkpt lat="39.7586795" lon="3.0025622">
<ele>37.88</ele>
<time>2016-10-19T12:51:45Z</time>
</trkpt>
<trkpt lat="39.7589048" lon="3.0027288">
<ele>38.45</ele>
<time>2016-10-19T12:51:48Z</time>
</trkpt>
<trkpt lat="39.7590715" lon="3.0028581">
<ele>38.80</ele>
<time>2016-10-19T12:51:50Z</time>
</trkpt>
<trkpt lat="39.7592425" lon="3.0029933">
<ele>39.22</ele>
<time>2016-10-19T12:51:52Z</time>
</trkpt>
<trkpt lat="39.7594227" lon="3.0031349">
<ele>39.42</ele>
<time>2016-10-19T12:51:54Z</time>
</trkpt>
<trkpt lat="39.7596132" lon="3.0033052">
<ele>39.59</ele>
<time>2016-10-19T12:51:56Z</time>
</trkpt>
<trkpt lat="39.7597860" lon="3.0034811">
<ele>39.35</ele>
<time>2016-10-19T12:51:58Z</time>
</trkpt>
<trkpt lat="39.7599407" lon="3.0036649">
<ele>39.00</ele>
<time>2016-10-19T12:52:00Z</time>
</trkpt>
<trkpt lat="39.7600860" lon="3.0038660">
<ele>39.15</ele>
<time>2016-10-19T12:52:02Z</time>
</trkpt>
<trkpt lat="39.7602204" lon="3.0040723">
<ele>39.15</ele>
<time>2016-10-19T12:52:04Z</time>
</trkpt>
<trkpt lat="39.7603459" lon="3.0042728">
<ele>38.92</ele>
<time>2016-10-19T12:52:06Z</time>
</trkpt>
<trkpt lat="39.7604615" lon="3.0044735">
<ele>38.57</ele>
<time>2016-10-19T12:52:08Z</time>
</trkpt>
<trkpt lat="39.7605671" lon="3.0046857">
<ele>38.08</ele>
<time>2016-10-19T12:52:10Z</time>
</trkpt>
<trkpt lat="39.7606806" lon="3.0048789">
<ele>38.02</ele>
<time>2016-10-19T12:52:12Z</time>
</trkpt>
<trkpt lat="39.7608087" lon="3.0050469">
<ele>37.79</ele>
<time>2016-10-19T12:52:14Z</time>
</trkpt>
<trkpt lat="39.7609697" lon="3.0051964">
<ele>36.85</ele>
<time>2016-10-19T12:52:16Z</time>
</trkpt>
<trkpt lat="39.7611382" lon="3.0053174">
<ele>35.69</ele>
<time>2016-10-19T12:52:18Z</time>
</trkpt>
<trkpt lat="39.7613000" lon="3.0054211">
<ele>34.92</ele>
<time>2016-10-19T12:52:20Z</time>
</trkpt>
<trkpt lat="39.7615278" lon="3.0055670">
<ele>34.32</ele>
<time>2016-10-19T12:52:23Z</time>
</trkpt>
<trkpt lat="39.7616839" lon="3.0056910">
<ele>35.08</ele>
<time>2016-10-19T12:52:25Z</time>
</trkpt>
<trkpt lat="39.7618319" lon="3.0058381">
<ele>35.38</ele>
<time>2016-10-19T12:52:27Z</time>
</trkpt>
<trkpt lat="39.7619710" lon="3.0059882">
<ele>35.40</ele>
<time>2016-10-19T12:52:29Z</time>
</trkpt>
<trkpt lat="39.7621646" lon="3.0062250">
<ele>35.59</ele>
<time>2016-10-19T12:52:32Z</time>
</trkpt>
<trkpt lat="39.7623198" lon="3.0064847">
<ele>35.94</ele>
<time>2016-10-19T12:52:35Z</time>
</trkpt>
<trkpt lat="39.7624600" lon="3.0067655">
<ele>36.05</ele>
<time>2016-10-19T12:52:38Z</time>
</trkpt>
<trkpt lat="39.7625974" lon="3.0070580">
<ele>36.32</ele>
<time>2016-10-19T12:52:41Z</time>
</trkpt>
<trkpt lat="39.7626955" lon="3.0072548">
<ele>36.77</ele>
<time>2016-10-19T12:52:43Z</time>
</trkpt>
<trkpt lat="39.7628471" lon="3.0075433">
<ele>36.01</ele>
<time>2016-10-19T12:52:46Z</time>
</trkpt>
<trkpt lat="39.7629523" lon="3.0077356">
<ele>35.26</ele>
<time>2016-10-19T12:52:48Z</time>
</trkpt>
<trkpt lat="39.7631033" lon="3.0080237">
<ele>34.90</ele>
<time>2016-10-19T12:52:51Z</time>
</trkpt>
<trkpt lat="39.7632117" lon="3.0082241">
<ele>33.95</ele>
<time>2016-10-19T12:52:53Z</time>
</trkpt>
<trkpt lat="39.7633289" lon="3.0085155">
<ele>33.73</ele>
<time>2016-10-19T12:52:56Z</time>
</trkpt>
<trkpt lat="39.7633083" lon="3.0088377">
<ele>33.48</ele>
<time>2016-10-19T12:52:59Z</time>
</trkpt>
<trkpt lat="39.7633281" lon="3.0091702">
<ele>33.42</ele>
<time>2016-10-19T12:53:02Z</time>
</trkpt>
<trkpt lat="39.7634225" lon="3.0093738">
<ele>33.55</ele>
<time>2016-10-19T12:53:04Z</time>
</trkpt>
<trkpt lat="39.7635305" lon="3.0095856">
<ele>33.27</ele>
<time>2016-10-19T12:53:06Z</time>
</trkpt>
<trkpt lat="39.7636407" lon="3.0097844">
<ele>33.25</ele>
<time>2016-10-19T12:53:08Z</time>
</trkpt>
<trkpt lat="39.7637585" lon="3.0099785">
<ele>33.12</ele>
<time>2016-10-19T12:53:10Z</time>
</trkpt>
<trkpt lat="39.7638790" lon="3.0101758">
<ele>33.10</ele>
<time>2016-10-19T12:53:12Z</time>
</trkpt>
<trkpt lat="39.7639939" lon="3.0103620">
<ele>32.70</ele>
<time>2016-10-19T12:53:14Z</time>
</trkpt>
<trkpt lat="39.7641238" lon="3.0105550">
<ele>32.16</ele>
<time>2016-10-19T12:53:16Z</time>
</trkpt>
<trkpt lat="39.7642512" lon="3.0107377">
<ele>31.29</ele>
<time>2016-10-19T12:53:18Z</time>
</trkpt>
<trkpt lat="39.7643767" lon="3.0109061">
<ele>30.46</ele>
<time>2016-10-19T12:53:20Z</time>
</trkpt>
<trkpt lat="39.7645579" lon="3.0111422">
<ele>29.81</ele>
<time>2016-10-19T12:53:23Z</time>
</trkpt>
<trkpt lat="39.7646783" lon="3.0113213">
<ele>29.78</ele>
<time>2016-10-19T12:53:25Z</time>
</trkpt>
<trkpt lat="39.7648035" lon="3.0115263">
<ele>29.16</ele>
<time>2016-10-19T12:53:27Z</time>
</trkpt>
<trkpt lat="39.7649666" lon="3.0118070">
<ele>28.90</ele>
<time>2016-10-19T12:53:30Z</time>
</trkpt>
<trkpt lat="39.7651294" lon="3.0120954">
<ele>29.66</ele>
<time>2016-10-19T12:53:33Z</time>
</trkpt>
<trkpt lat="39.7652371" lon="3.0122971">
<ele>29.99</ele>
<time>2016-10-19T12:53:35Z</time>
</trkpt>
<trkpt lat="39.7653982" lon="3.0125814">
<ele>31.32</ele>
<time>2016-10-19T12:53:38Z</time>
</trkpt>
<trkpt lat="39.7655628" lon="3.0128626">
<ele>32.59</ele>
<time>2016-10-19T12:53:41Z</time>
</trkpt>
<trkpt lat="39.7657190" lon="3.0131154">
<ele>33.61</ele>
<time>2016-10-19T12:53:44Z</time>
</trkpt>
<trkpt lat="39.7658803" lon="3.0133445">
<ele>33.69</ele>
<time>2016-10-19T12:53:47Z</time>
</trkpt>
<trkpt lat="39.7660407" lon="3.0135790">
<ele>32.87</ele>
<time>2016-10-19T12:53:50Z</time>
</trkpt>
<trkpt lat="39.7661970" lon="3.0138179">
<ele>32.14</ele>
<time>2016-10-19T12:53:53Z</time>
</trkpt>
<trkpt lat="39.7663322" lon="3.0140282">
<ele>32.64</ele>
<time>2016-10-19T12:53:56Z</time>
</trkpt>
<trkpt lat="39.7664667" lon="3.0142572">
<ele>31.81</ele>
<time>2016-10-19T12:54:00Z</time>
</trkpt>
<trkpt lat="39.7665319" lon="3.0145157">
<ele>31.58</ele>
<time>2016-10-19T12:54:04Z</time>
</trkpt>
<trkpt lat="39.7664305" lon="3.0148018">
<ele>30.54</ele>
<time>2016-10-19T12:54:08Z</time>
</trkpt>
<trkpt lat="39.7662593" lon="3.0149681">
<ele>28.71</ele>
<time>2016-10-19T12:54:11Z</time>
</trkpt>
<trkpt lat="39.7660618" lon="3.0151118">
<ele>26.04</ele>
<time>2016-10-19T12:54:14Z</time>
</trkpt>
<trkpt lat="39.7658637" lon="3.0152606">
<ele>23.92</ele>
<time>2016-10-19T12:54:17Z</time>
</trkpt>
<trkpt lat="39.7656792" lon="3.0154204">
<ele>23.11</ele>
<time>2016-10-19T12:54:20Z</time>
</trkpt>
<trkpt lat="39.7654988" lon="3.0155827">
<ele>22.96</ele>
<time>2016-10-19T12:54:23Z</time>
</trkpt>
<trkpt lat="39.7653058" lon="3.0157445">
<ele>22.26</ele>
<time>2016-10-19T12:54:26Z</time>
</trkpt>
<trkpt lat="39.7651190" lon="3.0159079">
<ele>21.63</ele>
<time>2016-10-19T12:54:29Z</time>
</trkpt>
<trkpt lat="39.7649475" lon="3.0160638">
<ele>22.12</ele>
<time>2016-10-19T12:54:32Z</time>
</trkpt>
<trkpt lat="39.7647606" lon="3.0162246">
<ele>22.32</ele>
<time>2016-10-19T12:54:35Z</time>
</trkpt>
<trkpt lat="39.7645632" lon="3.0163888">
<ele>21.97</ele>
<time>2016-10-19T12:54:38Z</time>
</trkpt>
<trkpt lat="39.7643739" lon="3.0165506">
<ele>21.42</ele>
<time>2016-10-19T12:54:41Z</time>
</trkpt>
<trkpt lat="39.7641904" lon="3.0166990">
<ele>21.75</ele>
<time>2016-10-19T12:54:44Z</time>
</trkpt>
<trkpt lat="39.7639981" lon="3.0168627">
<ele>21.41</ele>
<time>2016-10-19T12:54:47Z</time>
</trkpt>
<trkpt lat="39.7638276" lon="3.0170326">
<ele>21.23</ele>
<time>2016-10-19T12:54:50Z</time>
</trkpt>
<trkpt lat="39.7636704" lon="3.0172271">
<ele>21.51</ele>
<time>2016-10-19T12:54:53Z</time>
</trkpt>
<trkpt lat="39.7635245" lon="3.0174726">
<ele>21.29</ele>
<time>2016-10-19T12:54:56Z</time>
</trkpt>
<trkpt lat="39.7634154" lon="3.0177278">
<ele>21.07</ele>
<time>2016-10-19T12:54:58Z</time>
</trkpt>
<trkpt lat="39.7633437" lon="3.0179873">
<ele>21.18</ele>
<time>2016-10-19T12:55:01Z</time>
</trkpt>
<trkpt lat="39.7633021" lon="3.0182612">
<ele>21.17</ele>
<time>2016-10-19T12:55:04Z</time>
</trkpt>
<trkpt lat="39.7632895" lon="3.0185300">
<ele>21.42</ele>
<time>2016-10-19T12:55:07Z</time>
</trkpt>
<trkpt lat="39.7632940" lon="3.0187942">
<ele>21.62</ele>
<time>2016-10-19T12:55:10Z</time>
</trkpt>
<trkpt lat="39.7632915" lon="3.0190546">
<ele>21.74</ele>
<time>2016-10-19T12:55:13Z</time>
</trkpt>
<trkpt lat="39.7632798" lon="3.0193114">
<ele>22.20</ele>
<time>2016-10-19T12:55:16Z</time>
</trkpt>
<trkpt lat="39.7633260" lon="3.0196076">
<ele>23.17</ele>
<time>2016-10-19T12:55:19Z</time>
</trkpt>
<trkpt lat="39.7633672" lon="3.0199129">
<ele>24.67</ele>
<time>2016-10-19T12:55:22Z</time>
</trkpt>
<trkpt lat="39.7633818" lon="3.0202161">
<ele>26.20</ele>
<time>2016-10-19T12:55:25Z</time>
</trkpt>
<trkpt lat="39.7633860" lon="3.0205121">
<ele>27.37</ele>
<time>2016-10-19T12:55:28Z</time>
</trkpt>
<trkpt lat="39.7633891" lon="3.0207901">
<ele>28.34</ele>
<time>2016-10-19T12:55:31Z</time>
</trkpt>
<trkpt lat="39.7633927" lon="3.0210675">
<ele>29.15</ele>
<time>2016-10-19T12:55:34Z</time>
</trkpt>
<trkpt lat="39.7633976" lon="3.0213570">
<ele>29.67</ele>
<time>2016-10-19T12:55:37Z</time>
</trkpt>
<trkpt lat="39.7634046" lon="3.0216703">
<ele>29.59</ele>
<time>2016-10-19T12:55:40Z</time>
</trkpt>
<trkpt lat="39.7634065" lon="3.0219523">
<ele>29.71</ele>
<time>2016-10-19T12:55:43Z</time>
</trkpt>
<trkpt lat="39.7634058" lon="3.0222321">
<ele>29.72</ele>
<time>2016-10-19T12:55:46Z</time>
</trkpt>
<trkpt lat="39.7634225" lon="3.0225288">
<ele>29.52</ele>
<time>2016-10-19T12:55:49Z</time>
</trkpt>
<trkpt lat="39.7634380" lon="3.0228424">
<ele>28.26</ele>
<time>2016-10-19T12:55:52Z</time>
</trkpt>
<trkpt lat="39.7634372" lon="3.0231691">
<ele>27.27</ele>
<time>2016-10-19T12:55:55Z</time>
</trkpt>
<trkpt lat="39.7634230" lon="3.0234101">
<ele>26.32</ele>
<time>2016-10-19T12:55:57Z</time>
</trkpt>
<trkpt lat="39.7634084" lon="3.0236475">
<ele>24.78</ele>
<time>2016-10-19T12:55:59Z</time>
</trkpt>
<trkpt lat="39.7633888" lon="3.0239835">
<ele>22.85</ele>
<time>2016-10-19T12:56:02Z</time>
</trkpt>
<trkpt lat="39.7633713" lon="3.0243040">
<ele>21.00</ele>
<time>2016-10-19T12:56:05Z</time>
</trkpt>
<trkpt lat="39.7633615" lon="3.0246253">
<ele>19.26</ele>
<time>2016-10-19T12:56:08Z</time>
</trkpt>
<trkpt lat="39.7633573" lon="3.0249468">
<ele>19.33</ele>
<time>2016-10-19T12:56:11Z</time>
</trkpt>
<trkpt lat="39.7633671" lon="3.0252514">
<ele>19.90</ele>
<time>2016-10-19T12:56:14Z</time>
</trkpt>
<trkpt lat="39.7633723" lon="3.0255464">
<ele>21.66</ele>
<time>2016-10-19T12:56:17Z</time>
</trkpt>
<trkpt lat="39.7633742" lon="3.0258753">
<ele>22.29</ele>
<time>2016-10-19T12:56:20Z</time>
</trkpt>
<trkpt lat="39.7634018" lon="3.0261944">
<ele>22.00</ele>
<time>2016-10-19T12:56:23Z</time>
</trkpt>
<trkpt lat="39.7634651" lon="3.0264965">
<ele>21.17</ele>
<time>2016-10-19T12:56:26Z</time>
</trkpt>
<trkpt lat="39.7635912" lon="3.0268002">
<ele>22.35</ele>
<time>2016-10-19T12:56:29Z</time>
</trkpt>
<trkpt lat="39.7636951" lon="3.0270015">
<ele>22.74</ele>
<time>2016-10-19T12:56:31Z</time>
</trkpt>
<trkpt lat="39.7638600" lon="3.0272649">
<ele>23.38</ele>
<time>2016-10-19T12:56:34Z</time>
</trkpt>
<trkpt lat="39.7639956" lon="3.0275039">
<ele>23.88</ele>
<time>2016-10-19T12:56:37Z</time>
</trkpt>
<trkpt lat="39.7641322" lon="3.0277380">
<ele>24.54</ele>
<time>2016-10-19T12:56:40Z</time>
</trkpt>
<trkpt lat="39.7642681" lon="3.0279960">
<ele>24.35</ele>
<time>2016-10-19T12:56:43Z</time>
</trkpt>
<trkpt lat="39.7644084" lon="3.0282746">
<ele>22.67</ele>
<time>2016-10-19T12:56:46Z</time>
</trkpt>
<trkpt lat="39.7645280" lon="3.0285103">
<ele>21.88</ele>
<time>2016-10-19T12:56:49Z</time>
</trkpt>
<trkpt lat="39.7646614" lon="3.0287635">
<ele>22.50</ele>
<time>2016-10-19T12:56:52Z</time>
</trkpt>
<trkpt lat="39.7647978" lon="3.0290033">
<ele>23.86</ele>
<time>2016-10-19T12:56:55Z</time>
</trkpt>
<trkpt lat="39.7649262" lon="3.0292441">
<ele>23.28</ele>
<time>2016-10-19T12:56:58Z</time>
</trkpt>
<trkpt lat="39.7650399" lon="3.0294676">
<ele>22.43</ele>
<time>2016-10-19T12:57:01Z</time>
</trkpt>
<trkpt lat="39.7651536" lon="3.0297020">
<ele>21.32</ele>
<time>2016-10-19T12:57:04Z</time>
</trkpt>
<trkpt lat="39.7652685" lon="3.0299340">
<ele>20.80</ele>
<time>2016-10-19T12:57:07Z</time>
</trkpt>
<trkpt lat="39.7654079" lon="3.0301384">
<ele>20.79</ele>
<time>2016-10-19T12:57:10Z</time>
</trkpt>
<trkpt lat="39.7655407" lon="3.0303691">
<ele>21.53</ele>
<time>2016-10-19T12:57:13Z</time>
</trkpt>
<trkpt lat="39.7656795" lon="3.0306352">
<ele>20.93</ele>
<time>2016-10-19T12:57:16Z</time>
</trkpt>
<trkpt lat="39.7658252" lon="3.0309087">
<ele>20.80</ele>
<time>2016-10-19T12:57:19Z</time>
</trkpt>
<trkpt lat="39.7659678" lon="3.0311882">
<ele>19.23</ele>
<time>2016-10-19T12:57:22Z</time>
</trkpt>
<trkpt lat="39.7661006" lon="3.0314475">
<ele>17.65</ele>
<time>2016-10-19T12:57:25Z</time>
</trkpt>
<trkpt lat="39.7662307" lon="3.0316814">
<ele>17.79</ele>
<time>2016-10-19T12:57:28Z</time>
</trkpt>
<trkpt lat="39.7663750" lon="3.0319298">
<ele>18.69</ele>
<time>2016-10-19T12:57:31Z</time>
</trkpt>
<trkpt lat="39.7665259" lon="3.0322036">
<ele>17.81</ele>
<time>2016-10-19T12:57:34Z</time>
</trkpt>
<trkpt lat="39.7666664" lon="3.0324711">
<ele>17.73</ele>
<time>2016-10-19T12:57:37Z</time>
</trkpt>
<trkpt lat="39.7668101" lon="3.0327377">
<ele>18.13</ele>
<time>2016-10-19T12:57:40Z</time>
</trkpt>
<trkpt lat="39.7669686" lon="3.0330008">
<ele>18.13</ele>
<time>2016-10-19T12:57:43Z</time>
</trkpt>
<trkpt lat="39.7671460" lon="3.0332416">
<ele>17.35</ele>
<time>2016-10-19T12:57:46Z</time>
</trkpt>
<trkpt lat="39.7673518" lon="3.0334411">
<ele>16.40</ele>
<time>2016-10-19T12:57:49Z</time>
</trkpt>
<trkpt lat="39.7675593" lon="3.0335652">
<ele>17.75</ele>
<time>2016-10-19T12:57:52Z</time>
</trkpt>
<trkpt lat="39.7677843" lon="3.0336416">
<ele>19.29</ele>
<time>2016-10-19T12:57:55Z</time>
</trkpt>
<trkpt lat="39.7680343" lon="3.0336778">
<ele>19.25</ele>
<time>2016-10-19T12:57:58Z</time>
</trkpt>
<trkpt lat="39.7682918" lon="3.0336677">
<ele>17.27</ele>
<time>2016-10-19T12:58:01Z</time>
</trkpt>
<trkpt lat="39.7685245" lon="3.0336139">
<ele>15.46</ele>
<time>2016-10-19T12:58:04Z</time>
</trkpt>
<trkpt lat="39.7687223" lon="3.0335308">
<ele>14.18</ele>
<time>2016-10-19T12:58:07Z</time>
</trkpt>
<trkpt lat="39.7688998" lon="3.0334301">
<ele>12.86</ele>
<time>2016-10-19T12:58:10Z</time>
</trkpt>
<trkpt lat="39.7690720" lon="3.0333211">
<ele>12.01</ele>
<time>2016-10-19T12:58:13Z</time>
</trkpt>
<trkpt lat="39.7692440" lon="3.0331611">
<ele>11.60</ele>
<time>2016-10-19T12:58:16Z</time>
</trkpt>
<trkpt lat="39.7694078" lon="3.0329786">
<ele>11.81</ele>
<time>2016-10-19T12:58:19Z</time>
</trkpt>
<trkpt lat="39.7695857" lon="3.0327981">
<ele>12.67</ele>
<time>2016-10-19T12:58:22Z</time>
</trkpt>
<trkpt lat="39.7697704" lon="3.0326248">
<ele>12.91</ele>
<time>2016-10-19T12:58:25Z</time>
</trkpt>
<trkpt lat="39.7699472" lon="3.0324631">
<ele>13.86</ele>
<time>2016-10-19T12:58:28Z</time>
</trkpt>
<trkpt lat="39.7701269" lon="3.0323045">
<ele>13.52</ele>
<time>2016-10-19T12:58:31Z</time>
</trkpt>
<trkpt lat="39.7702958" lon="3.0321626">
<ele>14.64</ele>
<time>2016-10-19T12:58:34Z</time>
</trkpt>
<trkpt lat="39.7704732" lon="3.0320240">
<ele>14.85</ele>
<time>2016-10-19T12:58:37Z</time>
</trkpt>
<trkpt lat="39.7706401" lon="3.0318949">
<ele>14.95</ele>
<time>2016-10-19T12:58:40Z</time>
</trkpt>
<trkpt lat="39.7708167" lon="3.0317511">
<ele>15.99</ele>
<time>2016-10-19T12:58:43Z</time>
</trkpt>
<trkpt lat="39.7709756" lon="3.0316173">
<ele>17.11</ele>
<time>2016-10-19T12:58:46Z</time>
</trkpt>
<trkpt lat="39.7711489" lon="3.0314794">
<ele>16.80</ele>
<time>2016-10-19T12:58:49Z</time>
</trkpt>
<trkpt lat="39.7713262" lon="3.0313378">
<ele>16.64</ele>
<time>2016-10-19T12:58:52Z</time>
</trkpt>
<trkpt lat="39.7714867" lon="3.0311960">
<ele>17.16</ele>
<time>2016-10-19T12:58:55Z</time>
</trkpt>
<trkpt lat="39.7716379" lon="3.0310658">
<ele>16.94</ele>
<time>2016-10-19T12:58:58Z</time>
</trkpt>
<trkpt lat="39.7718188" lon="3.0311408">
<ele>15.74</ele>
<time>2016-10-19T12:59:02Z</time>
</trkpt>
<trkpt lat="39.7719173" lon="3.0314039">
<ele>10.53</ele>
<time>2016-10-19T12:59:07Z</time>
</trkpt>
<trkpt lat="39.7719692" lon="3.0316837">
<ele>10.19</ele>
<time>2016-10-19T12:59:11Z</time>
</trkpt>
<trkpt lat="39.7720014" lon="3.0319280">
<ele>10.29</ele>
<time>2016-10-19T12:59:14Z</time>
</trkpt>
<trkpt lat="39.7720226" lon="3.0322071">
<ele>10.52</ele>
<time>2016-10-19T12:59:17Z</time>
</trkpt>
<trkpt lat="39.7720205" lon="3.0324954">
<ele>11.75</ele>
<time>2016-10-19T12:59:20Z</time>
</trkpt>
<trkpt lat="39.7720266" lon="3.0328150">
<ele>14.14</ele>
<time>2016-10-19T12:59:23Z</time>
</trkpt>
<trkpt lat="39.7720392" lon="3.0331041">
<ele>15.85</ele>
<time>2016-10-19T12:59:26Z</time>
</trkpt>
<trkpt lat="39.7720745" lon="3.0333944">
<ele>17.70</ele>
<time>2016-10-19T12:59:30Z</time>
</trkpt>
<trkpt lat="39.7719966" lon="3.0336769">
<ele>19.90</ele>
<time>2016-10-19T12:59:34Z</time>
</trkpt>
<trkpt lat="39.7718028" lon="3.0338454">
<ele>19.64</ele>
<time>2016-10-19T12:59:38Z</time>
</trkpt>
<trkpt lat="39.7716726" lon="3.0340300">
<ele>19.15</ele>
<time>2016-10-19T12:59:41Z</time>
</trkpt>
<trkpt lat="39.7716860" lon="3.0342877">
<ele>19.84</ele>
<time>2016-10-19T12:59:44Z</time>
</trkpt>
<trkpt lat="39.7717678" lon="3.0345380">
<ele>20.47</ele>
<time>2016-10-19T12:59:47Z</time>
</trkpt>
<trkpt lat="39.7718756" lon="3.0348117">
<ele>21.02</ele>
<time>2016-10-19T12:59:50Z</time>
</trkpt>
<trkpt lat="39.7719907" lon="3.0350747">
<ele>19.97</ele>
<time>2016-10-19T12:59:53Z</time>
</trkpt>
<trkpt lat="39.7720900" lon="3.0353257">
<ele>18.22</ele>
<time>2016-10-19T12:59:56Z</time>
</trkpt>
<trkpt lat="39.7721995" lon="3.0355795">
<ele>17.54</ele>
<time>2016-10-19T12:59:59Z</time>
</trkpt>
<trkpt lat="39.7723154" lon="3.0358363">
<ele>17.47</ele>
<time>2016-10-19T13:00:02Z</time>
</trkpt>
<trkpt lat="39.7724325" lon="3.0360830">
<ele>17.38</ele>
<time>2016-10-19T13:00:05Z</time>
</trkpt>
<trkpt lat="39.7725434" lon="3.0363353">
<ele>16.98</ele>
<time>2016-10-19T13:00:08Z</time>
</trkpt>
<trkpt lat="39.7726648" lon="3.0366198">
<ele>16.97</ele>
<time>2016-10-19T13:00:11Z</time>
</trkpt>
<trkpt lat="39.7727596" lon="3.0368899">
<ele>16.38</ele>
<time>2016-10-19T13:00:14Z</time>
</trkpt>
<trkpt lat="39.7728396" lon="3.0371884">
<ele>15.49</ele>
<time>2016-10-19T13:00:17Z</time>
</trkpt>
<trkpt lat="39.7729121" lon="3.0374777">
<ele>15.88</ele>
<time>2016-10-19T13:00:20Z</time>
</trkpt>
<trkpt lat="39.7729874" lon="3.0377954">
<ele>15.40</ele>
<time>2016-10-19T13:00:23Z</time>
</trkpt>
<trkpt lat="39.7730544" lon="3.0380800">
<ele>14.03</ele>
<time>2016-10-19T13:00:26Z</time>
</trkpt>
<trkpt lat="39.7730564" lon="3.0383632">
<ele>13.90</ele>
<time>2016-10-19T13:00:29Z</time>
</trkpt>
<trkpt lat="39.7729167" lon="3.0385726">
<ele>13.58</ele>
<time>2016-10-19T13:00:32Z</time>
</trkpt>
<trkpt lat="39.7727141" lon="3.0387475">
<ele>12.32</ele>
<time>2016-10-19T13:00:35Z</time>
</trkpt>
<trkpt lat="39.7724994" lon="3.0389070">
<ele>10.88</ele>
<time>2016-10-19T13:00:38Z</time>
</trkpt>
<trkpt lat="39.7722924" lon="3.0390483">
<ele>10.35</ele>
<time>2016-10-19T13:00:41Z</time>
</trkpt>
<trkpt lat="39.7720883" lon="3.0391960">
<ele>9.62</ele>
<time>2016-10-19T13:00:44Z</time>
</trkpt>
<trkpt lat="39.7718969" lon="3.0393384">
<ele>9.04</ele>
<time>2016-10-19T13:00:47Z</time>
</trkpt>
<trkpt lat="39.7717185" lon="3.0394666">
<ele>9.02</ele>
<time>2016-10-19T13:00:50Z</time>
</trkpt>
<trkpt lat="39.7715260" lon="3.0396132">
<ele>9.50</ele>
<time>2016-10-19T13:00:53Z</time>
</trkpt>
<trkpt lat="39.7713390" lon="3.0397555">
<ele>9.61</ele>
<time>2016-10-19T13:00:56Z</time>
</trkpt>
<trkpt lat="39.7711636" lon="3.0398868">
<ele>10.39</ele>
<time>2016-10-19T13:00:59Z</time>
</trkpt>
<trkpt lat="39.7710165" lon="3.0400324">
<ele>11.14</ele>
<time>2016-10-19T13:01:02Z</time>
</trkpt>
<trkpt lat="39.7710020" lon="3.0402818">
<ele>11.38</ele>
<time>2016-10-19T13:01:05Z</time>
</trkpt>
<trkpt lat="39.7711113" lon="3.0405140">
<ele>11.99</ele>
<time>2016-10-19T13:01:08Z</time>
</trkpt>
<trkpt lat="39.7712503" lon="3.0407595">
<ele>13.14</ele>
<time>2016-10-19T13:01:11Z</time>
</trkpt>
<trkpt lat="39.7713867" lon="3.0410070">
<ele>13.02</ele>
<time>2016-10-19T13:01:14Z</time>
</trkpt>
<trkpt lat="39.7715203" lon="3.0412443">
<ele>12.41</ele>
<time>2016-10-19T13:01:17Z</time>
</trkpt>
<trkpt lat="39.7716756" lon="3.0415087">
<ele>13.74</ele>
<time>2016-10-19T13:01:20Z</time>
</trkpt>
<trkpt lat="39.7718236" lon="3.0417727">
<ele>13.61</ele>
<time>2016-10-19T13:01:23Z</time>
</trkpt>
<trkpt lat="39.7719476" lon="3.0420049">
<ele>12.35</ele>
<time>2016-10-19T13:01:26Z</time>
</trkpt>
<trkpt lat="39.7720602" lon="3.0422121">
<ele>11.31</ele>
<time>2016-10-19T13:01:29Z</time>
</trkpt>
<trkpt lat="39.7721787" lon="3.0424153">
<ele>11.74</ele>
<time>2016-10-19T13:01:32Z</time>
</trkpt>
<trkpt lat="39.7723120" lon="3.0426394">
<ele>12.61</ele>
<time>2016-10-19T13:01:35Z</time>
</trkpt>
<trkpt lat="39.7724272" lon="3.0428348">
<ele>13.29</ele>
<time>2016-10-19T13:01:38Z</time>
</trkpt>
<trkpt lat="39.7725548" lon="3.0430658">
<ele>13.80</ele>
<time>2016-10-19T13:01:41Z</time>
</trkpt>
<trkpt lat="39.7726915" lon="3.0432980">
<ele>14.08</ele>
<time>2016-10-19T13:01:44Z</time>
</trkpt>
<trkpt lat="39.7728269" lon="3.0435299">
<ele>14.07</ele>
<time>2016-10-19T13:01:47Z</time>
</trkpt>
<trkpt lat="39.7729458" lon="3.0437687">
<ele>12.19</ele>
<time>2016-10-19T13:01:50Z</time>
</trkpt>
<trkpt lat="39.7730644" lon="3.0439806">
<ele>11.35</ele>
<time>2016-10-19T13:01:53Z</time>
</trkpt>
<trkpt lat="39.7731828" lon="3.0442099">
<ele>12.24</ele>
<time>2016-10-19T13:01:56Z</time>
</trkpt>
<trkpt lat="39.7733032" lon="3.0444539">
<ele>11.46</ele>
<time>2016-10-19T13:01:59Z</time>
</trkpt>
<trkpt lat="39.7734426" lon="3.0447276">
<ele>12.21</ele>
<time>2016-10-19T13:02:02Z</time>
</trkpt>
<trkpt lat="39.7735914" lon="3.0449804">
<ele>11.42</ele>
<time>2016-10-19T13:02:05Z</time>
</trkpt>
<trkpt lat="39.7737382" lon="3.0452278">
<ele>10.37</ele>
<time>2016-10-19T13:02:08Z</time>
</trkpt>
<trkpt lat="39.7738732" lon="3.0454686">
<ele>9.73</ele>
<time>2016-10-19T13:02:11Z</time>
</trkpt>
<trkpt lat="39.7740018" lon="3.0457003">
<ele>9.02</ele>
<time>2016-10-19T13:02:14Z</time>
</trkpt>
<trkpt lat="39.7741190" lon="3.0459195">
<ele>8.82</ele>
<time>2016-10-19T13:02:17Z</time>
</trkpt>
<trkpt lat="39.7742369" lon="3.0461346">
<ele>9.91</ele>
<time>2016-10-19T13:02:20Z</time>
</trkpt>
<trkpt lat="39.7743598" lon="3.0463592">
<ele>11.00</ele>
<time>2016-10-19T13:02:23Z</time>
</trkpt>
<trkpt lat="39.7744981" lon="3.0466104">
<ele>10.63</ele>
<time>2016-10-19T13:02:26Z</time>
</trkpt>
<trkpt lat="39.7746365" lon="3.0468545">
<ele>9.46</ele>
<time>2016-10-19T13:02:29Z</time>
</trkpt>
<trkpt lat="39.7747532" lon="3.0470614">
<ele>9.70</ele>
<time>2016-10-19T13:02:32Z</time>
</trkpt>
<trkpt lat="39.7748767" lon="3.0472818">
<ele>10.18</ele>
<time>2016-10-19T13:02:35Z</time>
</trkpt>
<trkpt lat="39.7750070" lon="3.0475214">
<ele>10.42</ele>
<time>2016-10-19T13:02:38Z</time>
</trkpt>
<trkpt lat="39.7751411" lon="3.0477648">
<ele>10.37</ele>
<time>2016-10-19T13:02:41Z</time>
</trkpt>
<trkpt lat="39.7752804" lon="3.0480238">
<ele>11.47</ele>
<time>2016-10-19T13:02:44Z</time>
</trkpt>
<trkpt lat="39.7754144" lon="3.0482705">
<ele>12.39</ele>
<time>2016-10-19T13:02:47Z</time>
</trkpt>
<trkpt lat="39.7755527" lon="3.0485273">
<ele>11.81</ele>
<time>2016-10-19T13:02:50Z</time>
</trkpt>
<trkpt lat="39.7756859" lon="3.0487579">
<ele>10.74</ele>
<time>2016-10-19T13:02:53Z</time>
</trkpt>
<trkpt lat="39.7758113" lon="3.0489670">
<ele>10.09</ele>
<time>2016-10-19T13:02:56Z</time>
</trkpt>
<trkpt lat="39.7759427" lon="3.0491955">
<ele>10.41</ele>
<time>2016-10-19T13:02:59Z</time>
</trkpt>
<trkpt lat="39.7760764" lon="3.0494343">
<ele>11.16</ele>
<time>2016-10-19T13:03:02Z</time>
</trkpt>
<trkpt lat="39.7762035" lon="3.0496285">
<ele>11.97</ele>
<time>2016-10-19T13:03:05Z</time>
</trkpt>
<trkpt lat="39.7763916" lon="3.0497808">
<ele>11.44</ele>
<time>2016-10-19T13:03:08Z</time>
</trkpt>
<trkpt lat="39.7766067" lon="3.0499456">
<ele>10.45</ele>
<time>2016-10-19T13:03:11Z</time>
</trkpt>
<trkpt lat="39.7767829" lon="3.0501360">
<ele>9.12</ele>
<time>2016-10-19T13:03:14Z</time>
</trkpt>
<trkpt lat="39.7769245" lon="3.0503436">
<ele>9.55</ele>
<time>2016-10-19T13:03:17Z</time>
</trkpt>
<trkpt lat="39.7770671" lon="3.0505625">
<ele>9.23</ele>
<time>2016-10-19T13:03:20Z</time>
</trkpt>
<trkpt lat="39.7772289" lon="3.0507820">
<ele>9.64</ele>
<time>2016-10-19T13:03:23Z</time>
</trkpt>
<trkpt lat="39.7773833" lon="3.0510046">
<ele>9.72</ele>
<time>2016-10-19T13:03:27Z</time>
</trkpt>
<trkpt lat="39.7775322" lon="3.0512352">
<ele>9.68</ele>
<time>2016-10-19T13:03:30Z</time>
</trkpt>
<trkpt lat="39.7776804" lon="3.0514629">
<ele>10.00</ele>
<time>2016-10-19T13:03:33Z</time>
</trkpt>
<trkpt lat="39.7778359" lon="3.0516875">
<ele>8.96</ele>
<time>2016-10-19T13:03:36Z</time>
</trkpt>
<trkpt lat="39.7780015" lon="3.0519233">
<ele>7.31</ele>
<time>2016-10-19T13:03:39Z</time>
</trkpt>
<trkpt lat="39.7781540" lon="3.0521376">
<ele>6.09</ele>
<time>2016-10-19T13:03:42Z</time>
</trkpt>
<trkpt lat="39.7782930" lon="3.0523327">
<ele>5.82</ele>
<time>2016-10-19T13:03:45Z</time>
</trkpt>
<trkpt lat="39.7784302" lon="3.0525514">
<ele>6.18</ele>
<time>2016-10-19T13:03:48Z</time>
</trkpt>
<trkpt lat="39.7785629" lon="3.0527691">
<ele>6.39</ele>
<time>2016-10-19T13:03:51Z</time>
</trkpt>
<trkpt lat="39.7786829" lon="3.0530142">
<ele>7.51</ele>
<time>2016-10-19T13:03:54Z</time>
</trkpt>
<trkpt lat="39.7787030" lon="3.0532825">
<ele>7.41</ele>
<time>2016-10-19T13:03:57Z</time>
</trkpt>
<trkpt lat="39.7786611" lon="3.0535849">
<ele>7.27</ele>
<time>2016-10-19T13:04:00Z</time>
</trkpt>
<trkpt lat="39.7785867" lon="3.0538929">
<ele>6.23</ele>
<time>2016-10-19T13:04:03Z</time>
</trkpt>
<trkpt lat="39.7784910" lon="3.0541527">
<ele>5.08</ele>
<time>2016-10-19T13:04:06Z</time>
</trkpt>
<trkpt lat="39.7783748" lon="3.0543789">
<ele>3.50</ele>
<time>2016-10-19T13:04:09Z</time>
</trkpt>
<trkpt lat="39.7782560" lon="3.0546102">
<ele>2.96</ele>
<time>2016-10-19T13:04:12Z</time>
</trkpt>
<trkpt lat="39.7781279" lon="3.0548393">
<ele>3.35</ele>
<time>2016-10-19T13:04:15Z</time>
</trkpt>
<trkpt lat="39.7779956" lon="3.0550594">
<ele>3.70</ele>
<time>2016-10-19T13:04:18Z</time>
</trkpt>
<trkpt lat="39.7778554" lon="3.0552870">
<ele>3.44</ele>
<time>2016-10-19T13:04:21Z</time>
</trkpt>
<trkpt lat="39.7777199" lon="3.0555495">
<ele>3.88</ele>
<time>2016-10-19T13:04:24Z</time>
</trkpt>
<trkpt lat="39.7776123" lon="3.0558106">
<ele>5.13</ele>
<time>2016-10-19T13:04:27Z</time>
</trkpt>
<trkpt lat="39.7775252" lon="3.0560641">
<ele>6.31</ele>
<time>2016-10-19T13:04:30Z</time>
</trkpt>
<trkpt lat="39.7774472" lon="3.0563237">
<ele>6.73</ele>
<time>2016-10-19T13:04:33Z</time>
</trkpt>
<trkpt lat="39.7773731" lon="3.0565870">
<ele>6.99</ele>
<time>2016-10-19T13:04:36Z</time>
</trkpt>
<trkpt lat="39.7773065" lon="3.0568255">
<ele>7.68</ele>
<time>2016-10-19T13:04:39Z</time>
</trkpt>
<trkpt lat="39.7772383" lon="3.0570710">
<ele>9.11</ele>
<time>2016-10-19T13:04:42Z</time>
</trkpt>
<trkpt lat="39.7771687" lon="3.0573167">
<ele>10.31</ele>
<time>2016-10-19T13:04:45Z</time>
</trkpt>
<trkpt lat="39.7770994" lon="3.0575524">
<ele>11.40</ele>
<time>2016-10-19T13:04:48Z</time>
</trkpt>
<trkpt lat="39.7770260" lon="3.0577929">
<ele>11.69</ele>
<time>2016-10-19T13:04:51Z</time>
</trkpt>
<trkpt lat="39.7769512" lon="3.0580247">
<ele>11.49</ele>
<time>2016-10-19T13:04:54Z</time>
</trkpt>
<trkpt lat="39.7768731" lon="3.0582608">
<ele>10.69</ele>
<time>2016-10-19T13:04:57Z</time>
</trkpt>
<trkpt lat="39.7767952" lon="3.0585000">
<ele>9.12</ele>
<time>2016-10-19T13:05:00Z</time>
</trkpt>
<trkpt lat="39.7767256" lon="3.0587513">
<ele>8.27</ele>
<time>2016-10-19T13:05:03Z</time>
</trkpt>
<trkpt lat="39.7766676" lon="3.0589913">
<ele>8.74</ele>
<time>2016-10-19T13:05:06Z</time>
</trkpt>
<trkpt lat="39.7765999" lon="3.0592429">
<ele>8.79</ele>
<time>2016-10-19T13:05:09Z</time>
</trkpt>
<trkpt lat="39.7765088" lon="3.0595305">
<ele>8.40</ele>
<time>2016-10-19T13:05:13Z</time>
</trkpt>
<trkpt lat="39.7764369" lon="3.0597503">
<ele>8.48</ele>
<time>2016-10-19T13:05:16Z</time>
</trkpt>
<trkpt lat="39.7763703" lon="3.0600034">
<ele>9.13</ele>
<time>2016-10-19T13:05:19Z</time>
</trkpt>
<trkpt lat="39.7763039" lon="3.0602604">
<ele>9.35</ele>
<time>2016-10-19T13:05:22Z</time>
</trkpt>
<trkpt lat="39.7762426" lon="3.0604880">
<ele>10.04</ele>
<time>2016-10-19T13:05:25Z</time>
</trkpt>
<trkpt lat="39.7761849" lon="3.0607258">
<ele>10.42</ele>
<time>2016-10-19T13:05:28Z</time>
</trkpt>
<trkpt lat="39.7761276" lon="3.0609618">
<ele>10.09</ele>
<time>2016-10-19T13:05:31Z</time>
</trkpt>
<trkpt lat="39.7760681" lon="3.0612068">
<ele>10.13</ele>
<time>2016-10-19T13:05:34Z</time>
</trkpt>
<trkpt lat="39.7760076" lon="3.0614514">
<ele>10.31</ele>
<time>2016-10-19T13:05:37Z</time>
</trkpt>
<trkpt lat="39.7759410" lon="3.0617094">
<ele>9.67</ele>
<time>2016-10-19T13:05:40Z</time>
</trkpt>
<trkpt lat="39.7758702" lon="3.0619616">
<ele>8.29</ele>
<time>2016-10-19T13:05:43Z</time>
</trkpt>
<trkpt lat="39.7758060" lon="3.0621984">
<ele>7.74</ele>
<time>2016-10-19T13:05:46Z</time>
</trkpt>
<trkpt lat="39.7757434" lon="3.0624536">
<ele>8.04</ele>
<time>2016-10-19T13:05:49Z</time>
</trkpt>
<trkpt lat="39.7756855" lon="3.0627019">
<ele>6.62</ele>
<time>2016-10-19T13:05:52Z</time>
</trkpt>
<trkpt lat="39.7756068" lon="3.0629947">
<ele>5.61</ele>
<time>2016-10-19T13:05:55Z</time>
</trkpt>
<trkpt lat="39.7755214" lon="3.0632860">
<ele>5.56</ele>
<time>2016-10-19T13:05:58Z</time>
</trkpt>
<trkpt lat="39.7754478" lon="3.0635309">
<ele>5.72</ele>
<time>2016-10-19T13:06:01Z</time>
</trkpt>
<trkpt lat="39.7753506" lon="3.0637972">
<ele>7.07</ele>
<time>2016-10-19T13:06:05Z</time>
</trkpt>
<trkpt lat="39.7752437" lon="3.0640275">
<ele>9.15</ele>
<time>2016-10-19T13:06:09Z</time>
</trkpt>
<trkpt lat="39.7751187" lon="3.0642715">
<ele>10.27</ele>
<time>2016-10-19T13:06:13Z</time>
</trkpt>
<trkpt lat="39.7750087" lon="3.0644940">
<ele>10.20</ele>
<time>2016-10-19T13:06:16Z</time>
</trkpt>
<trkpt lat="39.7748837" lon="3.0647223">
<ele>8.36</ele>
<time>2016-10-19T13:06:19Z</time>
</trkpt>
<trkpt lat="39.7747463" lon="3.0649624">
<ele>5.73</ele>
<time>2016-10-19T13:06:22Z</time>
</trkpt>
<trkpt lat="39.7746101" lon="3.0651950">
<ele>4.11</ele>
<time>2016-10-19T13:06:25Z</time>
</trkpt>
<trkpt lat="39.7744746" lon="3.0654070">
<ele>3.23</ele>
<time>2016-10-19T13:06:28Z</time>
</trkpt>
<trkpt lat="39.7743300" lon="3.0656523">
<ele>2.34</ele>
<time>2016-10-19T13:06:31Z</time>
</trkpt>
<trkpt lat="39.7741985" lon="3.0658732">
<ele>1.12</ele>
<time>2016-10-19T13:06:34Z</time>
</trkpt>
<trkpt lat="39.7740667" lon="3.0660485">
<ele>-1.02</ele>
<time>2016-10-19T13:06:37Z</time>
</trkpt>
<trkpt lat="39.7739144" lon="3.0662166">
<ele>-1.96</ele>
<time>2016-10-19T13:06:40Z</time>
</trkpt>
<trkpt lat="39.7737508" lon="3.0663859">
<ele>-3.45</ele>
<time>2016-10-19T13:06:43Z</time>
</trkpt>
<trkpt lat="39.7735979" lon="3.0665566">
<ele>-4.34</ele>
<time>2016-10-19T13:06:46Z</time>
</trkpt>
<trkpt lat="39.7734519" lon="3.0667295">
<ele>-4.06</ele>
<time>2016-10-19T13:06:49Z</time>
</trkpt>
<trkpt lat="39.7733180" lon="3.0669032">
<ele>-3.24</ele>
<time>2016-10-19T13:06:52Z</time>
</trkpt>
<trkpt lat="39.7731838" lon="3.0670816">
<ele>-2.13</ele>
<time>2016-10-19T13:06:55Z</time>
</trkpt>
<trkpt lat="39.7730506" lon="3.0672543">
<ele>-2.64</ele>
<time>2016-10-19T13:06:58Z</time>
</trkpt>
<trkpt lat="39.7729243" lon="3.0674397">
<ele>-2.75</ele>
<time>2016-10-19T13:07:01Z</time>
</trkpt>
<trkpt lat="39.7728031" lon="3.0676483">
<ele>-3.20</ele>
<time>2016-10-19T13:07:04Z</time>
</trkpt>
<trkpt lat="39.7726917" lon="3.0678605">
<ele>-2.46</ele>
<time>2016-10-19T13:07:07Z</time>
</trkpt>
<trkpt lat="39.7725843" lon="3.0680905">
<ele>-1.24</ele>
<time>2016-10-19T13:07:10Z</time>
</trkpt>
<trkpt lat="39.7724842" lon="3.0683048">
<ele>-0.99</ele>
<time>2016-10-19T13:07:13Z</time>
</trkpt>
<trkpt lat="39.7723779" lon="3.0685154">
<ele>-1.54</ele>
<time>2016-10-19T13:07:16Z</time>
</trkpt>
<trkpt lat="39.7722674" lon="3.0687292">
<ele>-0.78</ele>
<time>2016-10-19T13:07:19Z</time>
</trkpt>
<trkpt lat="39.7721595" lon="3.0689485">
<ele>-1.42</ele>
<time>2016-10-19T13:07:22Z</time>
</trkpt>
<trkpt lat="39.7720603" lon="3.0691693">
<ele>-0.38</ele>
<time>2016-10-19T13:07:25Z</time>
</trkpt>
<trkpt lat="39.7719755" lon="3.0693898">
<ele>0.72</ele>
<time>2016-10-19T13:07:28Z</time>
</trkpt>
<trkpt lat="39.7718911" lon="3.0696344">
<ele>1.56</ele>
<time>2016-10-19T13:07:31Z</time>
</trkpt>
<trkpt lat="39.7717987" lon="3.0698802">
<ele>1.78</ele>
<time>2016-10-19T13:07:34Z</time>
</trkpt>
<trkpt lat="39.7717068" lon="3.0701109">
<ele>0.50</ele>
<time>2016-10-19T13:07:37Z</time>
</trkpt>
<trkpt lat="39.7716135" lon="3.0703250">
<ele>-0.76</ele>
<time>2016-10-19T13:07:40Z</time>
</trkpt>
<trkpt lat="39.7715260" lon="3.0705407">
<ele>-1.05</ele>
<time>2016-10-19T13:07:43Z</time>
</trkpt>
<trkpt lat="39.7714354" lon="3.0707639">
<ele>-1.84</ele>
<time>2016-10-19T13:07:46Z</time>
</trkpt>
<trkpt lat="39.7713445" lon="3.0709876">
<ele>-2.77</ele>
<time>2016-10-19T13:07:49Z</time>
</trkpt>
<trkpt lat="39.7712387" lon="3.0712621">
<ele>-1.07</ele>
<time>2016-10-19T13:07:53Z</time>
</trkpt>
<trkpt lat="39.7711280" lon="3.0715252">
<ele>-0.25</ele>
<time>2016-10-19T13:07:57Z</time>
</trkpt>
<trkpt lat="39.7710380" lon="3.0717508">
<ele>0.34</ele>
<time>2016-10-19T13:08:00Z</time>
</trkpt>
<trkpt lat="39.7709385" lon="3.0719820">
<ele>0.15</ele>
<time>2016-10-19T13:08:03Z</time>
</trkpt>
<trkpt lat="39.7708311" lon="3.0722151">
<ele>-0.15</ele>
<time>2016-10-19T13:08:06Z</time>
</trkpt>
<trkpt lat="39.7707233" lon="3.0724404">
<ele>-0.37</ele>
<time>2016-10-19T13:08:09Z</time>
</trkpt>
<trkpt lat="39.7706161" lon="3.0726602">
<ele>-0.55</ele>
<time>2016-10-19T13:08:12Z</time>
</trkpt>
<trkpt lat="39.7705207" lon="3.0728591">
<ele>-0.90</ele>
<time>2016-10-19T13:08:15Z</time>
</trkpt>
<trkpt lat="39.7704252" lon="3.0730676">
<ele>-0.30</ele>
<time>2016-10-19T13:08:18Z</time>
</trkpt>
<trkpt lat="39.7703282" lon="3.0732692">
<ele>0.61</ele>
<time>2016-10-19T13:08:21Z</time>
</trkpt>
<trkpt lat="39.7702223" lon="3.0734829">
<ele>1.01</ele>
<time>2016-10-19T13:08:24Z</time>
</trkpt>
<trkpt lat="39.7701134" lon="3.0737031">
<ele>0.51</ele>
<time>2016-10-19T13:08:27Z</time>
</trkpt>
<trkpt lat="39.7700025" lon="3.0739195">
<ele>-0.26</ele>
<time>2016-10-19T13:08:30Z</time>
</trkpt>
<trkpt lat="39.7698968" lon="3.0741356">
<ele>-0.10</ele>
<time>2016-10-19T13:08:33Z</time>
</trkpt>
<trkpt lat="39.7697866" lon="3.0743600">
<ele>-0.19</ele>
<time>2016-10-19T13:08:36Z</time>
</trkpt>
<trkpt lat="39.7696858" lon="3.0745648">
<ele>0.32</ele>
<time>2016-10-19T13:08:39Z</time>
</trkpt>
<trkpt lat="39.7695815" lon="3.0747779">
<ele>0.98</ele>
<time>2016-10-19T13:08:42Z</time>
</trkpt>
<trkpt lat="39.7694714" lon="3.0749967">
<ele>0.96</ele>
<time>2016-10-19T13:08:45Z</time>
</trkpt>
<trkpt lat="39.7693591" lon="3.0752161">
<ele>0.78</ele>
<time>2016-10-19T13:08:48Z</time>
</trkpt>
<trkpt lat="39.7692557" lon="3.0754359">
<ele>0.38</ele>
<time>2016-10-19T13:08:51Z</time>
</trkpt>
<trkpt lat="39.7691636" lon="3.0756467">
<ele>0.49</ele>
<time>2016-10-19T13:08:54Z</time>
</trkpt>
<trkpt lat="39.7690792" lon="3.0758859">
<ele>0.57</ele>
<time>2016-10-19T13:08:57Z</time>
</trkpt>
<trkpt lat="39.7690086" lon="3.0761448">
<ele>-0.64</ele>
<time>2016-10-19T13:09:00Z</time>
</trkpt>
<trkpt lat="39.7689311" lon="3.0763994">
<ele>-2.00</ele>
<time>2016-10-19T13:09:03Z</time>
</trkpt>
<trkpt lat="39.7688383" lon="3.0766440">
<ele>-2.80</ele>
<time>2016-10-19T13:09:06Z</time>
</trkpt>
<trkpt lat="39.7687347" lon="3.0768753">
<ele>-3.48</ele>
<time>2016-10-19T13:09:09Z</time>
</trkpt>
<trkpt lat="39.7686364" lon="3.0770997">
<ele>-3.36</ele>
<time>2016-10-19T13:09:12Z</time>
</trkpt>
<trkpt lat="39.7685532" lon="3.0773318">
<ele>-2.25</ele>
<time>2016-10-19T13:09:15Z</time>
</trkpt>
<trkpt lat="39.7684797" lon="3.0775819">
<ele>-0.94</ele>
<time>2016-10-19T13:09:18Z</time>
</trkpt>
<trkpt lat="39.7683972" lon="3.0778438">
<ele>-0.39</ele>
<time>2016-10-19T13:09:21Z</time>
</trkpt>
<trkpt lat="39.7683185" lon="3.0780684">
<ele>0.49</ele>
<time>2016-10-19T13:09:24Z</time>
</trkpt>
<trkpt lat="39.7682327" lon="3.0782873">
<ele>1.87</ele>
<time>2016-10-19T13:09:27Z</time>
</trkpt>
<trkpt lat="39.7681307" lon="3.0785160">
<ele>2.88</ele>
<time>2016-10-19T13:09:30Z</time>
</trkpt>
<trkpt lat="39.7680103" lon="3.0787603">
<ele>2.57</ele>
<time>2016-10-19T13:09:33Z</time>
</trkpt>
<trkpt lat="39.7678925" lon="3.0789824">
<ele>1.35</ele>
<time>2016-10-19T13:09:36Z</time>
</trkpt>
<trkpt lat="39.7677750" lon="3.0792043">
<ele>-0.37</ele>
<time>2016-10-19T13:09:39Z</time>
</trkpt>
<trkpt lat="39.7676552" lon="3.0794138">
<ele>-2.05</ele>
<time>2016-10-19T13:09:42Z</time>
</trkpt>
<trkpt lat="39.7675302" lon="3.0796339">
<ele>-3.32</ele>
<time>2016-10-19T13:09:45Z</time>
</trkpt>
<trkpt lat="39.7674108" lon="3.0798474">
<ele>-3.84</ele>
<time>2016-10-19T13:09:48Z</time>
</trkpt>
<trkpt lat="39.7672933" lon="3.0800573">
<ele>-3.92</ele>
<time>2016-10-19T13:09:51Z</time>
</trkpt>
<trkpt lat="39.7671733" lon="3.0802765">
<ele>-4.35</ele>
<time>2016-10-19T13:09:54Z</time>
</trkpt>
<trkpt lat="39.7670587" lon="3.0804862">
<ele>-4.75</ele>
<time>2016-10-19T13:09:57Z</time>
</trkpt>
<trkpt lat="39.7669354" lon="3.0807023">
<ele>-6.10</ele>
<time>2016-10-19T13:10:00Z</time>
</trkpt>
<trkpt lat="39.7668108" lon="3.0809307">
<ele>-6.13</ele>
<time>2016-10-19T13:10:03Z</time>
</trkpt>
<trkpt lat="39.7666862" lon="3.0811676">
<ele>-6.44</ele>
<time>2016-10-19T13:10:06Z</time>
</trkpt>
<trkpt lat="39.7665656" lon="3.0813988">
<ele>-6.48</ele>
<time>2016-10-19T13:10:09Z</time>
</trkpt>
<trkpt lat="39.7664604" lon="3.0816059">
<ele>-6.45</ele>
<time>2016-10-19T13:10:12Z</time>
</trkpt>
<trkpt lat="39.7663303" lon="3.0818729">
<ele>-7.90</ele>
<time>2016-10-19T13:10:16Z</time>
</trkpt>
<trkpt lat="39.7662189" lon="3.0820809">
<ele>-7.92</ele>
<time>2016-10-19T13:10:19Z</time>
</trkpt>
<trkpt lat="39.7660824" lon="3.0822578">
<ele>-6.62</ele>
<time>2016-10-19T13:10:23Z</time>
</trkpt>
<trkpt lat="39.7658897" lon="3.0822940">
<ele>-4.30</ele>
<time>2016-10-19T13:10:28Z</time>
</trkpt>
<trkpt lat="39.7657085" lon="3.0822935">
<ele>-2.99</ele>
<time>2016-10-19T13:10:35Z</time>
</trkpt>
<trkpt lat="39.7656024" lon="3.0825636">
<ele>-0.12</ele>
<time>2016-10-19T13:10:40Z</time>
</trkpt>
<trkpt lat="39.7655358" lon="3.0828568">
<ele>0.25</ele>
<time>2016-10-19T13:10:44Z</time>
</trkpt>
<trkpt lat="39.7654927" lon="3.0831033">
<ele>0.66</ele>
<time>2016-10-19T13:10:47Z</time>
</trkpt>
<trkpt lat="39.7654415" lon="3.0833327">
<ele>1.93</ele>
<time>2016-10-19T13:10:50Z</time>
</trkpt>
<trkpt lat="39.7653742" lon="3.0835594">
<ele>3.85</ele>
<time>2016-10-19T13:10:53Z</time>
</trkpt>
<trkpt lat="39.7652908" lon="3.0837866">
<ele>4.90</ele>
<time>2016-10-19T13:10:56Z</time>
</trkpt>
<trkpt lat="39.7651976" lon="3.0840090">
<ele>5.31</ele>
<time>2016-10-19T13:10:59Z</time>
</trkpt>
<trkpt lat="39.7650998" lon="3.0842170">
<ele>5.44</ele>
<time>2016-10-19T13:11:02Z</time>
</trkpt>
<trkpt lat="39.7649983" lon="3.0844257">
<ele>5.12</ele>
<time>2016-10-19T13:11:05Z</time>
</trkpt>
<trkpt lat="39.7648889" lon="3.0846266">
<ele>4.13</ele>
<time>2016-10-19T13:11:08Z</time>
</trkpt>
<trkpt lat="39.7647675" lon="3.0848385">
<ele>2.47</ele>
<time>2016-10-19T13:11:11Z</time>
</trkpt>
<trkpt lat="39.7646513" lon="3.0850469">
<ele>1.17</ele>
<time>2016-10-19T13:11:14Z</time>
</trkpt>
<trkpt lat="39.7645405" lon="3.0852629">
<ele>0.31</ele>
<time>2016-10-19T13:11:17Z</time>
</trkpt>
<trkpt lat="39.7644422" lon="3.0854842">
<ele>0.28</ele>
<time>2016-10-19T13:11:20Z</time>
</trkpt>
<trkpt lat="39.7643490" lon="3.0857111">
<ele>0.30</ele>
<time>2016-10-19T13:11:23Z</time>
</trkpt>
<trkpt lat="39.7642574" lon="3.0859480">
<ele>0.86</ele>
<time>2016-10-19T13:11:26Z</time>
</trkpt>
<trkpt lat="39.7641896" lon="3.0861711">
<ele>1.79</ele>
<time>2016-10-19T13:11:29Z</time>
</trkpt>
<trkpt lat="39.7641275" lon="3.0864009">
<ele>2.15</ele>
<time>2016-10-19T13:11:32Z</time>
</trkpt>
<trkpt lat="39.7640672" lon="3.0866510">
<ele>2.43</ele>
<time>2016-10-19T13:11:35Z</time>
</trkpt>
<trkpt lat="39.7640154" lon="3.0868886">
<ele>1.93</ele>
<time>2016-10-19T13:11:38Z</time>
</trkpt>
<trkpt lat="39.7639706" lon="3.0871218">
<ele>1.46</ele>
<time>2016-10-19T13:11:41Z</time>
</trkpt>
<trkpt lat="39.7639408" lon="3.0873726">
<ele>1.97</ele>
<time>2016-10-19T13:11:44Z</time>
</trkpt>
<trkpt lat="39.7639228" lon="3.0876111">
<ele>2.15</ele>
<time>2016-10-19T13:11:47Z</time>
</trkpt>
<trkpt lat="39.7639234" lon="3.0878488">
<ele>3.36</ele>
<time>2016-10-19T13:11:50Z</time>
</trkpt>
<trkpt lat="39.7639337" lon="3.0881138">
<ele>5.96</ele>
<time>2016-10-19T13:11:52Z</time>
</trkpt>
<trkpt lat="39.7639518" lon="3.0883544">
<ele>7.91</ele>
<time>2016-10-19T13:11:55Z</time>
</trkpt>
<trkpt lat="39.7639777" lon="3.0886126">
<ele>9.77</ele>
<time>2016-10-19T13:11:58Z</time>
</trkpt>
<trkpt lat="39.7640048" lon="3.0888631">
<ele>10.38</ele>
<time>2016-10-19T13:12:01Z</time>
</trkpt>
<trkpt lat="39.7640378" lon="3.0891071">
<ele>10.22</ele>
<time>2016-10-19T13:12:04Z</time>
</trkpt>
<trkpt lat="39.7640704" lon="3.0893552">
<ele>10.37</ele>
<time>2016-10-19T13:12:07Z</time>
</trkpt>
<trkpt lat="39.7641089" lon="3.0896442">
<ele>11.27</ele>
<time>2016-10-19T13:12:10Z</time>
</trkpt>
<trkpt lat="39.7641500" lon="3.0899078">
<ele>11.19</ele>
<time>2016-10-19T13:12:13Z</time>
</trkpt>
<trkpt lat="39.7641831" lon="3.0901449">
<ele>10.96</ele>
<time>2016-10-19T13:12:16Z</time>
</trkpt>
<trkpt lat="39.7642284" lon="3.0903954">
<ele>10.78</ele>
<time>2016-10-19T13:12:19Z</time>
</trkpt>
<trkpt lat="39.7642737" lon="3.0906750">
<ele>10.47</ele>
<time>2016-10-19T13:12:22Z</time>
</trkpt>
<trkpt lat="39.7643167" lon="3.0909611">
<ele>11.60</ele>
<time>2016-10-19T13:12:25Z</time>
</trkpt>
<trkpt lat="39.7643584" lon="3.0912317">
<ele>10.46</ele>
<time>2016-10-19T13:12:28Z</time>
</trkpt>
<trkpt lat="39.7643937" lon="3.0914752">
<ele>10.25</ele>
<time>2016-10-19T13:12:31Z</time>
</trkpt>
<trkpt lat="39.7644359" lon="3.0917180">
<ele>11.04</ele>
<time>2016-10-19T13:12:34Z</time>
</trkpt>
<trkpt lat="39.7644727" lon="3.0919736">
<ele>10.98</ele>
<time>2016-10-19T13:12:37Z</time>
</trkpt>
<trkpt lat="39.7645045" lon="3.0922318">
<ele>10.07</ele>
<time>2016-10-19T13:12:40Z</time>
</trkpt>
<trkpt lat="39.7645344" lon="3.0924720">
<ele>10.11</ele>
<time>2016-10-19T13:12:43Z</time>
</trkpt>
<trkpt lat="39.7645685" lon="3.0927264">
<ele>10.43</ele>
<time>2016-10-19T13:12:46Z</time>
</trkpt>
<trkpt lat="39.7646028" lon="3.0930125">
<ele>9.82</ele>
<time>2016-10-19T13:12:49Z</time>
</trkpt>
<trkpt lat="39.7646338" lon="3.0933024">
<ele>9.39</ele>
<time>2016-10-19T13:12:52Z</time>
</trkpt>
<trkpt lat="39.7646686" lon="3.0935458">
<ele>8.43</ele>
<time>2016-10-19T13:12:55Z</time>
</trkpt>
<trkpt lat="39.7646945" lon="3.0937841">
<ele>8.63</ele>
<time>2016-10-19T13:12:58Z</time>
</trkpt>
<trkpt lat="39.7647282" lon="3.0940516">
<ele>9.28</ele>
<time>2016-10-19T13:13:01Z</time>
</trkpt>
<trkpt lat="39.7647604" lon="3.0943039">
<ele>9.04</ele>
<time>2016-10-19T13:13:04Z</time>
</trkpt>
<trkpt lat="39.7648080" lon="3.0945539">
<ele>9.35</ele>
<time>2016-10-19T13:13:07Z</time>
</trkpt>
<trkpt lat="39.7648473" lon="3.0947896">
<ele>9.24</ele>
<time>2016-10-19T13:13:10Z</time>
</trkpt>
<trkpt lat="39.7648785" lon="3.0950459">
<ele>9.34</ele>
<time>2016-10-19T13:13:13Z</time>
</trkpt>
<trkpt lat="39.7649138" lon="3.0952821">
<ele>9.30</ele>
<time>2016-10-19T13:13:16Z</time>
</trkpt>
<trkpt lat="39.7649647" lon="3.0955397">
<ele>9.22</ele>
<time>2016-10-19T13:13:19Z</time>
</trkpt>
<trkpt lat="39.7650248" lon="3.0957989">
<ele>8.64</ele>
<time>2016-10-19T13:13:22Z</time>
</trkpt>
<trkpt lat="39.7650912" lon="3.0960195">
<ele>8.56</ele>
<time>2016-10-19T13:13:25Z</time>
</trkpt>
<trkpt lat="39.7651991" lon="3.0963012">
<ele>8.93</ele>
<time>2016-10-19T13:13:29Z</time>
</trkpt>
<trkpt lat="39.7652837" lon="3.0965303">
<ele>9.88</ele>
<time>2016-10-19T13:13:32Z</time>
</trkpt>
<trkpt lat="39.7653692" lon="3.0967489">
<ele>9.94</ele>
<time>2016-10-19T13:13:35Z</time>
</trkpt>
<trkpt lat="39.7654669" lon="3.0970050">
<ele>10.84</ele>
<time>2016-10-19T13:13:38Z</time>
</trkpt>
<trkpt lat="39.7655153" lon="3.0972998">
<ele>11.68</ele>
<time>2016-10-19T13:13:41Z</time>
</trkpt>
<trkpt lat="39.7655440" lon="3.0975896">
<ele>11.29</ele>
<time>2016-10-19T13:13:44Z</time>
</trkpt>
<trkpt lat="39.7655682" lon="3.0978550">
<ele>10.29</ele>
<time>2016-10-19T13:13:47Z</time>
</trkpt>
<trkpt lat="39.7655902" lon="3.0980979">
<ele>9.51</ele>
<time>2016-10-19T13:13:50Z</time>
</trkpt>
<trkpt lat="39.7656150" lon="3.0983542">
<ele>10.02</ele>
<time>2016-10-19T13:13:53Z</time>
</trkpt>
<trkpt lat="39.7656252" lon="3.0986203">
<ele>10.71</ele>
<time>2016-10-19T13:13:56Z</time>
</trkpt>
<trkpt lat="39.7656078" lon="3.0988893">
<ele>9.83</ele>
<time>2016-10-19T13:13:59Z</time>
</trkpt>
<trkpt lat="39.7655859" lon="3.0991570">
<ele>9.98</ele>
<time>2016-10-19T13:14:02Z</time>
</trkpt>
<trkpt lat="39.7655587" lon="3.0994270">
<ele>10.42</ele>
<time>2016-10-19T13:14:05Z</time>
</trkpt>
<trkpt lat="39.7655265" lon="3.0996992">
<ele>9.99</ele>
<time>2016-10-19T13:14:08Z</time>
</trkpt>
<trkpt lat="39.7654853" lon="3.0999616">
<ele>8.81</ele>
<time>2016-10-19T13:14:11Z</time>
</trkpt>
<trkpt lat="39.7654222" lon="3.1002426">
<ele>7.18</ele>
<time>2016-10-19T13:14:14Z</time>
</trkpt>
<trkpt lat="39.7653489" lon="3.1004912">
<ele>7.13</ele>
<time>2016-10-19T13:14:17Z</time>
</trkpt>
<trkpt lat="39.7652726" lon="3.1007316">
<ele>8.30</ele>
<time>2016-10-19T13:14:20Z</time>
</trkpt>
<trkpt lat="39.7651896" lon="3.1009714">
<ele>7.91</ele>
<time>2016-10-19T13:14:23Z</time>
</trkpt>
<trkpt lat="39.7651140" lon="3.1012265">
<ele>6.38</ele>
<time>2016-10-19T13:14:26Z</time>
</trkpt>
<trkpt lat="39.7650463" lon="3.1014766">
<ele>5.54</ele>
<time>2016-10-19T13:14:29Z</time>
</trkpt>
<trkpt lat="39.7649851" lon="3.1017353">
<ele>5.23</ele>
<time>2016-10-19T13:14:32Z</time>
</trkpt>
<trkpt lat="39.7649273" lon="3.1019838">
<ele>5.31</ele>
<time>2016-10-19T13:14:35Z</time>
</trkpt>
<trkpt lat="39.7648709" lon="3.1022307">
<ele>5.04</ele>
<time>2016-10-19T13:14:38Z</time>
</trkpt>
<trkpt lat="39.7648158" lon="3.1024793">
<ele>5.32</ele>
<time>2016-10-19T13:14:41Z</time>
</trkpt>
<trkpt lat="39.7647591" lon="3.1027347">
<ele>6.45</ele>
<time>2016-10-19T13:14:44Z</time>
</trkpt>
<trkpt lat="39.7646972" lon="3.1029926">
<ele>6.82</ele>
<time>2016-10-19T13:14:47Z</time>
</trkpt>
<trkpt lat="39.7646422" lon="3.1032357">
<ele>6.27</ele>
<time>2016-10-19T13:14:50Z</time>
</trkpt>
<trkpt lat="39.7645814" lon="3.1035078">
<ele>5.77</ele>
<time>2016-10-19T13:14:53Z</time>
</trkpt>
<trkpt lat="39.7645207" lon="3.1037617">
<ele>4.85</ele>
<time>2016-10-19T13:14:56Z</time>
</trkpt>
<trkpt lat="39.7644474" lon="3.1040205">
<ele>4.39</ele>
<time>2016-10-19T13:14:59Z</time>
</trkpt>
<trkpt lat="39.7643702" lon="3.1042879">
<ele>4.16</ele>
<time>2016-10-19T13:15:02Z</time>
</trkpt>
<trkpt lat="39.7642764" lon="3.1045116">
<ele>3.62</ele>
<time>2016-10-19T13:15:05Z</time>
</trkpt>
<trkpt lat="39.7641588" lon="3.1047271">
<ele>3.53</ele>
<time>2016-10-19T13:15:08Z</time>
</trkpt>
<trkpt lat="39.7640341" lon="3.1049422">
<ele>3.06</ele>
<time>2016-10-19T13:15:11Z</time>
</trkpt>
<trkpt lat="39.7639105" lon="3.1051582">
<ele>2.28</ele>
<time>2016-10-19T13:15:14Z</time>
</trkpt>
<trkpt lat="39.7637843" lon="3.1053861">
<ele>1.38</ele>
<time>2016-10-19T13:15:17Z</time>
</trkpt>
<trkpt lat="39.7636604" lon="3.1056097">
<ele>0.72</ele>
<time>2016-10-19T13:15:20Z</time>
</trkpt>
<trkpt lat="39.7635346" lon="3.1058240">
<ele>-0.06</ele>
<time>2016-10-19T13:15:23Z</time>
</trkpt>
<trkpt lat="39.7634305" lon="3.1060429">
<ele>1.21</ele>
<time>2016-10-19T13:15:26Z</time>
</trkpt>
<trkpt lat="39.7633188" lon="3.1062742">
<ele>2.01</ele>
<time>2016-10-19T13:15:29Z</time>
</trkpt>
<trkpt lat="39.7631981" lon="3.1064952">
<ele>0.85</ele>
<time>2016-10-19T13:15:32Z</time>
</trkpt>
<trkpt lat="39.7630655" lon="3.1067314">
<ele>0.52</ele>
<time>2016-10-19T13:15:35Z</time>
</trkpt>
<trkpt lat="39.7629463" lon="3.1069546">
<ele>1.62</ele>
<time>2016-10-19T13:15:38Z</time>
</trkpt>
<trkpt lat="39.7628333" lon="3.1071761">
<ele>2.88</ele>
<time>2016-10-19T13:15:41Z</time>
</trkpt>
<trkpt lat="39.7627104" lon="3.1074100">
<ele>3.92</ele>
<time>2016-10-19T13:15:44Z</time>
</trkpt>
<trkpt lat="39.7625855" lon="3.1076448">
<ele>3.89</ele>
<time>2016-10-19T13:15:47Z</time>
</trkpt>
<trkpt lat="39.7624592" lon="3.1078765">
<ele>2.57</ele>
<time>2016-10-19T13:15:50Z</time>
</trkpt>
<trkpt lat="39.7623372" lon="3.1080983">
<ele>1.89</ele>
<time>2016-10-19T13:15:53Z</time>
</trkpt>
<trkpt lat="39.7622193" lon="3.1083293">
<ele>2.18</ele>
<time>2016-10-19T13:15:56Z</time>
</trkpt>
<trkpt lat="39.7621088" lon="3.1085407">
<ele>1.21</ele>
<time>2016-10-19T13:15:59Z</time>
</trkpt>
<trkpt lat="39.7619871" lon="3.1087463">
<ele>0.32</ele>
<time>2016-10-19T13:16:02Z</time>
</trkpt>
<trkpt lat="39.7618443" lon="3.1089863">
<ele>-0.86</ele>
<time>2016-10-19T13:16:05Z</time>
</trkpt>
<trkpt lat="39.7617094" lon="3.1092163">
<ele>-1.72</ele>
<time>2016-10-19T13:16:08Z</time>
</trkpt>
<trkpt lat="39.7615783" lon="3.1094313">
<ele>-3.10</ele>
<time>2016-10-19T13:16:11Z</time>
</trkpt>
<trkpt lat="39.7614528" lon="3.1096580">
<ele>-3.66</ele>
<time>2016-10-19T13:16:14Z</time>
</trkpt>
<trkpt lat="39.7613221" lon="3.1098877">
<ele>-4.22</ele>
<time>2016-10-19T13:16:17Z</time>
</trkpt>
<trkpt lat="39.7612011" lon="3.1101053">
<ele>-4.35</ele>
<time>2016-10-19T13:16:20Z</time>
</trkpt>
<trkpt lat="39.7610799" lon="3.1103192">
<ele>-4.40</ele>
<time>2016-10-19T13:16:23Z</time>
</trkpt>
<trkpt lat="39.7609673" lon="3.1105209">
<ele>-3.53</ele>
<time>2016-10-19T13:16:26Z</time>
</trkpt>
<trkpt lat="39.7608530" lon="3.1107304">
<ele>-1.92</ele>
<time>2016-10-19T13:16:29Z</time>
</trkpt>
<trkpt lat="39.7607269" lon="3.1109598">
<ele>-2.03</ele>
<time>2016-10-19T13:16:32Z</time>
</trkpt>
<trkpt lat="39.7606029" lon="3.1111815">
<ele>-2.57</ele>
<time>2016-10-19T13:16:35Z</time>
</trkpt>
<trkpt lat="39.7604809" lon="3.1114077">
<ele>-1.98</ele>
<time>2016-10-19T13:16:38Z</time>
</trkpt>
<trkpt lat="39.7603685" lon="3.1116265">
<ele>-1.65</ele>
<time>2016-10-19T13:16:41Z</time>
</trkpt>
<trkpt lat="39.7602635" lon="3.1118366">
<ele>-1.65</ele>
<time>2016-10-19T13:16:44Z</time>
</trkpt>
<trkpt lat="39.7601579" lon="3.1120428">
<ele>-1.28</ele>
<time>2016-10-19T13:16:47Z</time>
</trkpt>
<trkpt lat="39.7600687" lon="3.1122482">
<ele>-0.48</ele>
<time>2016-10-19T13:16:50Z</time>
</trkpt>
<trkpt lat="39.7600018" lon="3.1124947">
<ele>-0.21</ele>
<time>2016-10-19T13:16:53Z</time>
</trkpt>
<trkpt lat="39.7599916" lon="3.1127600">
<ele>-0.54</ele>
<time>2016-10-19T13:16:56Z</time>
</trkpt>
<trkpt lat="39.7600051" lon="3.1129990">
<ele>0.71</ele>
<time>2016-10-19T13:16:59Z</time>
</trkpt>
<trkpt lat="39.7600271" lon="3.1132460">
<ele>2.74</ele>
<time>2016-10-19T13:17:02Z</time>
</trkpt>
<trkpt lat="39.7600396" lon="3.1134975">
<ele>4.56</ele>
<time>2016-10-19T13:17:05Z</time>
</trkpt>
<trkpt lat="39.7600421" lon="3.1137776">
<ele>4.85</ele>
<time>2016-10-19T13:17:08Z</time>
</trkpt>
<trkpt lat="39.7600391" lon="3.1140216">
<ele>5.11</ele>
<time>2016-10-19T13:17:11Z</time>
</trkpt>
<trkpt lat="39.7600209" lon="3.1143190">
<ele>4.80</ele>
<time>2016-10-19T13:17:15Z</time>
</trkpt>
<trkpt lat="39.7600086" lon="3.1146047">
<ele>5.40</ele>
<time>2016-10-19T13:17:19Z</time>
</trkpt>
<trkpt lat="39.7600060" lon="3.1148859">
<ele>6.94</ele>
<time>2016-10-19T13:17:23Z</time>
</trkpt>
<trkpt lat="39.7600081" lon="3.1151759">
<ele>8.64</ele>
<time>2016-10-19T13:17:27Z</time>
</trkpt>
<trkpt lat="39.7600145" lon="3.1154791">
<ele>9.51</ele>
<time>2016-10-19T13:17:31Z</time>
</trkpt>
<trkpt lat="39.7600226" lon="3.1157873">
<ele>10.58</ele>
<time>2016-10-19T13:17:35Z</time>
</trkpt>
<trkpt lat="39.7600147" lon="3.1160607">
<ele>11.82</ele>
<time>2016-10-19T13:17:39Z</time>
</trkpt>
<trkpt lat="39.7599938" lon="3.1163314">
<ele>10.34</ele>
<time>2016-10-19T13:17:43Z</time>
</trkpt>
<trkpt lat="39.7599786" lon="3.1166028">
<ele>9.19</ele>
<time>2016-10-19T13:17:47Z</time>
</trkpt>
<trkpt lat="39.7599716" lon="3.1169023">
<ele>9.35</ele>
<time>2016-10-19T13:17:51Z</time>
</trkpt>
<trkpt lat="39.7599869" lon="3.1171932">
<ele>11.30</ele>
<time>2016-10-19T13:17:55Z</time>
</trkpt>
<trkpt lat="39.7599920" lon="3.1174274">
<ele>13.35</ele>
<time>2016-10-19T13:17:59Z</time>
</trkpt>
<trkpt lat="39.7599992" lon="3.1176869">
<ele>14.84</ele>
<time>2016-10-19T13:18:03Z</time>
</trkpt>
<trkpt lat="39.7600055" lon="3.1179533">
<ele>16.40</ele>
<time>2016-10-19T13:18:07Z</time>
</trkpt>
<trkpt lat="39.7600074" lon="3.1182442">
<ele>16.93</ele>
<time>2016-10-19T13:18:11Z</time>
</trkpt>
<trkpt lat="39.7600054" lon="3.1185328">
<ele>17.72</ele>
<time>2016-10-19T13:18:15Z</time>
</trkpt>
<trkpt lat="39.7599999" lon="3.1188209">
<ele>18.10</ele>
<time>2016-10-19T13:18:19Z</time>
</trkpt>
<trkpt lat="39.7599947" lon="3.1191019">
<ele>18.45</ele>
<time>2016-10-19T13:18:23Z</time>
</trkpt>
<trkpt lat="39.7599891" lon="3.1193460">
<ele>17.61</ele>
<time>2016-10-19T13:18:27Z</time>
</trkpt>
<trkpt lat="39.7599792" lon="3.1196144">
<ele>17.52</ele>
<time>2016-10-19T13:18:31Z</time>
</trkpt>
<trkpt lat="39.7599733" lon="3.1198818">
<ele>18.59</ele>
<time>2016-10-19T13:18:36Z</time>
</trkpt>
<trkpt lat="39.7599882" lon="3.1201588">
<ele>20.23</ele>
<time>2016-10-19T13:18:41Z</time>
</trkpt>
<trkpt lat="39.7600399" lon="3.1204189">
<ele>20.37</ele>
<time>2016-10-19T13:18:46Z</time>
</trkpt>
<trkpt lat="39.7601356" lon="3.1206608">
<ele>20.93</ele>
<time>2016-10-19T13:18:51Z</time>
</trkpt>
<trkpt lat="39.7602724" lon="3.1208913">
<ele>19.48</ele>
<time>2016-10-19T13:18:56Z</time>
</trkpt>
<trkpt lat="39.7603806" lon="3.1210874">
<ele>18.75</ele>
<time>2016-10-19T13:19:00Z</time>
</trkpt>
<trkpt lat="39.7604833" lon="3.1213046">
<ele>19.70</ele>
<time>2016-10-19T13:19:05Z</time>
</trkpt>
<trkpt lat="39.7605555" lon="3.1215417">
<ele>20.81</ele>
<time>2016-10-19T13:19:10Z</time>
</trkpt>
<trkpt lat="39.7605829" lon="3.1218006">
<ele>22.71</ele>
<time>2016-10-19T13:19:15Z</time>
</trkpt>
<trkpt lat="39.7606237" lon="3.1220825">
<ele>24.23</ele>
<time>2016-10-19T13:19:20Z</time>
</trkpt>
<trkpt lat="39.7606961" lon="3.1223635">
<ele>25.04</ele>
<time>2016-10-19T13:19:24Z</time>
</trkpt>
<trkpt lat="39.7607580" lon="3.1225843">
<ele>24.33</ele>
<time>2016-10-19T13:19:27Z</time>
</trkpt>
<trkpt lat="39.7608301" lon="3.1228079">
<ele>22.93</ele>
<time>2016-10-19T13:19:30Z</time>
</trkpt>
<trkpt lat="39.7609053" lon="3.1230701">
<ele>22.04</ele>
<time>2016-10-19T13:19:33Z</time>
</trkpt>
<trkpt lat="39.7609955" lon="3.1233481">
<ele>22.48</ele>
<time>2016-10-19T13:19:36Z</time>
</trkpt>
<trkpt lat="39.7610712" lon="3.1236054">
<ele>22.93</ele>
<time>2016-10-19T13:19:39Z</time>
</trkpt>
<trkpt lat="39.7611561" lon="3.1238883">
<ele>23.29</ele>
<time>2016-10-19T13:19:42Z</time>
</trkpt>
<trkpt lat="39.7612384" lon="3.1241233">
<ele>22.52</ele>
<time>2016-10-19T13:19:45Z</time>
</trkpt>
<trkpt lat="39.7613426" lon="3.1244286">
<ele>20.85</ele>
<time>2016-10-19T13:19:48Z</time>
</trkpt>
<trkpt lat="39.7614353" lon="3.1247142">
<ele>19.70</ele>
<time>2016-10-19T13:19:51Z</time>
</trkpt>
<trkpt lat="39.7615201" lon="3.1249857">
<ele>20.16</ele>
<time>2016-10-19T13:19:54Z</time>
</trkpt>
<trkpt lat="39.7615967" lon="3.1252432">
<ele>21.01</ele>
<time>2016-10-19T13:19:57Z</time>
</trkpt>
<trkpt lat="39.7616540" lon="3.1254949">
<ele>20.26</ele>
<time>2016-10-19T13:20:00Z</time>
</trkpt>
<trkpt lat="39.7616927" lon="3.1257668">
<ele>19.63</ele>
<time>2016-10-19T13:20:03Z</time>
</trkpt>
<trkpt lat="39.7617176" lon="3.1260352">
<ele>18.49</ele>
<time>2016-10-19T13:20:06Z</time>
</trkpt>
<trkpt lat="39.7617413" lon="3.1263109">
<ele>19.13</ele>
<time>2016-10-19T13:20:09Z</time>
</trkpt>
<trkpt lat="39.7617967" lon="3.1265846">
<ele>18.97</ele>
<time>2016-10-19T13:20:12Z</time>
</trkpt>
<trkpt lat="39.7619376" lon="3.1268376">
<ele>18.70</ele>
<time>2016-10-19T13:20:15Z</time>
</trkpt>
<trkpt lat="39.7621000" lon="3.1270814">
<ele>18.25</ele>
<time>2016-10-19T13:20:19Z</time>
</trkpt>
<trkpt lat="39.7622784" lon="3.1273131">
<ele>17.83</ele>
<time>2016-10-19T13:20:22Z</time>
</trkpt>
<trkpt lat="39.7624439" lon="3.1275087">
<ele>16.41</ele>
<time>2016-10-19T13:20:25Z</time>
</trkpt>
<trkpt lat="39.7626056" lon="3.1276797">
<ele>16.02</ele>
<time>2016-10-19T13:20:28Z</time>
</trkpt>
<trkpt lat="39.7627789" lon="3.1278624">
<ele>14.88</ele>
<time>2016-10-19T13:20:31Z</time>
</trkpt>
<trkpt lat="39.7629426" lon="3.1280671">
<ele>14.06</ele>
<time>2016-10-19T13:20:34Z</time>
</trkpt>
<trkpt lat="39.7630698" lon="3.1283081">
<ele>14.69</ele>
<time>2016-10-19T13:20:37Z</time>
</trkpt>
<trkpt lat="39.7631927" lon="3.1285881">
<ele>15.20</ele>
<time>2016-10-19T13:20:40Z</time>
</trkpt>
<trkpt lat="39.7633094" lon="3.1288469">
<ele>15.49</ele>
<time>2016-10-19T13:20:43Z</time>
</trkpt>
<trkpt lat="39.7634144" lon="3.1290776">
<ele>16.02</ele>
<time>2016-10-19T13:20:46Z</time>
</trkpt>
<trkpt lat="39.7635167" lon="3.1292907">
<ele>16.61</ele>
<time>2016-10-19T13:20:49Z</time>
</trkpt>
<trkpt lat="39.7636211" lon="3.1295066">
<ele>17.37</ele>
<time>2016-10-19T13:20:52Z</time>
</trkpt>
<trkpt lat="39.7637179" lon="3.1297178">
<ele>17.38</ele>
<time>2016-10-19T13:20:55Z</time>
</trkpt>
<trkpt lat="39.7638164" lon="3.1299187">
<ele>17.03</ele>
<time>2016-10-19T13:20:58Z</time>
</trkpt>
<trkpt lat="39.7639221" lon="3.1301267">
<ele>16.74</ele>
<time>2016-10-19T13:21:01Z</time>
</trkpt>
<trkpt lat="39.7640303" lon="3.1303173">
<ele>16.86</ele>
<time>2016-10-19T13:21:04Z</time>
</trkpt>
<trkpt lat="39.7641878" lon="3.1305404">
<ele>16.92</ele>
<time>2016-10-19T13:21:08Z</time>
</trkpt>
<trkpt lat="39.7643400" lon="3.1307155">
<ele>16.55</ele>
<time>2016-10-19T13:21:11Z</time>
</trkpt>
<trkpt lat="39.7644846" lon="3.1308709">
<ele>16.52</ele>
<time>2016-10-19T13:21:14Z</time>
</trkpt>
<trkpt lat="39.7646643" lon="3.1310529">
<ele>15.51</ele>
<time>2016-10-19T13:21:18Z</time>
</trkpt>
<trkpt lat="39.7648385" lon="3.1312652">
<ele>16.14</ele>
<time>2016-10-19T13:21:22Z</time>
</trkpt>
<trkpt lat="39.7649909" lon="3.1314416">
<ele>14.70</ele>
<time>2016-10-19T13:21:25Z</time>
</trkpt>
<trkpt lat="39.7651354" lon="3.1315885">
<ele>13.85</ele>
<time>2016-10-19T13:21:28Z</time>
</trkpt>
<trkpt lat="39.7653128" lon="3.1317632">
<ele>13.20</ele>
<time>2016-10-19T13:21:32Z</time>
</trkpt>
<trkpt lat="39.7654874" lon="3.1319587">
<ele>12.79</ele>
<time>2016-10-19T13:21:36Z</time>
</trkpt>
<trkpt lat="39.7656267" lon="3.1321254">
<ele>14.80</ele>
<time>2016-10-19T13:21:39Z</time>
</trkpt>
<trkpt lat="39.7657861" lon="3.1323126">
<ele>16.60</ele>
<time>2016-10-19T13:21:42Z</time>
</trkpt>
<trkpt lat="39.7659387" lon="3.1324838">
<ele>16.05</ele>
<time>2016-10-19T13:21:45Z</time>
</trkpt>
<trkpt lat="39.7660947" lon="3.1326795">
<ele>16.62</ele>
<time>2016-10-19T13:21:48Z</time>
</trkpt>
<trkpt lat="39.7662469" lon="3.1328834">
<ele>18.59</ele>
<time>2016-10-19T13:21:51Z</time>
</trkpt>
<trkpt lat="39.7663936" lon="3.1330936">
<ele>19.53</ele>
<time>2016-10-19T13:21:54Z</time>
</trkpt>
<trkpt lat="39.7665375" lon="3.1333069">
<ele>17.66</ele>
<time>2016-10-19T13:21:57Z</time>
</trkpt>
<trkpt lat="39.7666780" lon="3.1335128">
<ele>15.58</ele>
<time>2016-10-19T13:22:00Z</time>
</trkpt>
<trkpt lat="39.7668279" lon="3.1337044">
<ele>15.30</ele>
<time>2016-10-19T13:22:03Z</time>
</trkpt>
<trkpt lat="39.7670080" lon="3.1339414">
<ele>13.76</ele>
<time>2016-10-19T13:22:06Z</time>
</trkpt>
<trkpt lat="39.7671887" lon="3.1341829">
<ele>13.48</ele>
<time>2016-10-19T13:22:09Z</time>
</trkpt>
<trkpt lat="39.7673648" lon="3.1344137">
<ele>13.35</ele>
<time>2016-10-19T13:22:12Z</time>
</trkpt>
<trkpt lat="39.7675141" lon="3.1346172">
<ele>12.96</ele>
<time>2016-10-19T13:22:15Z</time>
</trkpt>
<trkpt lat="39.7676481" lon="3.1347957">
<ele>11.55</ele>
<time>2016-10-19T13:22:18Z</time>
</trkpt>
<trkpt lat="39.7678058" lon="3.1350043">
<ele>10.95</ele>
<time>2016-10-19T13:22:21Z</time>
</trkpt>
<trkpt lat="39.7679495" lon="3.1351927">
<ele>10.65</ele>
<time>2016-10-19T13:22:24Z</time>
</trkpt>
<trkpt lat="39.7680972" lon="3.1353843">
<ele>10.55</ele>
<time>2016-10-19T13:22:27Z</time>
</trkpt>
<trkpt lat="39.7682566" lon="3.1355756">
<ele>10.08</ele>
<time>2016-10-19T13:22:30Z</time>
</trkpt>
<trkpt lat="39.7683974" lon="3.1357583">
<ele>10.88</ele>
<time>2016-10-19T13:22:33Z</time>
</trkpt>
<trkpt lat="39.7685384" lon="3.1359396">
<ele>11.04</ele>
<time>2016-10-19T13:22:36Z</time>
</trkpt>
<trkpt lat="39.7686800" lon="3.1361218">
<ele>10.31</ele>
<time>2016-10-19T13:22:39Z</time>
</trkpt>
<trkpt lat="39.7688172" lon="3.1363103">
<ele>9.94</ele>
<time>2016-10-19T13:22:42Z</time>
</trkpt>
<trkpt lat="39.7689566" lon="3.1364946">
<ele>9.93</ele>
<time>2016-10-19T13:22:45Z</time>
</trkpt>
<trkpt lat="39.7690881" lon="3.1366721">
<ele>9.33</ele>
<time>2016-10-19T13:22:48Z</time>
</trkpt>
<trkpt lat="39.7692425" lon="3.1368549">
<ele>9.45</ele>
<time>2016-10-19T13:22:51Z</time>
</trkpt>
<trkpt lat="39.7693838" lon="3.1370110">
<ele>8.70</ele>
<time>2016-10-19T13:22:54Z</time>
</trkpt>
<trkpt lat="39.7695645" lon="3.1372178">
<ele>7.29</ele>
<time>2016-10-19T13:22:58Z</time>
</trkpt>
<trkpt lat="39.7696981" lon="3.1373800">
<ele>5.77</ele>
<time>2016-10-19T13:23:01Z</time>
</trkpt>
<trkpt lat="39.7698402" lon="3.1375575">
<ele>3.96</ele>
<time>2016-10-19T13:23:05Z</time>
</trkpt>
<trkpt lat="39.7699578" lon="3.1377581">
<ele>3.49</ele>
<time>2016-10-19T13:23:09Z</time>
</trkpt>
<trkpt lat="39.7700744" lon="3.1380368">
<ele>6.17</ele>
<time>2016-10-19T13:23:13Z</time>
</trkpt>
<trkpt lat="39.7701652" lon="3.1382733">
<ele>6.66</ele>
<time>2016-10-19T13:23:16Z</time>
</trkpt>
<trkpt lat="39.7702499" lon="3.1384858">
<ele>7.29</ele>
<time>2016-10-19T13:23:19Z</time>
</trkpt>
<trkpt lat="39.7703566" lon="3.1387237">
<ele>6.32</ele>
<time>2016-10-19T13:23:22Z</time>
</trkpt>
<trkpt lat="39.7704442" lon="3.1389739">
<ele>6.62</ele>
<time>2016-10-19T13:23:25Z</time>
</trkpt>
<trkpt lat="39.7705154" lon="3.1392015">
<ele>9.08</ele>
<time>2016-10-19T13:23:28Z</time>
</trkpt>
<trkpt lat="39.7705642" lon="3.1394341">
<ele>11.23</ele>
<time>2016-10-19T13:23:31Z</time>
</trkpt>
<trkpt lat="39.7706171" lon="3.1396762">
<ele>13.66</ele>
<time>2016-10-19T13:23:34Z</time>
</trkpt>
<trkpt lat="39.7706520" lon="3.1399131">
<ele>16.48</ele>
<time>2016-10-19T13:23:37Z</time>
</trkpt>
<trkpt lat="39.7706834" lon="3.1401646">
<ele>17.19</ele>
<time>2016-10-19T13:23:40Z</time>
</trkpt>
<trkpt lat="39.7707124" lon="3.1404204">
<ele>16.79</ele>
<time>2016-10-19T13:23:44Z</time>
</trkpt>
<trkpt lat="39.7707124" lon="3.1407227">
<ele>15.35</ele>
<time>2016-10-19T13:23:57Z</time>
</trkpt>
<trkpt lat="39.7706850" lon="3.1409553">
<ele>13.20</ele>
<time>2016-10-19T13:24:01Z</time>
</trkpt>
<trkpt lat="39.7708041" lon="3.1411492">
<ele>11.34</ele>
<time>2016-10-19T13:24:06Z</time>
</trkpt>
<trkpt lat="39.7709659" lon="3.1412715">
<ele>8.64</ele>
<time>2016-10-19T13:24:10Z</time>
</trkpt>
<trkpt lat="39.7710985" lon="3.1415045">
<ele>6.96</ele>
<time>2016-10-19T13:24:14Z</time>
</trkpt>
<trkpt lat="39.7712133" lon="3.1417632">
<ele>6.36</ele>
<time>2016-10-19T13:24:17Z</time>
</trkpt>
<trkpt lat="39.7713021" lon="3.1420088">
<ele>7.06</ele>
<time>2016-10-19T13:24:21Z</time>
</trkpt>
<trkpt lat="39.7712791" lon="3.1422817">
<ele>7.05</ele>
<time>2016-10-19T13:24:28Z</time>
</trkpt>
<trkpt lat="39.7711604" lon="3.1425218">
<ele>6.81</ele>
<time>2016-10-19T13:24:33Z</time>
</trkpt>
<trkpt lat="39.7709958" lon="3.1426833">
<ele>6.53</ele>
<time>2016-10-19T13:24:39Z</time>
</trkpt>
<trkpt lat="39.7708637" lon="3.1428592">
<ele>6.63</ele>
<time>2016-10-19T13:24:48Z</time>
</trkpt>
<trkpt lat="39.7707368" lon="3.1430331">
<ele>7.16</ele>
<time>2016-10-19T13:25:04Z</time>
</trkpt>
<trkpt lat="39.7705740" lon="3.1431926">
<ele>7.89</ele>
<time>2016-10-19T13:25:12Z</time>
</trkpt>
<trkpt lat="39.7704351" lon="3.1433653">
<ele>8.86</ele>
<time>2016-10-19T13:25:18Z</time>
</trkpt>
<trkpt lat="39.7702872" lon="3.1435206">
<ele>9.57</ele>
<time>2016-10-19T13:25:23Z</time>
</trkpt>
<trkpt lat="39.7701299" lon="3.1436519">
<ele>10.09</ele>
<time>2016-10-19T13:25:28Z</time>
</trkpt>
<trkpt lat="39.7699611" lon="3.1437920">
<ele>10.37</ele>
<time>2016-10-19T13:25:33Z</time>
</trkpt>
<trkpt lat="39.7698106" lon="3.1439376">
<ele>10.72</ele>
<time>2016-10-19T13:25:38Z</time>
</trkpt>
<trkpt lat="39.7696448" lon="3.1441151">
<ele>9.83</ele>
<time>2016-10-19T13:25:43Z</time>
</trkpt>
<trkpt lat="39.7695063" lon="3.1442644">
<ele>9.94</ele>
<time>2016-10-19T13:25:47Z</time>
</trkpt>
<trkpt lat="39.7693510" lon="3.1444248">
<ele>9.15</ele>
<time>2016-10-19T13:25:52Z</time>
</trkpt>
<trkpt lat="39.7691935" lon="3.1445756">
<ele>9.71</ele>
<time>2016-10-19T13:25:57Z</time>
</trkpt>
<trkpt lat="39.7690149" lon="3.1447382">
<ele>8.56</ele>
<time>2016-10-19T13:26:02Z</time>
</trkpt>
<trkpt lat="39.7688440" lon="3.1449114">
<ele>7.16</ele>
<time>2016-10-19T13:26:07Z</time>
</trkpt>
<trkpt lat="39.7686754" lon="3.1450922">
<ele>6.22</ele>
<time>2016-10-19T13:26:12Z</time>
</trkpt>
<trkpt lat="39.7685074" lon="3.1452521">
<ele>6.88</ele>
<time>2016-10-19T13:26:17Z</time>
</trkpt>
<trkpt lat="39.7683422" lon="3.1454152">
<ele>5.97</ele>
<time>2016-10-19T13:26:22Z</time>
</trkpt>
<trkpt lat="39.7681750" lon="3.1455762">
<ele>4.75</ele>
<time>2016-10-19T13:26:27Z</time>
</trkpt>
<trkpt lat="39.7680232" lon="3.1457378">
<ele>5.06</ele>
<time>2016-10-19T13:26:32Z</time>
</trkpt>
<trkpt lat="39.7678617" lon="3.1458910">
<ele>5.59</ele>
<time>2016-10-19T13:26:37Z</time>
</trkpt>
<trkpt lat="39.7676982" lon="3.1460586">
<ele>6.34</ele>
<time>2016-10-19T13:26:43Z</time>
</trkpt>
<trkpt lat="39.7675470" lon="3.1462361">
<ele>8.75</ele>
<time>2016-10-19T13:26:48Z</time>
</trkpt>
<trkpt lat="39.7674168" lon="3.1463985">
<ele>8.59</ele>
<time>2016-10-19T13:26:53Z</time>
</trkpt>
<trkpt lat="39.7672510" lon="3.1465589">
<ele>9.12</ele>
<time>2016-10-19T13:26:58Z</time>
</trkpt>
<trkpt lat="39.7670985" lon="3.1467071">
<ele>10.66</ele>
<time>2016-10-19T13:27:02Z</time>
</trkpt>
<trkpt lat="39.7669786" lon="3.1468913">
<ele>11.43</ele>
<time>2016-10-19T13:27:09Z</time>
</trkpt>
<trkpt lat="39.7668535" lon="3.1466980">
<ele>15.40</ele>
<time>2016-10-19T13:28:13Z</time>
</trkpt>
<trkpt lat="39.7669270" lon="3.1469247">
<ele>13.67</ele>
<time>2016-10-19T13:31:45Z</time>
</trkpt>
<trkpt lat="39.7671230" lon="3.1469120">
<ele>13.40</ele>
<time>2016-10-19T13:32:05Z</time>
</trkpt>
<trkpt lat="39.7672978" lon="3.1468180">
<ele>12.22</ele>
<time>2016-10-19T13:32:15Z</time>
</trkpt>
<trkpt lat="39.7674805" lon="3.1468203">
<ele>11.36</ele>
<time>2016-10-19T13:32:33Z</time>
</trkpt>
<trkpt lat="39.7676497" lon="3.1469919">
<ele>14.31</ele>
<time>2016-10-19T13:32:39Z</time>
</trkpt>
<trkpt lat="39.7677907" lon="3.1471636">
<ele>15.09</ele>
<time>2016-10-19T13:32:45Z</time>
</trkpt>
<trkpt lat="39.7679632" lon="3.1473150">
<ele>15.63</ele>
<time>2016-10-19T13:32:52Z</time>
</trkpt>
<trkpt lat="39.7681106" lon="3.1475047">
<ele>16.81</ele>
<time>2016-10-19T13:32:58Z</time>
</trkpt>
<trkpt lat="39.7682369" lon="3.1477042">
<ele>16.83</ele>
<time>2016-10-19T13:33:08Z</time>
</trkpt>
<trkpt lat="39.7683697" lon="3.1479235">
<ele>14.61</ele>
<time>2016-10-19T13:33:13Z</time>
</trkpt>
<trkpt lat="39.7684914" lon="3.1481118">
<ele>9.31</ele>
<time>2016-10-19T13:33:18Z</time>
</trkpt>
<trkpt lat="39.7686260" lon="3.1482700">
<ele>8.14</ele>
<time>2016-10-19T13:33:22Z</time>
</trkpt>
<trkpt lat="39.7687572" lon="3.1484364">
<ele>9.92</ele>
<time>2016-10-19T13:33:26Z</time>
</trkpt>
<trkpt lat="39.7688619" lon="3.1486275">
<ele>11.13</ele>
<time>2016-10-19T13:33:31Z</time>
</trkpt>
<trkpt lat="39.7690065" lon="3.1487891">
<ele>11.72</ele>
<time>2016-10-19T13:33:38Z</time>
</trkpt>
<trkpt lat="39.7692046" lon="3.1487699">
<ele>8.66</ele>
<time>2016-10-19T13:34:07Z</time>
</trkpt>
<trkpt lat="39.7693403" lon="3.1486110">
<ele>7.15</ele>
<time>2016-10-19T13:34:13Z</time>
</trkpt>
<trkpt lat="39.7695008" lon="3.1484853">
<ele>5.98</ele>
<time>2016-10-19T13:34:19Z</time>
</trkpt>
<trkpt lat="39.7696666" lon="3.1486234">
<ele>5.50</ele>
<time>2016-10-19T13:34:24Z</time>
</trkpt>
<trkpt lat="39.7698161" lon="3.1487598">
<ele>5.51</ele>
<time>2016-10-19T13:34:30Z</time>
</trkpt>
<trkpt lat="39.7699446" lon="3.1489709">
<ele>5.66</ele>
<time>2016-10-19T13:34:37Z</time>
</trkpt>
<trkpt lat="39.7700618" lon="3.1491796">
<ele>6.24</ele>
<time>2016-10-19T13:34:46Z</time>
</trkpt>
<trkpt lat="39.7700593" lon="3.1494300">
<ele>7.12</ele>
<time>2016-10-19T13:35:01Z</time>
</trkpt>
<trkpt lat="39.7698963" lon="3.1495748">
<ele>5.85</ele>
<time>2016-10-19T14:24:57Z</time>
</trkpt>
<trkpt lat="39.7697467" lon="3.1497516">
<ele>6.54</ele>
<time>2016-10-19T14:25:03Z</time>
</trkpt>
<trkpt lat="39.7695859" lon="3.1499186">
<ele>6.69</ele>
<time>2016-10-19T14:25:09Z</time>
</trkpt>
<trkpt lat="39.7694686" lon="3.1501041">
<ele>6.60</ele>
<time>2016-10-19T14:25:16Z</time>
</trkpt>
<trkpt lat="39.7693303" lon="3.1503010">
<ele>6.81</ele>
<time>2016-10-19T14:25:23Z</time>
</trkpt>
<trkpt lat="39.7691578" lon="3.1503866">
<ele>7.05</ele>
<time>2016-10-19T14:25:36Z</time>
</trkpt>
<trkpt lat="39.7690257" lon="3.1502160">
<ele>7.34</ele>
<time>2016-10-19T14:25:43Z</time>
</trkpt>
<trkpt lat="39.7688882" lon="3.1500625">
<ele>7.68</ele>
<time>2016-10-19T14:25:50Z</time>
</trkpt>
<trkpt lat="39.7687839" lon="3.1498608">
<ele>8.17</ele>
<time>2016-10-19T14:25:58Z</time>
</trkpt>
<trkpt lat="39.7686403" lon="3.1496813">
<ele>8.53</ele>
<time>2016-10-19T14:26:09Z</time>
</trkpt>
<trkpt lat="39.7684726" lon="3.1495231">
<ele>8.96</ele>
<time>2016-10-19T14:26:19Z</time>
</trkpt>
<trkpt lat="39.7683056" lon="3.1493798">
<ele>8.85</ele>
<time>2016-10-19T14:26:28Z</time>
</trkpt>
<trkpt lat="39.7681984" lon="3.1491879">
<ele>9.90</ele>
<time>2016-10-19T14:26:45Z</time>
</trkpt>
<trkpt lat="39.7680672" lon="3.1490260">
<ele>10.16</ele>
<time>2016-10-19T14:27:00Z</time>
</trkpt>
<trkpt lat="39.7679347" lon="3.1488590">
<ele>11.64</ele>
<time>2016-10-19T14:27:21Z</time>
</trkpt>
<trkpt lat="39.7678045" lon="3.1486924">
<ele>12.11</ele>
<time>2016-10-19T14:27:37Z</time>
</trkpt>
<trkpt lat="39.7676586" lon="3.1485309">
<ele>11.48</ele>
<time>2016-10-19T14:27:52Z</time>
</trkpt>
<trkpt lat="39.7675510" lon="3.1483327">
<ele>12.53</ele>
<time>2016-10-19T14:28:06Z</time>
</trkpt>
<trkpt lat="39.7674263" lon="3.1481555">
<ele>13.00</ele>
<time>2016-10-19T14:28:23Z</time>
</trkpt>
<trkpt lat="39.7673116" lon="3.1479604">
<ele>13.73</ele>
<time>2016-10-19T14:28:44Z</time>
</trkpt>
<trkpt lat="39.7672106" lon="3.1477647">
<ele>11.43</ele>
<time>2016-10-19T14:30:13Z</time>
</trkpt>
<trkpt lat="39.7670584" lon="3.1476371">
<ele>10.70</ele>
<time>2016-10-19T14:30:30Z</time>
</trkpt>
<trkpt lat="39.7669396" lon="3.1474485">
<ele>11.70</ele>
<time>2016-10-19T14:30:46Z</time>
</trkpt>
<trkpt lat="39.7667807" lon="3.1473324">
<ele>10.12</ele>
<time>2016-10-19T14:31:07Z</time>
</trkpt>
<trkpt lat="39.7665841" lon="3.1473379">
<ele>10.89</ele>
<time>2016-10-19T14:31:24Z</time>
</trkpt>
<trkpt lat="39.7664202" lon="3.1475071">
<ele>12.62</ele>
<time>2016-10-19T14:31:30Z</time>
</trkpt>
<trkpt lat="39.7662760" lon="3.1476822">
<ele>15.85</ele>
<time>2016-10-19T14:31:35Z</time>
</trkpt>
<trkpt lat="39.7661166" lon="3.1478520">
<ele>19.61</ele>
<time>2016-10-19T14:31:40Z</time>
</trkpt>
<trkpt lat="39.7659753" lon="3.1480053">
<ele>19.49</ele>
<time>2016-10-19T14:31:45Z</time>
</trkpt>
<trkpt lat="39.7658136" lon="3.1481700">
<ele>19.36</ele>
<time>2016-10-19T14:31:50Z</time>
</trkpt>
<trkpt lat="39.7656112" lon="3.1482212">
<ele>18.91</ele>
<time>2016-10-19T14:31:56Z</time>
</trkpt>
<trkpt lat="39.7654286" lon="3.1481614">
<ele>8.58</ele>
<time>2016-10-19T14:36:48Z</time>
</trkpt>
<trkpt lat="39.7656037" lon="3.1480919">
<ele>5.09</ele>
<time>2016-10-19T14:40:11Z</time>
</trkpt>
<trkpt lat="39.7654900" lon="3.1477680">
<ele>12.51</ele>
<time>2016-10-19T14:49:33Z</time>
</trkpt>
<trkpt lat="39.7654298" lon="3.1475430">
<ele>0.11</ele>
<time>2016-10-19T14:49:58Z</time>
</trkpt>
<trkpt lat="39.7655446" lon="3.1477262">
<ele>0.71</ele>
<time>2016-10-19T14:51:21Z</time>
</trkpt>
<trkpt lat="39.7655500" lon="3.1479655">
<ele>0.76</ele>
<time>2016-10-19T14:54:02Z</time>
</trkpt>
<trkpt lat="39.7653709" lon="3.1479322">
<ele>7.67</ele>
<time>2016-10-19T14:55:17Z</time>
</trkpt>
<trkpt lat="39.7654528" lon="3.1477190">
<ele>4.08</ele>
<time>2016-10-19T14:55:53Z</time>
</trkpt>
<trkpt lat="39.7656333" lon="3.1477017">
<ele>-0.07</ele>
<time>2016-10-19T14:56:15Z</time>
</trkpt>
<trkpt lat="39.7657372" lon="3.1475002">
<ele>3.45</ele>
<time>2016-10-19T14:56:37Z</time>
</trkpt>
<trkpt lat="39.7658482" lon="3.1473139">
<ele>6.35</ele>
<time>2016-10-19T14:56:59Z</time>
</trkpt>
</trkseg>
</trk>
</gpx>
